<?xml version="1.0" encoding="UTF-8" standalone="no" ?>
<gpx xmlns="http://www.topografix.com/GPX/1/1" xmlns:xsi="http://www.w3.org/2001/XMLSchema-instance" xsi:schemaLocation="http://www.topografix.com/GPX/1/1 http://www.topografix.com/GPX/1/1/gpx.xsd" version="1.1" creator="VisuGPX - https://www.visugpx.com">
  <metadata>
    <name>sortie du dimanche 21 mai 2017</name>
    <desc><![CDATA[Sortie VTT du parcours des 30 kms de la Beauvais Bike]]></desc>
  </metadata>
  <trk>
    <name><![CDATA[sortie du dimanche 21 mai 2017_1]]></name>
    <trkseg>
      <trkpt lat="49.45596" lon="2.06327">
        <ele>83.603073120117</ele>
        <time>2017-05-21T06:39:54.000Z</time>
      </trkpt>
      <trkpt lat="49.45595" lon="2.06329">
        <ele>83.754974365234</ele>
        <time>2017-05-21T06:40:04.000Z</time>
      </trkpt>
      <trkpt lat="49.45596" lon="2.06328">
        <ele>83.77286529541</ele>
        <time>2017-05-21T06:40:22.000Z</time>
      </trkpt>
      <trkpt lat="49.45599" lon="2.06328">
        <ele>83.727897644043</ele>
        <time>2017-05-21T06:40:24.000Z</time>
      </trkpt>
      <trkpt lat="49.45604" lon="2.06327">
        <ele>83.652114868164</ele>
        <time>2017-05-21T06:40:26.000Z</time>
      </trkpt>
      <trkpt lat="49.45609" lon="2.0633">
        <ele>83.617637634277</ele>
        <time>2017-05-21T06:40:29.000Z</time>
      </trkpt>
      <trkpt lat="49.45611" lon="2.06338">
        <ele>83.736511230469</ele>
        <time>2017-05-21T06:40:32.000Z</time>
      </trkpt>
      <trkpt lat="49.45612" lon="2.06347">
        <ele>84.167465209961</ele>
        <time>2017-05-21T06:40:35.000Z</time>
      </trkpt>
      <trkpt lat="49.45613" lon="2.06352">
        <ele>84.781150817871</ele>
        <time>2017-05-21T06:40:37.000Z</time>
      </trkpt>
      <trkpt lat="49.45615" lon="2.0636">
        <ele>85.691902160645</ele>
        <time>2017-05-21T06:40:40.000Z</time>
      </trkpt>
      <trkpt lat="49.45614" lon="2.06367">
        <ele>86.835990905762</ele>
        <time>2017-05-21T06:40:43.000Z</time>
      </trkpt>
      <trkpt lat="49.4561" lon="2.06372">
        <ele>87.984329223633</ele>
        <time>2017-05-21T06:40:46.000Z</time>
      </trkpt>
      <trkpt lat="49.45607" lon="2.06374">
        <ele>88.944725036621</ele>
        <time>2017-05-21T06:40:48.000Z</time>
      </trkpt>
      <trkpt lat="49.456" lon="2.06376">
        <ele>89.916687011719</ele>
        <time>2017-05-21T06:40:51.000Z</time>
      </trkpt>
      <trkpt lat="49.45596" lon="2.06377">
        <ele>90.741287231445</ele>
        <time>2017-05-21T06:40:53.000Z</time>
      </trkpt>
      <trkpt lat="49.45592" lon="2.06378">
        <ele>91.401260375977</ele>
        <time>2017-05-21T06:40:55.000Z</time>
      </trkpt>
      <trkpt lat="49.45586" lon="2.06379">
        <ele>91.97688293457</ele>
        <time>2017-05-21T06:40:58.000Z</time>
      </trkpt>
      <trkpt lat="49.45583" lon="2.0638">
        <ele>92.518592834473</ele>
        <time>2017-05-21T06:41:00.000Z</time>
      </trkpt>
      <trkpt lat="49.45578" lon="2.06378">
        <ele>92.885848999023</ele>
        <time>2017-05-21T06:41:03.000Z</time>
      </trkpt>
      <trkpt lat="49.45575" lon="2.06376">
        <ele>93.113304138184</ele>
        <time>2017-05-21T06:41:05.000Z</time>
      </trkpt>
      <trkpt lat="49.45571" lon="2.06375">
        <ele>93.277420043945</ele>
        <time>2017-05-21T06:41:07.000Z</time>
      </trkpt>
      <trkpt lat="49.45565" lon="2.06374">
        <ele>93.342224121094</ele>
        <time>2017-05-21T06:41:10.000Z</time>
      </trkpt>
      <trkpt lat="49.45561" lon="2.06372">
        <ele>93.29175567627</ele>
        <time>2017-05-21T06:41:12.000Z</time>
      </trkpt>
      <trkpt lat="49.45556" lon="2.06369">
        <ele>93.197509765625</ele>
        <time>2017-05-21T06:41:15.000Z</time>
      </trkpt>
      <trkpt lat="49.45554" lon="2.06368">
        <ele>93.133628845215</ele>
        <time>2017-05-21T06:41:17.000Z</time>
      </trkpt>
      <trkpt lat="49.45547" lon="2.06369">
        <ele>93.160522460938</ele>
        <time>2017-05-21T06:41:20.000Z</time>
      </trkpt>
      <trkpt lat="49.45546" lon="2.06377">
        <ele>93.516822814941</ele>
        <time>2017-05-21T06:41:23.000Z</time>
      </trkpt>
      <trkpt lat="49.45547" lon="2.06384">
        <ele>94.168632507324</ele>
        <time>2017-05-21T06:41:25.000Z</time>
      </trkpt>
      <trkpt lat="49.45548" lon="2.06392">
        <ele>95.188507080078</ele>
        <time>2017-05-21T06:41:28.000Z</time>
      </trkpt>
      <trkpt lat="49.45549" lon="2.06396">
        <ele>96.378005981445</ele>
        <time>2017-05-21T06:41:30.000Z</time>
      </trkpt>
      <trkpt lat="49.45554" lon="2.06402">
        <ele>97.607261657715</ele>
        <time>2017-05-21T06:41:33.000Z</time>
      </trkpt>
      <trkpt lat="49.45559" lon="2.06405">
        <ele>98.505722045898</ele>
        <time>2017-05-21T06:41:36.000Z</time>
      </trkpt>
      <trkpt lat="49.45564" lon="2.06406">
        <ele>99.137184143066</ele>
        <time>2017-05-21T06:41:39.000Z</time>
      </trkpt>
      <trkpt lat="49.45568" lon="2.06409">
        <ele>99.520401000977</ele>
        <time>2017-05-21T06:41:42.000Z</time>
      </trkpt>
      <trkpt lat="49.4557" lon="2.06412">
        <ele>99.811172485352</ele>
        <time>2017-05-21T06:41:44.000Z</time>
      </trkpt>
      <trkpt lat="49.4557" lon="2.06416">
        <ele>100.09851074219</ele>
        <time>2017-05-21T06:41:47.000Z</time>
      </trkpt>
      <trkpt lat="49.45569" lon="2.06419">
        <ele>100.48685455322</ele>
        <time>2017-05-21T06:41:49.000Z</time>
      </trkpt>
      <trkpt lat="49.45569" lon="2.06423">
        <ele>101.03369140625</ele>
        <time>2017-05-21T06:41:51.000Z</time>
      </trkpt>
      <trkpt lat="49.4557" lon="2.06427">
        <ele>101.64322662354</ele>
        <time>2017-05-21T06:41:53.000Z</time>
      </trkpt>
      <trkpt lat="49.45571" lon="2.06432">
        <ele>102.36595153809</ele>
        <time>2017-05-21T06:41:56.000Z</time>
      </trkpt>
      <trkpt lat="49.45571" lon="2.06436">
        <ele>103.08172607422</ele>
        <time>2017-05-21T06:41:58.000Z</time>
      </trkpt>
      <trkpt lat="49.45571" lon="2.0644">
        <ele>103.799659729</ele>
        <time>2017-05-21T06:42:00.000Z</time>
      </trkpt>
      <trkpt lat="49.45571" lon="2.06444">
        <ele>104.52722167969</ele>
        <time>2017-05-21T06:42:02.000Z</time>
      </trkpt>
      <trkpt lat="49.45572" lon="2.0645">
        <ele>105.35040283203</ele>
        <time>2017-05-21T06:42:05.000Z</time>
      </trkpt>
      <trkpt lat="49.45571" lon="2.06455">
        <ele>106.16567230225</ele>
        <time>2017-05-21T06:42:07.000Z</time>
      </trkpt>
      <trkpt lat="49.45573" lon="2.0646">
        <ele>107.01084136963</ele>
        <time>2017-05-21T06:42:10.000Z</time>
      </trkpt>
      <trkpt lat="49.45574" lon="2.0646">
        <ele>107.69079589844</ele>
        <time>2017-05-21T06:42:13.000Z</time>
      </trkpt>
      <trkpt lat="49.45576" lon="2.06465">
        <ele>108.35031890869</ele>
        <time>2017-05-21T06:42:16.000Z</time>
      </trkpt>
      <trkpt lat="49.45577" lon="2.06468">
        <ele>108.86755371094</ele>
        <time>2017-05-21T06:42:18.000Z</time>
      </trkpt>
      <trkpt lat="49.45578" lon="2.06469">
        <ele>109.26816558838</ele>
        <time>2017-05-21T06:42:28.000Z</time>
      </trkpt>
      <trkpt lat="49.4558" lon="2.06476">
        <ele>109.719581604</ele>
        <time>2017-05-21T06:42:31.000Z</time>
      </trkpt>
      <trkpt lat="49.4558" lon="2.06481">
        <ele>110.38010406494</ele>
        <time>2017-05-21T06:42:34.000Z</time>
      </trkpt>
      <trkpt lat="49.4558" lon="2.06488">
        <ele>111.13391113281</ele>
        <time>2017-05-21T06:42:37.000Z</time>
      </trkpt>
      <trkpt lat="49.4558" lon="2.06493">
        <ele>112.01804351807</ele>
        <time>2017-05-21T06:42:40.000Z</time>
      </trkpt>
      <trkpt lat="49.45578" lon="2.06496">
        <ele>112.98525238037</ele>
        <time>2017-05-21T06:42:42.000Z</time>
      </trkpt>
      <trkpt lat="49.45576" lon="2.06498">
        <ele>113.83734130859</ele>
        <time>2017-05-21T06:42:44.000Z</time>
      </trkpt>
      <trkpt lat="49.45574" lon="2.06501">
        <ele>114.61930084229</ele>
        <time>2017-05-21T06:42:47.000Z</time>
      </trkpt>
      <trkpt lat="49.45572" lon="2.06505">
        <ele>115.25859069824</ele>
        <time>2017-05-21T06:42:50.000Z</time>
      </trkpt>
      <trkpt lat="49.45572" lon="2.06505">
        <ele>115.70524597168</ele>
        <time>2017-05-21T06:42:52.000Z</time>
      </trkpt>
      <trkpt lat="49.4557" lon="2.06503">
        <ele>116.02282714844</ele>
        <time>2017-05-21T06:42:55.000Z</time>
      </trkpt>
      <trkpt lat="49.45568" lon="2.06499">
        <ele>116.19710540771</ele>
        <time>2017-05-21T06:42:58.000Z</time>
      </trkpt>
      <trkpt lat="49.45567" lon="2.06493">
        <ele>116.05601501465</ele>
        <time>2017-05-21T06:43:01.000Z</time>
      </trkpt>
      <trkpt lat="49.45562" lon="2.06484">
        <ele>115.58796691895</ele>
        <time>2017-05-21T06:43:04.000Z</time>
      </trkpt>
      <trkpt lat="49.45558" lon="2.06479">
        <ele>114.99731445312</ele>
        <time>2017-05-21T06:43:06.000Z</time>
      </trkpt>
      <trkpt lat="49.45552" lon="2.0647">
        <ele>114.17751312256</ele>
        <time>2017-05-21T06:43:09.000Z</time>
      </trkpt>
      <trkpt lat="49.4555" lon="2.06465">
        <ele>113.23818206787</ele>
        <time>2017-05-21T06:43:12.000Z</time>
      </trkpt>
      <trkpt lat="49.4555" lon="2.0646">
        <ele>112.34423828125</ele>
        <time>2017-05-21T06:43:14.000Z</time>
      </trkpt>
      <trkpt lat="49.45546" lon="2.06457">
        <ele>111.63757324219</ele>
        <time>2017-05-21T06:43:17.000Z</time>
      </trkpt>
      <trkpt lat="49.45538" lon="2.06457">
        <ele>111.16046142578</ele>
        <time>2017-05-21T06:43:20.000Z</time>
      </trkpt>
      <trkpt lat="49.45531" lon="2.06458">
        <ele>111.08420562744</ele>
        <time>2017-05-21T06:43:23.000Z</time>
      </trkpt>
      <trkpt lat="49.45527" lon="2.06457">
        <ele>111.19460296631</ele>
        <time>2017-05-21T06:43:25.000Z</time>
      </trkpt>
      <trkpt lat="49.4552" lon="2.06454">
        <ele>111.47302246094</ele>
        <time>2017-05-21T06:43:28.000Z</time>
      </trkpt>
      <trkpt lat="49.45514" lon="2.06451">
        <ele>111.80438232422</ele>
        <time>2017-05-21T06:43:31.000Z</time>
      </trkpt>
      <trkpt lat="49.45511" lon="2.06455">
        <ele>112.19006347656</ele>
        <time>2017-05-21T06:43:33.000Z</time>
      </trkpt>
      <trkpt lat="49.45509" lon="2.06462">
        <ele>112.71530914307</ele>
        <time>2017-05-21T06:43:36.000Z</time>
      </trkpt>
      <trkpt lat="49.45506" lon="2.0647">
        <ele>113.53955078125</ele>
        <time>2017-05-21T06:43:39.000Z</time>
      </trkpt>
      <trkpt lat="49.45504" lon="2.06474">
        <ele>114.50469970703</ele>
        <time>2017-05-21T06:43:42.000Z</time>
      </trkpt>
      <trkpt lat="49.45504" lon="2.06474">
        <ele>114.50469970703</ele>
        <time>2017-05-21T06:44:02.000Z</time>
      </trkpt>
      <trkpt lat="49.45505" lon="2.06471">
        <ele>115.38791656494</ele>
        <time>2017-05-21T06:44:04.000Z</time>
      </trkpt>
      <trkpt lat="49.45505" lon="2.06469">
        <ele>116.00817871094</ele>
        <time>2017-05-21T06:44:07.000Z</time>
      </trkpt>
      <trkpt lat="49.45506" lon="2.06467">
        <ele>116.22631835938</ele>
        <time>2017-05-21T06:44:10.000Z</time>
      </trkpt>
      <trkpt lat="49.45506" lon="2.06466">
        <ele>116.0615234375</ele>
        <time>2017-05-21T06:44:12.000Z</time>
      </trkpt>
      <trkpt lat="49.45505" lon="2.06464">
        <ele>115.71685791016</ele>
        <time>2017-05-21T06:44:15.000Z</time>
      </trkpt>
      <trkpt lat="49.45506" lon="2.06466">
        <ele>115.50500488281</ele>
        <time>2017-05-21T06:44:21.000Z</time>
      </trkpt>
      <trkpt lat="49.45507" lon="2.06468">
        <ele>115.42783355713</ele>
        <time>2017-05-21T06:44:24.000Z</time>
      </trkpt>
      <trkpt lat="49.45507" lon="2.06469">
        <ele>115.49472808838</ele>
        <time>2017-05-21T06:44:31.000Z</time>
      </trkpt>
      <trkpt lat="49.45506" lon="2.06469">
        <ele>115.63568115234</ele>
        <time>2017-05-21T06:44:34.000Z</time>
      </trkpt>
      <trkpt lat="49.45503" lon="2.0647">
        <ele>115.88092041016</ele>
        <time>2017-05-21T06:44:48.000Z</time>
      </trkpt>
      <trkpt lat="49.45502" lon="2.0647">
        <ele>116.09853363037</ele>
        <time>2017-05-21T06:44:52.000Z</time>
      </trkpt>
      <trkpt lat="49.455" lon="2.06472">
        <ele>116.37524414062</ele>
        <time>2017-05-21T06:44:55.000Z</time>
      </trkpt>
      <trkpt lat="49.45499" lon="2.06473">
        <ele>116.63128662109</ele>
        <time>2017-05-21T06:44:57.000Z</time>
      </trkpt>
      <trkpt lat="49.45499" lon="2.06475">
        <ele>116.93127441406</ele>
        <time>2017-05-21T06:45:00.000Z</time>
      </trkpt>
      <trkpt lat="49.45501" lon="2.06473">
        <ele>117.07802581787</ele>
        <time>2017-05-21T06:45:02.000Z</time>
      </trkpt>
      <trkpt lat="49.45504" lon="2.06469">
        <ele>116.96743011475</ele>
        <time>2017-05-21T06:45:04.000Z</time>
      </trkpt>
      <trkpt lat="49.45508" lon="2.06468">
        <ele>116.67977142334</ele>
        <time>2017-05-21T06:45:07.000Z</time>
      </trkpt>
      <trkpt lat="49.45513" lon="2.06475">
        <ele>116.52445220947</ele>
        <time>2017-05-21T06:45:10.000Z</time>
      </trkpt>
      <trkpt lat="49.45519" lon="2.06475">
        <ele>116.19985198975</ele>
        <time>2017-05-21T06:45:12.000Z</time>
      </trkpt>
      <trkpt lat="49.45526" lon="2.06473">
        <ele>115.77829742432</ele>
        <time>2017-05-21T06:45:14.000Z</time>
      </trkpt>
      <trkpt lat="49.45529" lon="2.06474">
        <ele>115.55307769775</ele>
        <time>2017-05-21T06:45:17.000Z</time>
      </trkpt>
      <trkpt lat="49.45531" lon="2.06479">
        <ele>115.55661773682</ele>
        <time>2017-05-21T06:45:19.000Z</time>
      </trkpt>
      <trkpt lat="49.45534" lon="2.06485">
        <ele>115.56691741943</ele>
        <time>2017-05-21T06:45:22.000Z</time>
      </trkpt>
      <trkpt lat="49.45538" lon="2.0649">
        <ele>115.79718017578</ele>
        <time>2017-05-21T06:45:24.000Z</time>
      </trkpt>
      <trkpt lat="49.45541" lon="2.06495">
        <ele>116.30737304688</ele>
        <time>2017-05-21T06:45:26.000Z</time>
      </trkpt>
      <trkpt lat="49.45548" lon="2.06502">
        <ele>116.9573135376</ele>
        <time>2017-05-21T06:45:29.000Z</time>
      </trkpt>
      <trkpt lat="49.45552" lon="2.06506">
        <ele>117.4522857666</ele>
        <time>2017-05-21T06:45:31.000Z</time>
      </trkpt>
      <trkpt lat="49.45554" lon="2.06507">
        <ele>117.75810241699</ele>
        <time>2017-05-21T06:45:33.000Z</time>
      </trkpt>
      <trkpt lat="49.45556" lon="2.0651">
        <ele>117.94938659668</ele>
        <time>2017-05-21T06:45:36.000Z</time>
      </trkpt>
      <trkpt lat="49.45556" lon="2.06512">
        <ele>118.07000732422</ele>
        <time>2017-05-21T06:45:39.000Z</time>
      </trkpt>
      <trkpt lat="49.45555" lon="2.06514">
        <ele>118.13433837891</ele>
        <time>2017-05-21T06:45:41.000Z</time>
      </trkpt>
      <trkpt lat="49.45554" lon="2.06514">
        <ele>118.22937011719</ele>
        <time>2017-05-21T06:45:44.000Z</time>
      </trkpt>
      <trkpt lat="49.45554" lon="2.06516">
        <ele>118.34997558594</ele>
        <time>2017-05-21T06:45:47.000Z</time>
      </trkpt>
      <trkpt lat="49.45557" lon="2.06517">
        <ele>118.44268798828</ele>
        <time>2017-05-21T06:45:52.000Z</time>
      </trkpt>
      <trkpt lat="49.45558" lon="2.06516">
        <ele>118.46356201172</ele>
        <time>2017-05-21T06:45:54.000Z</time>
      </trkpt>
      <trkpt lat="49.4556" lon="2.06516">
        <ele>118.41448974609</ele>
        <time>2017-05-21T06:45:57.000Z</time>
      </trkpt>
      <trkpt lat="49.4556" lon="2.06518">
        <ele>118.36010742188</ele>
        <time>2017-05-21T06:45:59.000Z</time>
      </trkpt>
      <trkpt lat="49.4556" lon="2.06519">
        <ele>118.30688476562</ele>
        <time>2017-05-21T06:46:04.000Z</time>
      </trkpt>
      <trkpt lat="49.45561" lon="2.0652">
        <ele>118.27130126953</ele>
        <time>2017-05-21T06:46:11.000Z</time>
      </trkpt>
      <trkpt lat="49.45562" lon="2.06519">
        <ele>118.25170898438</ele>
        <time>2017-05-21T06:46:15.000Z</time>
      </trkpt>
      <trkpt lat="49.45563" lon="2.0652">
        <ele>118.25616455078</ele>
        <time>2017-05-21T06:46:18.000Z</time>
      </trkpt>
      <trkpt lat="49.45564" lon="2.06525">
        <ele>118.27746582031</ele>
        <time>2017-05-21T06:46:22.000Z</time>
      </trkpt>
      <trkpt lat="49.45565" lon="2.06526">
        <ele>118.296875</ele>
        <time>2017-05-21T06:46:24.000Z</time>
      </trkpt>
      <trkpt lat="49.45565" lon="2.06529">
        <ele>118.35620117188</ele>
        <time>2017-05-21T06:46:28.000Z</time>
      </trkpt>
      <trkpt lat="49.45566" lon="2.06531">
        <ele>118.45153808594</ele>
        <time>2017-05-21T06:46:31.000Z</time>
      </trkpt>
      <trkpt lat="49.45567" lon="2.06532">
        <ele>118.55755615234</ele>
        <time>2017-05-21T06:46:33.000Z</time>
      </trkpt>
      <trkpt lat="49.45567" lon="2.0653">
        <ele>118.59161376953</ele>
        <time>2017-05-21T06:46:48.000Z</time>
      </trkpt>
      <trkpt lat="49.45568" lon="2.06529">
        <ele>118.57318115234</ele>
        <time>2017-05-21T06:46:54.000Z</time>
      </trkpt>
      <trkpt lat="49.45567" lon="2.06528">
        <ele>118.53070068359</ele>
        <time>2017-05-21T06:47:02.000Z</time>
      </trkpt>
      <trkpt lat="49.45566" lon="2.06527">
        <ele>118.48333740234</ele>
        <time>2017-05-21T06:47:05.000Z</time>
      </trkpt>
      <trkpt lat="49.45565" lon="2.06526">
        <ele>118.43200683594</ele>
        <time>2017-05-21T06:47:10.000Z</time>
      </trkpt>
      <trkpt lat="49.45564" lon="2.06526">
        <ele>118.43322753906</ele>
        <time>2017-05-21T06:47:15.000Z</time>
      </trkpt>
      <trkpt lat="49.45564" lon="2.06524">
        <ele>118.44213867188</ele>
        <time>2017-05-21T06:47:30.000Z</time>
      </trkpt>
      <trkpt lat="49.45562" lon="2.06522">
        <ele>118.42852783203</ele>
        <time>2017-05-21T06:47:32.000Z</time>
      </trkpt>
      <trkpt lat="49.45562" lon="2.0652">
        <ele>118.39453125</ele>
        <time>2017-05-21T06:47:35.000Z</time>
      </trkpt>
      <trkpt lat="49.45563" lon="2.06519">
        <ele>118.32537841797</ele>
        <time>2017-05-21T06:47:39.000Z</time>
      </trkpt>
      <trkpt lat="49.45564" lon="2.06521">
        <ele>118.24255371094</ele>
        <time>2017-05-21T06:47:43.000Z</time>
      </trkpt>
      <trkpt lat="49.45564" lon="2.06521">
        <ele>118.24255371094</ele>
        <time>2017-05-21T06:48:03.000Z</time>
      </trkpt>
      <trkpt lat="49.45565" lon="2.06523">
        <ele>118.20294189453</ele>
        <time>2017-05-21T06:48:08.000Z</time>
      </trkpt>
      <trkpt lat="49.45565" lon="2.06523">
        <ele>118.20294189453</ele>
        <time>2017-05-21T06:48:28.000Z</time>
      </trkpt>
      <trkpt lat="49.45566" lon="2.06521">
        <ele>118.13616943359</ele>
        <time>2017-05-21T06:48:53.000Z</time>
      </trkpt>
      <trkpt lat="49.45566" lon="2.06524">
        <ele>118.11352539062</ele>
        <time>2017-05-21T06:49:04.000Z</time>
      </trkpt>
      <trkpt lat="49.45566" lon="2.06525">
        <ele>118.15014648438</ele>
        <time>2017-05-21T06:49:08.000Z</time>
      </trkpt>
      <trkpt lat="49.45567" lon="2.06525">
        <ele>118.16516113281</ele>
        <time>2017-05-21T06:49:11.000Z</time>
      </trkpt>
      <trkpt lat="49.45568" lon="2.06522">
        <ele>118.09802246094</ele>
        <time>2017-05-21T06:49:13.000Z</time>
      </trkpt>
      <trkpt lat="49.4557" lon="2.0652">
        <ele>118.02178955078</ele>
        <time>2017-05-21T06:49:17.000Z</time>
      </trkpt>
      <trkpt lat="49.45571" lon="2.06517">
        <ele>117.84289550781</ele>
        <time>2017-05-21T06:49:19.000Z</time>
      </trkpt>
      <trkpt lat="49.45571" lon="2.06514">
        <ele>117.59466552734</ele>
        <time>2017-05-21T06:49:23.000Z</time>
      </trkpt>
      <trkpt lat="49.45572" lon="2.06512">
        <ele>117.32012939453</ele>
        <time>2017-05-21T06:49:28.000Z</time>
      </trkpt>
      <trkpt lat="49.45571" lon="2.06513">
        <ele>117.14672851562</ele>
        <time>2017-05-21T06:49:32.000Z</time>
      </trkpt>
      <trkpt lat="49.45571" lon="2.06516">
        <ele>117.07055664062</ele>
        <time>2017-05-21T06:49:34.000Z</time>
      </trkpt>
      <trkpt lat="49.45573" lon="2.0652">
        <ele>117.08233642578</ele>
        <time>2017-05-21T06:49:37.000Z</time>
      </trkpt>
      <trkpt lat="49.45573" lon="2.06522">
        <ele>117.16320800781</ele>
        <time>2017-05-21T06:49:39.000Z</time>
      </trkpt>
      <trkpt lat="49.45573" lon="2.06524">
        <ele>117.32086181641</ele>
        <time>2017-05-21T06:49:42.000Z</time>
      </trkpt>
      <trkpt lat="49.45574" lon="2.06525">
        <ele>117.43389892578</ele>
        <time>2017-05-21T06:49:45.000Z</time>
      </trkpt>
      <trkpt lat="49.45572" lon="2.06526">
        <ele>117.5595703125</ele>
        <time>2017-05-21T06:50:01.000Z</time>
      </trkpt>
      <trkpt lat="49.45571" lon="2.06526">
        <ele>117.68200683594</ele>
        <time>2017-05-21T06:50:07.000Z</time>
      </trkpt>
      <trkpt lat="49.45571" lon="2.06526">
        <ele>117.68200683594</ele>
        <time>2017-05-21T06:50:27.000Z</time>
      </trkpt>
      <trkpt lat="49.45566" lon="2.06526">
        <ele>117.853515625</ele>
        <time>2017-05-21T06:51:36.000Z</time>
      </trkpt>
      <trkpt lat="49.45565" lon="2.06524">
        <ele>117.98785400391</ele>
        <time>2017-05-21T06:51:43.000Z</time>
      </trkpt>
      <trkpt lat="49.45565" lon="2.06524">
        <ele>117.98785400391</ele>
        <time>2017-05-21T06:52:03.000Z</time>
      </trkpt>
      <trkpt lat="49.45565" lon="2.06527">
        <ele>118.16314697266</ele>
        <time>2017-05-21T06:52:14.000Z</time>
      </trkpt>
      <trkpt lat="49.45563" lon="2.06532">
        <ele>118.39385986328</ele>
        <time>2017-05-21T06:52:17.000Z</time>
      </trkpt>
      <trkpt lat="49.45563" lon="2.06534">
        <ele>118.63397216797</ele>
        <time>2017-05-21T06:52:20.000Z</time>
      </trkpt>
      <trkpt lat="49.45563" lon="2.06534">
        <ele>118.63397216797</ele>
        <time>2017-05-21T06:52:40.000Z</time>
      </trkpt>
      <trkpt lat="49.45566" lon="2.06528">
        <ele>118.67687988281</ele>
        <time>2017-05-21T06:54:51.000Z</time>
      </trkpt>
      <trkpt lat="49.45566" lon="2.06527">
        <ele>118.69647216797</ele>
        <time>2017-05-21T06:54:56.000Z</time>
      </trkpt>
      <trkpt lat="49.45564" lon="2.06531">
        <ele>118.77484130859</ele>
        <time>2017-05-21T06:55:05.000Z</time>
      </trkpt>
      <trkpt lat="49.45565" lon="2.06533">
        <ele>118.75958251953</ele>
        <time>2017-05-21T06:55:08.000Z</time>
      </trkpt>
      <trkpt lat="49.45567" lon="2.06532">
        <ele>118.68493652344</ele>
        <time>2017-05-21T06:55:10.000Z</time>
      </trkpt>
      <trkpt lat="49.45567" lon="2.06532">
        <ele>118.71069335938</ele>
        <time>2017-05-21T06:55:13.000Z</time>
      </trkpt>
      <trkpt lat="49.45567" lon="2.06532">
        <ele>118.71069335938</ele>
        <time>2017-05-21T06:55:33.000Z</time>
      </trkpt>
      <trkpt lat="49.45567" lon="2.06529">
        <ele>118.73846435547</ele>
        <time>2017-05-21T06:56:12.000Z</time>
      </trkpt>
      <trkpt lat="49.45566" lon="2.0653">
        <ele>118.70062255859</ele>
        <time>2017-05-21T06:56:16.000Z</time>
      </trkpt>
      <trkpt lat="49.45566" lon="2.0653">
        <ele>118.70062255859</ele>
        <time>2017-05-21T06:56:36.000Z</time>
      </trkpt>
      <trkpt lat="49.45567" lon="2.06532">
        <ele>118.65368652344</ele>
        <time>2017-05-21T06:56:41.000Z</time>
      </trkpt>
      <trkpt lat="49.45565" lon="2.06532">
        <ele>118.66680908203</ele>
        <time>2017-05-21T06:56:44.000Z</time>
      </trkpt>
      <trkpt lat="49.45564" lon="2.06531">
        <ele>118.71051025391</ele>
        <time>2017-05-21T06:56:47.000Z</time>
      </trkpt>
      <trkpt lat="49.45567" lon="2.06531">
        <ele>118.72778320312</ele>
        <time>2017-05-21T06:56:50.000Z</time>
      </trkpt>
      <trkpt lat="49.45572" lon="2.06537">
        <ele>118.716796875</ele>
        <time>2017-05-21T06:56:53.000Z</time>
      </trkpt>
      <trkpt lat="49.45575" lon="2.06543">
        <ele>118.73736572266</ele>
        <time>2017-05-21T06:56:55.000Z</time>
      </trkpt>
      <trkpt lat="49.45576" lon="2.06542">
        <ele>118.69488525391</ele>
        <time>2017-05-21T06:56:57.000Z</time>
      </trkpt>
      <trkpt lat="49.45576" lon="2.0654">
        <ele>118.61376953125</ele>
        <time>2017-05-21T06:57:00.000Z</time>
      </trkpt>
      <trkpt lat="49.45573" lon="2.06533">
        <ele>118.53521728516</ele>
        <time>2017-05-21T06:57:03.000Z</time>
      </trkpt>
      <trkpt lat="49.45572" lon="2.06531">
        <ele>118.44769287109</ele>
        <time>2017-05-21T06:57:11.000Z</time>
      </trkpt>
      <trkpt lat="49.45573" lon="2.06532">
        <ele>118.31848144531</ele>
        <time>2017-05-21T06:57:21.000Z</time>
      </trkpt>
      <trkpt lat="49.45571" lon="2.0653">
        <ele>118.24517822266</ele>
        <time>2017-05-21T06:57:24.000Z</time>
      </trkpt>
      <trkpt lat="49.45566" lon="2.0653">
        <ele>118.27014160156</ele>
        <time>2017-05-21T06:57:30.000Z</time>
      </trkpt>
      <trkpt lat="49.45564" lon="2.06529">
        <ele>118.36853027344</ele>
        <time>2017-05-21T06:57:49.000Z</time>
      </trkpt>
      <trkpt lat="49.45563" lon="2.06529">
        <ele>118.49456787109</ele>
        <time>2017-05-21T06:57:54.000Z</time>
      </trkpt>
      <trkpt lat="49.45563" lon="2.06529">
        <ele>118.49456787109</ele>
        <time>2017-05-21T06:58:14.000Z</time>
      </trkpt>
      <trkpt lat="49.45562" lon="2.06529">
        <ele>118.64953613281</ele>
        <time>2017-05-21T06:58:20.000Z</time>
      </trkpt>
      <trkpt lat="49.45562" lon="2.06529">
        <ele>118.64953613281</ele>
        <time>2017-05-21T06:58:40.000Z</time>
      </trkpt>
      <trkpt lat="49.4556" lon="2.0653">
        <ele>118.81811523438</ele>
        <time>2017-05-21T06:59:27.000Z</time>
      </trkpt>
      <trkpt lat="49.4556" lon="2.0653">
        <ele>118.81811523438</ele>
        <time>2017-05-21T06:59:47.000Z</time>
      </trkpt>
      <trkpt lat="49.4556" lon="2.06526">
        <ele>118.86694335938</ele>
        <time>2017-05-21T07:00:29.000Z</time>
      </trkpt>
      <trkpt lat="49.45561" lon="2.06525">
        <ele>118.86584472656</ele>
        <time>2017-05-21T07:00:32.000Z</time>
      </trkpt>
      <trkpt lat="49.45561" lon="2.06527">
        <ele>118.87530517578</ele>
        <time>2017-05-21T07:00:51.000Z</time>
      </trkpt>
      <trkpt lat="49.45561" lon="2.06527">
        <ele>118.87530517578</ele>
        <time>2017-05-21T07:01:11.000Z</time>
      </trkpt>
      <trkpt lat="49.45557" lon="2.06528">
        <ele>118.93463134766</ele>
        <time>2017-05-21T07:03:09.000Z</time>
      </trkpt>
      <trkpt lat="49.45557" lon="2.06528">
        <ele>118.93463134766</ele>
        <time>2017-05-21T07:03:29.000Z</time>
      </trkpt>
      <trkpt lat="49.45557" lon="2.06528">
        <ele>118.951171875</ele>
        <time>2017-05-21T07:04:15.000Z</time>
      </trkpt>
      <trkpt lat="49.45559" lon="2.06527">
        <ele>118.99188232422</ele>
        <time>2017-05-21T07:04:17.000Z</time>
      </trkpt>
      <trkpt lat="49.45559" lon="2.06527">
        <ele>118.99188232422</ele>
        <time>2017-05-21T07:04:37.000Z</time>
      </trkpt>
      <trkpt lat="49.4556" lon="2.06528">
        <ele>119.04437255859</ele>
        <time>2017-05-21T07:05:07.000Z</time>
      </trkpt>
      <trkpt lat="49.45561" lon="2.06532">
        <ele>119.12335205078</ele>
        <time>2017-05-21T07:05:12.000Z</time>
      </trkpt>
      <trkpt lat="49.45561" lon="2.06534">
        <ele>119.14398193359</ele>
        <time>2017-05-21T07:05:14.000Z</time>
      </trkpt>
      <trkpt lat="49.45564" lon="2.06536">
        <ele>119.14721679688</ele>
        <time>2017-05-21T07:05:22.000Z</time>
      </trkpt>
      <trkpt lat="49.45564" lon="2.06534">
        <ele>119.14819335938</ele>
        <time>2017-05-21T07:05:24.000Z</time>
      </trkpt>
      <trkpt lat="49.45564" lon="2.06534">
        <ele>119.14819335938</ele>
        <time>2017-05-21T07:05:44.000Z</time>
      </trkpt>
      <trkpt lat="49.45565" lon="2.06532">
        <ele>119.12322998047</ele>
        <time>2017-05-21T07:06:00.000Z</time>
      </trkpt>
      <trkpt lat="49.45563" lon="2.06535">
        <ele>119.12438964844</ele>
        <time>2017-05-21T07:06:03.000Z</time>
      </trkpt>
      <trkpt lat="49.4556" lon="2.06536">
        <ele>119.17376708984</ele>
        <time>2017-05-21T07:06:17.000Z</time>
      </trkpt>
      <trkpt lat="49.4556" lon="2.06536">
        <ele>119.17376708984</ele>
        <time>2017-05-21T07:06:37.000Z</time>
      </trkpt>
      <trkpt lat="49.45562" lon="2.06535">
        <ele>119.21350097656</ele>
        <time>2017-05-21T07:07:35.000Z</time>
      </trkpt>
      <trkpt lat="49.45563" lon="2.06533">
        <ele>119.23297119141</ele>
        <time>2017-05-21T07:07:49.000Z</time>
      </trkpt>
      <trkpt lat="49.45563" lon="2.06532">
        <ele>119.26788330078</ele>
        <time>2017-05-21T07:07:53.000Z</time>
      </trkpt>
      <trkpt lat="49.45566" lon="2.06531">
        <ele>119.15826416016</ele>
        <time>2017-05-21T07:07:56.000Z</time>
      </trkpt>
      <trkpt lat="49.45566" lon="2.06531">
        <ele>119.15826416016</ele>
        <time>2017-05-21T07:08:16.000Z</time>
      </trkpt>
      <trkpt lat="49.45567" lon="2.0653">
        <ele>118.94421386719</ele>
        <time>2017-05-21T07:08:54.000Z</time>
      </trkpt>
      <trkpt lat="49.45569" lon="2.0653">
        <ele>118.73657226562</ele>
        <time>2017-05-21T07:09:08.000Z</time>
      </trkpt>
      <trkpt lat="49.4557" lon="2.06529">
        <ele>118.54870605469</ele>
        <time>2017-05-21T07:09:10.000Z</time>
      </trkpt>
      <trkpt lat="49.45569" lon="2.06531">
        <ele>118.44165039062</ele>
        <time>2017-05-21T07:09:12.000Z</time>
      </trkpt>
      <trkpt lat="49.45562" lon="2.06538">
        <ele>118.61920166016</ele>
        <time>2017-05-21T07:09:15.000Z</time>
      </trkpt>
      <trkpt lat="49.45554" lon="2.06546">
        <ele>119.08142089844</ele>
        <time>2017-05-21T07:09:18.000Z</time>
      </trkpt>
      <trkpt lat="49.45551" lon="2.06547">
        <ele>119.63061523438</ele>
        <time>2017-05-21T07:09:22.000Z</time>
      </trkpt>
      <trkpt lat="49.45551" lon="2.06547">
        <ele>119.63061523438</ele>
        <time>2017-05-21T07:09:42.000Z</time>
      </trkpt>
      <trkpt lat="49.45555" lon="2.06549">
        <ele>120.18078613281</ele>
        <time>2017-05-21T07:09:58.000Z</time>
      </trkpt>
      <trkpt lat="49.45555" lon="2.06549">
        <ele>120.18078613281</ele>
        <time>2017-05-21T07:10:18.000Z</time>
      </trkpt>
      <trkpt lat="49.45558" lon="2.06546">
        <ele>120.56689453125</ele>
        <time>2017-05-21T07:10:33.000Z</time>
      </trkpt>
      <trkpt lat="49.45562" lon="2.06542">
        <ele>120.61053466797</ele>
        <time>2017-05-21T07:10:36.000Z</time>
      </trkpt>
      <trkpt lat="49.45564" lon="2.0654">
        <ele>120.35205078125</ele>
        <time>2017-05-21T07:10:48.000Z</time>
      </trkpt>
      <trkpt lat="49.45565" lon="2.06539">
        <ele>119.99493408203</ele>
        <time>2017-05-21T07:10:58.000Z</time>
      </trkpt>
      <trkpt lat="49.45566" lon="2.06539">
        <ele>119.6572265625</ele>
        <time>2017-05-21T07:11:11.000Z</time>
      </trkpt>
      <trkpt lat="49.45566" lon="2.06539">
        <ele>119.6572265625</ele>
        <time>2017-05-21T07:11:31.000Z</time>
      </trkpt>
      <trkpt lat="49.45569" lon="2.06538">
        <ele>119.37036132812</ele>
        <time>2017-05-21T07:11:55.000Z</time>
      </trkpt>
      <trkpt lat="49.4557" lon="2.0654">
        <ele>119.21710205078</ele>
        <time>2017-05-21T07:12:11.000Z</time>
      </trkpt>
      <trkpt lat="49.45571" lon="2.06541">
        <ele>119.10601806641</ele>
        <time>2017-05-21T07:12:27.000Z</time>
      </trkpt>
      <trkpt lat="49.45568" lon="2.06539">
        <ele>119.06396484375</ele>
        <time>2017-05-21T07:12:30.000Z</time>
      </trkpt>
      <trkpt lat="49.45564" lon="2.06537">
        <ele>119.07305908203</ele>
        <time>2017-05-21T07:12:34.000Z</time>
      </trkpt>
      <trkpt lat="49.45563" lon="2.06536">
        <ele>119.14831542969</ele>
        <time>2017-05-21T07:12:39.000Z</time>
      </trkpt>
      <trkpt lat="49.45562" lon="2.0653">
        <ele>119.13336181641</ele>
        <time>2017-05-21T07:12:50.000Z</time>
      </trkpt>
      <trkpt lat="49.45562" lon="2.06528">
        <ele>119.10211181641</ele>
        <time>2017-05-21T07:12:53.000Z</time>
      </trkpt>
      <trkpt lat="49.45561" lon="2.06528">
        <ele>119.06079101562</ele>
        <time>2017-05-21T07:12:56.000Z</time>
      </trkpt>
      <trkpt lat="49.45562" lon="2.06528">
        <ele>118.95874023438</ele>
        <time>2017-05-21T07:13:00.000Z</time>
      </trkpt>
      <trkpt lat="49.45563" lon="2.06529">
        <ele>118.85235595703</ele>
        <time>2017-05-21T07:13:03.000Z</time>
      </trkpt>
      <trkpt lat="49.45565" lon="2.06533">
        <ele>118.84661865234</ele>
        <time>2017-05-21T07:13:23.000Z</time>
      </trkpt>
      <trkpt lat="49.45563" lon="2.06534">
        <ele>118.90539550781</ele>
        <time>2017-05-21T07:13:27.000Z</time>
      </trkpt>
      <trkpt lat="49.4556" lon="2.06536">
        <ele>119.04705810547</ele>
        <time>2017-05-21T07:13:30.000Z</time>
      </trkpt>
      <trkpt lat="49.45561" lon="2.06537">
        <ele>119.19812011719</ele>
        <time>2017-05-21T07:13:34.000Z</time>
      </trkpt>
      <trkpt lat="49.45561" lon="2.06538">
        <ele>119.365234375</ele>
        <time>2017-05-21T07:13:36.000Z</time>
      </trkpt>
      <trkpt lat="49.4556" lon="2.06541">
        <ele>119.56329345703</ele>
        <time>2017-05-21T07:13:40.000Z</time>
      </trkpt>
      <trkpt lat="49.4556" lon="2.06545">
        <ele>119.77728271484</ele>
        <time>2017-05-21T07:13:43.000Z</time>
      </trkpt>
      <trkpt lat="49.45561" lon="2.06542">
        <ele>119.84191894531</ele>
        <time>2017-05-21T07:13:47.000Z</time>
      </trkpt>
      <trkpt lat="49.45566" lon="2.06538">
        <ele>119.77801513672</ele>
        <time>2017-05-21T07:13:50.000Z</time>
      </trkpt>
      <trkpt lat="49.45568" lon="2.06535">
        <ele>119.61376953125</ele>
        <time>2017-05-21T07:13:52.000Z</time>
      </trkpt>
      <trkpt lat="49.45569" lon="2.06534">
        <ele>119.36419677734</ele>
        <time>2017-05-21T07:13:55.000Z</time>
      </trkpt>
      <trkpt lat="49.4557" lon="2.0653">
        <ele>118.97259521484</ele>
        <time>2017-05-21T07:14:04.000Z</time>
      </trkpt>
      <trkpt lat="49.45571" lon="2.06528">
        <ele>118.59844970703</ele>
        <time>2017-05-21T07:14:07.000Z</time>
      </trkpt>
      <trkpt lat="49.4557" lon="2.06532">
        <ele>118.44934082031</ele>
        <time>2017-05-21T07:14:17.000Z</time>
      </trkpt>
      <trkpt lat="49.45567" lon="2.06534">
        <ele>118.43920898438</ele>
        <time>2017-05-21T07:14:19.000Z</time>
      </trkpt>
      <trkpt lat="49.45566" lon="2.06531">
        <ele>118.45544433594</ele>
        <time>2017-05-21T07:14:26.000Z</time>
      </trkpt>
      <trkpt lat="49.45567" lon="2.06529">
        <ele>118.50604248047</ele>
        <time>2017-05-21T07:14:32.000Z</time>
      </trkpt>
      <trkpt lat="49.45569" lon="2.06517">
        <ele>118.3798828125</ele>
        <time>2017-05-21T07:14:35.000Z</time>
      </trkpt>
      <trkpt lat="49.45567" lon="2.06508">
        <ele>118.07690429688</ele>
        <time>2017-05-21T07:14:37.000Z</time>
      </trkpt>
      <trkpt lat="49.45565" lon="2.06501">
        <ele>117.62927246094</ele>
        <time>2017-05-21T07:14:39.000Z</time>
      </trkpt>
      <trkpt lat="49.45564" lon="2.06494">
        <ele>116.99760437012</ele>
        <time>2017-05-21T07:14:41.000Z</time>
      </trkpt>
      <trkpt lat="49.45562" lon="2.06487">
        <ele>116.19432067871</ele>
        <time>2017-05-21T07:14:43.000Z</time>
      </trkpt>
      <trkpt lat="49.45556" lon="2.06479">
        <ele>115.39811706543</ele>
        <time>2017-05-21T07:14:46.000Z</time>
      </trkpt>
      <trkpt lat="49.45553" lon="2.06474">
        <ele>114.58288574219</ele>
        <time>2017-05-21T07:14:48.000Z</time>
      </trkpt>
      <trkpt lat="49.4555" lon="2.06469">
        <ele>113.71669769287</ele>
        <time>2017-05-21T07:14:51.000Z</time>
      </trkpt>
      <trkpt lat="49.45547" lon="2.06466">
        <ele>112.98577880859</ele>
        <time>2017-05-21T07:14:54.000Z</time>
      </trkpt>
      <trkpt lat="49.45547" lon="2.06465">
        <ele>112.43029785156</ele>
        <time>2017-05-21T07:14:58.000Z</time>
      </trkpt>
      <trkpt lat="49.45546" lon="2.06463">
        <ele>112.01438140869</ele>
        <time>2017-05-21T07:15:01.000Z</time>
      </trkpt>
      <trkpt lat="49.45542" lon="2.0646">
        <ele>111.69946289062</ele>
        <time>2017-05-21T07:15:04.000Z</time>
      </trkpt>
      <trkpt lat="49.45538" lon="2.06457">
        <ele>111.48022460938</ele>
        <time>2017-05-21T07:15:06.000Z</time>
      </trkpt>
      <trkpt lat="49.45533" lon="2.06456">
        <ele>111.3564453125</ele>
        <time>2017-05-21T07:15:08.000Z</time>
      </trkpt>
      <trkpt lat="49.45525" lon="2.06456">
        <ele>111.42710113525</ele>
        <time>2017-05-21T07:15:11.000Z</time>
      </trkpt>
      <trkpt lat="49.4552" lon="2.06455">
        <ele>111.59311676025</ele>
        <time>2017-05-21T07:15:14.000Z</time>
      </trkpt>
      <trkpt lat="49.45517" lon="2.06452">
        <ele>111.70432281494</ele>
        <time>2017-05-21T07:15:16.000Z</time>
      </trkpt>
      <trkpt lat="49.45512" lon="2.06451">
        <ele>111.93166351318</ele>
        <time>2017-05-21T07:15:19.000Z</time>
      </trkpt>
      <trkpt lat="49.45509" lon="2.06458">
        <ele>112.41831207275</ele>
        <time>2017-05-21T07:15:22.000Z</time>
      </trkpt>
      <trkpt lat="49.45506" lon="2.06465">
        <ele>113.0673828125</ele>
        <time>2017-05-21T07:15:25.000Z</time>
      </trkpt>
      <trkpt lat="49.45504" lon="2.0647">
        <ele>113.87823486328</ele>
        <time>2017-05-21T07:15:28.000Z</time>
      </trkpt>
      <trkpt lat="49.45503" lon="2.06475">
        <ele>114.94610595703</ele>
        <time>2017-05-21T07:15:31.000Z</time>
      </trkpt>
      <trkpt lat="49.45502" lon="2.06479">
        <ele>116.11358642578</ele>
        <time>2017-05-21T07:15:33.000Z</time>
      </trkpt>
      <trkpt lat="49.45496" lon="2.06482">
        <ele>117.18537902832</ele>
        <time>2017-05-21T07:15:36.000Z</time>
      </trkpt>
      <trkpt lat="49.45493" lon="2.06486">
        <ele>118.15748596191</ele>
        <time>2017-05-21T07:15:38.000Z</time>
      </trkpt>
      <trkpt lat="49.45491" lon="2.06493">
        <ele>119.17252349854</ele>
        <time>2017-05-21T07:15:41.000Z</time>
      </trkpt>
      <trkpt lat="49.4549" lon="2.06498">
        <ele>120.19625091553</ele>
        <time>2017-05-21T07:15:44.000Z</time>
      </trkpt>
      <trkpt lat="49.4549" lon="2.06506">
        <ele>121.17385101318</ele>
        <time>2017-05-21T07:15:47.000Z</time>
      </trkpt>
      <trkpt lat="49.45489" lon="2.0651">
        <ele>122.02233886719</ele>
        <time>2017-05-21T07:15:49.000Z</time>
      </trkpt>
      <trkpt lat="49.45487" lon="2.06515">
        <ele>122.73728179932</ele>
        <time>2017-05-21T07:15:51.000Z</time>
      </trkpt>
      <trkpt lat="49.45484" lon="2.06523">
        <ele>123.34204101562</ele>
        <time>2017-05-21T07:15:54.000Z</time>
      </trkpt>
      <trkpt lat="49.45482" lon="2.06528">
        <ele>123.82460784912</ele>
        <time>2017-05-21T07:15:56.000Z</time>
      </trkpt>
      <trkpt lat="49.45481" lon="2.06533">
        <ele>124.23976898193</ele>
        <time>2017-05-21T07:15:58.000Z</time>
      </trkpt>
      <trkpt lat="49.45479" lon="2.0654">
        <ele>124.67409515381</ele>
        <time>2017-05-21T07:16:01.000Z</time>
      </trkpt>
      <trkpt lat="49.45481" lon="2.06545">
        <ele>125.08930969238</ele>
        <time>2017-05-21T07:16:03.000Z</time>
      </trkpt>
      <trkpt lat="49.45486" lon="2.0655">
        <ele>125.41335296631</ele>
        <time>2017-05-21T07:16:05.000Z</time>
      </trkpt>
      <trkpt lat="49.45496" lon="2.06562">
        <ele>125.76609039307</ele>
        <time>2017-05-21T07:16:08.000Z</time>
      </trkpt>
      <trkpt lat="49.45501" lon="2.06572">
        <ele>126.18544006348</ele>
        <time>2017-05-21T07:16:10.000Z</time>
      </trkpt>
      <trkpt lat="49.45504" lon="2.06585">
        <ele>126.61334228516</ele>
        <time>2017-05-21T07:16:12.000Z</time>
      </trkpt>
      <trkpt lat="49.45509" lon="2.06604">
        <ele>126.92936706543</ele>
        <time>2017-05-21T07:16:15.000Z</time>
      </trkpt>
      <trkpt lat="49.45512" lon="2.06611">
        <ele>127.1954574585</ele>
        <time>2017-05-21T07:16:17.000Z</time>
      </trkpt>
      <trkpt lat="49.45516" lon="2.0662">
        <ele>127.32276916504</ele>
        <time>2017-05-21T07:16:20.000Z</time>
      </trkpt>
      <trkpt lat="49.45521" lon="2.06625">
        <ele>127.29367828369</ele>
        <time>2017-05-21T07:16:22.000Z</time>
      </trkpt>
      <trkpt lat="49.45526" lon="2.06632">
        <ele>127.14268493652</ele>
        <time>2017-05-21T07:16:24.000Z</time>
      </trkpt>
      <trkpt lat="49.45531" lon="2.06638">
        <ele>127.04231262207</ele>
        <time>2017-05-21T07:16:26.000Z</time>
      </trkpt>
      <trkpt lat="49.45535" lon="2.06643">
        <ele>126.96098327637</ele>
        <time>2017-05-21T07:16:28.000Z</time>
      </trkpt>
      <trkpt lat="49.4554" lon="2.06649">
        <ele>126.91261291504</ele>
        <time>2017-05-21T07:16:31.000Z</time>
      </trkpt>
      <trkpt lat="49.45547" lon="2.06651">
        <ele>126.86665344238</ele>
        <time>2017-05-21T07:16:34.000Z</time>
      </trkpt>
      <trkpt lat="49.45553" lon="2.06651">
        <ele>126.8126449585</ele>
        <time>2017-05-21T07:16:36.000Z</time>
      </trkpt>
      <trkpt lat="49.45562" lon="2.06657">
        <ele>126.7844619751</ele>
        <time>2017-05-21T07:16:39.000Z</time>
      </trkpt>
      <trkpt lat="49.45568" lon="2.06663">
        <ele>126.80448150635</ele>
        <time>2017-05-21T07:16:42.000Z</time>
      </trkpt>
      <trkpt lat="49.45574" lon="2.06666">
        <ele>126.83625793457</ele>
        <time>2017-05-21T07:16:44.000Z</time>
      </trkpt>
      <trkpt lat="49.45586" lon="2.06668">
        <ele>126.82222747803</ele>
        <time>2017-05-21T07:16:47.000Z</time>
      </trkpt>
      <trkpt lat="49.45601" lon="2.06666">
        <ele>126.5184173584</ele>
        <time>2017-05-21T07:16:50.000Z</time>
      </trkpt>
      <trkpt lat="49.45608" lon="2.06664">
        <ele>125.98683929443</ele>
        <time>2017-05-21T07:16:52.000Z</time>
      </trkpt>
      <trkpt lat="49.45615" lon="2.06661">
        <ele>125.21181488037</ele>
        <time>2017-05-21T07:16:54.000Z</time>
      </trkpt>
      <trkpt lat="49.45624" lon="2.06666">
        <ele>124.30487060547</ele>
        <time>2017-05-21T07:16:57.000Z</time>
      </trkpt>
      <trkpt lat="49.45631" lon="2.06676">
        <ele>123.38328552246</ele>
        <time>2017-05-21T07:17:00.000Z</time>
      </trkpt>
      <trkpt lat="49.45636" lon="2.06688">
        <ele>122.74784088135</ele>
        <time>2017-05-21T07:17:03.000Z</time>
      </trkpt>
      <trkpt lat="49.45642" lon="2.06699">
        <ele>122.27713775635</ele>
        <time>2017-05-21T07:17:06.000Z</time>
      </trkpt>
      <trkpt lat="49.45641" lon="2.06709">
        <ele>122.09483337402</ele>
        <time>2017-05-21T07:17:09.000Z</time>
      </trkpt>
      <trkpt lat="49.45636" lon="2.0672">
        <ele>122.19584655762</ele>
        <time>2017-05-21T07:17:12.000Z</time>
      </trkpt>
      <trkpt lat="49.45633" lon="2.06726">
        <ele>122.47166442871</ele>
        <time>2017-05-21T07:17:14.000Z</time>
      </trkpt>
      <trkpt lat="49.45631" lon="2.06734">
        <ele>122.87663269043</ele>
        <time>2017-05-21T07:17:16.000Z</time>
      </trkpt>
      <trkpt lat="49.45628" lon="2.06742">
        <ele>123.42307281494</ele>
        <time>2017-05-21T07:17:18.000Z</time>
      </trkpt>
      <trkpt lat="49.45624" lon="2.06753">
        <ele>123.97635650635</ele>
        <time>2017-05-21T07:17:21.000Z</time>
      </trkpt>
      <trkpt lat="49.45621" lon="2.06761">
        <ele>124.35636901855</ele>
        <time>2017-05-21T07:17:23.000Z</time>
      </trkpt>
      <trkpt lat="49.45618" lon="2.0677">
        <ele>124.63928222656</ele>
        <time>2017-05-21T07:17:25.000Z</time>
      </trkpt>
      <trkpt lat="49.45613" lon="2.06776">
        <ele>124.86067199707</ele>
        <time>2017-05-21T07:17:27.000Z</time>
      </trkpt>
      <trkpt lat="49.4561" lon="2.06783">
        <ele>125.00577545166</ele>
        <time>2017-05-21T07:17:29.000Z</time>
      </trkpt>
      <trkpt lat="49.45606" lon="2.06797">
        <ele>125.00207519531</ele>
        <time>2017-05-21T07:17:32.000Z</time>
      </trkpt>
      <trkpt lat="49.45602" lon="2.06814">
        <ele>124.95792388916</ele>
        <time>2017-05-21T07:17:35.000Z</time>
      </trkpt>
      <trkpt lat="49.45599" lon="2.06824">
        <ele>124.90268707275</ele>
        <time>2017-05-21T07:17:37.000Z</time>
      </trkpt>
      <trkpt lat="49.45595" lon="2.06841">
        <ele>124.72426605225</ele>
        <time>2017-05-21T07:17:40.000Z</time>
      </trkpt>
      <trkpt lat="49.45588" lon="2.06847">
        <ele>124.5810546875</ele>
        <time>2017-05-21T07:17:43.000Z</time>
      </trkpt>
      <trkpt lat="49.45583" lon="2.06851">
        <ele>124.54051208496</ele>
        <time>2017-05-21T07:17:45.000Z</time>
      </trkpt>
      <trkpt lat="49.45579" lon="2.06862">
        <ele>124.41762542725</ele>
        <time>2017-05-21T07:17:47.000Z</time>
      </trkpt>
      <trkpt lat="49.45575" lon="2.06886">
        <ele>124.0122833252</ele>
        <time>2017-05-21T07:17:50.000Z</time>
      </trkpt>
      <trkpt lat="49.45571" lon="2.06904">
        <ele>123.48707580566</ele>
        <time>2017-05-21T07:17:52.000Z</time>
      </trkpt>
      <trkpt lat="49.45564" lon="2.06923">
        <ele>122.75406646729</ele>
        <time>2017-05-21T07:17:55.000Z</time>
      </trkpt>
      <trkpt lat="49.4556" lon="2.06945">
        <ele>121.78488922119</ele>
        <time>2017-05-21T07:17:58.000Z</time>
      </trkpt>
      <trkpt lat="49.45555" lon="2.06962">
        <ele>120.8366317749</ele>
        <time>2017-05-21T07:18:01.000Z</time>
      </trkpt>
      <trkpt lat="49.45552" lon="2.06971">
        <ele>120.14223480225</ele>
        <time>2017-05-21T07:18:03.000Z</time>
      </trkpt>
      <trkpt lat="49.45546" lon="2.06984">
        <ele>119.6194229126</ele>
        <time>2017-05-21T07:18:06.000Z</time>
      </trkpt>
      <trkpt lat="49.4554" lon="2.06997">
        <ele>119.21494293213</ele>
        <time>2017-05-21T07:18:09.000Z</time>
      </trkpt>
      <trkpt lat="49.45533" lon="2.07006">
        <ele>119.0101776123</ele>
        <time>2017-05-21T07:18:12.000Z</time>
      </trkpt>
      <trkpt lat="49.45528" lon="2.07012">
        <ele>118.92092132568</ele>
        <time>2017-05-21T07:18:14.000Z</time>
      </trkpt>
      <trkpt lat="49.45519" lon="2.07022">
        <ele>118.91117858887</ele>
        <time>2017-05-21T07:18:17.000Z</time>
      </trkpt>
      <trkpt lat="49.45512" lon="2.0703">
        <ele>118.96816253662</ele>
        <time>2017-05-21T07:18:19.000Z</time>
      </trkpt>
      <trkpt lat="49.45501" lon="2.07048">
        <ele>119.02597808838</ele>
        <time>2017-05-21T07:18:22.000Z</time>
      </trkpt>
      <trkpt lat="49.45491" lon="2.07067">
        <ele>118.84824371338</ele>
        <time>2017-05-21T07:18:25.000Z</time>
      </trkpt>
      <trkpt lat="49.45482" lon="2.07086">
        <ele>118.42066955566</ele>
        <time>2017-05-21T07:18:28.000Z</time>
      </trkpt>
      <trkpt lat="49.45475" lon="2.07092">
        <ele>117.81982421875</ele>
        <time>2017-05-21T07:18:30.000Z</time>
      </trkpt>
      <trkpt lat="49.45469" lon="2.07094">
        <ele>117.14826965332</ele>
        <time>2017-05-21T07:18:32.000Z</time>
      </trkpt>
      <trkpt lat="49.45462" lon="2.07093">
        <ele>116.53249359131</ele>
        <time>2017-05-21T07:18:35.000Z</time>
      </trkpt>
      <trkpt lat="49.45454" lon="2.07088">
        <ele>116.24145507812</ele>
        <time>2017-05-21T07:18:38.000Z</time>
      </trkpt>
      <trkpt lat="49.45451" lon="2.07083">
        <ele>116.29345703125</ele>
        <time>2017-05-21T07:18:40.000Z</time>
      </trkpt>
      <trkpt lat="49.45444" lon="2.07073">
        <ele>116.58386230469</ele>
        <time>2017-05-21T07:18:43.000Z</time>
      </trkpt>
      <trkpt lat="49.45436" lon="2.07066">
        <ele>116.98622894287</ele>
        <time>2017-05-21T07:18:45.000Z</time>
      </trkpt>
      <trkpt lat="49.45419" lon="2.07063">
        <ele>117.38865661621</ele>
        <time>2017-05-21T07:18:48.000Z</time>
      </trkpt>
      <trkpt lat="49.45409" lon="2.07068">
        <ele>117.61853027344</ele>
        <time>2017-05-21T07:18:50.000Z</time>
      </trkpt>
      <trkpt lat="49.454" lon="2.07075">
        <ele>117.678565979</ele>
        <time>2017-05-21T07:18:52.000Z</time>
      </trkpt>
      <trkpt lat="49.45388" lon="2.07088">
        <ele>117.49006652832</ele>
        <time>2017-05-21T07:18:55.000Z</time>
      </trkpt>
      <trkpt lat="49.4538" lon="2.07096">
        <ele>117.10133361816</ele>
        <time>2017-05-21T07:18:57.000Z</time>
      </trkpt>
      <trkpt lat="49.45368" lon="2.0711">
        <ele>116.45970153809</ele>
        <time>2017-05-21T07:19:00.000Z</time>
      </trkpt>
      <trkpt lat="49.4536" lon="2.07117">
        <ele>115.78215026855</ele>
        <time>2017-05-21T07:19:02.000Z</time>
      </trkpt>
      <trkpt lat="49.45347" lon="2.07134">
        <ele>114.93981933594</ele>
        <time>2017-05-21T07:19:05.000Z</time>
      </trkpt>
      <trkpt lat="49.45334" lon="2.07156">
        <ele>113.98262023926</ele>
        <time>2017-05-21T07:19:08.000Z</time>
      </trkpt>
      <trkpt lat="49.45327" lon="2.07164">
        <ele>112.90930175781</ele>
        <time>2017-05-21T07:19:11.000Z</time>
      </trkpt>
      <trkpt lat="49.45325" lon="2.07159">
        <ele>112.1044921875</ele>
        <time>2017-05-21T07:19:13.000Z</time>
      </trkpt>
      <trkpt lat="49.4532" lon="2.07143">
        <ele>111.5383682251</ele>
        <time>2017-05-21T07:19:16.000Z</time>
      </trkpt>
      <trkpt lat="49.45309" lon="2.07132">
        <ele>111.16123962402</ele>
        <time>2017-05-21T07:19:19.000Z</time>
      </trkpt>
      <trkpt lat="49.453" lon="2.0713">
        <ele>110.91654968262</ele>
        <time>2017-05-21T07:19:21.000Z</time>
      </trkpt>
      <trkpt lat="49.45292" lon="2.07127">
        <ele>110.81601715088</ele>
        <time>2017-05-21T07:19:23.000Z</time>
      </trkpt>
      <trkpt lat="49.45287" lon="2.07125">
        <ele>110.61423492432</ele>
        <time>2017-05-21T07:19:26.000Z</time>
      </trkpt>
      <trkpt lat="49.45286" lon="2.07121">
        <ele>110.328956604</ele>
        <time>2017-05-21T07:19:29.000Z</time>
      </trkpt>
      <trkpt lat="49.45289" lon="2.07117">
        <ele>110.20644378662</ele>
        <time>2017-05-21T07:19:31.000Z</time>
      </trkpt>
      <trkpt lat="49.45292" lon="2.07112">
        <ele>110.35214996338</ele>
        <time>2017-05-21T07:19:33.000Z</time>
      </trkpt>
      <trkpt lat="49.45293" lon="2.07108">
        <ele>110.67658996582</ele>
        <time>2017-05-21T07:19:36.000Z</time>
      </trkpt>
      <trkpt lat="49.45289" lon="2.07108">
        <ele>110.99326324463</ele>
        <time>2017-05-21T07:19:39.000Z</time>
      </trkpt>
      <trkpt lat="49.45285" lon="2.07109">
        <ele>111.16892242432</ele>
        <time>2017-05-21T07:19:42.000Z</time>
      </trkpt>
      <trkpt lat="49.45282" lon="2.07109">
        <ele>111.17771148682</ele>
        <time>2017-05-21T07:19:45.000Z</time>
      </trkpt>
      <trkpt lat="49.45282" lon="2.07109">
        <ele>111.17771148682</ele>
        <time>2017-05-21T07:20:05.000Z</time>
      </trkpt>
      <trkpt lat="49.45282" lon="2.07107">
        <ele>111.07041931152</ele>
        <time>2017-05-21T07:20:14.000Z</time>
      </trkpt>
      <trkpt lat="49.45283" lon="2.07101">
        <ele>111.01524353027</ele>
        <time>2017-05-21T07:20:16.000Z</time>
      </trkpt>
      <trkpt lat="49.45287" lon="2.07093">
        <ele>111.20967102051</ele>
        <time>2017-05-21T07:20:18.000Z</time>
      </trkpt>
      <trkpt lat="49.4529" lon="2.07084">
        <ele>111.6800994873</ele>
        <time>2017-05-21T07:20:20.000Z</time>
      </trkpt>
      <trkpt lat="49.45293" lon="2.07075">
        <ele>112.30922698975</ele>
        <time>2017-05-21T07:20:22.000Z</time>
      </trkpt>
      <trkpt lat="49.45296" lon="2.07067">
        <ele>113.01812744141</ele>
        <time>2017-05-21T07:20:24.000Z</time>
      </trkpt>
      <trkpt lat="49.453" lon="2.07055">
        <ele>113.72253417969</ele>
        <time>2017-05-21T07:20:27.000Z</time>
      </trkpt>
      <trkpt lat="49.45304" lon="2.07042">
        <ele>114.36445617676</ele>
        <time>2017-05-21T07:20:30.000Z</time>
      </trkpt>
      <trkpt lat="49.45306" lon="2.07025">
        <ele>114.92478942871</ele>
        <time>2017-05-21T07:20:33.000Z</time>
      </trkpt>
      <trkpt lat="49.45307" lon="2.07008">
        <ele>115.47319030762</ele>
        <time>2017-05-21T07:20:36.000Z</time>
      </trkpt>
      <trkpt lat="49.45308" lon="2.07003">
        <ele>115.9585723877</ele>
        <time>2017-05-21T07:20:38.000Z</time>
      </trkpt>
      <trkpt lat="49.45313" lon="2.06993">
        <ele>116.41302490234</ele>
        <time>2017-05-21T07:20:41.000Z</time>
      </trkpt>
      <trkpt lat="49.45317" lon="2.06987">
        <ele>116.819480896</ele>
        <time>2017-05-21T07:20:43.000Z</time>
      </trkpt>
      <trkpt lat="49.45322" lon="2.06977">
        <ele>117.21347808838</ele>
        <time>2017-05-21T07:20:46.000Z</time>
      </trkpt>
      <trkpt lat="49.45327" lon="2.06965">
        <ele>117.61682128906</ele>
        <time>2017-05-21T07:20:49.000Z</time>
      </trkpt>
      <trkpt lat="49.45332" lon="2.06958">
        <ele>118.06059265137</ele>
        <time>2017-05-21T07:20:52.000Z</time>
      </trkpt>
      <trkpt lat="49.45336" lon="2.0695">
        <ele>118.48182678223</ele>
        <time>2017-05-21T07:20:55.000Z</time>
      </trkpt>
      <trkpt lat="49.45338" lon="2.06944">
        <ele>118.88243103027</ele>
        <time>2017-05-21T07:20:57.000Z</time>
      </trkpt>
      <trkpt lat="49.45342" lon="2.06935">
        <ele>119.2657623291</ele>
        <time>2017-05-21T07:21:00.000Z</time>
      </trkpt>
      <trkpt lat="49.45345" lon="2.06929">
        <ele>119.6004486084</ele>
        <time>2017-05-21T07:21:02.000Z</time>
      </trkpt>
      <trkpt lat="49.45351" lon="2.06922">
        <ele>119.95707702637</ele>
        <time>2017-05-21T07:21:05.000Z</time>
      </trkpt>
      <trkpt lat="49.45358" lon="2.0691">
        <ele>120.36933898926</ele>
        <time>2017-05-21T07:21:08.000Z</time>
      </trkpt>
      <trkpt lat="49.45365" lon="2.06897">
        <ele>120.86965179443</ele>
        <time>2017-05-21T07:21:11.000Z</time>
      </trkpt>
      <trkpt lat="49.45369" lon="2.06886">
        <ele>121.40525054932</ele>
        <time>2017-05-21T07:21:14.000Z</time>
      </trkpt>
      <trkpt lat="49.45373" lon="2.06874">
        <ele>121.98659515381</ele>
        <time>2017-05-21T07:21:16.000Z</time>
      </trkpt>
      <trkpt lat="49.45381" lon="2.06859">
        <ele>122.65383148193</ele>
        <time>2017-05-21T07:21:19.000Z</time>
      </trkpt>
      <trkpt lat="49.45388" lon="2.0685">
        <ele>123.3268661499</ele>
        <time>2017-05-21T07:21:21.000Z</time>
      </trkpt>
      <trkpt lat="49.45395" lon="2.06843">
        <ele>123.98622131348</ele>
        <time>2017-05-21T07:21:23.000Z</time>
      </trkpt>
      <trkpt lat="49.45403" lon="2.06832">
        <ele>124.70192718506</ele>
        <time>2017-05-21T07:21:26.000Z</time>
      </trkpt>
      <trkpt lat="49.45406" lon="2.06829">
        <ele>125.35711669922</ele>
        <time>2017-05-21T07:21:28.000Z</time>
      </trkpt>
      <trkpt lat="49.45411" lon="2.0682">
        <ele>125.90985107422</ele>
        <time>2017-05-21T07:21:31.000Z</time>
      </trkpt>
      <trkpt lat="49.45414" lon="2.06813">
        <ele>126.37446594238</ele>
        <time>2017-05-21T07:21:33.000Z</time>
      </trkpt>
      <trkpt lat="49.45419" lon="2.06806">
        <ele>126.77394866943</ele>
        <time>2017-05-21T07:21:36.000Z</time>
      </trkpt>
      <trkpt lat="49.45423" lon="2.06801">
        <ele>127.02504730225</ele>
        <time>2017-05-21T07:21:39.000Z</time>
      </trkpt>
      <trkpt lat="49.45428" lon="2.06796">
        <ele>127.25771331787</ele>
        <time>2017-05-21T07:21:41.000Z</time>
      </trkpt>
      <trkpt lat="49.45437" lon="2.06781">
        <ele>127.4673614502</ele>
        <time>2017-05-21T07:21:44.000Z</time>
      </trkpt>
      <trkpt lat="49.45447" lon="2.06766">
        <ele>127.68923187256</ele>
        <time>2017-05-21T07:21:47.000Z</time>
      </trkpt>
      <trkpt lat="49.45454" lon="2.06757">
        <ele>127.89117431641</ele>
        <time>2017-05-21T07:21:50.000Z</time>
      </trkpt>
      <trkpt lat="49.45459" lon="2.06747">
        <ele>128.09732055664</ele>
        <time>2017-05-21T07:21:52.000Z</time>
      </trkpt>
      <trkpt lat="49.45463" lon="2.06739">
        <ele>128.27542114258</ele>
        <time>2017-05-21T07:21:54.000Z</time>
      </trkpt>
      <trkpt lat="49.4547" lon="2.06728">
        <ele>128.39465332031</ele>
        <time>2017-05-21T07:21:57.000Z</time>
      </trkpt>
      <trkpt lat="49.45475" lon="2.06722">
        <ele>128.4545135498</ele>
        <time>2017-05-21T07:22:00.000Z</time>
      </trkpt>
      <trkpt lat="49.45479" lon="2.06722">
        <ele>128.4817199707</ele>
        <time>2017-05-21T07:22:03.000Z</time>
      </trkpt>
      <trkpt lat="49.45483" lon="2.06716">
        <ele>128.47702026367</ele>
        <time>2017-05-21T07:22:05.000Z</time>
      </trkpt>
      <trkpt lat="49.45488" lon="2.06708">
        <ele>128.46536254883</ele>
        <time>2017-05-21T07:22:07.000Z</time>
      </trkpt>
      <trkpt lat="49.45494" lon="2.06697">
        <ele>128.43930053711</ele>
        <time>2017-05-21T07:22:09.000Z</time>
      </trkpt>
      <trkpt lat="49.45502" lon="2.06684">
        <ele>128.3829498291</ele>
        <time>2017-05-21T07:22:12.000Z</time>
      </trkpt>
      <trkpt lat="49.45508" lon="2.06671">
        <ele>128.27694702148</ele>
        <time>2017-05-21T07:22:15.000Z</time>
      </trkpt>
      <trkpt lat="49.45512" lon="2.06662">
        <ele>128.1455078125</ele>
        <time>2017-05-21T07:22:17.000Z</time>
      </trkpt>
      <trkpt lat="49.45517" lon="2.06651">
        <ele>127.9767074585</ele>
        <time>2017-05-21T07:22:20.000Z</time>
      </trkpt>
      <trkpt lat="49.45518" lon="2.06648">
        <ele>127.80735015869</ele>
        <time>2017-05-21T07:22:22.000Z</time>
      </trkpt>
      <trkpt lat="49.4552" lon="2.06647">
        <ele>127.65400695801</ele>
        <time>2017-05-21T07:22:25.000Z</time>
      </trkpt>
      <trkpt lat="49.45523" lon="2.06647">
        <ele>127.52968597412</ele>
        <time>2017-05-21T07:22:27.000Z</time>
      </trkpt>
      <trkpt lat="49.45526" lon="2.06651">
        <ele>127.43416595459</ele>
        <time>2017-05-21T07:22:30.000Z</time>
      </trkpt>
      <trkpt lat="49.45531" lon="2.06653">
        <ele>127.37083435059</ele>
        <time>2017-05-21T07:22:33.000Z</time>
      </trkpt>
      <trkpt lat="49.45535" lon="2.06658">
        <ele>127.33129882812</ele>
        <time>2017-05-21T07:22:36.000Z</time>
      </trkpt>
      <trkpt lat="49.4554" lon="2.0666">
        <ele>127.30513763428</ele>
        <time>2017-05-21T07:22:38.000Z</time>
      </trkpt>
      <trkpt lat="49.45549" lon="2.06658">
        <ele>127.24527740479</ele>
        <time>2017-05-21T07:22:41.000Z</time>
      </trkpt>
      <trkpt lat="49.45558" lon="2.0666">
        <ele>127.16892242432</ele>
        <time>2017-05-21T07:22:44.000Z</time>
      </trkpt>
      <trkpt lat="49.45563" lon="2.06664">
        <ele>127.13789367676</ele>
        <time>2017-05-21T07:22:46.000Z</time>
      </trkpt>
      <trkpt lat="49.45571" lon="2.06668">
        <ele>127.11177062988</ele>
        <time>2017-05-21T07:22:49.000Z</time>
      </trkpt>
      <trkpt lat="49.45578" lon="2.06668">
        <ele>127.07487487793</ele>
        <time>2017-05-21T07:22:51.000Z</time>
      </trkpt>
      <trkpt lat="49.45592" lon="2.06665">
        <ele>126.86822509766</ele>
        <time>2017-05-21T07:22:54.000Z</time>
      </trkpt>
      <trkpt lat="49.45603" lon="2.06665">
        <ele>126.43711853027</ele>
        <time>2017-05-21T07:22:56.000Z</time>
      </trkpt>
      <trkpt lat="49.45615" lon="2.06664">
        <ele>125.7007598877</ele>
        <time>2017-05-21T07:22:59.000Z</time>
      </trkpt>
      <trkpt lat="49.45624" lon="2.06667">
        <ele>124.79679870605</ele>
        <time>2017-05-21T07:23:02.000Z</time>
      </trkpt>
      <trkpt lat="49.45633" lon="2.06673">
        <ele>123.73917388916</ele>
        <time>2017-05-21T07:23:05.000Z</time>
      </trkpt>
      <trkpt lat="49.45639" lon="2.06679">
        <ele>122.80543518066</ele>
        <time>2017-05-21T07:23:07.000Z</time>
      </trkpt>
      <trkpt lat="49.45647" lon="2.06693">
        <ele>122.03835296631</ele>
        <time>2017-05-21T07:23:10.000Z</time>
      </trkpt>
      <trkpt lat="49.45647" lon="2.06704">
        <ele>121.62480163574</ele>
        <time>2017-05-21T07:23:13.000Z</time>
      </trkpt>
      <trkpt lat="49.45644" lon="2.06711">
        <ele>121.46208190918</ele>
        <time>2017-05-21T07:23:15.000Z</time>
      </trkpt>
      <trkpt lat="49.45641" lon="2.06721">
        <ele>121.60898590088</ele>
        <time>2017-05-21T07:23:18.000Z</time>
      </trkpt>
      <trkpt lat="49.45636" lon="2.06733">
        <ele>122.01127624512</ele>
        <time>2017-05-21T07:23:21.000Z</time>
      </trkpt>
      <trkpt lat="49.45633" lon="2.06741">
        <ele>122.60695648193</ele>
        <time>2017-05-21T07:23:23.000Z</time>
      </trkpt>
      <trkpt lat="49.45631" lon="2.06749">
        <ele>123.22247314453</ele>
        <time>2017-05-21T07:23:25.000Z</time>
      </trkpt>
      <trkpt lat="49.45626" lon="2.06759">
        <ele>123.76163482666</ele>
        <time>2017-05-21T07:23:28.000Z</time>
      </trkpt>
      <trkpt lat="49.4562" lon="2.06767">
        <ele>124.21321105957</ele>
        <time>2017-05-21T07:23:31.000Z</time>
      </trkpt>
      <trkpt lat="49.45615" lon="2.06771">
        <ele>124.55879211426</ele>
        <time>2017-05-21T07:23:33.000Z</time>
      </trkpt>
      <trkpt lat="49.45608" lon="2.0678">
        <ele>124.86506652832</ele>
        <time>2017-05-21T07:23:36.000Z</time>
      </trkpt>
      <trkpt lat="49.45604" lon="2.06787">
        <ele>125.10441589355</ele>
        <time>2017-05-21T07:23:38.000Z</time>
      </trkpt>
      <trkpt lat="49.45601" lon="2.06795">
        <ele>125.31623840332</ele>
        <time>2017-05-21T07:23:40.000Z</time>
      </trkpt>
      <trkpt lat="49.45599" lon="2.06805">
        <ele>125.44124603271</ele>
        <time>2017-05-21T07:23:42.000Z</time>
      </trkpt>
      <trkpt lat="49.45596" lon="2.06824">
        <ele>125.42289733887</ele>
        <time>2017-05-21T07:23:45.000Z</time>
      </trkpt>
      <trkpt lat="49.45596" lon="2.06836">
        <ele>125.21291351318</ele>
        <time>2017-05-21T07:23:47.000Z</time>
      </trkpt>
      <trkpt lat="49.45593" lon="2.06854">
        <ele>124.77561187744</ele>
        <time>2017-05-21T07:23:50.000Z</time>
      </trkpt>
      <trkpt lat="49.45589" lon="2.06861">
        <ele>124.32060241699</ele>
        <time>2017-05-21T07:23:52.000Z</time>
      </trkpt>
      <trkpt lat="49.45584" lon="2.06867">
        <ele>123.93519592285</ele>
        <time>2017-05-21T07:23:55.000Z</time>
      </trkpt>
      <trkpt lat="49.45583" lon="2.06881">
        <ele>123.44987487793</ele>
        <time>2017-05-21T07:23:58.000Z</time>
      </trkpt>
      <trkpt lat="49.45581" lon="2.06895">
        <ele>122.90676116943</ele>
        <time>2017-05-21T07:24:00.000Z</time>
      </trkpt>
      <trkpt lat="49.45577" lon="2.06908">
        <ele>122.40943908691</ele>
        <time>2017-05-21T07:24:02.000Z</time>
      </trkpt>
      <trkpt lat="49.45571" lon="2.06925">
        <ele>121.79386901855</ele>
        <time>2017-05-21T07:24:05.000Z</time>
      </trkpt>
      <trkpt lat="49.45567" lon="2.06935">
        <ele>121.0973739624</ele>
        <time>2017-05-21T07:24:07.000Z</time>
      </trkpt>
      <trkpt lat="49.45561" lon="2.06952">
        <ele>120.47563171387</ele>
        <time>2017-05-21T07:24:10.000Z</time>
      </trkpt>
      <trkpt lat="49.45556" lon="2.06966">
        <ele>119.93890380859</ele>
        <time>2017-05-21T07:24:13.000Z</time>
      </trkpt>
      <trkpt lat="49.45552" lon="2.06973">
        <ele>119.54276275635</ele>
        <time>2017-05-21T07:24:16.000Z</time>
      </trkpt>
      <trkpt lat="49.4555" lon="2.06976">
        <ele>119.29831695557</ele>
        <time>2017-05-21T07:24:18.000Z</time>
      </trkpt>
      <trkpt lat="49.45548" lon="2.06983">
        <ele>119.06272125244</ele>
        <time>2017-05-21T07:24:21.000Z</time>
      </trkpt>
      <trkpt lat="49.45546" lon="2.06988">
        <ele>118.91064453125</ele>
        <time>2017-05-21T07:24:23.000Z</time>
      </trkpt>
      <trkpt lat="49.45543" lon="2.06995">
        <ele>118.83854675293</ele>
        <time>2017-05-21T07:24:26.000Z</time>
      </trkpt>
      <trkpt lat="49.45539" lon="2.07004">
        <ele>118.74141693115</ele>
        <time>2017-05-21T07:24:28.000Z</time>
      </trkpt>
      <trkpt lat="49.45532" lon="2.07013">
        <ele>118.64628601074</ele>
        <time>2017-05-21T07:24:31.000Z</time>
      </trkpt>
      <trkpt lat="49.45526" lon="2.07017">
        <ele>118.62839508057</ele>
        <time>2017-05-21T07:24:33.000Z</time>
      </trkpt>
      <trkpt lat="49.45519" lon="2.07024">
        <ele>118.67370605469</ele>
        <time>2017-05-21T07:24:35.000Z</time>
      </trkpt>
      <trkpt lat="49.45514" lon="2.07033">
        <ele>118.71115875244</ele>
        <time>2017-05-21T07:24:37.000Z</time>
      </trkpt>
      <trkpt lat="49.45503" lon="2.07046">
        <ele>118.80735015869</ele>
        <time>2017-05-21T07:24:40.000Z</time>
      </trkpt>
      <trkpt lat="49.45498" lon="2.07055">
        <ele>118.84069824219</ele>
        <time>2017-05-21T07:24:42.000Z</time>
      </trkpt>
      <trkpt lat="49.4549" lon="2.07069">
        <ele>118.65162658691</ele>
        <time>2017-05-21T07:24:45.000Z</time>
      </trkpt>
      <trkpt lat="49.45484" lon="2.07082">
        <ele>118.28245544434</ele>
        <time>2017-05-21T07:24:47.000Z</time>
      </trkpt>
      <trkpt lat="49.45477" lon="2.07094">
        <ele>117.68257141113</ele>
        <time>2017-05-21T07:24:50.000Z</time>
      </trkpt>
      <trkpt lat="49.45469" lon="2.07095">
        <ele>117.05065917969</ele>
        <time>2017-05-21T07:24:53.000Z</time>
      </trkpt>
      <trkpt lat="49.45464" lon="2.07095">
        <ele>116.47115325928</ele>
        <time>2017-05-21T07:24:55.000Z</time>
      </trkpt>
      <trkpt lat="49.45459" lon="2.07095">
        <ele>116.06247711182</ele>
        <time>2017-05-21T07:24:57.000Z</time>
      </trkpt>
      <trkpt lat="49.45451" lon="2.07092">
        <ele>115.86796569824</ele>
        <time>2017-05-21T07:25:00.000Z</time>
      </trkpt>
      <trkpt lat="49.45449" lon="2.07085">
        <ele>116.06093597412</ele>
        <time>2017-05-21T07:25:03.000Z</time>
      </trkpt>
      <trkpt lat="49.45447" lon="2.07081">
        <ele>116.32032775879</ele>
        <time>2017-05-21T07:25:05.000Z</time>
      </trkpt>
      <trkpt lat="49.45445" lon="2.07078">
        <ele>116.60988616943</ele>
        <time>2017-05-21T07:25:07.000Z</time>
      </trkpt>
      <trkpt lat="49.45437" lon="2.0707">
        <ele>116.99151611328</ele>
        <time>2017-05-21T07:25:10.000Z</time>
      </trkpt>
      <trkpt lat="49.45424" lon="2.07069">
        <ele>117.30879974365</ele>
        <time>2017-05-21T07:25:13.000Z</time>
      </trkpt>
      <trkpt lat="49.45417" lon="2.07075">
        <ele>117.4239730835</ele>
        <time>2017-05-21T07:25:15.000Z</time>
      </trkpt>
      <trkpt lat="49.45409" lon="2.07081">
        <ele>117.42385101318</ele>
        <time>2017-05-21T07:25:18.000Z</time>
      </trkpt>
      <trkpt lat="49.45401" lon="2.07086">
        <ele>117.31866455078</ele>
        <time>2017-05-21T07:25:21.000Z</time>
      </trkpt>
      <trkpt lat="49.45395" lon="2.07092">
        <ele>117.03121185303</ele>
        <time>2017-05-21T07:25:23.000Z</time>
      </trkpt>
      <trkpt lat="49.45389" lon="2.07098">
        <ele>116.62705993652</ele>
        <time>2017-05-21T07:25:25.000Z</time>
      </trkpt>
      <trkpt lat="49.4538" lon="2.0711">
        <ele>116.09016418457</ele>
        <time>2017-05-21T07:25:28.000Z</time>
      </trkpt>
      <trkpt lat="49.45374" lon="2.07115">
        <ele>115.53298187256</ele>
        <time>2017-05-21T07:25:30.000Z</time>
      </trkpt>
      <trkpt lat="49.45366" lon="2.07121">
        <ele>114.97292327881</ele>
        <time>2017-05-21T07:25:33.000Z</time>
      </trkpt>
      <trkpt lat="49.45359" lon="2.0713">
        <ele>114.39353179932</ele>
        <time>2017-05-21T07:25:36.000Z</time>
      </trkpt>
      <trkpt lat="49.45353" lon="2.07137">
        <ele>113.82585144043</ele>
        <time>2017-05-21T07:25:38.000Z</time>
      </trkpt>
      <trkpt lat="49.45346" lon="2.0715">
        <ele>113.28239440918</ele>
        <time>2017-05-21T07:25:40.000Z</time>
      </trkpt>
      <trkpt lat="49.45335" lon="2.07167">
        <ele>112.6089630127</ele>
        <time>2017-05-21T07:25:43.000Z</time>
      </trkpt>
      <trkpt lat="49.4533" lon="2.07165">
        <ele>111.98732757568</ele>
        <time>2017-05-21T07:25:46.000Z</time>
      </trkpt>
      <trkpt lat="49.4533" lon="2.07159">
        <ele>111.57472229004</ele>
        <time>2017-05-21T07:25:48.000Z</time>
      </trkpt>
      <trkpt lat="49.4533" lon="2.07155">
        <ele>111.32448577881</ele>
        <time>2017-05-21T07:25:50.000Z</time>
      </trkpt>
      <trkpt lat="49.45326" lon="2.07148">
        <ele>111.25921630859</ele>
        <time>2017-05-21T07:25:53.000Z</time>
      </trkpt>
      <trkpt lat="49.45317" lon="2.07145">
        <ele>111.27778625488</ele>
        <time>2017-05-21T07:25:56.000Z</time>
      </trkpt>
      <trkpt lat="49.45311" lon="2.07143">
        <ele>111.24243164062</ele>
        <time>2017-05-21T07:25:58.000Z</time>
      </trkpt>
      <trkpt lat="49.45304" lon="2.07139">
        <ele>111.05185699463</ele>
        <time>2017-05-21T07:26:01.000Z</time>
      </trkpt>
      <trkpt lat="49.45299" lon="2.07132">
        <ele>110.80283355713</ele>
        <time>2017-05-21T07:26:04.000Z</time>
      </trkpt>
      <trkpt lat="49.45295" lon="2.07121">
        <ele>110.6487197876</ele>
        <time>2017-05-21T07:26:07.000Z</time>
      </trkpt>
      <trkpt lat="49.45291" lon="2.07107">
        <ele>110.75001525879</ele>
        <time>2017-05-21T07:26:10.000Z</time>
      </trkpt>
      <trkpt lat="49.45288" lon="2.07102">
        <ele>110.96517181396</ele>
        <time>2017-05-21T07:26:12.000Z</time>
      </trkpt>
      <trkpt lat="49.4529" lon="2.07097">
        <ele>111.35068511963</ele>
        <time>2017-05-21T07:26:15.000Z</time>
      </trkpt>
      <trkpt lat="49.45291" lon="2.07091">
        <ele>111.85707092285</ele>
        <time>2017-05-21T07:26:17.000Z</time>
      </trkpt>
      <trkpt lat="49.45293" lon="2.07078">
        <ele>112.43007659912</ele>
        <time>2017-05-21T07:26:20.000Z</time>
      </trkpt>
      <trkpt lat="49.45295" lon="2.07071">
        <ele>112.95207214355</ele>
        <time>2017-05-21T07:26:22.000Z</time>
      </trkpt>
      <trkpt lat="49.453" lon="2.07062">
        <ele>113.56032562256</ele>
        <time>2017-05-21T07:26:25.000Z</time>
      </trkpt>
      <trkpt lat="49.45303" lon="2.07056">
        <ele>114.14070892334</ele>
        <time>2017-05-21T07:26:27.000Z</time>
      </trkpt>
      <trkpt lat="49.45305" lon="2.0705">
        <ele>114.65364074707</ele>
        <time>2017-05-21T07:26:29.000Z</time>
      </trkpt>
      <trkpt lat="49.45308" lon="2.0704">
        <ele>115.08058929443</ele>
        <time>2017-05-21T07:26:32.000Z</time>
      </trkpt>
      <trkpt lat="49.45309" lon="2.07031">
        <ele>115.47695159912</ele>
        <time>2017-05-21T07:26:34.000Z</time>
      </trkpt>
      <trkpt lat="49.45311" lon="2.07022">
        <ele>115.81629943848</ele>
        <time>2017-05-21T07:26:36.000Z</time>
      </trkpt>
      <trkpt lat="49.45315" lon="2.07011">
        <ele>116.16636657715</ele>
        <time>2017-05-21T07:26:39.000Z</time>
      </trkpt>
      <trkpt lat="49.45318" lon="2.07005">
        <ele>116.51499938965</ele>
        <time>2017-05-21T07:26:41.000Z</time>
      </trkpt>
      <trkpt lat="49.45321" lon="2.07001">
        <ele>116.81965637207</ele>
        <time>2017-05-21T07:26:43.000Z</time>
      </trkpt>
      <trkpt lat="49.45326" lon="2.06992">
        <ele>117.16422271729</ele>
        <time>2017-05-21T07:26:46.000Z</time>
      </trkpt>
      <trkpt lat="49.4533" lon="2.06983">
        <ele>117.52325439453</ele>
        <time>2017-05-21T07:26:49.000Z</time>
      </trkpt>
      <trkpt lat="49.45332" lon="2.06977">
        <ele>117.84019470215</ele>
        <time>2017-05-21T07:26:51.000Z</time>
      </trkpt>
      <trkpt lat="49.45333" lon="2.0697">
        <ele>118.15428161621</ele>
        <time>2017-05-21T07:26:53.000Z</time>
      </trkpt>
      <trkpt lat="49.45336" lon="2.06963">
        <ele>118.46614837646</ele>
        <time>2017-05-21T07:26:55.000Z</time>
      </trkpt>
      <trkpt lat="49.4534" lon="2.06957">
        <ele>118.75769042969</ele>
        <time>2017-05-21T07:26:58.000Z</time>
      </trkpt>
      <trkpt lat="49.45343" lon="2.06952">
        <ele>119.02366638184</ele>
        <time>2017-05-21T07:27:00.000Z</time>
      </trkpt>
      <trkpt lat="49.45345" lon="2.06947">
        <ele>119.28562927246</ele>
        <time>2017-05-21T07:27:02.000Z</time>
      </trkpt>
      <trkpt lat="49.4535" lon="2.0694">
        <ele>119.56910705566</ele>
        <time>2017-05-21T07:27:04.000Z</time>
      </trkpt>
      <trkpt lat="49.45353" lon="2.06934">
        <ele>119.86351013184</ele>
        <time>2017-05-21T07:27:06.000Z</time>
      </trkpt>
      <trkpt lat="49.45355" lon="2.06926">
        <ele>120.15270996094</ele>
        <time>2017-05-21T07:27:09.000Z</time>
      </trkpt>
      <trkpt lat="49.45356" lon="2.06922">
        <ele>120.4264755249</ele>
        <time>2017-05-21T07:27:11.000Z</time>
      </trkpt>
      <trkpt lat="49.45358" lon="2.06917">
        <ele>120.70007324219</ele>
        <time>2017-05-21T07:27:13.000Z</time>
      </trkpt>
      <trkpt lat="49.45358" lon="2.06909">
        <ele>120.94653320312</ele>
        <time>2017-05-21T07:27:16.000Z</time>
      </trkpt>
      <trkpt lat="49.45357" lon="2.069">
        <ele>121.17934417725</ele>
        <time>2017-05-21T07:27:19.000Z</time>
      </trkpt>
      <trkpt lat="49.4535" lon="2.06887">
        <ele>121.33702087402</ele>
        <time>2017-05-21T07:27:22.000Z</time>
      </trkpt>
      <trkpt lat="49.45337" lon="2.06882">
        <ele>121.34925842285</ele>
        <time>2017-05-21T07:27:25.000Z</time>
      </trkpt>
      <trkpt lat="49.45325" lon="2.06882">
        <ele>121.229637146</ele>
        <time>2017-05-21T07:27:28.000Z</time>
      </trkpt>
      <trkpt lat="49.45315" lon="2.06884">
        <ele>120.99308013916</ele>
        <time>2017-05-21T07:27:30.000Z</time>
      </trkpt>
      <trkpt lat="49.45297" lon="2.0689">
        <ele>120.56352233887</ele>
        <time>2017-05-21T07:27:33.000Z</time>
      </trkpt>
      <trkpt lat="49.45287" lon="2.06898">
        <ele>120.03399658203</ele>
        <time>2017-05-21T07:27:36.000Z</time>
      </trkpt>
      <trkpt lat="49.45285" lon="2.06899">
        <ele>119.59167480469</ele>
        <time>2017-05-21T07:27:38.000Z</time>
      </trkpt>
      <trkpt lat="49.45282" lon="2.06904">
        <ele>119.18613433838</ele>
        <time>2017-05-21T07:27:43.000Z</time>
      </trkpt>
      <trkpt lat="49.45278" lon="2.06907">
        <ele>118.80879211426</ele>
        <time>2017-05-21T07:27:57.000Z</time>
      </trkpt>
      <trkpt lat="49.45275" lon="2.06909">
        <ele>118.54441833496</ele>
        <time>2017-05-21T07:27:59.000Z</time>
      </trkpt>
      <trkpt lat="49.45267" lon="2.06915">
        <ele>118.29386901855</ele>
        <time>2017-05-21T07:28:02.000Z</time>
      </trkpt>
      <trkpt lat="49.45254" lon="2.06928">
        <ele>117.88346099854</ele>
        <time>2017-05-21T07:28:05.000Z</time>
      </trkpt>
      <trkpt lat="49.45244" lon="2.06953">
        <ele>117.22420501709</ele>
        <time>2017-05-21T07:28:08.000Z</time>
      </trkpt>
      <trkpt lat="49.45237" lon="2.06979">
        <ele>116.25588226318</ele>
        <time>2017-05-21T07:28:11.000Z</time>
      </trkpt>
      <trkpt lat="49.4523" lon="2.07005">
        <ele>114.93853759766</ele>
        <time>2017-05-21T07:28:14.000Z</time>
      </trkpt>
      <trkpt lat="49.45228" lon="2.07017">
        <ele>113.52498626709</ele>
        <time>2017-05-21T07:28:16.000Z</time>
      </trkpt>
      <trkpt lat="49.45224" lon="2.07022">
        <ele>112.11845397949</ele>
        <time>2017-05-21T07:28:19.000Z</time>
      </trkpt>
      <trkpt lat="49.45218" lon="2.0702">
        <ele>110.89442443848</ele>
        <time>2017-05-21T07:28:22.000Z</time>
      </trkpt>
      <trkpt lat="49.45214" lon="2.07015">
        <ele>109.99281311035</ele>
        <time>2017-05-21T07:28:24.000Z</time>
      </trkpt>
      <trkpt lat="49.45213" lon="2.07009">
        <ele>109.53778076172</ele>
        <time>2017-05-21T07:28:26.000Z</time>
      </trkpt>
      <trkpt lat="49.4521" lon="2.07001">
        <ele>109.34669494629</ele>
        <time>2017-05-21T07:28:28.000Z</time>
      </trkpt>
      <trkpt lat="49.45208" lon="2.06994">
        <ele>109.36956787109</ele>
        <time>2017-05-21T07:28:30.000Z</time>
      </trkpt>
      <trkpt lat="49.45197" lon="2.06981">
        <ele>109.47827148438</ele>
        <time>2017-05-21T07:28:33.000Z</time>
      </trkpt>
      <trkpt lat="49.45184" lon="2.06969">
        <ele>109.58880615234</ele>
        <time>2017-05-21T07:28:36.000Z</time>
      </trkpt>
      <trkpt lat="49.45177" lon="2.06959">
        <ele>109.68424987793</ele>
        <time>2017-05-21T07:28:38.000Z</time>
      </trkpt>
      <trkpt lat="49.45167" lon="2.06944">
        <ele>109.846534729</ele>
        <time>2017-05-21T07:28:41.000Z</time>
      </trkpt>
      <trkpt lat="49.45157" lon="2.06933">
        <ele>109.88432312012</ele>
        <time>2017-05-21T07:28:44.000Z</time>
      </trkpt>
      <trkpt lat="49.45151" lon="2.06927">
        <ele>109.85501861572</ele>
        <time>2017-05-21T07:28:46.000Z</time>
      </trkpt>
      <trkpt lat="49.45144" lon="2.06919">
        <ele>109.80848693848</ele>
        <time>2017-05-21T07:28:49.000Z</time>
      </trkpt>
      <trkpt lat="49.45139" lon="2.06907">
        <ele>109.7208480835</ele>
        <time>2017-05-21T07:28:52.000Z</time>
      </trkpt>
      <trkpt lat="49.45134" lon="2.06895">
        <ele>109.54020690918</ele>
        <time>2017-05-21T07:28:55.000Z</time>
      </trkpt>
      <trkpt lat="49.45132" lon="2.0689">
        <ele>109.48260498047</ele>
        <time>2017-05-21T07:28:57.000Z</time>
      </trkpt>
      <trkpt lat="49.45129" lon="2.06886">
        <ele>109.51364898682</ele>
        <time>2017-05-21T07:28:59.000Z</time>
      </trkpt>
      <trkpt lat="49.45129" lon="2.06876">
        <ele>109.73188781738</ele>
        <time>2017-05-21T07:29:02.000Z</time>
      </trkpt>
      <trkpt lat="49.45125" lon="2.06866">
        <ele>110.02561950684</ele>
        <time>2017-05-21T07:29:05.000Z</time>
      </trkpt>
      <trkpt lat="49.45116" lon="2.06857">
        <ele>110.20595550537</ele>
        <time>2017-05-21T07:29:08.000Z</time>
      </trkpt>
      <trkpt lat="49.45109" lon="2.06853">
        <ele>110.2425994873</ele>
        <time>2017-05-21T07:29:10.000Z</time>
      </trkpt>
      <trkpt lat="49.45098" lon="2.06848">
        <ele>110.13940429688</ele>
        <time>2017-05-21T07:29:13.000Z</time>
      </trkpt>
      <trkpt lat="49.45092" lon="2.06842">
        <ele>109.87084960938</ele>
        <time>2017-05-21T07:29:15.000Z</time>
      </trkpt>
      <trkpt lat="49.45085" lon="2.06829">
        <ele>109.58414459229</ele>
        <time>2017-05-21T07:29:18.000Z</time>
      </trkpt>
      <trkpt lat="49.45078" lon="2.06813">
        <ele>109.34678649902</ele>
        <time>2017-05-21T07:29:21.000Z</time>
      </trkpt>
      <trkpt lat="49.45071" lon="2.06807">
        <ele>109.11008453369</ele>
        <time>2017-05-21T07:29:23.000Z</time>
      </trkpt>
      <trkpt lat="49.45065" lon="2.06802">
        <ele>108.92626953125</ele>
        <time>2017-05-21T07:29:25.000Z</time>
      </trkpt>
      <trkpt lat="49.45062" lon="2.06795">
        <ele>108.78022766113</ele>
        <time>2017-05-21T07:29:27.000Z</time>
      </trkpt>
      <trkpt lat="49.45058" lon="2.06787">
        <ele>108.56927490234</ele>
        <time>2017-05-21T07:29:29.000Z</time>
      </trkpt>
      <trkpt lat="49.45049" lon="2.06771">
        <ele>108.31561279297</ele>
        <time>2017-05-21T07:29:32.000Z</time>
      </trkpt>
      <trkpt lat="49.45039" lon="2.06758">
        <ele>108.12467956543</ele>
        <time>2017-05-21T07:29:35.000Z</time>
      </trkpt>
      <trkpt lat="49.45035" lon="2.06746">
        <ele>108.06465148926</ele>
        <time>2017-05-21T07:29:37.000Z</time>
      </trkpt>
      <trkpt lat="49.45032" lon="2.06737">
        <ele>108.01149749756</ele>
        <time>2017-05-21T07:29:39.000Z</time>
      </trkpt>
      <trkpt lat="49.45027" lon="2.06726">
        <ele>107.95072937012</ele>
        <time>2017-05-21T07:29:42.000Z</time>
      </trkpt>
      <trkpt lat="49.45021" lon="2.06715">
        <ele>107.8946762085</ele>
        <time>2017-05-21T07:29:45.000Z</time>
      </trkpt>
      <trkpt lat="49.45007" lon="2.06712">
        <ele>107.58419036865</ele>
        <time>2017-05-21T07:29:48.000Z</time>
      </trkpt>
      <trkpt lat="49.44987" lon="2.06708">
        <ele>106.73532867432</ele>
        <time>2017-05-21T07:29:51.000Z</time>
      </trkpt>
      <trkpt lat="49.44978" lon="2.06701">
        <ele>105.66469573975</ele>
        <time>2017-05-21T07:29:53.000Z</time>
      </trkpt>
      <trkpt lat="49.44967" lon="2.06684">
        <ele>104.39450836182</ele>
        <time>2017-05-21T07:29:56.000Z</time>
      </trkpt>
      <trkpt lat="49.44959" lon="2.06672">
        <ele>103.03391265869</ele>
        <time>2017-05-21T07:29:58.000Z</time>
      </trkpt>
      <trkpt lat="49.4495" lon="2.06661">
        <ele>101.7481842041</ele>
        <time>2017-05-21T07:30:00.000Z</time>
      </trkpt>
      <trkpt lat="49.44938" lon="2.06644">
        <ele>100.57672119141</ele>
        <time>2017-05-21T07:30:03.000Z</time>
      </trkpt>
      <trkpt lat="49.44931" lon="2.06631">
        <ele>99.416793823242</ele>
        <time>2017-05-21T07:30:06.000Z</time>
      </trkpt>
      <trkpt lat="49.44924" lon="2.06622">
        <ele>98.277725219727</ele>
        <time>2017-05-21T07:30:08.000Z</time>
      </trkpt>
      <trkpt lat="49.44917" lon="2.06618">
        <ele>97.104583740234</ele>
        <time>2017-05-21T07:30:10.000Z</time>
      </trkpt>
      <trkpt lat="49.44906" lon="2.06619">
        <ele>95.916763305664</ele>
        <time>2017-05-21T07:30:13.000Z</time>
      </trkpt>
      <trkpt lat="49.44894" lon="2.06635">
        <ele>94.881446838379</ele>
        <time>2017-05-21T07:30:16.000Z</time>
      </trkpt>
      <trkpt lat="49.44885" lon="2.06646">
        <ele>93.90087890625</ele>
        <time>2017-05-21T07:30:18.000Z</time>
      </trkpt>
      <trkpt lat="49.44872" lon="2.06661">
        <ele>92.933349609375</ele>
        <time>2017-05-21T07:30:21.000Z</time>
      </trkpt>
      <trkpt lat="49.44864" lon="2.06671">
        <ele>92.052513122559</ele>
        <time>2017-05-21T07:30:23.000Z</time>
      </trkpt>
      <trkpt lat="49.44852" lon="2.06689">
        <ele>91.294166564941</ele>
        <time>2017-05-21T07:30:26.000Z</time>
      </trkpt>
      <trkpt lat="49.44839" lon="2.06705">
        <ele>90.705215454102</ele>
        <time>2017-05-21T07:30:29.000Z</time>
      </trkpt>
      <trkpt lat="49.44827" lon="2.06722">
        <ele>90.187767028809</ele>
        <time>2017-05-21T07:30:32.000Z</time>
      </trkpt>
      <trkpt lat="49.44815" lon="2.06739">
        <ele>89.730590820312</ele>
        <time>2017-05-21T07:30:35.000Z</time>
      </trkpt>
      <trkpt lat="49.44806" lon="2.06749">
        <ele>89.272514343262</ele>
        <time>2017-05-21T07:30:37.000Z</time>
      </trkpt>
      <trkpt lat="49.44797" lon="2.0676">
        <ele>88.806663513184</ele>
        <time>2017-05-21T07:30:39.000Z</time>
      </trkpt>
      <trkpt lat="49.44783" lon="2.0678">
        <ele>88.252029418945</ele>
        <time>2017-05-21T07:30:42.000Z</time>
      </trkpt>
      <trkpt lat="49.4477" lon="2.06802">
        <ele>87.662788391113</ele>
        <time>2017-05-21T07:30:45.000Z</time>
      </trkpt>
      <trkpt lat="49.44756" lon="2.0682">
        <ele>87.082168579102</ele>
        <time>2017-05-21T07:30:48.000Z</time>
      </trkpt>
      <trkpt lat="49.44746" lon="2.06841">
        <ele>86.499641418457</ele>
        <time>2017-05-21T07:30:51.000Z</time>
      </trkpt>
      <trkpt lat="49.44739" lon="2.06854">
        <ele>85.826278686523</ele>
        <time>2017-05-21T07:30:53.000Z</time>
      </trkpt>
      <trkpt lat="49.44731" lon="2.06861">
        <ele>85.130729675293</ele>
        <time>2017-05-21T07:30:55.000Z</time>
      </trkpt>
      <trkpt lat="49.44718" lon="2.06881">
        <ele>84.305366516113</ele>
        <time>2017-05-21T07:30:58.000Z</time>
      </trkpt>
      <trkpt lat="49.44709" lon="2.06897">
        <ele>83.507438659668</ele>
        <time>2017-05-21T07:31:00.000Z</time>
      </trkpt>
      <trkpt lat="49.44696" lon="2.06917">
        <ele>82.774826049805</ele>
        <time>2017-05-21T07:31:03.000Z</time>
      </trkpt>
      <trkpt lat="49.44683" lon="2.06937">
        <ele>82.24242401123</ele>
        <time>2017-05-21T07:31:06.000Z</time>
      </trkpt>
      <trkpt lat="49.44669" lon="2.06957">
        <ele>81.868560791016</ele>
        <time>2017-05-21T07:31:09.000Z</time>
      </trkpt>
      <trkpt lat="49.44661" lon="2.06969">
        <ele>81.673751831055</ele>
        <time>2017-05-21T07:31:11.000Z</time>
      </trkpt>
      <trkpt lat="49.44646" lon="2.06991">
        <ele>81.440223693848</ele>
        <time>2017-05-21T07:31:14.000Z</time>
      </trkpt>
      <trkpt lat="49.44632" lon="2.07016">
        <ele>81.009963989258</ele>
        <time>2017-05-21T07:31:17.000Z</time>
      </trkpt>
      <trkpt lat="49.44618" lon="2.07041">
        <ele>80.372329711914</ele>
        <time>2017-05-21T07:31:20.000Z</time>
      </trkpt>
      <trkpt lat="49.44608" lon="2.07056">
        <ele>79.637313842773</ele>
        <time>2017-05-21T07:31:22.000Z</time>
      </trkpt>
      <trkpt lat="49.44593" lon="2.07077">
        <ele>78.839515686035</ele>
        <time>2017-05-21T07:31:25.000Z</time>
      </trkpt>
      <trkpt lat="49.44582" lon="2.07088">
        <ele>78.095306396484</ele>
        <time>2017-05-21T07:31:27.000Z</time>
      </trkpt>
      <trkpt lat="49.44572" lon="2.07104">
        <ele>77.478164672852</ele>
        <time>2017-05-21T07:31:29.000Z</time>
      </trkpt>
      <trkpt lat="49.44558" lon="2.07122">
        <ele>76.969711303711</ele>
        <time>2017-05-21T07:31:32.000Z</time>
      </trkpt>
      <trkpt lat="49.44549" lon="2.07135">
        <ele>76.525436401367</ele>
        <time>2017-05-21T07:31:34.000Z</time>
      </trkpt>
      <trkpt lat="49.44535" lon="2.07154">
        <ele>76.160018920898</ele>
        <time>2017-05-21T07:31:37.000Z</time>
      </trkpt>
      <trkpt lat="49.44528" lon="2.07152">
        <ele>75.747489929199</ele>
        <time>2017-05-21T07:31:40.000Z</time>
      </trkpt>
      <trkpt lat="49.44513" lon="2.07118">
        <ele>74.859420776367</ele>
        <time>2017-05-21T07:31:44.000Z</time>
      </trkpt>
      <trkpt lat="49.44503" lon="2.071">
        <ele>73.709022521973</ele>
        <time>2017-05-21T07:31:46.000Z</time>
      </trkpt>
      <trkpt lat="49.4449" lon="2.07072">
        <ele>72.336524963379</ele>
        <time>2017-05-21T07:31:49.000Z</time>
      </trkpt>
      <trkpt lat="49.4449" lon="2.07058">
        <ele>70.983352661133</ele>
        <time>2017-05-21T07:31:51.000Z</time>
      </trkpt>
      <trkpt lat="49.44482" lon="2.07053">
        <ele>69.698295593262</ele>
        <time>2017-05-21T07:31:53.000Z</time>
      </trkpt>
      <trkpt lat="49.44473" lon="2.07063">
        <ele>68.967216491699</ele>
        <time>2017-05-21T07:31:56.000Z</time>
      </trkpt>
      <trkpt lat="49.44467" lon="2.07066">
        <ele>68.592178344727</ele>
        <time>2017-05-21T07:31:58.000Z</time>
      </trkpt>
      <trkpt lat="49.44461" lon="2.07071">
        <ele>68.488479614258</ele>
        <time>2017-05-21T07:32:01.000Z</time>
      </trkpt>
      <trkpt lat="49.44445" lon="2.07078">
        <ele>68.372749328613</ele>
        <time>2017-05-21T07:32:04.000Z</time>
      </trkpt>
      <trkpt lat="49.44433" lon="2.07089">
        <ele>68.349784851074</ele>
        <time>2017-05-21T07:32:07.000Z</time>
      </trkpt>
      <trkpt lat="49.44427" lon="2.0709">
        <ele>68.340957641602</ele>
        <time>2017-05-21T07:32:09.000Z</time>
      </trkpt>
      <trkpt lat="49.44413" lon="2.07105">
        <ele>68.396446228027</ele>
        <time>2017-05-21T07:32:12.000Z</time>
      </trkpt>
      <trkpt lat="49.44398" lon="2.07108">
        <ele>68.338287353516</ele>
        <time>2017-05-21T07:32:15.000Z</time>
      </trkpt>
      <trkpt lat="49.44387" lon="2.07117">
        <ele>68.284851074219</ele>
        <time>2017-05-21T07:32:17.000Z</time>
      </trkpt>
      <trkpt lat="49.44371" lon="2.07131">
        <ele>68.16202545166</ele>
        <time>2017-05-21T07:32:20.000Z</time>
      </trkpt>
      <trkpt lat="49.44357" lon="2.07142">
        <ele>68.035827636719</ele>
        <time>2017-05-21T07:32:23.000Z</time>
      </trkpt>
      <trkpt lat="49.44351" lon="2.0715">
        <ele>67.891250610352</ele>
        <time>2017-05-21T07:32:25.000Z</time>
      </trkpt>
      <trkpt lat="49.44339" lon="2.07169">
        <ele>67.930435180664</ele>
        <time>2017-05-21T07:32:28.000Z</time>
      </trkpt>
      <trkpt lat="49.44331" lon="2.07178">
        <ele>67.979263305664</ele>
        <time>2017-05-21T07:32:30.000Z</time>
      </trkpt>
      <trkpt lat="49.44326" lon="2.07188">
        <ele>68.094497680664</ele>
        <time>2017-05-21T07:32:33.000Z</time>
      </trkpt>
      <trkpt lat="49.44318" lon="2.07193">
        <ele>68.269309997559</ele>
        <time>2017-05-21T07:32:35.000Z</time>
      </trkpt>
      <trkpt lat="49.44298" lon="2.07201">
        <ele>68.505851745605</ele>
        <time>2017-05-21T07:32:38.000Z</time>
      </trkpt>
      <trkpt lat="49.44285" lon="2.07212">
        <ele>68.738845825195</ele>
        <time>2017-05-21T07:32:41.000Z</time>
      </trkpt>
      <trkpt lat="49.4427" lon="2.07222">
        <ele>69.041610717773</ele>
        <time>2017-05-21T07:32:44.000Z</time>
      </trkpt>
      <trkpt lat="49.44264" lon="2.07214">
        <ele>69.312889099121</ele>
        <time>2017-05-21T07:32:47.000Z</time>
      </trkpt>
      <trkpt lat="49.44261" lon="2.07202">
        <ele>69.543571472168</ele>
        <time>2017-05-21T07:32:49.000Z</time>
      </trkpt>
      <trkpt lat="49.44263" lon="2.07187">
        <ele>69.672622680664</ele>
        <time>2017-05-21T07:32:52.000Z</time>
      </trkpt>
      <trkpt lat="49.44258" lon="2.07166">
        <ele>69.746673583984</ele>
        <time>2017-05-21T07:32:55.000Z</time>
      </trkpt>
      <trkpt lat="49.44247" lon="2.07145">
        <ele>69.647369384766</ele>
        <time>2017-05-21T07:32:58.000Z</time>
      </trkpt>
      <trkpt lat="49.44246" lon="2.07134">
        <ele>69.451530456543</ele>
        <time>2017-05-21T07:33:00.000Z</time>
      </trkpt>
      <trkpt lat="49.44242" lon="2.07108">
        <ele>69.066467285156</ele>
        <time>2017-05-21T07:33:03.000Z</time>
      </trkpt>
      <trkpt lat="49.44238" lon="2.0708">
        <ele>68.506240844727</ele>
        <time>2017-05-21T07:33:06.000Z</time>
      </trkpt>
      <trkpt lat="49.44233" lon="2.07064">
        <ele>67.860885620117</ele>
        <time>2017-05-21T07:33:08.000Z</time>
      </trkpt>
      <trkpt lat="49.44222" lon="2.07041">
        <ele>67.220344543457</ele>
        <time>2017-05-21T07:33:11.000Z</time>
      </trkpt>
      <trkpt lat="49.44199" lon="2.07021">
        <ele>66.566833496094</ele>
        <time>2017-05-21T07:33:14.000Z</time>
      </trkpt>
      <trkpt lat="49.44193" lon="2.0701">
        <ele>66.039733886719</ele>
        <time>2017-05-21T07:33:16.000Z</time>
      </trkpt>
      <trkpt lat="49.44182" lon="2.06984">
        <ele>65.653648376465</ele>
        <time>2017-05-21T07:33:19.000Z</time>
      </trkpt>
      <trkpt lat="49.44175" lon="2.06965">
        <ele>65.346542358398</ele>
        <time>2017-05-21T07:33:21.000Z</time>
      </trkpt>
      <trkpt lat="49.44166" lon="2.06939">
        <ele>65.148796081543</ele>
        <time>2017-05-21T07:33:24.000Z</time>
      </trkpt>
      <trkpt lat="49.44159" lon="2.06925">
        <ele>65.04402923584</ele>
        <time>2017-05-21T07:33:26.000Z</time>
      </trkpt>
      <trkpt lat="49.4415" lon="2.06906">
        <ele>65.029991149902</ele>
        <time>2017-05-21T07:33:29.000Z</time>
      </trkpt>
      <trkpt lat="49.44141" lon="2.06886">
        <ele>65.125633239746</ele>
        <time>2017-05-21T07:33:32.000Z</time>
      </trkpt>
      <trkpt lat="49.44137" lon="2.06872">
        <ele>65.272621154785</ele>
        <time>2017-05-21T07:33:34.000Z</time>
      </trkpt>
      <trkpt lat="49.44131" lon="2.06858">
        <ele>65.472152709961</ele>
        <time>2017-05-21T07:33:36.000Z</time>
      </trkpt>
      <trkpt lat="49.44126" lon="2.06845">
        <ele>65.730880737305</ele>
        <time>2017-05-21T07:33:38.000Z</time>
      </trkpt>
      <trkpt lat="49.44115" lon="2.06828">
        <ele>66.015274047852</ele>
        <time>2017-05-21T07:33:41.000Z</time>
      </trkpt>
      <trkpt lat="49.44103" lon="2.06808">
        <ele>66.226455688477</ele>
        <time>2017-05-21T07:33:44.000Z</time>
      </trkpt>
      <trkpt lat="49.44096" lon="2.06796">
        <ele>66.372100830078</ele>
        <time>2017-05-21T07:33:46.000Z</time>
      </trkpt>
      <trkpt lat="49.4409" lon="2.06783">
        <ele>66.446182250977</ele>
        <time>2017-05-21T07:33:48.000Z</time>
      </trkpt>
      <trkpt lat="49.44078" lon="2.06763">
        <ele>66.406272888184</ele>
        <time>2017-05-21T07:33:51.000Z</time>
      </trkpt>
      <trkpt lat="49.44072" lon="2.0675">
        <ele>66.262397766113</ele>
        <time>2017-05-21T07:33:53.000Z</time>
      </trkpt>
      <trkpt lat="49.44066" lon="2.06739">
        <ele>66.09349822998</ele>
        <time>2017-05-21T07:33:55.000Z</time>
      </trkpt>
      <trkpt lat="49.4406" lon="2.06729">
        <ele>65.909278869629</ele>
        <time>2017-05-21T07:33:58.000Z</time>
      </trkpt>
      <trkpt lat="49.44059" lon="2.06724">
        <ele>65.731887817383</ele>
        <time>2017-05-21T07:34:00.000Z</time>
      </trkpt>
      <trkpt lat="49.44059" lon="2.06717">
        <ele>65.600006103516</ele>
        <time>2017-05-21T07:34:02.000Z</time>
      </trkpt>
      <trkpt lat="49.44063" lon="2.0671">
        <ele>65.505577087402</ele>
        <time>2017-05-21T07:34:04.000Z</time>
      </trkpt>
      <trkpt lat="49.44072" lon="2.067">
        <ele>65.437637329102</ele>
        <time>2017-05-21T07:34:07.000Z</time>
      </trkpt>
      <trkpt lat="49.44078" lon="2.06695">
        <ele>65.392776489258</ele>
        <time>2017-05-21T07:34:09.000Z</time>
      </trkpt>
      <trkpt lat="49.4409" lon="2.06679">
        <ele>65.365394592285</ele>
        <time>2017-05-21T07:34:12.000Z</time>
      </trkpt>
      <trkpt lat="49.44095" lon="2.06671">
        <ele>65.370254516602</ele>
        <time>2017-05-21T07:34:14.000Z</time>
      </trkpt>
      <trkpt lat="49.44099" lon="2.06665">
        <ele>65.405769348145</ele>
        <time>2017-05-21T07:34:16.000Z</time>
      </trkpt>
      <trkpt lat="49.44111" lon="2.06658">
        <ele>65.534400939941</ele>
        <time>2017-05-21T07:34:19.000Z</time>
      </trkpt>
      <trkpt lat="49.44121" lon="2.06655">
        <ele>65.742736816406</ele>
        <time>2017-05-21T07:34:21.000Z</time>
      </trkpt>
      <trkpt lat="49.44131" lon="2.06653">
        <ele>66.01634979248</ele>
        <time>2017-05-21T07:34:23.000Z</time>
      </trkpt>
      <trkpt lat="49.44143" lon="2.06649">
        <ele>66.353515625</ele>
        <time>2017-05-21T07:34:26.000Z</time>
      </trkpt>
      <trkpt lat="49.44154" lon="2.06638">
        <ele>66.751953125</ele>
        <time>2017-05-21T07:34:29.000Z</time>
      </trkpt>
      <trkpt lat="49.44161" lon="2.06629">
        <ele>67.1123046875</ele>
        <time>2017-05-21T07:34:32.000Z</time>
      </trkpt>
      <trkpt lat="49.44162" lon="2.06623">
        <ele>67.408203125</ele>
        <time>2017-05-21T07:34:34.000Z</time>
      </trkpt>
      <trkpt lat="49.44164" lon="2.06616">
        <ele>67.642578125</ele>
        <time>2017-05-21T07:34:36.000Z</time>
      </trkpt>
      <trkpt lat="49.44165" lon="2.06608">
        <ele>67.8037109375</ele>
        <time>2017-05-21T07:34:38.000Z</time>
      </trkpt>
      <trkpt lat="49.44165" lon="2.06587">
        <ele>67.876953125</ele>
        <time>2017-05-21T07:34:41.000Z</time>
      </trkpt>
      <trkpt lat="49.44162" lon="2.06573">
        <ele>67.861267089844</ele>
        <time>2017-05-21T07:34:43.000Z</time>
      </trkpt>
      <trkpt lat="49.4416" lon="2.06557">
        <ele>67.790313720703</ele>
        <time>2017-05-21T07:34:45.000Z</time>
      </trkpt>
      <trkpt lat="49.44156" lon="2.06534">
        <ele>67.634780883789</ele>
        <time>2017-05-21T07:34:48.000Z</time>
      </trkpt>
      <trkpt lat="49.44151" lon="2.06514">
        <ele>67.398071289062</ele>
        <time>2017-05-21T07:34:51.000Z</time>
      </trkpt>
      <trkpt lat="49.44145" lon="2.06501">
        <ele>67.108276367188</ele>
        <time>2017-05-21T07:34:53.000Z</time>
      </trkpt>
      <trkpt lat="49.44137" lon="2.06479">
        <ele>66.75862121582</ele>
        <time>2017-05-21T07:34:56.000Z</time>
      </trkpt>
      <trkpt lat="49.44133" lon="2.06463">
        <ele>66.395629882812</ele>
        <time>2017-05-21T07:34:58.000Z</time>
      </trkpt>
      <trkpt lat="49.44129" lon="2.06438">
        <ele>66.030296325684</ele>
        <time>2017-05-21T07:35:01.000Z</time>
      </trkpt>
      <trkpt lat="49.44125" lon="2.06422">
        <ele>65.692474365234</ele>
        <time>2017-05-21T07:35:03.000Z</time>
      </trkpt>
      <trkpt lat="49.44123" lon="2.06408">
        <ele>65.377479553223</ele>
        <time>2017-05-21T07:35:05.000Z</time>
      </trkpt>
      <trkpt lat="49.4412" lon="2.06395">
        <ele>65.137748718262</ele>
        <time>2017-05-21T07:35:07.000Z</time>
      </trkpt>
      <trkpt lat="49.44118" lon="2.06383">
        <ele>64.936576843262</ele>
        <time>2017-05-21T07:35:09.000Z</time>
      </trkpt>
      <trkpt lat="49.44106" lon="2.06375">
        <ele>64.82755279541</ele>
        <time>2017-05-21T07:35:12.000Z</time>
      </trkpt>
      <trkpt lat="49.44094" lon="2.06381">
        <ele>64.792152404785</ele>
        <time>2017-05-21T07:35:14.000Z</time>
      </trkpt>
      <trkpt lat="49.44082" lon="2.06387">
        <ele>64.816734313965</ele>
        <time>2017-05-21T07:35:16.000Z</time>
      </trkpt>
      <trkpt lat="49.44065" lon="2.06392">
        <ele>64.93977355957</ele>
        <time>2017-05-21T07:35:19.000Z</time>
      </trkpt>
      <trkpt lat="49.44053" lon="2.06397">
        <ele>65.134605407715</ele>
        <time>2017-05-21T07:35:21.000Z</time>
      </trkpt>
      <trkpt lat="49.44036" lon="2.06404">
        <ele>65.399856567383</ele>
        <time>2017-05-21T07:35:24.000Z</time>
      </trkpt>
      <trkpt lat="49.44024" lon="2.06408">
        <ele>65.69075012207</ele>
        <time>2017-05-21T07:35:26.000Z</time>
      </trkpt>
      <trkpt lat="49.44013" lon="2.06408">
        <ele>66.003601074219</ele>
        <time>2017-05-21T07:35:28.000Z</time>
      </trkpt>
      <trkpt lat="49.44003" lon="2.06399">
        <ele>66.27027130127</ele>
        <time>2017-05-21T07:35:30.000Z</time>
      </trkpt>
      <trkpt lat="49.43993" lon="2.06377">
        <ele>66.447624206543</ele>
        <time>2017-05-21T07:35:33.000Z</time>
      </trkpt>
      <trkpt lat="49.43985" lon="2.06364">
        <ele>66.518936157227</ele>
        <time>2017-05-21T07:35:35.000Z</time>
      </trkpt>
      <trkpt lat="49.43979" lon="2.0635">
        <ele>66.520248413086</ele>
        <time>2017-05-21T07:35:37.000Z</time>
      </trkpt>
      <trkpt lat="49.4397" lon="2.06328">
        <ele>66.47981262207</ele>
        <time>2017-05-21T07:35:40.000Z</time>
      </trkpt>
      <trkpt lat="49.43958" lon="2.06306">
        <ele>66.468528747559</ele>
        <time>2017-05-21T07:35:43.000Z</time>
      </trkpt>
      <trkpt lat="49.43951" lon="2.06295">
        <ele>66.53596496582</ele>
        <time>2017-05-21T07:35:45.000Z</time>
      </trkpt>
      <trkpt lat="49.43937" lon="2.06285">
        <ele>66.694320678711</ele>
        <time>2017-05-21T07:35:48.000Z</time>
      </trkpt>
      <trkpt lat="49.43926" lon="2.06285">
        <ele>66.904190063477</ele>
        <time>2017-05-21T07:35:50.000Z</time>
      </trkpt>
      <trkpt lat="49.43915" lon="2.06285">
        <ele>67.139755249023</ele>
        <time>2017-05-21T07:35:52.000Z</time>
      </trkpt>
      <trkpt lat="49.43898" lon="2.06284">
        <ele>67.299713134766</ele>
        <time>2017-05-21T07:35:55.000Z</time>
      </trkpt>
      <trkpt lat="49.43887" lon="2.06279">
        <ele>67.41081237793</ele>
        <time>2017-05-21T07:35:57.000Z</time>
      </trkpt>
      <trkpt lat="49.4387" lon="2.06272">
        <ele>67.433555603027</ele>
        <time>2017-05-21T07:36:00.000Z</time>
      </trkpt>
      <trkpt lat="49.43859" lon="2.06268">
        <ele>67.400573730469</ele>
        <time>2017-05-21T07:36:02.000Z</time>
      </trkpt>
      <trkpt lat="49.43843" lon="2.06254">
        <ele>67.309875488281</ele>
        <time>2017-05-21T07:36:05.000Z</time>
      </trkpt>
      <trkpt lat="49.43833" lon="2.06236">
        <ele>67.221382141113</ele>
        <time>2017-05-21T07:36:08.000Z</time>
      </trkpt>
      <trkpt lat="49.43827" lon="2.06221">
        <ele>67.176528930664</ele>
        <time>2017-05-21T07:36:10.000Z</time>
      </trkpt>
      <trkpt lat="49.43819" lon="2.06197">
        <ele>67.199295043945</ele>
        <time>2017-05-21T07:36:13.000Z</time>
      </trkpt>
      <trkpt lat="49.43813" lon="2.06173">
        <ele>67.297157287598</ele>
        <time>2017-05-21T07:36:16.000Z</time>
      </trkpt>
      <trkpt lat="49.43805" lon="2.06149">
        <ele>67.506980895996</ele>
        <time>2017-05-21T07:36:19.000Z</time>
      </trkpt>
      <trkpt lat="49.43797" lon="2.06126">
        <ele>67.818328857422</ele>
        <time>2017-05-21T07:36:22.000Z</time>
      </trkpt>
      <trkpt lat="49.43791" lon="2.06111">
        <ele>68.149314880371</ele>
        <time>2017-05-21T07:36:24.000Z</time>
      </trkpt>
      <trkpt lat="49.43783" lon="2.06089">
        <ele>68.49885559082</ele>
        <time>2017-05-21T07:36:27.000Z</time>
      </trkpt>
      <trkpt lat="49.43776" lon="2.06073">
        <ele>68.875961303711</ele>
        <time>2017-05-21T07:36:29.000Z</time>
      </trkpt>
      <trkpt lat="49.4377" lon="2.0605">
        <ele>69.306327819824</ele>
        <time>2017-05-21T07:36:32.000Z</time>
      </trkpt>
      <trkpt lat="49.43766" lon="2.06034">
        <ele>69.751266479492</ele>
        <time>2017-05-21T07:36:34.000Z</time>
      </trkpt>
      <trkpt lat="49.43764" lon="2.06018">
        <ele>70.228729248047</ele>
        <time>2017-05-21T07:36:36.000Z</time>
      </trkpt>
      <trkpt lat="49.43762" lon="2.05994">
        <ele>70.750915527344</ele>
        <time>2017-05-21T07:36:39.000Z</time>
      </trkpt>
      <trkpt lat="49.43766" lon="2.05982">
        <ele>71.210693359375</ele>
        <time>2017-05-21T07:36:41.000Z</time>
      </trkpt>
      <trkpt lat="49.43776" lon="2.05967">
        <ele>71.552513122559</ele>
        <time>2017-05-21T07:36:44.000Z</time>
      </trkpt>
      <trkpt lat="49.43786" lon="2.05958">
        <ele>71.805885314941</ele>
        <time>2017-05-21T07:36:47.000Z</time>
      </trkpt>
      <trkpt lat="49.43799" lon="2.05951">
        <ele>71.98030090332</ele>
        <time>2017-05-21T07:36:50.000Z</time>
      </trkpt>
      <trkpt lat="49.43813" lon="2.05942">
        <ele>72.07160949707</ele>
        <time>2017-05-21T07:36:53.000Z</time>
      </trkpt>
      <trkpt lat="49.43827" lon="2.05933">
        <ele>72.176406860352</ele>
        <time>2017-05-21T07:36:56.000Z</time>
      </trkpt>
      <trkpt lat="49.43836" lon="2.05928">
        <ele>72.271942138672</ele>
        <time>2017-05-21T07:36:58.000Z</time>
      </trkpt>
      <trkpt lat="49.4385" lon="2.05918">
        <ele>72.323226928711</ele>
        <time>2017-05-21T07:37:01.000Z</time>
      </trkpt>
      <trkpt lat="49.43865" lon="2.05908">
        <ele>72.331237792969</ele>
        <time>2017-05-21T07:37:04.000Z</time>
      </trkpt>
      <trkpt lat="49.43879" lon="2.05902">
        <ele>72.264450073242</ele>
        <time>2017-05-21T07:37:07.000Z</time>
      </trkpt>
      <trkpt lat="49.43889" lon="2.05895">
        <ele>72.146911621094</ele>
        <time>2017-05-21T07:37:09.000Z</time>
      </trkpt>
      <trkpt lat="49.43906" lon="2.05884">
        <ele>72.02067565918</ele>
        <time>2017-05-21T07:37:12.000Z</time>
      </trkpt>
      <trkpt lat="49.43915" lon="2.05872">
        <ele>71.99284362793</ele>
        <time>2017-05-21T07:37:14.000Z</time>
      </trkpt>
      <trkpt lat="49.43924" lon="2.05862">
        <ele>71.982055664062</ele>
        <time>2017-05-21T07:37:16.000Z</time>
      </trkpt>
      <trkpt lat="49.43932" lon="2.05851">
        <ele>71.98388671875</ele>
        <time>2017-05-21T07:37:18.000Z</time>
      </trkpt>
      <trkpt lat="49.43941" lon="2.05833">
        <ele>72.002243041992</ele>
        <time>2017-05-21T07:37:21.000Z</time>
      </trkpt>
      <trkpt lat="49.43946" lon="2.05819">
        <ele>71.986938476562</ele>
        <time>2017-05-21T07:37:23.000Z</time>
      </trkpt>
      <trkpt lat="49.43954" lon="2.05797">
        <ele>71.891868591309</ele>
        <time>2017-05-21T07:37:26.000Z</time>
      </trkpt>
      <trkpt lat="49.43959" lon="2.05772">
        <ele>71.86262512207</ele>
        <time>2017-05-21T07:37:29.000Z</time>
      </trkpt>
      <trkpt lat="49.43962" lon="2.05754">
        <ele>71.909378051758</ele>
        <time>2017-05-21T07:37:31.000Z</time>
      </trkpt>
      <trkpt lat="49.43967" lon="2.05731">
        <ele>72.031028747559</ele>
        <time>2017-05-21T07:37:34.000Z</time>
      </trkpt>
      <trkpt lat="49.43974" lon="2.05707">
        <ele>72.23006439209</ele>
        <time>2017-05-21T07:37:37.000Z</time>
      </trkpt>
      <trkpt lat="49.43981" lon="2.05694">
        <ele>72.419410705566</ele>
        <time>2017-05-21T07:37:39.000Z</time>
      </trkpt>
      <trkpt lat="49.43988" lon="2.05684">
        <ele>72.512634277344</ele>
        <time>2017-05-21T07:37:41.000Z</time>
      </trkpt>
      <trkpt lat="49.44001" lon="2.05669">
        <ele>72.463333129883</ele>
        <time>2017-05-21T07:37:44.000Z</time>
      </trkpt>
      <trkpt lat="49.44008" lon="2.0566">
        <ele>72.393142700195</ele>
        <time>2017-05-21T07:37:46.000Z</time>
      </trkpt>
      <trkpt lat="49.44018" lon="2.05642">
        <ele>72.430503845215</ele>
        <time>2017-05-21T07:37:49.000Z</time>
      </trkpt>
      <trkpt lat="49.44028" lon="2.05626">
        <ele>72.609428405762</ele>
        <time>2017-05-21T07:37:52.000Z</time>
      </trkpt>
      <trkpt lat="49.44039" lon="2.05612">
        <ele>72.913856506348</ele>
        <time>2017-05-21T07:37:55.000Z</time>
      </trkpt>
      <trkpt lat="49.44045" lon="2.05603">
        <ele>73.354835510254</ele>
        <time>2017-05-21T07:37:57.000Z</time>
      </trkpt>
      <trkpt lat="49.44054" lon="2.05591">
        <ele>73.784545898438</ele>
        <time>2017-05-21T07:38:00.000Z</time>
      </trkpt>
      <trkpt lat="49.44061" lon="2.0558">
        <ele>74.084617614746</ele>
        <time>2017-05-21T07:38:03.000Z</time>
      </trkpt>
      <trkpt lat="49.44067" lon="2.05567">
        <ele>74.289115905762</ele>
        <time>2017-05-21T07:38:06.000Z</time>
      </trkpt>
      <trkpt lat="49.44066" lon="2.05555">
        <ele>74.510375976562</ele>
        <time>2017-05-21T07:38:08.000Z</time>
      </trkpt>
      <trkpt lat="49.44056" lon="2.05539">
        <ele>74.928916931152</ele>
        <time>2017-05-21T07:38:11.000Z</time>
      </trkpt>
      <trkpt lat="49.44048" lon="2.05532">
        <ele>75.450744628906</ele>
        <time>2017-05-21T07:38:13.000Z</time>
      </trkpt>
      <trkpt lat="49.44041" lon="2.05524">
        <ele>76.095062255859</ele>
        <time>2017-05-21T07:38:15.000Z</time>
      </trkpt>
      <trkpt lat="49.44034" lon="2.05517">
        <ele>76.853118896484</ele>
        <time>2017-05-21T07:38:17.000Z</time>
      </trkpt>
      <trkpt lat="49.44025" lon="2.05507">
        <ele>77.695373535156</ele>
        <time>2017-05-21T07:38:20.000Z</time>
      </trkpt>
      <trkpt lat="49.44016" lon="2.05497">
        <ele>78.48176574707</ele>
        <time>2017-05-21T07:38:23.000Z</time>
      </trkpt>
      <trkpt lat="49.44009" lon="2.05486">
        <ele>79.252311706543</ele>
        <time>2017-05-21T07:38:26.000Z</time>
      </trkpt>
      <trkpt lat="49.44002" lon="2.05471">
        <ele>80.024635314941</ele>
        <time>2017-05-21T07:38:29.000Z</time>
      </trkpt>
      <trkpt lat="49.43998" lon="2.05462">
        <ele>80.816268920898</ele>
        <time>2017-05-21T07:38:31.000Z</time>
      </trkpt>
      <trkpt lat="49.43993" lon="2.05449">
        <ele>81.732131958008</ele>
        <time>2017-05-21T07:38:34.000Z</time>
      </trkpt>
      <trkpt lat="49.43992" lon="2.0544">
        <ele>82.600540161133</ele>
        <time>2017-05-21T07:38:36.000Z</time>
      </trkpt>
      <trkpt lat="49.4399" lon="2.05431">
        <ele>83.472557067871</ele>
        <time>2017-05-21T07:38:38.000Z</time>
      </trkpt>
      <trkpt lat="49.43988" lon="2.05419">
        <ele>84.397903442383</ele>
        <time>2017-05-21T07:38:41.000Z</time>
      </trkpt>
      <trkpt lat="49.43987" lon="2.05412">
        <ele>85.296737670898</ele>
        <time>2017-05-21T07:38:43.000Z</time>
      </trkpt>
      <trkpt lat="49.43983" lon="2.05402">
        <ele>86.191375732422</ele>
        <time>2017-05-21T07:38:46.000Z</time>
      </trkpt>
      <trkpt lat="49.43977" lon="2.05391">
        <ele>87.424560546875</ele>
        <time>2017-05-21T07:38:49.000Z</time>
      </trkpt>
      <trkpt lat="49.43975" lon="2.05382">
        <ele>88.706787109375</ele>
        <time>2017-05-21T07:38:52.000Z</time>
      </trkpt>
      <trkpt lat="49.43975" lon="2.0537">
        <ele>89.899215698242</ele>
        <time>2017-05-21T07:38:55.000Z</time>
      </trkpt>
      <trkpt lat="49.43974" lon="2.0536">
        <ele>91.114295959473</ele>
        <time>2017-05-21T07:38:58.000Z</time>
      </trkpt>
      <trkpt lat="49.43972" lon="2.05349">
        <ele>92.22624206543</ele>
        <time>2017-05-21T07:39:01.000Z</time>
      </trkpt>
      <trkpt lat="49.43969" lon="2.05341">
        <ele>93.071090698242</ele>
        <time>2017-05-21T07:39:04.000Z</time>
      </trkpt>
      <trkpt lat="49.43968" lon="2.05334">
        <ele>93.822860717773</ele>
        <time>2017-05-21T07:39:06.000Z</time>
      </trkpt>
      <trkpt lat="49.43966" lon="2.05326">
        <ele>94.620216369629</ele>
        <time>2017-05-21T07:39:08.000Z</time>
      </trkpt>
      <trkpt lat="49.43959" lon="2.05315">
        <ele>95.562660217285</ele>
        <time>2017-05-21T07:39:11.000Z</time>
      </trkpt>
      <trkpt lat="49.43957" lon="2.05299">
        <ele>96.508163452148</ele>
        <time>2017-05-21T07:39:14.000Z</time>
      </trkpt>
      <trkpt lat="49.43957" lon="2.05285">
        <ele>97.368446350098</ele>
        <time>2017-05-21T07:39:17.000Z</time>
      </trkpt>
      <trkpt lat="49.43954" lon="2.05269">
        <ele>98.321960449219</ele>
        <time>2017-05-21T07:39:20.000Z</time>
      </trkpt>
      <trkpt lat="49.4395" lon="2.05254">
        <ele>99.311141967773</ele>
        <time>2017-05-21T07:39:23.000Z</time>
      </trkpt>
      <trkpt lat="49.43946" lon="2.0524">
        <ele>100.19499206543</ele>
        <time>2017-05-21T07:39:26.000Z</time>
      </trkpt>
      <trkpt lat="49.43943" lon="2.05227">
        <ele>101.08570861816</ele>
        <time>2017-05-21T07:39:29.000Z</time>
      </trkpt>
      <trkpt lat="49.43938" lon="2.05215">
        <ele>102.04595184326</ele>
        <time>2017-05-21T07:39:32.000Z</time>
      </trkpt>
      <trkpt lat="49.43934" lon="2.05199">
        <ele>103.03981781006</ele>
        <time>2017-05-21T07:39:35.000Z</time>
      </trkpt>
      <trkpt lat="49.43929" lon="2.05185">
        <ele>104.05976867676</ele>
        <time>2017-05-21T07:39:38.000Z</time>
      </trkpt>
      <trkpt lat="49.43927" lon="2.05175">
        <ele>105.03112792969</ele>
        <time>2017-05-21T07:39:40.000Z</time>
      </trkpt>
      <trkpt lat="49.43921" lon="2.0516">
        <ele>106.02236175537</ele>
        <time>2017-05-21T07:39:43.000Z</time>
      </trkpt>
      <trkpt lat="49.43917" lon="2.05146">
        <ele>107.02793121338</ele>
        <time>2017-05-21T07:39:46.000Z</time>
      </trkpt>
      <trkpt lat="49.43914" lon="2.05136">
        <ele>107.99865722656</ele>
        <time>2017-05-21T07:39:48.000Z</time>
      </trkpt>
      <trkpt lat="49.43908" lon="2.05121">
        <ele>109.04782867432</ele>
        <time>2017-05-21T07:39:51.000Z</time>
      </trkpt>
      <trkpt lat="49.43903" lon="2.05107">
        <ele>110.20864105225</ele>
        <time>2017-05-21T07:39:54.000Z</time>
      </trkpt>
      <trkpt lat="49.439" lon="2.05098">
        <ele>111.31846618652</ele>
        <time>2017-05-21T07:39:56.000Z</time>
      </trkpt>
      <trkpt lat="49.43898" lon="2.05088">
        <ele>112.37586975098</ele>
        <time>2017-05-21T07:39:58.000Z</time>
      </trkpt>
      <trkpt lat="49.43895" lon="2.0508">
        <ele>113.39632415771</ele>
        <time>2017-05-21T07:40:00.000Z</time>
      </trkpt>
      <trkpt lat="49.43893" lon="2.05066">
        <ele>114.30983734131</ele>
        <time>2017-05-21T07:40:03.000Z</time>
      </trkpt>
      <trkpt lat="49.4389" lon="2.05052">
        <ele>115.18853759766</ele>
        <time>2017-05-21T07:40:06.000Z</time>
      </trkpt>
      <trkpt lat="49.43888" lon="2.05038">
        <ele>116.06797790527</ele>
        <time>2017-05-21T07:40:09.000Z</time>
      </trkpt>
      <trkpt lat="49.43883" lon="2.05026">
        <ele>116.98756408691</ele>
        <time>2017-05-21T07:40:12.000Z</time>
      </trkpt>
      <trkpt lat="49.43879" lon="2.05013">
        <ele>117.93823242188</ele>
        <time>2017-05-21T07:40:15.000Z</time>
      </trkpt>
      <trkpt lat="49.43876" lon="2.04999">
        <ele>118.82905578613</ele>
        <time>2017-05-21T07:40:18.000Z</time>
      </trkpt>
      <trkpt lat="49.43875" lon="2.0499">
        <ele>119.54954528809</ele>
        <time>2017-05-21T07:40:20.000Z</time>
      </trkpt>
      <trkpt lat="49.43874" lon="2.04982">
        <ele>120.13527679443</ele>
        <time>2017-05-21T07:40:22.000Z</time>
      </trkpt>
      <trkpt lat="49.43872" lon="2.04967">
        <ele>120.58526611328</ele>
        <time>2017-05-21T07:40:25.000Z</time>
      </trkpt>
      <trkpt lat="49.43871" lon="2.04953">
        <ele>120.89636230469</ele>
        <time>2017-05-21T07:40:28.000Z</time>
      </trkpt>
      <trkpt lat="49.4387" lon="2.04938">
        <ele>121.10848236084</ele>
        <time>2017-05-21T07:40:31.000Z</time>
      </trkpt>
      <trkpt lat="49.43869" lon="2.04928">
        <ele>121.29055023193</ele>
        <time>2017-05-21T07:40:33.000Z</time>
      </trkpt>
      <trkpt lat="49.43867" lon="2.04915">
        <ele>121.45170593262</ele>
        <time>2017-05-21T07:40:36.000Z</time>
      </trkpt>
      <trkpt lat="49.43865" lon="2.04901">
        <ele>121.59355163574</ele>
        <time>2017-05-21T07:40:39.000Z</time>
      </trkpt>
      <trkpt lat="49.43866" lon="2.04897">
        <ele>121.72453308105</ele>
        <time>2017-05-21T07:40:41.000Z</time>
      </trkpt>
      <trkpt lat="49.43867" lon="2.04893">
        <ele>121.85491943359</ele>
        <time>2017-05-21T07:40:43.000Z</time>
      </trkpt>
      <trkpt lat="49.4387" lon="2.04889">
        <ele>122.01491546631</ele>
        <time>2017-05-21T07:40:46.000Z</time>
      </trkpt>
      <trkpt lat="49.43873" lon="2.04887">
        <ele>122.19864654541</ele>
        <time>2017-05-21T07:40:49.000Z</time>
      </trkpt>
      <trkpt lat="49.43874" lon="2.04885">
        <ele>122.37599945068</ele>
        <time>2017-05-21T07:40:51.000Z</time>
      </trkpt>
      <trkpt lat="49.43878" lon="2.04881">
        <ele>122.5828704834</ele>
        <time>2017-05-21T07:40:54.000Z</time>
      </trkpt>
      <trkpt lat="49.43881" lon="2.04876">
        <ele>122.81833648682</ele>
        <time>2017-05-21T07:40:57.000Z</time>
      </trkpt>
      <trkpt lat="49.43884" lon="2.04871">
        <ele>123.06154632568</ele>
        <time>2017-05-21T07:41:00.000Z</time>
      </trkpt>
      <trkpt lat="49.43887" lon="2.04868">
        <ele>123.32612609863</ele>
        <time>2017-05-21T07:41:03.000Z</time>
      </trkpt>
      <trkpt lat="49.43889" lon="2.04865">
        <ele>123.60227966309</ele>
        <time>2017-05-21T07:41:06.000Z</time>
      </trkpt>
      <trkpt lat="49.43891" lon="2.04865">
        <ele>123.8445892334</ele>
        <time>2017-05-21T07:41:08.000Z</time>
      </trkpt>
      <trkpt lat="49.43893" lon="2.04864">
        <ele>124.05397796631</ele>
        <time>2017-05-21T07:41:10.000Z</time>
      </trkpt>
      <trkpt lat="49.43895" lon="2.04861">
        <ele>124.25518798828</ele>
        <time>2017-05-21T07:41:13.000Z</time>
      </trkpt>
      <trkpt lat="49.43897" lon="2.04856">
        <ele>124.45595550537</ele>
        <time>2017-05-21T07:41:16.000Z</time>
      </trkpt>
      <trkpt lat="49.43899" lon="2.04853">
        <ele>124.66168212891</ele>
        <time>2017-05-21T07:41:18.000Z</time>
      </trkpt>
      <trkpt lat="49.43901" lon="2.04848">
        <ele>124.90229797363</ele>
        <time>2017-05-21T07:41:21.000Z</time>
      </trkpt>
      <trkpt lat="49.43904" lon="2.04843">
        <ele>125.1802520752</ele>
        <time>2017-05-21T07:41:24.000Z</time>
      </trkpt>
      <trkpt lat="49.43905" lon="2.0484">
        <ele>125.44386291504</ele>
        <time>2017-05-21T07:41:26.000Z</time>
      </trkpt>
      <trkpt lat="49.43906" lon="2.04838">
        <ele>125.66519927979</ele>
        <time>2017-05-21T07:41:28.000Z</time>
      </trkpt>
      <trkpt lat="49.43909" lon="2.04835">
        <ele>125.91174316406</ele>
        <time>2017-05-21T07:41:31.000Z</time>
      </trkpt>
      <trkpt lat="49.43911" lon="2.04828">
        <ele>126.18527984619</ele>
        <time>2017-05-21T07:41:34.000Z</time>
      </trkpt>
      <trkpt lat="49.43913" lon="2.04825">
        <ele>126.43836975098</ele>
        <time>2017-05-21T07:41:37.000Z</time>
      </trkpt>
      <trkpt lat="49.43915" lon="2.04824">
        <ele>126.69664001465</ele>
        <time>2017-05-21T07:41:39.000Z</time>
      </trkpt>
      <trkpt lat="49.43919" lon="2.04824">
        <ele>126.99741363525</ele>
        <time>2017-05-21T07:41:42.000Z</time>
      </trkpt>
      <trkpt lat="49.4392" lon="2.04823">
        <ele>127.27020263672</ele>
        <time>2017-05-21T07:41:45.000Z</time>
      </trkpt>
      <trkpt lat="49.43921" lon="2.04821">
        <ele>127.49359130859</ele>
        <time>2017-05-21T07:41:47.000Z</time>
      </trkpt>
      <trkpt lat="49.43923" lon="2.04819">
        <ele>127.72312164307</ele>
        <time>2017-05-21T07:41:49.000Z</time>
      </trkpt>
      <trkpt lat="49.43925" lon="2.04817">
        <ele>127.97019195557</ele>
        <time>2017-05-21T07:41:52.000Z</time>
      </trkpt>
      <trkpt lat="49.43926" lon="2.04813">
        <ele>128.20620727539</ele>
        <time>2017-05-21T07:41:55.000Z</time>
      </trkpt>
      <trkpt lat="49.43928" lon="2.04811">
        <ele>128.4621887207</ele>
        <time>2017-05-21T07:41:58.000Z</time>
      </trkpt>
      <trkpt lat="49.4393" lon="2.04808">
        <ele>128.74499511719</ele>
        <time>2017-05-21T07:42:01.000Z</time>
      </trkpt>
      <trkpt lat="49.43932" lon="2.04805">
        <ele>129.03695678711</ele>
        <time>2017-05-21T07:42:04.000Z</time>
      </trkpt>
      <trkpt lat="49.43933" lon="2.04803">
        <ele>129.30749511719</ele>
        <time>2017-05-21T07:42:06.000Z</time>
      </trkpt>
      <trkpt lat="49.43935" lon="2.04801">
        <ele>129.58874511719</ele>
        <time>2017-05-21T07:42:09.000Z</time>
      </trkpt>
      <trkpt lat="49.43937" lon="2.04797">
        <ele>129.88629150391</ele>
        <time>2017-05-21T07:42:12.000Z</time>
      </trkpt>
      <trkpt lat="49.43939" lon="2.04795">
        <ele>130.17082214355</ele>
        <time>2017-05-21T07:42:14.000Z</time>
      </trkpt>
      <trkpt lat="49.4394" lon="2.04793">
        <ele>130.43606567383</ele>
        <time>2017-05-21T07:42:16.000Z</time>
      </trkpt>
      <trkpt lat="49.43942" lon="2.04791">
        <ele>130.72885131836</ele>
        <time>2017-05-21T07:42:19.000Z</time>
      </trkpt>
      <trkpt lat="49.43944" lon="2.0479">
        <ele>130.99893188477</ele>
        <time>2017-05-21T07:42:22.000Z</time>
      </trkpt>
      <trkpt lat="49.43945" lon="2.0479">
        <ele>131.21362304688</ele>
        <time>2017-05-21T07:42:26.000Z</time>
      </trkpt>
      <trkpt lat="49.43948" lon="2.04786">
        <ele>131.47171020508</ele>
        <time>2017-05-21T07:42:29.000Z</time>
      </trkpt>
      <trkpt lat="49.43949" lon="2.04784">
        <ele>131.73226928711</ele>
        <time>2017-05-21T07:42:31.000Z</time>
      </trkpt>
      <trkpt lat="49.43952" lon="2.04782">
        <ele>132.00996398926</ele>
        <time>2017-05-21T07:42:33.000Z</time>
      </trkpt>
      <trkpt lat="49.43955" lon="2.04778">
        <ele>132.33963012695</ele>
        <time>2017-05-21T07:42:36.000Z</time>
      </trkpt>
      <trkpt lat="49.43957" lon="2.04776">
        <ele>132.71133422852</ele>
        <time>2017-05-21T07:42:38.000Z</time>
      </trkpt>
      <trkpt lat="49.43959" lon="2.04774">
        <ele>133.03817749023</ele>
        <time>2017-05-21T07:42:40.000Z</time>
      </trkpt>
      <trkpt lat="49.43961" lon="2.04771">
        <ele>133.38269042969</ele>
        <time>2017-05-21T07:42:43.000Z</time>
      </trkpt>
      <trkpt lat="49.43963" lon="2.0477">
        <ele>133.71310424805</ele>
        <time>2017-05-21T07:42:45.000Z</time>
      </trkpt>
      <trkpt lat="49.43966" lon="2.04768">
        <ele>134.02227783203</ele>
        <time>2017-05-21T07:42:47.000Z</time>
      </trkpt>
      <trkpt lat="49.43969" lon="2.04768">
        <ele>134.32588195801</ele>
        <time>2017-05-21T07:42:49.000Z</time>
      </trkpt>
      <trkpt lat="49.4397" lon="2.04766">
        <ele>134.63705444336</ele>
        <time>2017-05-21T07:42:52.000Z</time>
      </trkpt>
      <trkpt lat="49.43974" lon="2.04761">
        <ele>134.9892578125</ele>
        <time>2017-05-21T07:42:55.000Z</time>
      </trkpt>
      <trkpt lat="49.43975" lon="2.04755">
        <ele>135.34741210938</ele>
        <time>2017-05-21T07:42:58.000Z</time>
      </trkpt>
      <trkpt lat="49.43977" lon="2.0475">
        <ele>135.71334838867</ele>
        <time>2017-05-21T07:43:01.000Z</time>
      </trkpt>
      <trkpt lat="49.43978" lon="2.04745">
        <ele>136.09140014648</ele>
        <time>2017-05-21T07:43:03.000Z</time>
      </trkpt>
      <trkpt lat="49.43979" lon="2.04739">
        <ele>136.48893737793</ele>
        <time>2017-05-21T07:43:06.000Z</time>
      </trkpt>
      <trkpt lat="49.4398" lon="2.04733">
        <ele>136.86154174805</ele>
        <time>2017-05-21T07:43:08.000Z</time>
      </trkpt>
      <trkpt lat="49.43982" lon="2.04728">
        <ele>137.26806640625</ele>
        <time>2017-05-21T07:43:10.000Z</time>
      </trkpt>
      <trkpt lat="49.43985" lon="2.04721">
        <ele>137.71643066406</ele>
        <time>2017-05-21T07:43:13.000Z</time>
      </trkpt>
      <trkpt lat="49.43986" lon="2.04716">
        <ele>138.16638183594</ele>
        <time>2017-05-21T07:43:16.000Z</time>
      </trkpt>
      <trkpt lat="49.43986" lon="2.04708">
        <ele>138.61889648438</ele>
        <time>2017-05-21T07:43:19.000Z</time>
      </trkpt>
      <trkpt lat="49.43987" lon="2.04699">
        <ele>139.09606933594</ele>
        <time>2017-05-21T07:43:22.000Z</time>
      </trkpt>
      <trkpt lat="49.43987" lon="2.0469">
        <ele>139.56994628906</ele>
        <time>2017-05-21T07:43:25.000Z</time>
      </trkpt>
      <trkpt lat="49.43988" lon="2.04683">
        <ele>140.01257324219</ele>
        <time>2017-05-21T07:43:28.000Z</time>
      </trkpt>
      <trkpt lat="49.4399" lon="2.0468">
        <ele>140.43872070312</ele>
        <time>2017-05-21T07:43:30.000Z</time>
      </trkpt>
      <trkpt lat="49.4399" lon="2.04677">
        <ele>140.81384277344</ele>
        <time>2017-05-21T07:43:32.000Z</time>
      </trkpt>
      <trkpt lat="49.43988" lon="2.04672">
        <ele>141.09973144531</ele>
        <time>2017-05-21T07:43:35.000Z</time>
      </trkpt>
      <trkpt lat="49.43988" lon="2.04664">
        <ele>141.35366821289</ele>
        <time>2017-05-21T07:43:38.000Z</time>
      </trkpt>
      <trkpt lat="49.43989" lon="2.04657">
        <ele>141.56602478027</ele>
        <time>2017-05-21T07:43:40.000Z</time>
      </trkpt>
      <trkpt lat="49.43989" lon="2.04652">
        <ele>141.7579498291</ele>
        <time>2017-05-21T07:43:42.000Z</time>
      </trkpt>
      <trkpt lat="49.43989" lon="2.04647">
        <ele>141.94595336914</ele>
        <time>2017-05-21T07:43:44.000Z</time>
      </trkpt>
      <trkpt lat="49.43988" lon="2.04639">
        <ele>142.13220214844</ele>
        <time>2017-05-21T07:43:47.000Z</time>
      </trkpt>
      <trkpt lat="49.43987" lon="2.04632">
        <ele>142.26910400391</ele>
        <time>2017-05-21T07:43:50.000Z</time>
      </trkpt>
      <trkpt lat="49.43987" lon="2.04626">
        <ele>142.38726806641</ele>
        <time>2017-05-21T07:43:52.000Z</time>
      </trkpt>
      <trkpt lat="49.43987" lon="2.04617">
        <ele>142.50061035156</ele>
        <time>2017-05-21T07:43:55.000Z</time>
      </trkpt>
      <trkpt lat="49.43984" lon="2.04609">
        <ele>142.57574462891</ele>
        <time>2017-05-21T07:43:58.000Z</time>
      </trkpt>
      <trkpt lat="49.43984" lon="2.04604">
        <ele>142.66577148438</ele>
        <time>2017-05-21T07:44:00.000Z</time>
      </trkpt>
      <trkpt lat="49.43983" lon="2.04599">
        <ele>142.73583984375</ele>
        <time>2017-05-21T07:44:02.000Z</time>
      </trkpt>
      <trkpt lat="49.43983" lon="2.0459">
        <ele>142.8271484375</ele>
        <time>2017-05-21T07:44:05.000Z</time>
      </trkpt>
      <trkpt lat="49.43984" lon="2.04582">
        <ele>142.9446105957</ele>
        <time>2017-05-21T07:44:07.000Z</time>
      </trkpt>
      <trkpt lat="49.43985" lon="2.04576">
        <ele>143.11845397949</ele>
        <time>2017-05-21T07:44:09.000Z</time>
      </trkpt>
      <trkpt lat="49.43986" lon="2.04568">
        <ele>143.31039428711</ele>
        <time>2017-05-21T07:44:12.000Z</time>
      </trkpt>
      <trkpt lat="49.43986" lon="2.04562">
        <ele>143.52987670898</ele>
        <time>2017-05-21T07:44:14.000Z</time>
      </trkpt>
      <trkpt lat="49.43985" lon="2.04555">
        <ele>143.71920776367</ele>
        <time>2017-05-21T07:44:16.000Z</time>
      </trkpt>
      <trkpt lat="49.43984" lon="2.04547">
        <ele>143.86001586914</ele>
        <time>2017-05-21T07:44:19.000Z</time>
      </trkpt>
      <trkpt lat="49.43982" lon="2.04541">
        <ele>143.94760131836</ele>
        <time>2017-05-21T07:44:21.000Z</time>
      </trkpt>
      <trkpt lat="49.43981" lon="2.04535">
        <ele>143.99020385742</ele>
        <time>2017-05-21T07:44:23.000Z</time>
      </trkpt>
      <trkpt lat="49.4398" lon="2.04531">
        <ele>144.00340270996</ele>
        <time>2017-05-21T07:44:25.000Z</time>
      </trkpt>
      <trkpt lat="49.43978" lon="2.04525">
        <ele>143.96731567383</ele>
        <time>2017-05-21T07:44:28.000Z</time>
      </trkpt>
      <trkpt lat="49.43976" lon="2.04517">
        <ele>143.90625</ele>
        <time>2017-05-21T07:44:30.000Z</time>
      </trkpt>
      <trkpt lat="49.43975" lon="2.04509">
        <ele>143.88064575195</ele>
        <time>2017-05-21T07:44:33.000Z</time>
      </trkpt>
      <trkpt lat="49.43976" lon="2.04503">
        <ele>143.88948059082</ele>
        <time>2017-05-21T07:44:35.000Z</time>
      </trkpt>
      <trkpt lat="49.43976" lon="2.04493">
        <ele>143.91943359375</ele>
        <time>2017-05-21T07:44:38.000Z</time>
      </trkpt>
      <trkpt lat="49.43978" lon="2.0448">
        <ele>144.009765625</ele>
        <time>2017-05-21T07:44:41.000Z</time>
      </trkpt>
      <trkpt lat="49.43978" lon="2.04471">
        <ele>144.11117553711</ele>
        <time>2017-05-21T07:44:43.000Z</time>
      </trkpt>
      <trkpt lat="49.43977" lon="2.04458">
        <ele>144.1598815918</ele>
        <time>2017-05-21T07:44:46.000Z</time>
      </trkpt>
      <trkpt lat="49.43978" lon="2.04451">
        <ele>144.19036865234</ele>
        <time>2017-05-21T07:44:48.000Z</time>
      </trkpt>
      <trkpt lat="49.43979" lon="2.0444">
        <ele>144.21667480469</ele>
        <time>2017-05-21T07:44:51.000Z</time>
      </trkpt>
      <trkpt lat="49.43979" lon="2.04429">
        <ele>144.20516967773</ele>
        <time>2017-05-21T07:44:54.000Z</time>
      </trkpt>
      <trkpt lat="49.43978" lon="2.04421">
        <ele>144.18447875977</ele>
        <time>2017-05-21T07:44:56.000Z</time>
      </trkpt>
      <trkpt lat="49.43977" lon="2.0441">
        <ele>144.15812683105</ele>
        <time>2017-05-21T07:44:59.000Z</time>
      </trkpt>
      <trkpt lat="49.43974" lon="2.044">
        <ele>144.06701660156</ele>
        <time>2017-05-21T07:45:02.000Z</time>
      </trkpt>
      <trkpt lat="49.43972" lon="2.04393">
        <ele>143.92993164062</ele>
        <time>2017-05-21T07:45:04.000Z</time>
      </trkpt>
      <trkpt lat="49.43968" lon="2.04387">
        <ele>143.67575073242</ele>
        <time>2017-05-21T07:45:07.000Z</time>
      </trkpt>
      <trkpt lat="49.43966" lon="2.04382">
        <ele>143.41064453125</ele>
        <time>2017-05-21T07:45:10.000Z</time>
      </trkpt>
      <trkpt lat="49.43966" lon="2.04375">
        <ele>143.17820739746</ele>
        <time>2017-05-21T07:45:12.000Z</time>
      </trkpt>
      <trkpt lat="49.43965" lon="2.04363">
        <ele>142.98930358887</ele>
        <time>2017-05-21T07:45:15.000Z</time>
      </trkpt>
      <trkpt lat="49.43965" lon="2.04355">
        <ele>142.83303833008</ele>
        <time>2017-05-21T07:45:18.000Z</time>
      </trkpt>
      <trkpt lat="49.43965" lon="2.04344">
        <ele>142.81530761719</ele>
        <time>2017-05-21T07:45:21.000Z</time>
      </trkpt>
      <trkpt lat="49.43965" lon="2.04331">
        <ele>142.83613586426</ele>
        <time>2017-05-21T07:45:24.000Z</time>
      </trkpt>
      <trkpt lat="49.43965" lon="2.0432">
        <ele>142.85957336426</ele>
        <time>2017-05-21T07:45:26.000Z</time>
      </trkpt>
      <trkpt lat="49.43965" lon="2.04309">
        <ele>142.87698364258</ele>
        <time>2017-05-21T07:45:29.000Z</time>
      </trkpt>
      <trkpt lat="49.43964" lon="2.04299">
        <ele>142.85958862305</ele>
        <time>2017-05-21T07:45:32.000Z</time>
      </trkpt>
      <trkpt lat="49.43961" lon="2.04288">
        <ele>142.7180480957</ele>
        <time>2017-05-21T07:45:35.000Z</time>
      </trkpt>
      <trkpt lat="49.43962" lon="2.04279">
        <ele>142.56716918945</ele>
        <time>2017-05-21T07:45:38.000Z</time>
      </trkpt>
      <trkpt lat="49.4396" lon="2.04267">
        <ele>142.36418151855</ele>
        <time>2017-05-21T07:45:41.000Z</time>
      </trkpt>
      <trkpt lat="49.43959" lon="2.04254">
        <ele>142.11926269531</ele>
        <time>2017-05-21T07:45:44.000Z</time>
      </trkpt>
      <trkpt lat="49.43959" lon="2.04238">
        <ele>141.96212768555</ele>
        <time>2017-05-21T07:45:47.000Z</time>
      </trkpt>
      <trkpt lat="49.43958" lon="2.04229">
        <ele>141.93203735352</ele>
        <time>2017-05-21T07:45:50.000Z</time>
      </trkpt>
      <trkpt lat="49.43957" lon="2.04215">
        <ele>141.95864868164</ele>
        <time>2017-05-21T07:45:53.000Z</time>
      </trkpt>
      <trkpt lat="49.43956" lon="2.04207">
        <ele>142.0697479248</ele>
        <time>2017-05-21T07:45:55.000Z</time>
      </trkpt>
      <trkpt lat="49.43956" lon="2.04197">
        <ele>142.27067565918</ele>
        <time>2017-05-21T07:45:58.000Z</time>
      </trkpt>
      <trkpt lat="49.43954" lon="2.04191">
        <ele>142.42066955566</ele>
        <time>2017-05-21T07:46:00.000Z</time>
      </trkpt>
      <trkpt lat="49.4395" lon="2.04183">
        <ele>142.46157836914</ele>
        <time>2017-05-21T07:46:03.000Z</time>
      </trkpt>
      <trkpt lat="49.43948" lon="2.04176">
        <ele>142.44674682617</ele>
        <time>2017-05-21T07:46:05.000Z</time>
      </trkpt>
      <trkpt lat="49.43948" lon="2.04172">
        <ele>142.42488098145</ele>
        <time>2017-05-21T07:46:07.000Z</time>
      </trkpt>
      <trkpt lat="49.43948" lon="2.04168">
        <ele>142.38143920898</ele>
        <time>2017-05-21T07:46:10.000Z</time>
      </trkpt>
      <trkpt lat="49.43947" lon="2.04166">
        <ele>142.34216308594</ele>
        <time>2017-05-21T07:46:13.000Z</time>
      </trkpt>
      <trkpt lat="49.43945" lon="2.04162">
        <ele>142.38137817383</ele>
        <time>2017-05-21T07:46:16.000Z</time>
      </trkpt>
      <trkpt lat="49.43944" lon="2.04157">
        <ele>142.46968078613</ele>
        <time>2017-05-21T07:46:19.000Z</time>
      </trkpt>
      <trkpt lat="49.43943" lon="2.04154">
        <ele>142.54931640625</ele>
        <time>2017-05-21T07:46:21.000Z</time>
      </trkpt>
      <trkpt lat="49.43944" lon="2.04151">
        <ele>142.66928100586</ele>
        <time>2017-05-21T07:46:23.000Z</time>
      </trkpt>
      <trkpt lat="49.43945" lon="2.04144">
        <ele>142.90274047852</ele>
        <time>2017-05-21T07:46:26.000Z</time>
      </trkpt>
      <trkpt lat="49.43946" lon="2.04138">
        <ele>143.27326965332</ele>
        <time>2017-05-21T07:46:28.000Z</time>
      </trkpt>
      <trkpt lat="49.43949" lon="2.0413">
        <ele>143.75402832031</ele>
        <time>2017-05-21T07:46:31.000Z</time>
      </trkpt>
      <trkpt lat="49.4395" lon="2.04124">
        <ele>144.33163452148</ele>
        <time>2017-05-21T07:46:34.000Z</time>
      </trkpt>
      <trkpt lat="49.4395" lon="2.04116">
        <ele>144.96762084961</ele>
        <time>2017-05-21T07:46:37.000Z</time>
      </trkpt>
      <trkpt lat="49.4395" lon="2.04108">
        <ele>145.59072875977</ele>
        <time>2017-05-21T07:46:39.000Z</time>
      </trkpt>
      <trkpt lat="49.43948" lon="2.04097">
        <ele>146.20065307617</ele>
        <time>2017-05-21T07:46:42.000Z</time>
      </trkpt>
      <trkpt lat="49.43945" lon="2.0409">
        <ele>146.69119262695</ele>
        <time>2017-05-21T07:46:44.000Z</time>
      </trkpt>
      <trkpt lat="49.43941" lon="2.04077">
        <ele>147.18815612793</ele>
        <time>2017-05-21T07:46:47.000Z</time>
      </trkpt>
      <trkpt lat="49.43938" lon="2.04067">
        <ele>147.6492767334</ele>
        <time>2017-05-21T07:46:50.000Z</time>
      </trkpt>
      <trkpt lat="49.43933" lon="2.04066">
        <ele>147.94911193848</ele>
        <time>2017-05-21T07:46:52.000Z</time>
      </trkpt>
      <trkpt lat="49.43924" lon="2.04069">
        <ele>147.98652648926</ele>
        <time>2017-05-21T07:46:55.000Z</time>
      </trkpt>
      <trkpt lat="49.43922" lon="2.04071">
        <ele>147.9303894043</ele>
        <time>2017-05-21T07:46:57.000Z</time>
      </trkpt>
      <trkpt lat="49.43919" lon="2.04074">
        <ele>147.6604309082</ele>
        <time>2017-05-21T07:47:04.000Z</time>
      </trkpt>
      <trkpt lat="49.43914" lon="2.04076">
        <ele>147.27708435059</ele>
        <time>2017-05-21T07:47:14.000Z</time>
      </trkpt>
      <trkpt lat="49.43914" lon="2.04076">
        <ele>147.27708435059</ele>
        <time>2017-05-21T07:47:34.000Z</time>
      </trkpt>
      <trkpt lat="49.43913" lon="2.04077">
        <ele>146.95867919922</ele>
        <time>2017-05-21T07:47:40.000Z</time>
      </trkpt>
      <trkpt lat="49.43914" lon="2.04075">
        <ele>146.80142211914</ele>
        <time>2017-05-21T07:47:43.000Z</time>
      </trkpt>
      <trkpt lat="49.43917" lon="2.04076">
        <ele>146.6605682373</ele>
        <time>2017-05-21T07:47:45.000Z</time>
      </trkpt>
      <trkpt lat="49.43919" lon="2.04077">
        <ele>146.6188659668</ele>
        <time>2017-05-21T07:47:47.000Z</time>
      </trkpt>
      <trkpt lat="49.43921" lon="2.04077">
        <ele>146.65097045898</ele>
        <time>2017-05-21T07:47:50.000Z</time>
      </trkpt>
      <trkpt lat="49.4392" lon="2.04076">
        <ele>146.6665802002</ele>
        <time>2017-05-21T07:47:59.000Z</time>
      </trkpt>
      <trkpt lat="49.43918" lon="2.04076">
        <ele>146.64295959473</ele>
        <time>2017-05-21T07:48:01.000Z</time>
      </trkpt>
      <trkpt lat="49.43918" lon="2.04076">
        <ele>146.64295959473</ele>
        <time>2017-05-21T07:48:21.000Z</time>
      </trkpt>
      <trkpt lat="49.43921" lon="2.04076">
        <ele>146.69488525391</ele>
        <time>2017-05-21T07:48:30.000Z</time>
      </trkpt>
      <trkpt lat="49.4392" lon="2.04074">
        <ele>146.74909973145</ele>
        <time>2017-05-21T07:48:32.000Z</time>
      </trkpt>
      <trkpt lat="49.43917" lon="2.04071">
        <ele>146.78109741211</ele>
        <time>2017-05-21T07:48:35.000Z</time>
      </trkpt>
      <trkpt lat="49.43913" lon="2.04069">
        <ele>146.86474609375</ele>
        <time>2017-05-21T07:48:38.000Z</time>
      </trkpt>
      <trkpt lat="49.43911" lon="2.0407">
        <ele>146.97904968262</ele>
        <time>2017-05-21T07:48:41.000Z</time>
      </trkpt>
      <trkpt lat="49.43911" lon="2.0407">
        <ele>146.97904968262</ele>
        <time>2017-05-21T07:49:01.000Z</time>
      </trkpt>
      <trkpt lat="49.43908" lon="2.04075">
        <ele>147.00936889648</ele>
        <time>2017-05-21T07:49:33.000Z</time>
      </trkpt>
      <trkpt lat="49.43909" lon="2.04074">
        <ele>147.04409790039</ele>
        <time>2017-05-21T07:49:37.000Z</time>
      </trkpt>
      <trkpt lat="49.43913" lon="2.04073">
        <ele>147.04263305664</ele>
        <time>2017-05-21T07:49:40.000Z</time>
      </trkpt>
      <trkpt lat="49.43914" lon="2.04073">
        <ele>146.98274230957</ele>
        <time>2017-05-21T07:49:42.000Z</time>
      </trkpt>
      <trkpt lat="49.43912" lon="2.04074">
        <ele>146.92100524902</ele>
        <time>2017-05-21T07:49:46.000Z</time>
      </trkpt>
      <trkpt lat="49.43909" lon="2.04076">
        <ele>146.91044616699</ele>
        <time>2017-05-21T07:49:48.000Z</time>
      </trkpt>
      <trkpt lat="49.43901" lon="2.04077">
        <ele>146.94184875488</ele>
        <time>2017-05-21T07:49:50.000Z</time>
      </trkpt>
      <trkpt lat="49.43899" lon="2.04078">
        <ele>146.99238586426</ele>
        <time>2017-05-21T07:49:53.000Z</time>
      </trkpt>
      <trkpt lat="49.43904" lon="2.04081">
        <ele>146.97444152832</ele>
        <time>2017-05-21T07:49:56.000Z</time>
      </trkpt>
      <trkpt lat="49.43906" lon="2.04081">
        <ele>146.93864440918</ele>
        <time>2017-05-21T07:49:59.000Z</time>
      </trkpt>
      <trkpt lat="49.43911" lon="2.04084">
        <ele>146.80229187012</ele>
        <time>2017-05-21T07:50:01.000Z</time>
      </trkpt>
      <trkpt lat="49.43911" lon="2.04084">
        <ele>146.60771179199</ele>
        <time>2017-05-21T07:50:05.000Z</time>
      </trkpt>
      <trkpt lat="49.43912" lon="2.04082">
        <ele>146.43428039551</ele>
        <time>2017-05-21T07:50:23.000Z</time>
      </trkpt>
      <trkpt lat="49.43911" lon="2.0408">
        <ele>146.38681030273</ele>
        <time>2017-05-21T07:50:39.000Z</time>
      </trkpt>
      <trkpt lat="49.4391" lon="2.04079">
        <ele>146.38217163086</ele>
        <time>2017-05-21T07:50:41.000Z</time>
      </trkpt>
      <trkpt lat="49.43909" lon="2.04072">
        <ele>146.56411743164</ele>
        <time>2017-05-21T07:50:44.000Z</time>
      </trkpt>
      <trkpt lat="49.43908" lon="2.04064">
        <ele>146.87059020996</ele>
        <time>2017-05-21T07:50:47.000Z</time>
      </trkpt>
      <trkpt lat="49.43908" lon="2.04053">
        <ele>147.3046875</ele>
        <time>2017-05-21T07:50:50.000Z</time>
      </trkpt>
      <trkpt lat="49.43907" lon="2.04041">
        <ele>147.84834289551</ele>
        <time>2017-05-21T07:50:53.000Z</time>
      </trkpt>
      <trkpt lat="49.43905" lon="2.04033">
        <ele>148.48098754883</ele>
        <time>2017-05-21T07:50:55.000Z</time>
      </trkpt>
      <trkpt lat="49.43901" lon="2.04025">
        <ele>149.14572143555</ele>
        <time>2017-05-21T07:50:57.000Z</time>
      </trkpt>
      <trkpt lat="49.43897" lon="2.04016">
        <ele>149.80125427246</ele>
        <time>2017-05-21T07:50:59.000Z</time>
      </trkpt>
      <trkpt lat="49.43892" lon="2.04005">
        <ele>150.4514465332</ele>
        <time>2017-05-21T07:51:02.000Z</time>
      </trkpt>
      <trkpt lat="49.43888" lon="2.03996">
        <ele>151.01583862305</ele>
        <time>2017-05-21T07:51:04.000Z</time>
      </trkpt>
      <trkpt lat="49.43886" lon="2.03982">
        <ele>151.51014709473</ele>
        <time>2017-05-21T07:51:07.000Z</time>
      </trkpt>
      <trkpt lat="49.43887" lon="2.03974">
        <ele>151.90328979492</ele>
        <time>2017-05-21T07:51:09.000Z</time>
      </trkpt>
      <trkpt lat="49.43889" lon="2.03963">
        <ele>152.2191619873</ele>
        <time>2017-05-21T07:51:12.000Z</time>
      </trkpt>
      <trkpt lat="49.43886" lon="2.03956">
        <ele>152.41719055176</ele>
        <time>2017-05-21T07:51:14.000Z</time>
      </trkpt>
      <trkpt lat="49.4388" lon="2.0395">
        <ele>152.57531738281</ele>
        <time>2017-05-21T07:51:16.000Z</time>
      </trkpt>
      <trkpt lat="49.43871" lon="2.03944">
        <ele>152.72575378418</ele>
        <time>2017-05-21T07:51:19.000Z</time>
      </trkpt>
      <trkpt lat="49.43862" lon="2.03938">
        <ele>152.88723754883</ele>
        <time>2017-05-21T07:51:22.000Z</time>
      </trkpt>
      <trkpt lat="49.43855" lon="2.03934">
        <ele>153.0463104248</ele>
        <time>2017-05-21T07:51:25.000Z</time>
      </trkpt>
      <trkpt lat="49.4385" lon="2.0393">
        <ele>153.20455932617</ele>
        <time>2017-05-21T07:51:27.000Z</time>
      </trkpt>
      <trkpt lat="49.43842" lon="2.03925">
        <ele>153.37561035156</ele>
        <time>2017-05-21T07:51:30.000Z</time>
      </trkpt>
      <trkpt lat="49.43835" lon="2.03919">
        <ele>153.55142211914</ele>
        <time>2017-05-21T07:51:33.000Z</time>
      </trkpt>
      <trkpt lat="49.43826" lon="2.03913">
        <ele>153.72012329102</ele>
        <time>2017-05-21T07:51:36.000Z</time>
      </trkpt>
      <trkpt lat="49.43822" lon="2.03909">
        <ele>153.87149047852</ele>
        <time>2017-05-21T07:51:38.000Z</time>
      </trkpt>
      <trkpt lat="49.43817" lon="2.03902">
        <ele>154.02102661133</ele>
        <time>2017-05-21T07:51:41.000Z</time>
      </trkpt>
      <trkpt lat="49.43811" lon="2.03895">
        <ele>154.14208984375</ele>
        <time>2017-05-21T07:51:44.000Z</time>
      </trkpt>
      <trkpt lat="49.43805" lon="2.03892">
        <ele>154.216796875</ele>
        <time>2017-05-21T07:51:47.000Z</time>
      </trkpt>
      <trkpt lat="49.43801" lon="2.03888">
        <ele>154.26051330566</ele>
        <time>2017-05-21T07:51:49.000Z</time>
      </trkpt>
      <trkpt lat="49.43797" lon="2.03884">
        <ele>154.28332519531</ele>
        <time>2017-05-21T07:51:51.000Z</time>
      </trkpt>
      <trkpt lat="49.43791" lon="2.03879">
        <ele>154.27560424805</ele>
        <time>2017-05-21T07:51:54.000Z</time>
      </trkpt>
      <trkpt lat="49.4379" lon="2.03875">
        <ele>154.2547454834</ele>
        <time>2017-05-21T07:51:56.000Z</time>
      </trkpt>
      <trkpt lat="49.43787" lon="2.03871">
        <ele>154.23245239258</ele>
        <time>2017-05-21T07:51:59.000Z</time>
      </trkpt>
      <trkpt lat="49.43782" lon="2.03866">
        <ele>154.1960144043</ele>
        <time>2017-05-21T07:52:01.000Z</time>
      </trkpt>
      <trkpt lat="49.43775" lon="2.03857">
        <ele>154.12858581543</ele>
        <time>2017-05-21T07:52:04.000Z</time>
      </trkpt>
      <trkpt lat="49.43769" lon="2.03853">
        <ele>154.03775024414</ele>
        <time>2017-05-21T07:52:06.000Z</time>
      </trkpt>
      <trkpt lat="49.43761" lon="2.03847">
        <ele>153.89108276367</ele>
        <time>2017-05-21T07:52:09.000Z</time>
      </trkpt>
      <trkpt lat="49.43754" lon="2.03839">
        <ele>153.69633483887</ele>
        <time>2017-05-21T07:52:12.000Z</time>
      </trkpt>
      <trkpt lat="49.43749" lon="2.03833">
        <ele>153.45950317383</ele>
        <time>2017-05-21T07:52:15.000Z</time>
      </trkpt>
      <trkpt lat="49.43742" lon="2.03826">
        <ele>153.10263061523</ele>
        <time>2017-05-21T07:52:18.000Z</time>
      </trkpt>
      <trkpt lat="49.43739" lon="2.03823">
        <ele>152.71072387695</ele>
        <time>2017-05-21T07:52:20.000Z</time>
      </trkpt>
      <trkpt lat="49.43734" lon="2.03822">
        <ele>152.29516601562</ele>
        <time>2017-05-21T07:52:23.000Z</time>
      </trkpt>
      <trkpt lat="49.43733" lon="2.03818">
        <ele>151.89694213867</ele>
        <time>2017-05-21T07:52:26.000Z</time>
      </trkpt>
      <trkpt lat="49.43737" lon="2.03816">
        <ele>151.62094116211</ele>
        <time>2017-05-21T07:52:28.000Z</time>
      </trkpt>
      <trkpt lat="49.4374" lon="2.03813">
        <ele>151.55574035645</ele>
        <time>2017-05-21T07:52:31.000Z</time>
      </trkpt>
      <trkpt lat="49.4374" lon="2.03806">
        <ele>151.55769348145</ele>
        <time>2017-05-21T07:52:34.000Z</time>
      </trkpt>
      <trkpt lat="49.43742" lon="2.03802">
        <ele>151.64508056641</ele>
        <time>2017-05-21T07:52:36.000Z</time>
      </trkpt>
      <trkpt lat="49.43744" lon="2.03796">
        <ele>151.80960083008</ele>
        <time>2017-05-21T07:52:39.000Z</time>
      </trkpt>
      <trkpt lat="49.43745" lon="2.03793">
        <ele>151.91677856445</ele>
        <time>2017-05-21T07:52:41.000Z</time>
      </trkpt>
      <trkpt lat="49.43748" lon="2.03787">
        <ele>152.01402282715</ele>
        <time>2017-05-21T07:52:44.000Z</time>
      </trkpt>
      <trkpt lat="49.4375" lon="2.03778">
        <ele>152.11943054199</ele>
        <time>2017-05-21T07:52:46.000Z</time>
      </trkpt>
      <trkpt lat="49.43751" lon="2.03765">
        <ele>152.19534301758</ele>
        <time>2017-05-21T07:52:49.000Z</time>
      </trkpt>
      <trkpt lat="49.43755" lon="2.03756">
        <ele>152.24092102051</ele>
        <time>2017-05-21T07:52:51.000Z</time>
      </trkpt>
      <trkpt lat="49.43757" lon="2.03746">
        <ele>152.30767822266</ele>
        <time>2017-05-21T07:52:54.000Z</time>
      </trkpt>
      <trkpt lat="49.43757" lon="2.03732">
        <ele>152.41934204102</ele>
        <time>2017-05-21T07:52:57.000Z</time>
      </trkpt>
      <trkpt lat="49.43757" lon="2.03721">
        <ele>152.59545898438</ele>
        <time>2017-05-21T07:53:00.000Z</time>
      </trkpt>
      <trkpt lat="49.43758" lon="2.03711">
        <ele>152.86186218262</ele>
        <time>2017-05-21T07:53:02.000Z</time>
      </trkpt>
      <trkpt lat="49.43759" lon="2.037">
        <ele>153.19436645508</ele>
        <time>2017-05-21T07:53:04.000Z</time>
      </trkpt>
      <trkpt lat="49.43758" lon="2.03684">
        <ele>153.59866333008</ele>
        <time>2017-05-21T07:53:07.000Z</time>
      </trkpt>
      <trkpt lat="49.43757" lon="2.03671">
        <ele>153.99836730957</ele>
        <time>2017-05-21T07:53:10.000Z</time>
      </trkpt>
      <trkpt lat="49.43757" lon="2.03661">
        <ele>154.38862609863</ele>
        <time>2017-05-21T07:53:12.000Z</time>
      </trkpt>
      <trkpt lat="49.43755" lon="2.03647">
        <ele>154.8000793457</ele>
        <time>2017-05-21T07:53:15.000Z</time>
      </trkpt>
      <trkpt lat="49.43752" lon="2.03635">
        <ele>155.22608947754</ele>
        <time>2017-05-21T07:53:18.000Z</time>
      </trkpt>
      <trkpt lat="49.43751" lon="2.0362">
        <ele>155.66073608398</ele>
        <time>2017-05-21T07:53:21.000Z</time>
      </trkpt>
      <trkpt lat="49.4375" lon="2.03611">
        <ele>156.09172058105</ele>
        <time>2017-05-21T07:53:23.000Z</time>
      </trkpt>
      <trkpt lat="49.43746" lon="2.03598">
        <ele>156.48445129395</ele>
        <time>2017-05-21T07:53:26.000Z</time>
      </trkpt>
      <trkpt lat="49.43739" lon="2.03588">
        <ele>156.74607849121</ele>
        <time>2017-05-21T07:53:28.000Z</time>
      </trkpt>
      <trkpt lat="49.43733" lon="2.03578">
        <ele>156.93087768555</ele>
        <time>2017-05-21T07:53:31.000Z</time>
      </trkpt>
      <trkpt lat="49.43731" lon="2.03566">
        <ele>157.14292907715</ele>
        <time>2017-05-21T07:53:34.000Z</time>
      </trkpt>
      <trkpt lat="49.4373" lon="2.0356">
        <ele>157.36991882324</ele>
        <time>2017-05-21T07:53:36.000Z</time>
      </trkpt>
      <trkpt lat="49.43728" lon="2.03551">
        <ele>157.6890411377</ele>
        <time>2017-05-21T07:53:39.000Z</time>
      </trkpt>
      <trkpt lat="49.43726" lon="2.03538">
        <ele>158.25187683105</ele>
        <time>2017-05-21T07:53:42.000Z</time>
      </trkpt>
      <trkpt lat="49.43725" lon="2.03529">
        <ele>158.95541381836</ele>
        <time>2017-05-21T07:53:44.000Z</time>
      </trkpt>
      <trkpt lat="49.43724" lon="2.03517">
        <ele>159.72372436523</ele>
        <time>2017-05-21T07:53:47.000Z</time>
      </trkpt>
      <trkpt lat="49.43722" lon="2.03507">
        <ele>160.56845092773</ele>
        <time>2017-05-21T07:53:50.000Z</time>
      </trkpt>
      <trkpt lat="49.4372" lon="2.03502">
        <ele>161.40280151367</ele>
        <time>2017-05-21T07:53:52.000Z</time>
      </trkpt>
      <trkpt lat="49.43717" lon="2.03494">
        <ele>162.17985534668</ele>
        <time>2017-05-21T07:53:54.000Z</time>
      </trkpt>
      <trkpt lat="49.43713" lon="2.03484">
        <ele>162.9674987793</ele>
        <time>2017-05-21T07:53:57.000Z</time>
      </trkpt>
      <trkpt lat="49.4371" lon="2.03476">
        <ele>163.68983459473</ele>
        <time>2017-05-21T07:54:00.000Z</time>
      </trkpt>
      <trkpt lat="49.43706" lon="2.0347">
        <ele>164.36967468262</ele>
        <time>2017-05-21T07:54:02.000Z</time>
      </trkpt>
      <trkpt lat="49.43702" lon="2.03463">
        <ele>165.08041381836</ele>
        <time>2017-05-21T07:54:04.000Z</time>
      </trkpt>
      <trkpt lat="49.43694" lon="2.03453">
        <ele>165.87347412109</ele>
        <time>2017-05-21T07:54:07.000Z</time>
      </trkpt>
      <trkpt lat="49.43689" lon="2.03447">
        <ele>166.65731811523</ele>
        <time>2017-05-21T07:54:10.000Z</time>
      </trkpt>
      <trkpt lat="49.43685" lon="2.03442">
        <ele>167.40623474121</ele>
        <time>2017-05-21T07:54:13.000Z</time>
      </trkpt>
      <trkpt lat="49.43681" lon="2.03441">
        <ele>168.09928894043</ele>
        <time>2017-05-21T07:54:15.000Z</time>
      </trkpt>
      <trkpt lat="49.43675" lon="2.03439">
        <ele>168.74618530273</ele>
        <time>2017-05-21T07:54:17.000Z</time>
      </trkpt>
      <trkpt lat="49.43666" lon="2.03432">
        <ele>169.36306762695</ele>
        <time>2017-05-21T07:54:20.000Z</time>
      </trkpt>
      <trkpt lat="49.4366" lon="2.0343">
        <ele>169.85598754883</ele>
        <time>2017-05-21T07:54:22.000Z</time>
      </trkpt>
      <trkpt lat="49.43649" lon="2.03426">
        <ele>170.31201171875</ele>
        <time>2017-05-21T07:54:25.000Z</time>
      </trkpt>
      <trkpt lat="49.43642" lon="2.03419">
        <ele>170.81925964355</ele>
        <time>2017-05-21T07:54:28.000Z</time>
      </trkpt>
      <trkpt lat="49.43637" lon="2.03414">
        <ele>171.30264282227</ele>
        <time>2017-05-21T07:54:30.000Z</time>
      </trkpt>
      <trkpt lat="49.43629" lon="2.03409">
        <ele>171.64274597168</ele>
        <time>2017-05-21T07:54:33.000Z</time>
      </trkpt>
      <trkpt lat="49.43624" lon="2.03408">
        <ele>171.95877075195</ele>
        <time>2017-05-21T07:54:35.000Z</time>
      </trkpt>
      <trkpt lat="49.43615" lon="2.0341">
        <ele>172.19514465332</ele>
        <time>2017-05-21T07:54:38.000Z</time>
      </trkpt>
      <trkpt lat="49.4361" lon="2.03411">
        <ele>172.2939453125</ele>
        <time>2017-05-21T07:54:40.000Z</time>
      </trkpt>
      <trkpt lat="49.43604" lon="2.0341">
        <ele>172.33740234375</ele>
        <time>2017-05-21T07:54:43.000Z</time>
      </trkpt>
      <trkpt lat="49.43595" lon="2.0341">
        <ele>172.32824707031</ele>
        <time>2017-05-21T07:54:46.000Z</time>
      </trkpt>
      <trkpt lat="49.43587" lon="2.03411">
        <ele>172.29846191406</ele>
        <time>2017-05-21T07:54:49.000Z</time>
      </trkpt>
      <trkpt lat="49.43582" lon="2.03413">
        <ele>172.23970031738</ele>
        <time>2017-05-21T07:54:51.000Z</time>
      </trkpt>
      <trkpt lat="49.43577" lon="2.03415">
        <ele>172.03877258301</ele>
        <time>2017-05-21T07:54:53.000Z</time>
      </trkpt>
      <trkpt lat="49.43568" lon="2.03418">
        <ele>171.58345031738</ele>
        <time>2017-05-21T07:54:56.000Z</time>
      </trkpt>
      <trkpt lat="49.43562" lon="2.03422">
        <ele>170.87092590332</ele>
        <time>2017-05-21T07:54:59.000Z</time>
      </trkpt>
      <trkpt lat="49.43558" lon="2.03425">
        <ele>170.0287322998</ele>
        <time>2017-05-21T07:55:01.000Z</time>
      </trkpt>
      <trkpt lat="49.43552" lon="2.03426">
        <ele>169.07609558105</ele>
        <time>2017-05-21T07:55:04.000Z</time>
      </trkpt>
      <trkpt lat="49.43554" lon="2.03423">
        <ele>168.37686157227</ele>
        <time>2017-05-21T07:55:08.000Z</time>
      </trkpt>
      <trkpt lat="49.43556" lon="2.03419">
        <ele>168.06173706055</ele>
        <time>2017-05-21T07:55:10.000Z</time>
      </trkpt>
      <trkpt lat="49.43557" lon="2.03413">
        <ele>168.10423278809</ele>
        <time>2017-05-21T07:55:13.000Z</time>
      </trkpt>
      <trkpt lat="49.43556" lon="2.0341">
        <ele>168.29670715332</ele>
        <time>2017-05-21T07:55:15.000Z</time>
      </trkpt>
      <trkpt lat="49.43556" lon="2.03403">
        <ele>168.71237182617</ele>
        <time>2017-05-21T07:55:18.000Z</time>
      </trkpt>
      <trkpt lat="49.43557" lon="2.03399">
        <ele>169.08981323242</ele>
        <time>2017-05-21T07:55:20.000Z</time>
      </trkpt>
      <trkpt lat="49.43557" lon="2.03396">
        <ele>169.33999633789</ele>
        <time>2017-05-21T07:55:23.000Z</time>
      </trkpt>
      <trkpt lat="49.43557" lon="2.03387">
        <ele>169.57238769531</ele>
        <time>2017-05-21T07:55:26.000Z</time>
      </trkpt>
      <trkpt lat="49.43556" lon="2.03378">
        <ele>169.86715698242</ele>
        <time>2017-05-21T07:55:29.000Z</time>
      </trkpt>
      <trkpt lat="49.43556" lon="2.03372">
        <ele>170.14770507812</ele>
        <time>2017-05-21T07:55:31.000Z</time>
      </trkpt>
      <trkpt lat="49.43557" lon="2.0336">
        <ele>170.48805236816</ele>
        <time>2017-05-21T07:55:34.000Z</time>
      </trkpt>
      <trkpt lat="49.43557" lon="2.03349">
        <ele>170.89860534668</ele>
        <time>2017-05-21T07:55:37.000Z</time>
      </trkpt>
      <trkpt lat="49.43557" lon="2.03339">
        <ele>171.33981323242</ele>
        <time>2017-05-21T07:55:40.000Z</time>
      </trkpt>
      <trkpt lat="49.43559" lon="2.03328">
        <ele>171.79753112793</ele>
        <time>2017-05-21T07:55:43.000Z</time>
      </trkpt>
      <trkpt lat="49.4356" lon="2.03321">
        <ele>172.24911499023</ele>
        <time>2017-05-21T07:55:45.000Z</time>
      </trkpt>
      <trkpt lat="49.43561" lon="2.0331">
        <ele>172.64901733398</ele>
        <time>2017-05-21T07:55:48.000Z</time>
      </trkpt>
      <trkpt lat="49.43561" lon="2.03302">
        <ele>172.97453308105</ele>
        <time>2017-05-21T07:55:50.000Z</time>
      </trkpt>
      <trkpt lat="49.43562" lon="2.03292">
        <ele>173.25379943848</ele>
        <time>2017-05-21T07:55:52.000Z</time>
      </trkpt>
      <trkpt lat="49.43564" lon="2.03282">
        <ele>173.50378417969</ele>
        <time>2017-05-21T07:55:55.000Z</time>
      </trkpt>
      <trkpt lat="49.43563" lon="2.03274">
        <ele>173.72485351562</ele>
        <time>2017-05-21T07:55:58.000Z</time>
      </trkpt>
      <trkpt lat="49.43563" lon="2.03271">
        <ele>173.87298583984</ele>
        <time>2017-05-21T07:56:05.000Z</time>
      </trkpt>
      <trkpt lat="49.43563" lon="2.03269">
        <ele>174.01586914062</ele>
        <time>2017-05-21T07:56:11.000Z</time>
      </trkpt>
      <trkpt lat="49.43563" lon="2.03262">
        <ele>174.09837341309</ele>
        <time>2017-05-21T07:56:17.000Z</time>
      </trkpt>
      <trkpt lat="49.43563" lon="2.03262">
        <ele>174.09837341309</ele>
        <time>2017-05-21T07:56:37.000Z</time>
      </trkpt>
      <trkpt lat="49.43563" lon="2.03261">
        <ele>174.13876342773</ele>
        <time>2017-05-21T07:57:13.000Z</time>
      </trkpt>
      <trkpt lat="49.4356" lon="2.03247">
        <ele>174.11221313477</ele>
        <time>2017-05-21T07:57:16.000Z</time>
      </trkpt>
      <trkpt lat="49.43557" lon="2.0322">
        <ele>174.11175537109</ele>
        <time>2017-05-21T07:57:19.000Z</time>
      </trkpt>
      <trkpt lat="49.43555" lon="2.03213">
        <ele>174.10330200195</ele>
        <time>2017-05-21T07:57:21.000Z</time>
      </trkpt>
      <trkpt lat="49.43556" lon="2.03202">
        <ele>174.15434265137</ele>
        <time>2017-05-21T07:57:24.000Z</time>
      </trkpt>
      <trkpt lat="49.43554" lon="2.03189">
        <ele>174.1869354248</ele>
        <time>2017-05-21T07:57:27.000Z</time>
      </trkpt>
      <trkpt lat="49.43553" lon="2.03181">
        <ele>174.25234985352</ele>
        <time>2017-05-21T07:57:29.000Z</time>
      </trkpt>
      <trkpt lat="49.43553" lon="2.03175">
        <ele>174.31809997559</ele>
        <time>2017-05-21T07:57:31.000Z</time>
      </trkpt>
      <trkpt lat="49.43552" lon="2.03166">
        <ele>174.38691711426</ele>
        <time>2017-05-21T07:57:34.000Z</time>
      </trkpt>
      <trkpt lat="49.43551" lon="2.03159">
        <ele>174.39979553223</ele>
        <time>2017-05-21T07:57:36.000Z</time>
      </trkpt>
      <trkpt lat="49.43551" lon="2.03152">
        <ele>174.4408416748</ele>
        <time>2017-05-21T07:57:38.000Z</time>
      </trkpt>
      <trkpt lat="49.43554" lon="2.03141">
        <ele>174.61457824707</ele>
        <time>2017-05-21T07:57:41.000Z</time>
      </trkpt>
      <trkpt lat="49.43559" lon="2.03129">
        <ele>174.9404296875</ele>
        <time>2017-05-21T07:57:44.000Z</time>
      </trkpt>
      <trkpt lat="49.43561" lon="2.03118">
        <ele>175.35499572754</ele>
        <time>2017-05-21T07:57:46.000Z</time>
      </trkpt>
      <trkpt lat="49.43561" lon="2.03107">
        <ele>175.7933807373</ele>
        <time>2017-05-21T07:57:48.000Z</time>
      </trkpt>
      <trkpt lat="49.4356" lon="2.03095">
        <ele>176.21199035645</ele>
        <time>2017-05-21T07:57:50.000Z</time>
      </trkpt>
      <trkpt lat="49.43559" lon="2.03081">
        <ele>176.52444458008</ele>
        <time>2017-05-21T07:57:53.000Z</time>
      </trkpt>
      <trkpt lat="49.4356" lon="2.03071">
        <ele>176.74617004395</ele>
        <time>2017-05-21T07:57:56.000Z</time>
      </trkpt>
      <trkpt lat="49.4356" lon="2.03067">
        <ele>176.88182067871</ele>
        <time>2017-05-21T07:57:58.000Z</time>
      </trkpt>
      <trkpt lat="49.4356" lon="2.0306">
        <ele>177.00468444824</ele>
        <time>2017-05-21T07:58:00.000Z</time>
      </trkpt>
      <trkpt lat="49.43561" lon="2.03052">
        <ele>177.17875671387</ele>
        <time>2017-05-21T07:58:02.000Z</time>
      </trkpt>
      <trkpt lat="49.43562" lon="2.0304">
        <ele>177.39944458008</ele>
        <time>2017-05-21T07:58:05.000Z</time>
      </trkpt>
      <trkpt lat="49.43562" lon="2.0303">
        <ele>177.5756072998</ele>
        <time>2017-05-21T07:58:07.000Z</time>
      </trkpt>
      <trkpt lat="49.43563" lon="2.03019">
        <ele>177.80239868164</ele>
        <time>2017-05-21T07:58:09.000Z</time>
      </trkpt>
      <trkpt lat="49.43563" lon="2.03008">
        <ele>178.04208374023</ele>
        <time>2017-05-21T07:58:11.000Z</time>
      </trkpt>
      <trkpt lat="49.43565" lon="2.02994">
        <ele>178.28842163086</ele>
        <time>2017-05-21T07:58:13.000Z</time>
      </trkpt>
      <trkpt lat="49.43568" lon="2.02979">
        <ele>178.55484008789</ele>
        <time>2017-05-21T07:58:16.000Z</time>
      </trkpt>
      <trkpt lat="49.43571" lon="2.02966">
        <ele>178.85034179688</ele>
        <time>2017-05-21T07:58:18.000Z</time>
      </trkpt>
      <trkpt lat="49.43576" lon="2.02949">
        <ele>179.21951293945</ele>
        <time>2017-05-21T07:58:21.000Z</time>
      </trkpt>
      <trkpt lat="49.43581" lon="2.02937">
        <ele>179.671875</ele>
        <time>2017-05-21T07:58:24.000Z</time>
      </trkpt>
      <trkpt lat="49.43583" lon="2.02927">
        <ele>180.091796875</ele>
        <time>2017-05-21T07:58:26.000Z</time>
      </trkpt>
      <trkpt lat="49.43586" lon="2.02912">
        <ele>180.47203063965</ele>
        <time>2017-05-21T07:58:29.000Z</time>
      </trkpt>
      <trkpt lat="49.43587" lon="2.02902">
        <ele>180.77342224121</ele>
        <time>2017-05-21T07:58:32.000Z</time>
      </trkpt>
      <trkpt lat="49.43587" lon="2.02894">
        <ele>180.92393493652</ele>
        <time>2017-05-21T07:58:35.000Z</time>
      </trkpt>
      <trkpt lat="49.43586" lon="2.02892">
        <ele>180.94868469238</ele>
        <time>2017-05-21T07:58:38.000Z</time>
      </trkpt>
      <trkpt lat="49.43586" lon="2.02889">
        <ele>180.92866516113</ele>
        <time>2017-05-21T07:58:40.000Z</time>
      </trkpt>
      <trkpt lat="49.43585" lon="2.0288">
        <ele>180.84091186523</ele>
        <time>2017-05-21T07:58:47.000Z</time>
      </trkpt>
      <trkpt lat="49.43585" lon="2.0288">
        <ele>180.84091186523</ele>
        <time>2017-05-21T07:59:07.000Z</time>
      </trkpt>
      <trkpt lat="49.43584" lon="2.02876">
        <ele>180.75112915039</ele>
        <time>2017-05-21T07:59:21.000Z</time>
      </trkpt>
      <trkpt lat="49.43584" lon="2.02874">
        <ele>180.67167663574</ele>
        <time>2017-05-21T07:59:23.000Z</time>
      </trkpt>
      <trkpt lat="49.43584" lon="2.02869">
        <ele>180.58776855469</ele>
        <time>2017-05-21T07:59:26.000Z</time>
      </trkpt>
      <trkpt lat="49.43584" lon="2.02864">
        <ele>180.51205444336</ele>
        <time>2017-05-21T07:59:28.000Z</time>
      </trkpt>
      <trkpt lat="49.43585" lon="2.02858">
        <ele>180.46040344238</ele>
        <time>2017-05-21T07:59:30.000Z</time>
      </trkpt>
      <trkpt lat="49.43585" lon="2.02851">
        <ele>180.40869140625</ele>
        <time>2017-05-21T07:59:32.000Z</time>
      </trkpt>
      <trkpt lat="49.43587" lon="2.02842">
        <ele>180.37408447266</ele>
        <time>2017-05-21T07:59:34.000Z</time>
      </trkpt>
      <trkpt lat="49.43592" lon="2.02824">
        <ele>180.39375305176</ele>
        <time>2017-05-21T07:59:37.000Z</time>
      </trkpt>
      <trkpt lat="49.43598" lon="2.02804">
        <ele>180.50411987305</ele>
        <time>2017-05-21T07:59:40.000Z</time>
      </trkpt>
      <trkpt lat="49.436" lon="2.02794">
        <ele>180.65093994141</ele>
        <time>2017-05-21T07:59:42.000Z</time>
      </trkpt>
      <trkpt lat="49.43603" lon="2.02779">
        <ele>180.85629272461</ele>
        <time>2017-05-21T07:59:45.000Z</time>
      </trkpt>
      <trkpt lat="49.43606" lon="2.02766">
        <ele>181.11080932617</ele>
        <time>2017-05-21T07:59:48.000Z</time>
      </trkpt>
      <trkpt lat="49.4361" lon="2.02749">
        <ele>181.38143920898</ele>
        <time>2017-05-21T07:59:51.000Z</time>
      </trkpt>
      <trkpt lat="49.43608" lon="2.02729">
        <ele>181.53952026367</ele>
        <time>2017-05-21T07:59:54.000Z</time>
      </trkpt>
      <trkpt lat="49.436" lon="2.02713">
        <ele>181.52651977539</ele>
        <time>2017-05-21T07:59:57.000Z</time>
      </trkpt>
      <trkpt lat="49.43597" lon="2.02709">
        <ele>181.39729309082</ele>
        <time>2017-05-21T07:59:59.000Z</time>
      </trkpt>
      <trkpt lat="49.43595" lon="2.02693">
        <ele>181.16377258301</ele>
        <time>2017-05-21T08:00:02.000Z</time>
      </trkpt>
      <trkpt lat="49.43597" lon="2.02681">
        <ele>180.8899230957</ele>
        <time>2017-05-21T08:00:04.000Z</time>
      </trkpt>
      <trkpt lat="49.43599" lon="2.02671">
        <ele>180.67556762695</ele>
        <time>2017-05-21T08:00:06.000Z</time>
      </trkpt>
      <trkpt lat="49.436" lon="2.0266">
        <ele>180.60258483887</ele>
        <time>2017-05-21T08:00:08.000Z</time>
      </trkpt>
      <trkpt lat="49.436" lon="2.02648">
        <ele>180.57550048828</ele>
        <time>2017-05-21T08:00:10.000Z</time>
      </trkpt>
      <trkpt lat="49.43602" lon="2.02631">
        <ele>180.59309387207</ele>
        <time>2017-05-21T08:00:13.000Z</time>
      </trkpt>
      <trkpt lat="49.43604" lon="2.0262">
        <ele>180.59278869629</ele>
        <time>2017-05-21T08:00:15.000Z</time>
      </trkpt>
      <trkpt lat="49.43607" lon="2.02602">
        <ele>180.56533813477</ele>
        <time>2017-05-21T08:00:18.000Z</time>
      </trkpt>
      <trkpt lat="49.4361" lon="2.02586">
        <ele>180.54132080078</ele>
        <time>2017-05-21T08:00:21.000Z</time>
      </trkpt>
      <trkpt lat="49.43613" lon="2.02573">
        <ele>180.52607727051</ele>
        <time>2017-05-21T08:00:23.000Z</time>
      </trkpt>
      <trkpt lat="49.43615" lon="2.02555">
        <ele>180.44934082031</ele>
        <time>2017-05-21T08:00:26.000Z</time>
      </trkpt>
      <trkpt lat="49.43617" lon="2.02543">
        <ele>180.3376159668</ele>
        <time>2017-05-21T08:00:28.000Z</time>
      </trkpt>
      <trkpt lat="49.43619" lon="2.02524">
        <ele>180.15036010742</ele>
        <time>2017-05-21T08:00:31.000Z</time>
      </trkpt>
      <trkpt lat="49.4362" lon="2.02505">
        <ele>179.86706542969</ele>
        <time>2017-05-21T08:00:34.000Z</time>
      </trkpt>
      <trkpt lat="49.43621" lon="2.02492">
        <ele>179.52777099609</ele>
        <time>2017-05-21T08:00:36.000Z</time>
      </trkpt>
      <trkpt lat="49.43621" lon="2.02479">
        <ele>179.19665527344</ele>
        <time>2017-05-21T08:00:38.000Z</time>
      </trkpt>
      <trkpt lat="49.43624" lon="2.02466">
        <ele>178.87773132324</ele>
        <time>2017-05-21T08:00:40.000Z</time>
      </trkpt>
      <trkpt lat="49.43628" lon="2.0245">
        <ele>178.60643005371</ele>
        <time>2017-05-21T08:00:43.000Z</time>
      </trkpt>
      <trkpt lat="49.43633" lon="2.02436">
        <ele>178.4468536377</ele>
        <time>2017-05-21T08:00:46.000Z</time>
      </trkpt>
      <trkpt lat="49.43637" lon="2.02428">
        <ele>178.38696289062</ele>
        <time>2017-05-21T08:00:48.000Z</time>
      </trkpt>
      <trkpt lat="49.43642" lon="2.02419">
        <ele>178.44467163086</ele>
        <time>2017-05-21T08:00:50.000Z</time>
      </trkpt>
      <trkpt lat="49.43647" lon="2.02412">
        <ele>178.54553222656</ele>
        <time>2017-05-21T08:00:52.000Z</time>
      </trkpt>
      <trkpt lat="49.43653" lon="2.024">
        <ele>178.63862609863</ele>
        <time>2017-05-21T08:00:55.000Z</time>
      </trkpt>
      <trkpt lat="49.43656" lon="2.02392">
        <ele>178.65852355957</ele>
        <time>2017-05-21T08:00:57.000Z</time>
      </trkpt>
      <trkpt lat="49.43659" lon="2.02385">
        <ele>178.59689331055</ele>
        <time>2017-05-21T08:00:59.000Z</time>
      </trkpt>
      <trkpt lat="49.43665" lon="2.02372">
        <ele>178.38017272949</ele>
        <time>2017-05-21T08:01:02.000Z</time>
      </trkpt>
      <trkpt lat="49.43673" lon="2.02366">
        <ele>178.17669677734</ele>
        <time>2017-05-21T08:01:05.000Z</time>
      </trkpt>
      <trkpt lat="49.43679" lon="2.02361">
        <ele>178.0458984375</ele>
        <time>2017-05-21T08:01:07.000Z</time>
      </trkpt>
      <trkpt lat="49.43684" lon="2.02356">
        <ele>177.98001098633</ele>
        <time>2017-05-21T08:01:09.000Z</time>
      </trkpt>
      <trkpt lat="49.43692" lon="2.02346">
        <ele>177.9832611084</ele>
        <time>2017-05-21T08:01:12.000Z</time>
      </trkpt>
      <trkpt lat="49.43699" lon="2.0234">
        <ele>178.14082336426</ele>
        <time>2017-05-21T08:01:14.000Z</time>
      </trkpt>
      <trkpt lat="49.43709" lon="2.02331">
        <ele>178.35340881348</ele>
        <time>2017-05-21T08:01:17.000Z</time>
      </trkpt>
      <trkpt lat="49.43715" lon="2.02324">
        <ele>178.55242919922</ele>
        <time>2017-05-21T08:01:19.000Z</time>
      </trkpt>
      <trkpt lat="49.43721" lon="2.02317">
        <ele>178.75854492188</ele>
        <time>2017-05-21T08:01:21.000Z</time>
      </trkpt>
      <trkpt lat="49.43727" lon="2.0231">
        <ele>178.95793151855</ele>
        <time>2017-05-21T08:01:23.000Z</time>
      </trkpt>
      <trkpt lat="49.43735" lon="2.023">
        <ele>179.06777954102</ele>
        <time>2017-05-21T08:01:25.000Z</time>
      </trkpt>
      <trkpt lat="49.43744" lon="2.0229">
        <ele>179.06478881836</ele>
        <time>2017-05-21T08:01:27.000Z</time>
      </trkpt>
      <trkpt lat="49.43753" lon="2.02279">
        <ele>178.97222900391</ele>
        <time>2017-05-21T08:01:30.000Z</time>
      </trkpt>
      <trkpt lat="49.43759" lon="2.02274">
        <ele>178.82308959961</ele>
        <time>2017-05-21T08:01:33.000Z</time>
      </trkpt>
      <trkpt lat="49.43762" lon="2.02269">
        <ele>178.62622070312</ele>
        <time>2017-05-21T08:01:35.000Z</time>
      </trkpt>
      <trkpt lat="49.43766" lon="2.02265">
        <ele>178.42414855957</ele>
        <time>2017-05-21T08:01:38.000Z</time>
      </trkpt>
      <trkpt lat="49.4377" lon="2.0226">
        <ele>178.22981262207</ele>
        <time>2017-05-21T08:01:41.000Z</time>
      </trkpt>
      <trkpt lat="49.43773" lon="2.02257">
        <ele>178.09127807617</ele>
        <time>2017-05-21T08:01:44.000Z</time>
      </trkpt>
      <trkpt lat="49.43774" lon="2.02257">
        <ele>177.99169921875</ele>
        <time>2017-05-21T08:01:46.000Z</time>
      </trkpt>
      <trkpt lat="49.43774" lon="2.02256">
        <ele>177.93090820312</ele>
        <time>2017-05-21T08:01:59.000Z</time>
      </trkpt>
      <trkpt lat="49.43776" lon="2.02256">
        <ele>177.9312286377</ele>
        <time>2017-05-21T08:02:06.000Z</time>
      </trkpt>
      <trkpt lat="49.43778" lon="2.02256">
        <ele>177.97004699707</ele>
        <time>2017-05-21T08:02:08.000Z</time>
      </trkpt>
      <trkpt lat="49.43782" lon="2.02258">
        <ele>178.07763671875</ele>
        <time>2017-05-21T08:02:11.000Z</time>
      </trkpt>
      <trkpt lat="49.43783" lon="2.02259">
        <ele>178.21321105957</ele>
        <time>2017-05-21T08:02:13.000Z</time>
      </trkpt>
      <trkpt lat="49.43784" lon="2.02263">
        <ele>178.40621948242</ele>
        <time>2017-05-21T08:02:16.000Z</time>
      </trkpt>
      <trkpt lat="49.43783" lon="2.02264">
        <ele>178.58010864258</ele>
        <time>2017-05-21T08:02:20.000Z</time>
      </trkpt>
      <trkpt lat="49.43784" lon="2.02265">
        <ele>178.75927734375</ele>
        <time>2017-05-21T08:02:25.000Z</time>
      </trkpt>
      <trkpt lat="49.43787" lon="2.02271">
        <ele>178.97689819336</ele>
        <time>2017-05-21T08:02:28.000Z</time>
      </trkpt>
      <trkpt lat="49.43794" lon="2.02276">
        <ele>179.29501342773</ele>
        <time>2017-05-21T08:02:31.000Z</time>
      </trkpt>
      <trkpt lat="49.438" lon="2.02275">
        <ele>179.59765625</ele>
        <time>2017-05-21T08:02:33.000Z</time>
      </trkpt>
      <trkpt lat="49.43805" lon="2.02272">
        <ele>179.91218566895</ele>
        <time>2017-05-21T08:02:35.000Z</time>
      </trkpt>
      <trkpt lat="49.43814" lon="2.02266">
        <ele>180.2259979248</ele>
        <time>2017-05-21T08:02:38.000Z</time>
      </trkpt>
      <trkpt lat="49.43822" lon="2.0226">
        <ele>180.47146606445</ele>
        <time>2017-05-21T08:02:41.000Z</time>
      </trkpt>
      <trkpt lat="49.43827" lon="2.02257">
        <ele>180.62297058105</ele>
        <time>2017-05-21T08:02:43.000Z</time>
      </trkpt>
      <trkpt lat="49.43831" lon="2.02255">
        <ele>180.7580871582</ele>
        <time>2017-05-21T08:02:45.000Z</time>
      </trkpt>
      <trkpt lat="49.43837" lon="2.02249">
        <ele>180.8948059082</ele>
        <time>2017-05-21T08:02:48.000Z</time>
      </trkpt>
      <trkpt lat="49.43842" lon="2.02244">
        <ele>180.96925354004</ele>
        <time>2017-05-21T08:02:50.000Z</time>
      </trkpt>
      <trkpt lat="49.4385" lon="2.02237">
        <ele>180.98767089844</ele>
        <time>2017-05-21T08:02:53.000Z</time>
      </trkpt>
      <trkpt lat="49.43855" lon="2.02233">
        <ele>180.96244812012</ele>
        <time>2017-05-21T08:02:55.000Z</time>
      </trkpt>
      <trkpt lat="49.43863" lon="2.02226">
        <ele>180.92245483398</ele>
        <time>2017-05-21T08:02:58.000Z</time>
      </trkpt>
      <trkpt lat="49.43872" lon="2.02219">
        <ele>180.87762451172</ele>
        <time>2017-05-21T08:03:01.000Z</time>
      </trkpt>
      <trkpt lat="49.43878" lon="2.02213">
        <ele>180.8824005127</ele>
        <time>2017-05-21T08:03:03.000Z</time>
      </trkpt>
      <trkpt lat="49.43891" lon="2.02206">
        <ele>181.02767944336</ele>
        <time>2017-05-21T08:03:06.000Z</time>
      </trkpt>
      <trkpt lat="49.439" lon="2.02201">
        <ele>181.25489807129</ele>
        <time>2017-05-21T08:03:08.000Z</time>
      </trkpt>
      <trkpt lat="49.43912" lon="2.02191">
        <ele>181.57885742188</ele>
        <time>2017-05-21T08:03:11.000Z</time>
      </trkpt>
      <trkpt lat="49.43917" lon="2.02183">
        <ele>181.90954589844</ele>
        <time>2017-05-21T08:03:13.000Z</time>
      </trkpt>
      <trkpt lat="49.43921" lon="2.02172">
        <ele>182.14668273926</ele>
        <time>2017-05-21T08:03:15.000Z</time>
      </trkpt>
      <trkpt lat="49.43927" lon="2.02156">
        <ele>182.02674865723</ele>
        <time>2017-05-21T08:03:18.000Z</time>
      </trkpt>
      <trkpt lat="49.43938" lon="2.02141">
        <ele>181.58444213867</ele>
        <time>2017-05-21T08:03:21.000Z</time>
      </trkpt>
      <trkpt lat="49.43945" lon="2.0213">
        <ele>180.90185546875</ele>
        <time>2017-05-21T08:03:23.000Z</time>
      </trkpt>
      <trkpt lat="49.43958" lon="2.0212">
        <ele>180.17239379883</ele>
        <time>2017-05-21T08:03:26.000Z</time>
      </trkpt>
      <trkpt lat="49.43975" lon="2.02103">
        <ele>179.51252746582</ele>
        <time>2017-05-21T08:03:29.000Z</time>
      </trkpt>
      <trkpt lat="49.43988" lon="2.02088">
        <ele>179.15451049805</ele>
        <time>2017-05-21T08:03:31.000Z</time>
      </trkpt>
      <trkpt lat="49.44004" lon="2.02071">
        <ele>178.93803405762</ele>
        <time>2017-05-21T08:03:34.000Z</time>
      </trkpt>
      <trkpt lat="49.44011" lon="2.02057">
        <ele>178.59725952148</ele>
        <time>2017-05-21T08:03:36.000Z</time>
      </trkpt>
      <trkpt lat="49.44023" lon="2.02038">
        <ele>177.95974731445</ele>
        <time>2017-05-21T08:03:39.000Z</time>
      </trkpt>
      <trkpt lat="49.44028" lon="2.02033">
        <ele>177.26370239258</ele>
        <time>2017-05-21T08:03:41.000Z</time>
      </trkpt>
      <trkpt lat="49.44032" lon="2.02031">
        <ele>176.48721313477</ele>
        <time>2017-05-21T08:03:43.000Z</time>
      </trkpt>
      <trkpt lat="49.4404" lon="2.02019">
        <ele>175.66175842285</ele>
        <time>2017-05-21T08:03:46.000Z</time>
      </trkpt>
      <trkpt lat="49.44048" lon="2.02007">
        <ele>174.95750427246</ele>
        <time>2017-05-21T08:03:49.000Z</time>
      </trkpt>
      <trkpt lat="49.44057" lon="2.02">
        <ele>174.55180358887</ele>
        <time>2017-05-21T08:03:52.000Z</time>
      </trkpt>
      <trkpt lat="49.44063" lon="2.01996">
        <ele>174.20907592773</ele>
        <time>2017-05-21T08:03:54.000Z</time>
      </trkpt>
      <trkpt lat="49.44071" lon="2.01991">
        <ele>173.86584472656</ele>
        <time>2017-05-21T08:03:57.000Z</time>
      </trkpt>
      <trkpt lat="49.44078" lon="2.01985">
        <ele>173.63818359375</ele>
        <time>2017-05-21T08:03:59.000Z</time>
      </trkpt>
      <trkpt lat="49.44086" lon="2.01978">
        <ele>173.4469909668</ele>
        <time>2017-05-21T08:04:01.000Z</time>
      </trkpt>
      <trkpt lat="49.44097" lon="2.01968">
        <ele>173.11039733887</ele>
        <time>2017-05-21T08:04:03.000Z</time>
      </trkpt>
      <trkpt lat="49.44108" lon="2.01955">
        <ele>172.61280822754</ele>
        <time>2017-05-21T08:04:06.000Z</time>
      </trkpt>
      <trkpt lat="49.44116" lon="2.01946">
        <ele>172.06588745117</ele>
        <time>2017-05-21T08:04:08.000Z</time>
      </trkpt>
      <trkpt lat="49.44121" lon="2.01937">
        <ele>171.47721862793</ele>
        <time>2017-05-21T08:04:11.000Z</time>
      </trkpt>
      <trkpt lat="49.44127" lon="2.01927">
        <ele>170.92736816406</ele>
        <time>2017-05-21T08:04:14.000Z</time>
      </trkpt>
      <trkpt lat="49.44131" lon="2.0192">
        <ele>170.52909851074</ele>
        <time>2017-05-21T08:04:16.000Z</time>
      </trkpt>
      <trkpt lat="49.44138" lon="2.01912">
        <ele>170.28750610352</ele>
        <time>2017-05-21T08:04:19.000Z</time>
      </trkpt>
      <trkpt lat="49.44144" lon="2.01905">
        <ele>170.09909057617</ele>
        <time>2017-05-21T08:04:21.000Z</time>
      </trkpt>
      <trkpt lat="49.44155" lon="2.01895">
        <ele>169.98406982422</ele>
        <time>2017-05-21T08:04:24.000Z</time>
      </trkpt>
      <trkpt lat="49.44162" lon="2.01887">
        <ele>169.89213562012</ele>
        <time>2017-05-21T08:04:27.000Z</time>
      </trkpt>
      <trkpt lat="49.44171" lon="2.01879">
        <ele>169.76972961426</ele>
        <time>2017-05-21T08:04:30.000Z</time>
      </trkpt>
      <trkpt lat="49.44176" lon="2.01871">
        <ele>169.58416748047</ele>
        <time>2017-05-21T08:04:32.000Z</time>
      </trkpt>
      <trkpt lat="49.44184" lon="2.01866">
        <ele>169.39584350586</ele>
        <time>2017-05-21T08:04:34.000Z</time>
      </trkpt>
      <trkpt lat="49.44196" lon="2.0186">
        <ele>169.22192382812</ele>
        <time>2017-05-21T08:04:37.000Z</time>
      </trkpt>
      <trkpt lat="49.44205" lon="2.01857">
        <ele>169.1220703125</ele>
        <time>2017-05-21T08:04:39.000Z</time>
      </trkpt>
      <trkpt lat="49.44218" lon="2.01848">
        <ele>169.07344055176</ele>
        <time>2017-05-21T08:04:42.000Z</time>
      </trkpt>
      <trkpt lat="49.44228" lon="2.01836">
        <ele>169.08023071289</ele>
        <time>2017-05-21T08:04:45.000Z</time>
      </trkpt>
      <trkpt lat="49.44235" lon="2.01827">
        <ele>169.02853393555</ele>
        <time>2017-05-21T08:04:47.000Z</time>
      </trkpt>
      <trkpt lat="49.44246" lon="2.01815">
        <ele>168.83938598633</ele>
        <time>2017-05-21T08:04:50.000Z</time>
      </trkpt>
      <trkpt lat="49.44256" lon="2.01804">
        <ele>168.45988464355</ele>
        <time>2017-05-21T08:04:52.000Z</time>
      </trkpt>
      <trkpt lat="49.44267" lon="2.01794">
        <ele>167.93997192383</ele>
        <time>2017-05-21T08:04:54.000Z</time>
      </trkpt>
      <trkpt lat="49.44272" lon="2.01788">
        <ele>167.37477111816</ele>
        <time>2017-05-21T08:04:56.000Z</time>
      </trkpt>
      <trkpt lat="49.44279" lon="2.01782">
        <ele>166.82034301758</ele>
        <time>2017-05-21T08:04:58.000Z</time>
      </trkpt>
      <trkpt lat="49.44284" lon="2.01774">
        <ele>166.30751037598</ele>
        <time>2017-05-21T08:05:01.000Z</time>
      </trkpt>
      <trkpt lat="49.44287" lon="2.01767">
        <ele>165.85282897949</ele>
        <time>2017-05-21T08:05:04.000Z</time>
      </trkpt>
      <trkpt lat="49.4429" lon="2.01756">
        <ele>165.40419006348</ele>
        <time>2017-05-21T08:05:07.000Z</time>
      </trkpt>
      <trkpt lat="49.44292" lon="2.01751">
        <ele>164.96318054199</ele>
        <time>2017-05-21T08:05:09.000Z</time>
      </trkpt>
      <trkpt lat="49.44294" lon="2.01747">
        <ele>164.57241821289</ele>
        <time>2017-05-21T08:05:11.000Z</time>
      </trkpt>
      <trkpt lat="49.44294" lon="2.01743">
        <ele>164.22412109375</ele>
        <time>2017-05-21T08:05:14.000Z</time>
      </trkpt>
      <trkpt lat="49.44293" lon="2.01741">
        <ele>163.94763183594</ele>
        <time>2017-05-21T08:05:16.000Z</time>
      </trkpt>
      <trkpt lat="49.44288" lon="2.01736">
        <ele>163.71435546875</ele>
        <time>2017-05-21T08:05:24.000Z</time>
      </trkpt>
      <trkpt lat="49.44288" lon="2.01736">
        <ele>163.71435546875</ele>
        <time>2017-05-21T08:05:44.000Z</time>
      </trkpt>
      <trkpt lat="49.44287" lon="2.01731">
        <ele>163.47290039062</ele>
        <time>2017-05-21T08:06:14.000Z</time>
      </trkpt>
      <trkpt lat="49.44287" lon="2.01729">
        <ele>163.23046875</ele>
        <time>2017-05-21T08:06:18.000Z</time>
      </trkpt>
      <trkpt lat="49.44287" lon="2.01727">
        <ele>163.02587890625</ele>
        <time>2017-05-21T08:06:22.000Z</time>
      </trkpt>
      <trkpt lat="49.44289" lon="2.01726">
        <ele>162.8447265625</ele>
        <time>2017-05-21T08:06:25.000Z</time>
      </trkpt>
      <trkpt lat="49.4429" lon="2.01725">
        <ele>162.75366210938</ele>
        <time>2017-05-21T08:06:28.000Z</time>
      </trkpt>
      <trkpt lat="49.44296" lon="2.01725">
        <ele>162.78894042969</ele>
        <time>2017-05-21T08:06:31.000Z</time>
      </trkpt>
      <trkpt lat="49.44302" lon="2.0173">
        <ele>162.93872070312</ele>
        <time>2017-05-21T08:06:33.000Z</time>
      </trkpt>
      <trkpt lat="49.44306" lon="2.0174">
        <ele>163.23083496094</ele>
        <time>2017-05-21T08:06:35.000Z</time>
      </trkpt>
      <trkpt lat="49.44309" lon="2.0175">
        <ele>163.64672851562</ele>
        <time>2017-05-21T08:06:37.000Z</time>
      </trkpt>
      <trkpt lat="49.44314" lon="2.0176">
        <ele>164.23237609863</ele>
        <time>2017-05-21T08:06:39.000Z</time>
      </trkpt>
      <trkpt lat="49.44322" lon="2.01778">
        <ele>165.02574157715</ele>
        <time>2017-05-21T08:06:42.000Z</time>
      </trkpt>
      <trkpt lat="49.44329" lon="2.01793">
        <ele>165.91458129883</ele>
        <time>2017-05-21T08:06:44.000Z</time>
      </trkpt>
      <trkpt lat="49.44339" lon="2.01814">
        <ele>166.8949432373</ele>
        <time>2017-05-21T08:06:47.000Z</time>
      </trkpt>
      <trkpt lat="49.4435" lon="2.01838">
        <ele>167.89888000488</ele>
        <time>2017-05-21T08:06:50.000Z</time>
      </trkpt>
      <trkpt lat="49.4436" lon="2.01859">
        <ele>168.7103729248</ele>
        <time>2017-05-21T08:06:52.000Z</time>
      </trkpt>
      <trkpt lat="49.44376" lon="2.01888">
        <ele>169.14047241211</ele>
        <time>2017-05-21T08:06:55.000Z</time>
      </trkpt>
      <trkpt lat="49.44386" lon="2.01911">
        <ele>169.25662231445</ele>
        <time>2017-05-21T08:06:57.000Z</time>
      </trkpt>
      <trkpt lat="49.44401" lon="2.01956">
        <ele>168.63386535645</ele>
        <time>2017-05-21T08:07:00.000Z</time>
      </trkpt>
      <trkpt lat="49.44415" lon="2.01982">
        <ele>167.46957397461</ele>
        <time>2017-05-21T08:07:02.000Z</time>
      </trkpt>
      <trkpt lat="49.44426" lon="2.02006">
        <ele>166.07530212402</ele>
        <time>2017-05-21T08:07:04.000Z</time>
      </trkpt>
      <trkpt lat="49.44445" lon="2.02047">
        <ele>164.51655578613</ele>
        <time>2017-05-21T08:07:07.000Z</time>
      </trkpt>
      <trkpt lat="49.44472" lon="2.02092">
        <ele>162.69380187988</ele>
        <time>2017-05-21T08:07:10.000Z</time>
      </trkpt>
      <trkpt lat="49.44479" lon="2.02117">
        <ele>161.22087097168</ele>
        <time>2017-05-21T08:07:12.000Z</time>
      </trkpt>
      <trkpt lat="49.44498" lon="2.02157">
        <ele>159.87289428711</ele>
        <time>2017-05-21T08:07:15.000Z</time>
      </trkpt>
      <trkpt lat="49.44512" lon="2.02182">
        <ele>158.61572265625</ele>
        <time>2017-05-21T08:07:17.000Z</time>
      </trkpt>
      <trkpt lat="49.4453" lon="2.02223">
        <ele>157.30612182617</ele>
        <time>2017-05-21T08:07:20.000Z</time>
      </trkpt>
      <trkpt lat="49.4455" lon="2.02261">
        <ele>155.96362304688</ele>
        <time>2017-05-21T08:07:23.000Z</time>
      </trkpt>
      <trkpt lat="49.44561" lon="2.0228">
        <ele>154.46992492676</ele>
        <time>2017-05-21T08:07:25.000Z</time>
      </trkpt>
      <trkpt lat="49.44567" lon="2.02292">
        <ele>153.0318145752</ele>
        <time>2017-05-21T08:07:28.000Z</time>
      </trkpt>
      <trkpt lat="49.44569" lon="2.02293">
        <ele>151.71533203125</ele>
        <time>2017-05-21T08:07:30.000Z</time>
      </trkpt>
      <trkpt lat="49.44571" lon="2.02291">
        <ele>150.72384643555</ele>
        <time>2017-05-21T08:07:33.000Z</time>
      </trkpt>
      <trkpt lat="49.44571" lon="2.02289">
        <ele>150.18162536621</ele>
        <time>2017-05-21T08:07:35.000Z</time>
      </trkpt>
      <trkpt lat="49.44571" lon="2.02285">
        <ele>149.99801635742</ele>
        <time>2017-05-21T08:07:37.000Z</time>
      </trkpt>
      <trkpt lat="49.44576" lon="2.02283">
        <ele>150.00263977051</ele>
        <time>2017-05-21T08:07:46.000Z</time>
      </trkpt>
      <trkpt lat="49.44577" lon="2.02282">
        <ele>150.05053710938</ele>
        <time>2017-05-21T08:07:54.000Z</time>
      </trkpt>
      <trkpt lat="49.44575" lon="2.02281">
        <ele>150.12496948242</ele>
        <time>2017-05-21T08:07:57.000Z</time>
      </trkpt>
      <trkpt lat="49.44572" lon="2.02281">
        <ele>150.20852661133</ele>
        <time>2017-05-21T08:08:00.000Z</time>
      </trkpt>
      <trkpt lat="49.4457" lon="2.02281">
        <ele>150.27104187012</ele>
        <time>2017-05-21T08:08:02.000Z</time>
      </trkpt>
      <trkpt lat="49.44567" lon="2.02281">
        <ele>150.39056396484</ele>
        <time>2017-05-21T08:08:04.000Z</time>
      </trkpt>
      <trkpt lat="49.44563" lon="2.02281">
        <ele>150.56242370605</ele>
        <time>2017-05-21T08:08:07.000Z</time>
      </trkpt>
      <trkpt lat="49.44556" lon="2.02283">
        <ele>150.77911376953</ele>
        <time>2017-05-21T08:08:10.000Z</time>
      </trkpt>
      <trkpt lat="49.44548" lon="2.02286">
        <ele>151.01303100586</ele>
        <time>2017-05-21T08:08:13.000Z</time>
      </trkpt>
      <trkpt lat="49.44541" lon="2.02291">
        <ele>151.27108764648</ele>
        <time>2017-05-21T08:08:16.000Z</time>
      </trkpt>
      <trkpt lat="49.44537" lon="2.02293">
        <ele>151.54328918457</ele>
        <time>2017-05-21T08:08:18.000Z</time>
      </trkpt>
      <trkpt lat="49.4453" lon="2.023">
        <ele>151.80195617676</ele>
        <time>2017-05-21T08:08:21.000Z</time>
      </trkpt>
      <trkpt lat="49.44524" lon="2.02307">
        <ele>152.04124450684</ele>
        <time>2017-05-21T08:08:24.000Z</time>
      </trkpt>
      <trkpt lat="49.44517" lon="2.02313">
        <ele>152.30056762695</ele>
        <time>2017-05-21T08:08:27.000Z</time>
      </trkpt>
      <trkpt lat="49.44511" lon="2.02323">
        <ele>152.56272888184</ele>
        <time>2017-05-21T08:08:30.000Z</time>
      </trkpt>
      <trkpt lat="49.44508" lon="2.02326">
        <ele>152.8307800293</ele>
        <time>2017-05-21T08:08:32.000Z</time>
      </trkpt>
      <trkpt lat="49.44501" lon="2.02335">
        <ele>153.14736938477</ele>
        <time>2017-05-21T08:08:35.000Z</time>
      </trkpt>
      <trkpt lat="49.44497" lon="2.02343">
        <ele>153.42904663086</ele>
        <time>2017-05-21T08:08:37.000Z</time>
      </trkpt>
      <trkpt lat="49.44491" lon="2.02353">
        <ele>153.66372680664</ele>
        <time>2017-05-21T08:08:40.000Z</time>
      </trkpt>
      <trkpt lat="49.44485" lon="2.02361">
        <ele>153.91413879395</ele>
        <time>2017-05-21T08:08:43.000Z</time>
      </trkpt>
      <trkpt lat="49.4448" lon="2.02368">
        <ele>154.1619720459</ele>
        <time>2017-05-21T08:08:46.000Z</time>
      </trkpt>
      <trkpt lat="49.44477" lon="2.02372">
        <ele>154.35168457031</ele>
        <time>2017-05-21T08:08:48.000Z</time>
      </trkpt>
      <trkpt lat="49.44473" lon="2.02379">
        <ele>154.57217407227</ele>
        <time>2017-05-21T08:08:51.000Z</time>
      </trkpt>
      <trkpt lat="49.44467" lon="2.02385">
        <ele>154.84390258789</ele>
        <time>2017-05-21T08:08:53.000Z</time>
      </trkpt>
      <trkpt lat="49.44458" lon="2.02391">
        <ele>155.18980407715</ele>
        <time>2017-05-21T08:08:56.000Z</time>
      </trkpt>
      <trkpt lat="49.4445" lon="2.02399">
        <ele>155.6149597168</ele>
        <time>2017-05-21T08:08:59.000Z</time>
      </trkpt>
      <trkpt lat="49.44444" lon="2.02412">
        <ele>156.08383178711</ele>
        <time>2017-05-21T08:09:02.000Z</time>
      </trkpt>
      <trkpt lat="49.44439" lon="2.02425">
        <ele>156.50250244141</ele>
        <time>2017-05-21T08:09:05.000Z</time>
      </trkpt>
      <trkpt lat="49.44436" lon="2.02433">
        <ele>156.7858581543</ele>
        <time>2017-05-21T08:09:07.000Z</time>
      </trkpt>
      <trkpt lat="49.4443" lon="2.02443">
        <ele>156.91256713867</ele>
        <time>2017-05-21T08:09:10.000Z</time>
      </trkpt>
      <trkpt lat="49.44424" lon="2.02451">
        <ele>156.91293334961</ele>
        <time>2017-05-21T08:09:13.000Z</time>
      </trkpt>
      <trkpt lat="49.4442" lon="2.02455">
        <ele>156.8606262207</ele>
        <time>2017-05-21T08:09:15.000Z</time>
      </trkpt>
      <trkpt lat="49.44416" lon="2.02461">
        <ele>156.80331420898</ele>
        <time>2017-05-21T08:09:17.000Z</time>
      </trkpt>
      <trkpt lat="49.44418" lon="2.02472">
        <ele>156.61988830566</ele>
        <time>2017-05-21T08:09:20.000Z</time>
      </trkpt>
      <trkpt lat="49.44424" lon="2.02483">
        <ele>156.18884277344</ele>
        <time>2017-05-21T08:09:23.000Z</time>
      </trkpt>
      <trkpt lat="49.44428" lon="2.02494">
        <ele>155.5319519043</ele>
        <time>2017-05-21T08:09:25.000Z</time>
      </trkpt>
      <trkpt lat="49.44432" lon="2.02506">
        <ele>154.5747833252</ele>
        <time>2017-05-21T08:09:28.000Z</time>
      </trkpt>
      <trkpt lat="49.44435" lon="2.02514">
        <ele>153.41380310059</ele>
        <time>2017-05-21T08:09:30.000Z</time>
      </trkpt>
      <trkpt lat="49.44439" lon="2.02529">
        <ele>152.09396362305</ele>
        <time>2017-05-21T08:09:33.000Z</time>
      </trkpt>
      <trkpt lat="49.44442" lon="2.02539">
        <ele>150.80392456055</ele>
        <time>2017-05-21T08:09:35.000Z</time>
      </trkpt>
      <trkpt lat="49.44446" lon="2.02554">
        <ele>149.43310546875</ele>
        <time>2017-05-21T08:09:38.000Z</time>
      </trkpt>
      <trkpt lat="49.4445" lon="2.02569">
        <ele>148.06311035156</ele>
        <time>2017-05-21T08:09:41.000Z</time>
      </trkpt>
      <trkpt lat="49.44453" lon="2.0258">
        <ele>146.71276855469</ele>
        <time>2017-05-21T08:09:43.000Z</time>
      </trkpt>
      <trkpt lat="49.44461" lon="2.02595">
        <ele>145.54949951172</ele>
        <time>2017-05-21T08:09:46.000Z</time>
      </trkpt>
      <trkpt lat="49.44466" lon="2.02606">
        <ele>144.54046630859</ele>
        <time>2017-05-21T08:09:48.000Z</time>
      </trkpt>
      <trkpt lat="49.44472" lon="2.0262">
        <ele>143.72213745117</ele>
        <time>2017-05-21T08:09:51.000Z</time>
      </trkpt>
      <trkpt lat="49.44478" lon="2.02635">
        <ele>143.07064819336</ele>
        <time>2017-05-21T08:09:54.000Z</time>
      </trkpt>
      <trkpt lat="49.44487" lon="2.0265">
        <ele>142.51651000977</ele>
        <time>2017-05-21T08:09:57.000Z</time>
      </trkpt>
      <trkpt lat="49.44497" lon="2.02665">
        <ele>142.01763916016</ele>
        <time>2017-05-21T08:10:00.000Z</time>
      </trkpt>
      <trkpt lat="49.44503" lon="2.02676">
        <ele>141.52340698242</ele>
        <time>2017-05-21T08:10:02.000Z</time>
      </trkpt>
      <trkpt lat="49.44508" lon="2.02688">
        <ele>141.04415893555</ele>
        <time>2017-05-21T08:10:04.000Z</time>
      </trkpt>
      <trkpt lat="49.44514" lon="2.02704">
        <ele>140.54388427734</ele>
        <time>2017-05-21T08:10:07.000Z</time>
      </trkpt>
      <trkpt lat="49.44522" lon="2.0272">
        <ele>140.00863647461</ele>
        <time>2017-05-21T08:10:10.000Z</time>
      </trkpt>
      <trkpt lat="49.44529" lon="2.02735">
        <ele>139.44830322266</ele>
        <time>2017-05-21T08:10:13.000Z</time>
      </trkpt>
      <trkpt lat="49.44537" lon="2.02749">
        <ele>138.84164428711</ele>
        <time>2017-05-21T08:10:16.000Z</time>
      </trkpt>
      <trkpt lat="49.44543" lon="2.02764">
        <ele>138.3441619873</ele>
        <time>2017-05-21T08:10:19.000Z</time>
      </trkpt>
      <trkpt lat="49.4455" lon="2.0278">
        <ele>137.98782348633</ele>
        <time>2017-05-21T08:10:22.000Z</time>
      </trkpt>
      <trkpt lat="49.44558" lon="2.02796">
        <ele>137.75308227539</ele>
        <time>2017-05-21T08:10:25.000Z</time>
      </trkpt>
      <trkpt lat="49.44564" lon="2.02807">
        <ele>137.61845397949</ele>
        <time>2017-05-21T08:10:27.000Z</time>
      </trkpt>
      <trkpt lat="49.44572" lon="2.02825">
        <ele>137.57949829102</ele>
        <time>2017-05-21T08:10:30.000Z</time>
      </trkpt>
      <trkpt lat="49.44576" lon="2.02839">
        <ele>137.49099731445</ele>
        <time>2017-05-21T08:10:32.000Z</time>
      </trkpt>
      <trkpt lat="49.44582" lon="2.02851">
        <ele>137.3221282959</ele>
        <time>2017-05-21T08:10:34.000Z</time>
      </trkpt>
      <trkpt lat="49.44595" lon="2.02871">
        <ele>137.0475769043</ele>
        <time>2017-05-21T08:10:37.000Z</time>
      </trkpt>
      <trkpt lat="49.44602" lon="2.02885">
        <ele>136.74014282227</ele>
        <time>2017-05-21T08:10:39.000Z</time>
      </trkpt>
      <trkpt lat="49.44609" lon="2.02899">
        <ele>136.41624450684</ele>
        <time>2017-05-21T08:10:41.000Z</time>
      </trkpt>
      <trkpt lat="49.44618" lon="2.02919">
        <ele>136.09945678711</ele>
        <time>2017-05-21T08:10:44.000Z</time>
      </trkpt>
      <trkpt lat="49.44626" lon="2.02934">
        <ele>135.89192199707</ele>
        <time>2017-05-21T08:10:46.000Z</time>
      </trkpt>
      <trkpt lat="49.44633" lon="2.02947">
        <ele>135.86602783203</ele>
        <time>2017-05-21T08:10:48.000Z</time>
      </trkpt>
      <trkpt lat="49.44643" lon="2.02968">
        <ele>136.04191589355</ele>
        <time>2017-05-21T08:10:51.000Z</time>
      </trkpt>
      <trkpt lat="49.44653" lon="2.02986">
        <ele>136.45095825195</ele>
        <time>2017-05-21T08:10:54.000Z</time>
      </trkpt>
      <trkpt lat="49.44658" lon="2.02998">
        <ele>137.02359008789</ele>
        <time>2017-05-21T08:10:56.000Z</time>
      </trkpt>
      <trkpt lat="49.44663" lon="2.03008">
        <ele>137.75852966309</ele>
        <time>2017-05-21T08:10:58.000Z</time>
      </trkpt>
      <trkpt lat="49.44673" lon="2.03015">
        <ele>138.6669921875</ele>
        <time>2017-05-21T08:11:01.000Z</time>
      </trkpt>
      <trkpt lat="49.44684" lon="2.03004">
        <ele>139.44242858887</ele>
        <time>2017-05-21T08:11:04.000Z</time>
      </trkpt>
      <trkpt lat="49.44691" lon="2.03001">
        <ele>140.09651184082</ele>
        <time>2017-05-21T08:11:06.000Z</time>
      </trkpt>
      <trkpt lat="49.44696" lon="2.02997">
        <ele>140.66970825195</ele>
        <time>2017-05-21T08:11:08.000Z</time>
      </trkpt>
      <trkpt lat="49.44707" lon="2.02988">
        <ele>141.09008789062</ele>
        <time>2017-05-21T08:11:11.000Z</time>
      </trkpt>
      <trkpt lat="49.4472" lon="2.02973">
        <ele>141.26690673828</ele>
        <time>2017-05-21T08:11:15.000Z</time>
      </trkpt>
      <trkpt lat="49.44727" lon="2.02964">
        <ele>141.39688110352</ele>
        <time>2017-05-21T08:11:16.000Z</time>
      </trkpt>
      <trkpt lat="49.44736" lon="2.02956">
        <ele>141.44705200195</ele>
        <time>2017-05-21T08:11:19.000Z</time>
      </trkpt>
      <trkpt lat="49.44743" lon="2.02948">
        <ele>141.42684936523</ele>
        <time>2017-05-21T08:11:21.000Z</time>
      </trkpt>
      <trkpt lat="49.4475" lon="2.02941">
        <ele>141.31597900391</ele>
        <time>2017-05-21T08:11:23.000Z</time>
      </trkpt>
      <trkpt lat="49.44762" lon="2.0293">
        <ele>141.03987121582</ele>
        <time>2017-05-21T08:11:26.000Z</time>
      </trkpt>
      <trkpt lat="49.4477" lon="2.02922">
        <ele>140.69479370117</ele>
        <time>2017-05-21T08:11:28.000Z</time>
      </trkpt>
      <trkpt lat="49.44778" lon="2.02911">
        <ele>140.23963928223</ele>
        <time>2017-05-21T08:11:30.000Z</time>
      </trkpt>
      <trkpt lat="49.44788" lon="2.02894">
        <ele>139.64579772949</ele>
        <time>2017-05-21T08:11:33.000Z</time>
      </trkpt>
      <trkpt lat="49.44803" lon="2.02875">
        <ele>138.89778137207</ele>
        <time>2017-05-21T08:11:36.000Z</time>
      </trkpt>
      <trkpt lat="49.44814" lon="2.02859">
        <ele>138.15403747559</ele>
        <time>2017-05-21T08:11:39.000Z</time>
      </trkpt>
      <trkpt lat="49.44865" lon="2.02788">
        <ele>136.68923950195</ele>
        <time>2017-05-21T08:11:45.000Z</time>
      </trkpt>
      <trkpt lat="49.44879" lon="2.02764">
        <ele>135.33810424805</ele>
        <time>2017-05-21T08:11:48.000Z</time>
      </trkpt>
      <trkpt lat="49.44884" lon="2.02761">
        <ele>134.15751647949</ele>
        <time>2017-05-21T08:11:50.000Z</time>
      </trkpt>
      <trkpt lat="49.44888" lon="2.02755">
        <ele>133.20252990723</ele>
        <time>2017-05-21T08:11:52.000Z</time>
      </trkpt>
      <trkpt lat="49.44892" lon="2.02748">
        <ele>132.49203491211</ele>
        <time>2017-05-21T08:11:55.000Z</time>
      </trkpt>
      <trkpt lat="49.44894" lon="2.02744">
        <ele>132.66915893555</ele>
        <time>2017-05-21T08:11:57.000Z</time>
      </trkpt>
      <trkpt lat="49.44895" lon="2.02742">
        <ele>132.90536499023</ele>
        <time>2017-05-21T08:11:59.000Z</time>
      </trkpt>
      <trkpt lat="49.44897" lon="2.02742">
        <ele>133.1322479248</ele>
        <time>2017-05-21T08:12:01.000Z</time>
      </trkpt>
      <trkpt lat="49.44899" lon="2.02742">
        <ele>133.34817504883</ele>
        <time>2017-05-21T08:12:03.000Z</time>
      </trkpt>
      <trkpt lat="49.44902" lon="2.0274">
        <ele>133.53094482422</ele>
        <time>2017-05-21T08:12:06.000Z</time>
      </trkpt>
      <trkpt lat="49.44902" lon="2.02741">
        <ele>133.61721801758</ele>
        <time>2017-05-21T08:12:08.000Z</time>
      </trkpt>
      <trkpt lat="49.44903" lon="2.02743">
        <ele>133.63003540039</ele>
        <time>2017-05-21T08:12:11.000Z</time>
      </trkpt>
      <trkpt lat="49.44903" lon="2.02747">
        <ele>133.5471496582</ele>
        <time>2017-05-21T08:12:13.000Z</time>
      </trkpt>
      <trkpt lat="49.44907" lon="2.02757">
        <ele>133.33474731445</ele>
        <time>2017-05-21T08:12:16.000Z</time>
      </trkpt>
      <trkpt lat="49.44913" lon="2.02763">
        <ele>133.0166015625</ele>
        <time>2017-05-21T08:12:18.000Z</time>
      </trkpt>
      <trkpt lat="49.44923" lon="2.02774">
        <ele>132.73583984375</ele>
        <time>2017-05-21T08:12:21.000Z</time>
      </trkpt>
      <trkpt lat="49.44928" lon="2.02783">
        <ele>132.45756530762</ele>
        <time>2017-05-21T08:12:23.000Z</time>
      </trkpt>
      <trkpt lat="49.44933" lon="2.02799">
        <ele>132.20413208008</ele>
        <time>2017-05-21T08:12:26.000Z</time>
      </trkpt>
      <trkpt lat="49.4494" lon="2.02821">
        <ele>131.9963684082</ele>
        <time>2017-05-21T08:12:29.000Z</time>
      </trkpt>
      <trkpt lat="49.4495" lon="2.0284">
        <ele>131.87243652344</ele>
        <time>2017-05-21T08:12:32.000Z</time>
      </trkpt>
      <trkpt lat="49.44957" lon="2.02861">
        <ele>131.68717956543</ele>
        <time>2017-05-21T08:12:35.000Z</time>
      </trkpt>
      <trkpt lat="49.4496" lon="2.02875">
        <ele>131.43620300293</ele>
        <time>2017-05-21T08:12:37.000Z</time>
      </trkpt>
      <trkpt lat="49.44968" lon="2.02895">
        <ele>131.14138793945</ele>
        <time>2017-05-21T08:12:40.000Z</time>
      </trkpt>
      <trkpt lat="49.44976" lon="2.02911">
        <ele>130.82353210449</ele>
        <time>2017-05-21T08:12:43.000Z</time>
      </trkpt>
      <trkpt lat="49.44982" lon="2.02922">
        <ele>130.42646789551</ele>
        <time>2017-05-21T08:12:45.000Z</time>
      </trkpt>
      <trkpt lat="49.44994" lon="2.02936">
        <ele>129.99546813965</ele>
        <time>2017-05-21T08:12:48.000Z</time>
      </trkpt>
      <trkpt lat="49.45004" lon="2.02954">
        <ele>129.47241210938</ele>
        <time>2017-05-21T08:12:51.000Z</time>
      </trkpt>
      <trkpt lat="49.4501" lon="2.02968">
        <ele>128.98571777344</ele>
        <time>2017-05-21T08:12:53.000Z</time>
      </trkpt>
      <trkpt lat="49.4502" lon="2.02991">
        <ele>128.4252166748</ele>
        <time>2017-05-21T08:12:56.000Z</time>
      </trkpt>
      <trkpt lat="49.45027" lon="2.03012">
        <ele>127.83303070068</ele>
        <time>2017-05-21T08:12:59.000Z</time>
      </trkpt>
      <trkpt lat="49.45033" lon="2.03028">
        <ele>127.28183746338</ele>
        <time>2017-05-21T08:13:02.000Z</time>
      </trkpt>
      <trkpt lat="49.45042" lon="2.03045">
        <ele>126.88254547119</ele>
        <time>2017-05-21T08:13:03.000Z</time>
      </trkpt>
      <trkpt lat="49.45053" lon="2.03061">
        <ele>126.55342102051</ele>
        <time>2017-05-21T08:13:05.000Z</time>
      </trkpt>
      <trkpt lat="49.45071" lon="2.03091">
        <ele>126.20351409912</ele>
        <time>2017-05-21T08:13:08.000Z</time>
      </trkpt>
      <trkpt lat="49.45082" lon="2.03111">
        <ele>125.60261535645</ele>
        <time>2017-05-21T08:13:11.000Z</time>
      </trkpt>
      <trkpt lat="49.45091" lon="2.03127">
        <ele>124.81606292725</ele>
        <time>2017-05-21T08:13:14.000Z</time>
      </trkpt>
      <trkpt lat="49.45102" lon="2.03133">
        <ele>124.14194488525</ele>
        <time>2017-05-21T08:13:17.000Z</time>
      </trkpt>
      <trkpt lat="49.45108" lon="2.03121">
        <ele>123.85078430176</ele>
        <time>2017-05-21T08:13:20.000Z</time>
      </trkpt>
      <trkpt lat="49.45116" lon="2.0312">
        <ele>123.90693664551</ele>
        <time>2017-05-21T08:13:23.000Z</time>
      </trkpt>
      <trkpt lat="49.45123" lon="2.03114">
        <ele>124.55702972412</ele>
        <time>2017-05-21T08:13:26.000Z</time>
      </trkpt>
      <trkpt lat="49.45126" lon="2.03109">
        <ele>125.61613464355</ele>
        <time>2017-05-21T08:13:28.000Z</time>
      </trkpt>
      <trkpt lat="49.45134" lon="2.031">
        <ele>126.91982269287</ele>
        <time>2017-05-21T08:13:31.000Z</time>
      </trkpt>
      <trkpt lat="49.4514" lon="2.03086">
        <ele>128.24243164062</ele>
        <time>2017-05-21T08:13:35.000Z</time>
      </trkpt>
      <trkpt lat="49.45144" lon="2.03072">
        <ele>129.66162109375</ele>
        <time>2017-05-21T08:13:37.000Z</time>
      </trkpt>
      <trkpt lat="49.45146" lon="2.03066">
        <ele>130.92460632324</ele>
        <time>2017-05-21T08:13:39.000Z</time>
      </trkpt>
      <trkpt lat="49.45149" lon="2.03061">
        <ele>132.12167358398</ele>
        <time>2017-05-21T08:13:41.000Z</time>
      </trkpt>
      <trkpt lat="49.45156" lon="2.03051">
        <ele>133.19328308105</ele>
        <time>2017-05-21T08:13:44.000Z</time>
      </trkpt>
      <trkpt lat="49.45162" lon="2.03041">
        <ele>134.05673217773</ele>
        <time>2017-05-21T08:13:47.000Z</time>
      </trkpt>
      <trkpt lat="49.45169" lon="2.03022">
        <ele>134.89418029785</ele>
        <time>2017-05-21T08:13:50.000Z</time>
      </trkpt>
      <trkpt lat="49.45176" lon="2.03011">
        <ele>135.7046661377</ele>
        <time>2017-05-21T08:13:52.000Z</time>
      </trkpt>
      <trkpt lat="49.45185" lon="2.03004">
        <ele>136.43179321289</ele>
        <time>2017-05-21T08:13:55.000Z</time>
      </trkpt>
      <trkpt lat="49.45189" lon="2.02996">
        <ele>136.99365234375</ele>
        <time>2017-05-21T08:13:57.000Z</time>
      </trkpt>
      <trkpt lat="49.45193" lon="2.02982">
        <ele>137.44854736328</ele>
        <time>2017-05-21T08:14:00.000Z</time>
      </trkpt>
      <trkpt lat="49.45197" lon="2.02971">
        <ele>137.73246765137</ele>
        <time>2017-05-21T08:14:03.000Z</time>
      </trkpt>
      <trkpt lat="49.452" lon="2.02965">
        <ele>137.97180175781</ele>
        <time>2017-05-21T08:14:05.000Z</time>
      </trkpt>
      <trkpt lat="49.45205" lon="2.02955">
        <ele>138.22518920898</ele>
        <time>2017-05-21T08:14:08.000Z</time>
      </trkpt>
      <trkpt lat="49.45213" lon="2.02944">
        <ele>138.48483276367</ele>
        <time>2017-05-21T08:14:11.000Z</time>
      </trkpt>
      <trkpt lat="49.45221" lon="2.02928">
        <ele>138.7380065918</ele>
        <time>2017-05-21T08:14:14.000Z</time>
      </trkpt>
      <trkpt lat="49.45225" lon="2.02919">
        <ele>138.97421264648</ele>
        <time>2017-05-21T08:14:16.000Z</time>
      </trkpt>
      <trkpt lat="49.4523" lon="2.02908">
        <ele>139.25155639648</ele>
        <time>2017-05-21T08:14:19.000Z</time>
      </trkpt>
      <trkpt lat="49.45234" lon="2.02901">
        <ele>139.5315246582</ele>
        <time>2017-05-21T08:14:21.000Z</time>
      </trkpt>
      <trkpt lat="49.45239" lon="2.0289">
        <ele>139.84991455078</ele>
        <time>2017-05-21T08:14:24.000Z</time>
      </trkpt>
      <trkpt lat="49.45246" lon="2.02874">
        <ele>140.21504211426</ele>
        <time>2017-05-21T08:14:27.000Z</time>
      </trkpt>
      <trkpt lat="49.45253" lon="2.02856">
        <ele>140.67276000977</ele>
        <time>2017-05-21T08:14:30.000Z</time>
      </trkpt>
      <trkpt lat="49.45258" lon="2.02846">
        <ele>141.1170501709</ele>
        <time>2017-05-21T08:14:32.000Z</time>
      </trkpt>
      <trkpt lat="49.45263" lon="2.02835">
        <ele>141.5576171875</ele>
        <time>2017-05-21T08:14:35.000Z</time>
      </trkpt>
      <trkpt lat="49.45266" lon="2.0283">
        <ele>141.89994812012</ele>
        <time>2017-05-21T08:14:37.000Z</time>
      </trkpt>
      <trkpt lat="49.4527" lon="2.02824">
        <ele>142.09387207031</ele>
        <time>2017-05-21T08:14:39.000Z</time>
      </trkpt>
      <trkpt lat="49.45276" lon="2.0281">
        <ele>142.10147094727</ele>
        <time>2017-05-21T08:14:42.000Z</time>
      </trkpt>
      <trkpt lat="49.4528" lon="2.02796">
        <ele>142.02546691895</ele>
        <time>2017-05-21T08:14:44.000Z</time>
      </trkpt>
      <trkpt lat="49.45285" lon="2.02781">
        <ele>141.88363647461</ele>
        <time>2017-05-21T08:14:46.000Z</time>
      </trkpt>
      <trkpt lat="49.45291" lon="2.02769">
        <ele>141.72372436523</ele>
        <time>2017-05-21T08:14:48.000Z</time>
      </trkpt>
      <trkpt lat="49.453" lon="2.02746">
        <ele>141.56221008301</ele>
        <time>2017-05-21T08:14:51.000Z</time>
      </trkpt>
      <trkpt lat="49.45307" lon="2.0273">
        <ele>141.44371032715</ele>
        <time>2017-05-21T08:14:53.000Z</time>
      </trkpt>
      <trkpt lat="49.45313" lon="2.02715">
        <ele>141.3528137207</ele>
        <time>2017-05-21T08:14:56.000Z</time>
      </trkpt>
      <trkpt lat="49.45316" lon="2.02713">
        <ele>141.2725982666</ele>
        <time>2017-05-21T08:14:58.000Z</time>
      </trkpt>
      <trkpt lat="49.4532" lon="2.02717">
        <ele>141.17524719238</ele>
        <time>2017-05-21T08:15:01.000Z</time>
      </trkpt>
      <trkpt lat="49.45328" lon="2.02727">
        <ele>141.01950073242</ele>
        <time>2017-05-21T08:15:04.000Z</time>
      </trkpt>
      <trkpt lat="49.45335" lon="2.02739">
        <ele>140.78607177734</ele>
        <time>2017-05-21T08:15:07.000Z</time>
      </trkpt>
      <trkpt lat="49.45345" lon="2.02746">
        <ele>140.43872070312</ele>
        <time>2017-05-21T08:15:10.000Z</time>
      </trkpt>
      <trkpt lat="49.45351" lon="2.02743">
        <ele>140.06285095215</ele>
        <time>2017-05-21T08:15:13.000Z</time>
      </trkpt>
      <trkpt lat="49.45351" lon="2.02741">
        <ele>139.7364654541</ele>
        <time>2017-05-21T08:15:16.000Z</time>
      </trkpt>
      <trkpt lat="49.45352" lon="2.02734">
        <ele>139.51379394531</ele>
        <time>2017-05-21T08:15:24.000Z</time>
      </trkpt>
      <trkpt lat="49.45352" lon="2.02733">
        <ele>139.37232971191</ele>
        <time>2017-05-21T08:15:26.000Z</time>
      </trkpt>
      <trkpt lat="49.45355" lon="2.02727">
        <ele>139.34515380859</ele>
        <time>2017-05-21T08:15:34.000Z</time>
      </trkpt>
      <trkpt lat="49.45355" lon="2.02727">
        <ele>139.34515380859</ele>
        <time>2017-05-21T08:15:54.000Z</time>
      </trkpt>
      <trkpt lat="49.45356" lon="2.02722">
        <ele>139.37731933594</ele>
        <time>2017-05-21T08:16:18.000Z</time>
      </trkpt>
      <trkpt lat="49.45354" lon="2.0272">
        <ele>139.42668151855</ele>
        <time>2017-05-21T08:16:21.000Z</time>
      </trkpt>
      <trkpt lat="49.45353" lon="2.02718">
        <ele>139.47598266602</ele>
        <time>2017-05-21T08:16:24.000Z</time>
      </trkpt>
      <trkpt lat="49.45354" lon="2.02715">
        <ele>139.53073120117</ele>
        <time>2017-05-21T08:16:27.000Z</time>
      </trkpt>
      <trkpt lat="49.45355" lon="2.02713">
        <ele>139.58016967773</ele>
        <time>2017-05-21T08:16:30.000Z</time>
      </trkpt>
      <trkpt lat="49.45357" lon="2.02712">
        <ele>139.60507202148</ele>
        <time>2017-05-21T08:16:34.000Z</time>
      </trkpt>
      <trkpt lat="49.45361" lon="2.02714">
        <ele>139.57487487793</ele>
        <time>2017-05-21T08:16:37.000Z</time>
      </trkpt>
      <trkpt lat="49.45365" lon="2.02714">
        <ele>139.50117492676</ele>
        <time>2017-05-21T08:16:43.000Z</time>
      </trkpt>
      <trkpt lat="49.45365" lon="2.02714">
        <ele>139.50117492676</ele>
        <time>2017-05-21T08:17:03.000Z</time>
      </trkpt>
      <trkpt lat="49.45367" lon="2.02714">
        <ele>139.40377807617</ele>
        <time>2017-05-21T08:17:05.000Z</time>
      </trkpt>
      <trkpt lat="49.45367" lon="2.02718">
        <ele>139.29768371582</ele>
        <time>2017-05-21T08:17:08.000Z</time>
      </trkpt>
      <trkpt lat="49.45367" lon="2.02719">
        <ele>139.19143676758</ele>
        <time>2017-05-21T08:17:10.000Z</time>
      </trkpt>
      <trkpt lat="49.45367" lon="2.02722">
        <ele>139.10823059082</ele>
        <time>2017-05-21T08:17:12.000Z</time>
      </trkpt>
      <trkpt lat="49.45367" lon="2.02725">
        <ele>139.04516601562</ele>
        <time>2017-05-21T08:17:15.000Z</time>
      </trkpt>
      <trkpt lat="49.45366" lon="2.02727">
        <ele>138.99565124512</ele>
        <time>2017-05-21T08:17:17.000Z</time>
      </trkpt>
      <trkpt lat="49.45365" lon="2.0273">
        <ele>138.9616394043</ele>
        <time>2017-05-21T08:17:19.000Z</time>
      </trkpt>
      <trkpt lat="49.45366" lon="2.02736">
        <ele>138.89993286133</ele>
        <time>2017-05-21T08:17:22.000Z</time>
      </trkpt>
      <trkpt lat="49.45368" lon="2.02746">
        <ele>138.7890625</ele>
        <time>2017-05-21T08:17:25.000Z</time>
      </trkpt>
      <trkpt lat="49.45372" lon="2.02758">
        <ele>138.61471557617</ele>
        <time>2017-05-21T08:17:28.000Z</time>
      </trkpt>
      <trkpt lat="49.45375" lon="2.02768">
        <ele>138.39033508301</ele>
        <time>2017-05-21T08:17:30.000Z</time>
      </trkpt>
      <trkpt lat="49.45377" lon="2.02778">
        <ele>138.12054443359</ele>
        <time>2017-05-21T08:17:32.000Z</time>
      </trkpt>
      <trkpt lat="49.4538" lon="2.02789">
        <ele>137.83557128906</ele>
        <time>2017-05-21T08:17:34.000Z</time>
      </trkpt>
      <trkpt lat="49.45383" lon="2.02799">
        <ele>137.56103515625</ele>
        <time>2017-05-21T08:17:36.000Z</time>
      </trkpt>
      <trkpt lat="49.45387" lon="2.02808">
        <ele>137.29724121094</ele>
        <time>2017-05-21T08:17:38.000Z</time>
      </trkpt>
      <trkpt lat="49.4539" lon="2.02814">
        <ele>137.04208374023</ele>
        <time>2017-05-21T08:17:41.000Z</time>
      </trkpt>
      <trkpt lat="49.45393" lon="2.02822">
        <ele>136.78500366211</ele>
        <time>2017-05-21T08:17:44.000Z</time>
      </trkpt>
      <trkpt lat="49.45395" lon="2.02833">
        <ele>136.53433227539</ele>
        <time>2017-05-21T08:17:47.000Z</time>
      </trkpt>
      <trkpt lat="49.45398" lon="2.02838">
        <ele>136.32582092285</ele>
        <time>2017-05-21T08:17:49.000Z</time>
      </trkpt>
      <trkpt lat="49.454" lon="2.02839">
        <ele>136.16345214844</ele>
        <time>2017-05-21T08:17:51.000Z</time>
      </trkpt>
      <trkpt lat="49.45403" lon="2.0284">
        <ele>136.03070068359</ele>
        <time>2017-05-21T08:17:56.000Z</time>
      </trkpt>
      <trkpt lat="49.45402" lon="2.02842">
        <ele>135.95838928223</ele>
        <time>2017-05-21T08:17:58.000Z</time>
      </trkpt>
      <trkpt lat="49.45401" lon="2.02842">
        <ele>135.9421081543</ele>
        <time>2017-05-21T08:18:02.000Z</time>
      </trkpt>
      <trkpt lat="49.45402" lon="2.02842">
        <ele>135.92881774902</ele>
        <time>2017-05-21T08:18:04.000Z</time>
      </trkpt>
      <trkpt lat="49.45404" lon="2.02848">
        <ele>135.95146179199</ele>
        <time>2017-05-21T08:18:07.000Z</time>
      </trkpt>
      <trkpt lat="49.45404" lon="2.02856">
        <ele>136.0362701416</ele>
        <time>2017-05-21T08:18:10.000Z</time>
      </trkpt>
      <trkpt lat="49.45404" lon="2.02855">
        <ele>136.0964050293</ele>
        <time>2017-05-21T08:18:12.000Z</time>
      </trkpt>
      <trkpt lat="49.45407" lon="2.02846">
        <ele>136.07113647461</ele>
        <time>2017-05-21T08:18:17.000Z</time>
      </trkpt>
      <trkpt lat="49.4541" lon="2.02843">
        <ele>136.01191711426</ele>
        <time>2017-05-21T08:18:19.000Z</time>
      </trkpt>
      <trkpt lat="49.45411" lon="2.02842">
        <ele>135.91613769531</ele>
        <time>2017-05-21T08:18:24.000Z</time>
      </trkpt>
      <trkpt lat="49.45412" lon="2.02841">
        <ele>135.75900268555</ele>
        <time>2017-05-21T08:18:27.000Z</time>
      </trkpt>
      <trkpt lat="49.45411" lon="2.0284">
        <ele>135.61390686035</ele>
        <time>2017-05-21T08:18:31.000Z</time>
      </trkpt>
      <trkpt lat="49.45409" lon="2.02838">
        <ele>135.54051208496</ele>
        <time>2017-05-21T08:18:35.000Z</time>
      </trkpt>
      <trkpt lat="49.4541" lon="2.02836">
        <ele>135.49417114258</ele>
        <time>2017-05-21T08:18:37.000Z</time>
      </trkpt>
      <trkpt lat="49.45414" lon="2.02833">
        <ele>135.41232299805</ele>
        <time>2017-05-21T08:18:40.000Z</time>
      </trkpt>
      <trkpt lat="49.45416" lon="2.0283">
        <ele>135.32913208008</ele>
        <time>2017-05-21T08:18:43.000Z</time>
      </trkpt>
      <trkpt lat="49.45421" lon="2.02829">
        <ele>135.22006225586</ele>
        <time>2017-05-21T08:18:45.000Z</time>
      </trkpt>
      <trkpt lat="49.45424" lon="2.0283">
        <ele>135.0955657959</ele>
        <time>2017-05-21T08:18:48.000Z</time>
      </trkpt>
      <trkpt lat="49.45428" lon="2.02828">
        <ele>134.97535705566</ele>
        <time>2017-05-21T08:18:50.000Z</time>
      </trkpt>
      <trkpt lat="49.4543" lon="2.02819">
        <ele>134.92068481445</ele>
        <time>2017-05-21T08:18:53.000Z</time>
      </trkpt>
      <trkpt lat="49.45428" lon="2.02813">
        <ele>134.90431213379</ele>
        <time>2017-05-21T08:18:55.000Z</time>
      </trkpt>
      <trkpt lat="49.45429" lon="2.02802">
        <ele>134.93952941895</ele>
        <time>2017-05-21T08:18:58.000Z</time>
      </trkpt>
      <trkpt lat="49.45438" lon="2.0279">
        <ele>134.99478149414</ele>
        <time>2017-05-21T08:19:01.000Z</time>
      </trkpt>
      <trkpt lat="49.45446" lon="2.02779">
        <ele>135.06890869141</ele>
        <time>2017-05-21T08:19:04.000Z</time>
      </trkpt>
      <trkpt lat="49.45454" lon="2.02765">
        <ele>135.14627075195</ele>
        <time>2017-05-21T08:19:07.000Z</time>
      </trkpt>
      <trkpt lat="49.45459" lon="2.02762">
        <ele>135.20356750488</ele>
        <time>2017-05-21T08:19:09.000Z</time>
      </trkpt>
      <trkpt lat="49.45464" lon="2.02755">
        <ele>135.24491882324</ele>
        <time>2017-05-21T08:19:12.000Z</time>
      </trkpt>
      <trkpt lat="49.45469" lon="2.02748">
        <ele>135.30667114258</ele>
        <time>2017-05-21T08:19:14.000Z</time>
      </trkpt>
      <trkpt lat="49.45474" lon="2.0274">
        <ele>135.40756225586</ele>
        <time>2017-05-21T08:19:16.000Z</time>
      </trkpt>
      <trkpt lat="49.45477" lon="2.02732">
        <ele>135.53848266602</ele>
        <time>2017-05-21T08:19:18.000Z</time>
      </trkpt>
      <trkpt lat="49.4548" lon="2.02726">
        <ele>135.70254516602</ele>
        <time>2017-05-21T08:19:20.000Z</time>
      </trkpt>
      <trkpt lat="49.45486" lon="2.02718">
        <ele>135.89633178711</ele>
        <time>2017-05-21T08:19:23.000Z</time>
      </trkpt>
      <trkpt lat="49.4549" lon="2.0271">
        <ele>136.11904907227</ele>
        <time>2017-05-21T08:19:26.000Z</time>
      </trkpt>
      <trkpt lat="49.45493" lon="2.02706">
        <ele>136.31283569336</ele>
        <time>2017-05-21T08:19:28.000Z</time>
      </trkpt>
      <trkpt lat="49.45499" lon="2.02705">
        <ele>136.45352172852</ele>
        <time>2017-05-21T08:19:31.000Z</time>
      </trkpt>
      <trkpt lat="49.45501" lon="2.02705">
        <ele>136.55558776855</ele>
        <time>2017-05-21T08:19:33.000Z</time>
      </trkpt>
      <trkpt lat="49.45505" lon="2.02712">
        <ele>136.55863952637</ele>
        <time>2017-05-21T08:19:36.000Z</time>
      </trkpt>
      <trkpt lat="49.45508" lon="2.02721">
        <ele>136.44778442383</ele>
        <time>2017-05-21T08:19:39.000Z</time>
      </trkpt>
      <trkpt lat="49.4551" lon="2.02726">
        <ele>136.28080749512</ele>
        <time>2017-05-21T08:19:41.000Z</time>
      </trkpt>
      <trkpt lat="49.45513" lon="2.02733">
        <ele>136.0729675293</ele>
        <time>2017-05-21T08:19:44.000Z</time>
      </trkpt>
      <trkpt lat="49.45516" lon="2.02735">
        <ele>135.84864807129</ele>
        <time>2017-05-21T08:19:46.000Z</time>
      </trkpt>
      <trkpt lat="49.4552" lon="2.02738">
        <ele>135.66287231445</ele>
        <time>2017-05-21T08:19:49.000Z</time>
      </trkpt>
      <trkpt lat="49.45523" lon="2.0274">
        <ele>135.52378845215</ele>
        <time>2017-05-21T08:19:51.000Z</time>
      </trkpt>
      <trkpt lat="49.45527" lon="2.02744">
        <ele>135.39801025391</ele>
        <time>2017-05-21T08:19:53.000Z</time>
      </trkpt>
      <trkpt lat="49.45532" lon="2.0275">
        <ele>135.27587890625</ele>
        <time>2017-05-21T08:19:56.000Z</time>
      </trkpt>
      <trkpt lat="49.45536" lon="2.02758">
        <ele>135.13110351562</ele>
        <time>2017-05-21T08:19:58.000Z</time>
      </trkpt>
      <trkpt lat="49.45541" lon="2.02774">
        <ele>134.90510559082</ele>
        <time>2017-05-21T08:20:01.000Z</time>
      </trkpt>
      <trkpt lat="49.45547" lon="2.02793">
        <ele>134.57559204102</ele>
        <time>2017-05-21T08:20:04.000Z</time>
      </trkpt>
      <trkpt lat="49.45551" lon="2.02806">
        <ele>134.18565368652</ele>
        <time>2017-05-21T08:20:06.000Z</time>
      </trkpt>
      <trkpt lat="49.45559" lon="2.02823">
        <ele>133.71276855469</ele>
        <time>2017-05-21T08:20:09.000Z</time>
      </trkpt>
      <trkpt lat="49.45564" lon="2.02832">
        <ele>133.21728515625</ele>
        <time>2017-05-21T08:20:11.000Z</time>
      </trkpt>
      <trkpt lat="49.45565" lon="2.02838">
        <ele>132.81596374512</ele>
        <time>2017-05-21T08:20:14.000Z</time>
      </trkpt>
      <trkpt lat="49.45565" lon="2.0284">
        <ele>132.5390625</ele>
        <time>2017-05-21T08:20:19.000Z</time>
      </trkpt>
      <trkpt lat="49.45566" lon="2.02844">
        <ele>132.35275268555</ele>
        <time>2017-05-21T08:20:21.000Z</time>
      </trkpt>
      <trkpt lat="49.45569" lon="2.02856">
        <ele>132.306640625</ele>
        <time>2017-05-21T08:20:24.000Z</time>
      </trkpt>
      <trkpt lat="49.45572" lon="2.02869">
        <ele>132.34956359863</ele>
        <time>2017-05-21T08:20:26.000Z</time>
      </trkpt>
      <trkpt lat="49.45578" lon="2.02889">
        <ele>132.43545532227</ele>
        <time>2017-05-21T08:20:29.000Z</time>
      </trkpt>
      <trkpt lat="49.45578" lon="2.02893">
        <ele>132.52542114258</ele>
        <time>2017-05-21T08:20:32.000Z</time>
      </trkpt>
      <trkpt lat="49.45574" lon="2.02897">
        <ele>132.62057495117</ele>
        <time>2017-05-21T08:20:35.000Z</time>
      </trkpt>
      <trkpt lat="49.4557" lon="2.02904">
        <ele>132.71678161621</ele>
        <time>2017-05-21T08:20:37.000Z</time>
      </trkpt>
      <trkpt lat="49.45567" lon="2.02914">
        <ele>132.80990600586</ele>
        <time>2017-05-21T08:20:40.000Z</time>
      </trkpt>
      <trkpt lat="49.45565" lon="2.02919">
        <ele>132.89022827148</ele>
        <time>2017-05-21T08:20:43.000Z</time>
      </trkpt>
      <trkpt lat="49.45564" lon="2.02924">
        <ele>133.01477050781</ele>
        <time>2017-05-21T08:20:45.000Z</time>
      </trkpt>
      <trkpt lat="49.45561" lon="2.02933">
        <ele>133.20846557617</ele>
        <time>2017-05-21T08:20:48.000Z</time>
      </trkpt>
      <trkpt lat="49.45555" lon="2.02948">
        <ele>133.50686645508</ele>
        <time>2017-05-21T08:20:51.000Z</time>
      </trkpt>
      <trkpt lat="49.4555" lon="2.02961">
        <ele>133.87298583984</ele>
        <time>2017-05-21T08:20:54.000Z</time>
      </trkpt>
      <trkpt lat="49.45545" lon="2.02963">
        <ele>134.20764160156</ele>
        <time>2017-05-21T08:20:56.000Z</time>
      </trkpt>
      <trkpt lat="49.45543" lon="2.02966">
        <ele>134.50149536133</ele>
        <time>2017-05-21T08:20:58.000Z</time>
      </trkpt>
      <trkpt lat="49.45541" lon="2.02983">
        <ele>134.82232666016</ele>
        <time>2017-05-21T08:21:01.000Z</time>
      </trkpt>
      <trkpt lat="49.45543" lon="2.02994">
        <ele>135.11521911621</ele>
        <time>2017-05-21T08:21:03.000Z</time>
      </trkpt>
      <trkpt lat="49.45546" lon="2.03012">
        <ele>135.3836517334</ele>
        <time>2017-05-21T08:21:06.000Z</time>
      </trkpt>
      <trkpt lat="49.4554" lon="2.03025">
        <ele>135.58251953125</ele>
        <time>2017-05-21T08:21:09.000Z</time>
      </trkpt>
      <trkpt lat="49.45534" lon="2.03052">
        <ele>135.67416381836</ele>
        <time>2017-05-21T08:21:12.000Z</time>
      </trkpt>
      <trkpt lat="49.45531" lon="2.0308">
        <ele>135.57403564453</ele>
        <time>2017-05-21T08:21:15.000Z</time>
      </trkpt>
      <trkpt lat="49.45523" lon="2.03105">
        <ele>135.1343536377</ele>
        <time>2017-05-21T08:21:18.000Z</time>
      </trkpt>
      <trkpt lat="49.45517" lon="2.03123">
        <ele>134.40048217773</ele>
        <time>2017-05-21T08:21:21.000Z</time>
      </trkpt>
      <trkpt lat="49.4552" lon="2.03144">
        <ele>133.64566040039</ele>
        <time>2017-05-21T08:21:24.000Z</time>
      </trkpt>
      <trkpt lat="49.4552" lon="2.03153">
        <ele>132.92849731445</ele>
        <time>2017-05-21T08:21:26.000Z</time>
      </trkpt>
      <trkpt lat="49.45517" lon="2.03164">
        <ele>132.13623046875</ele>
        <time>2017-05-21T08:21:28.000Z</time>
      </trkpt>
      <trkpt lat="49.45506" lon="2.03176">
        <ele>131.32489013672</ele>
        <time>2017-05-21T08:21:31.000Z</time>
      </trkpt>
      <trkpt lat="49.45498" lon="2.03184">
        <ele>130.6244354248</ele>
        <time>2017-05-21T08:21:33.000Z</time>
      </trkpt>
      <trkpt lat="49.45489" lon="2.032">
        <ele>129.98013305664</ele>
        <time>2017-05-21T08:21:36.000Z</time>
      </trkpt>
      <trkpt lat="49.45486" lon="2.03215">
        <ele>129.37028503418</ele>
        <time>2017-05-21T08:21:38.000Z</time>
      </trkpt>
      <trkpt lat="49.45484" lon="2.03236">
        <ele>128.88710021973</ele>
        <time>2017-05-21T08:21:41.000Z</time>
      </trkpt>
      <trkpt lat="49.45481" lon="2.03246">
        <ele>128.64012145996</ele>
        <time>2017-05-21T08:21:43.000Z</time>
      </trkpt>
      <trkpt lat="49.45476" lon="2.03254">
        <ele>128.48318481445</ele>
        <time>2017-05-21T08:21:45.000Z</time>
      </trkpt>
      <trkpt lat="49.4547" lon="2.03276">
        <ele>128.33908081055</ele>
        <time>2017-05-21T08:21:48.000Z</time>
      </trkpt>
      <trkpt lat="49.45469" lon="2.03297">
        <ele>128.22106933594</ele>
        <time>2017-05-21T08:21:50.000Z</time>
      </trkpt>
      <trkpt lat="49.45467" lon="2.03322">
        <ele>128.12026977539</ele>
        <time>2017-05-21T08:21:53.000Z</time>
      </trkpt>
      <trkpt lat="49.45464" lon="2.03335">
        <ele>127.98750305176</ele>
        <time>2017-05-21T08:21:55.000Z</time>
      </trkpt>
      <trkpt lat="49.45464" lon="2.03353">
        <ele>127.89920806885</ele>
        <time>2017-05-21T08:21:58.000Z</time>
      </trkpt>
      <trkpt lat="49.45462" lon="2.03361">
        <ele>127.82060241699</ele>
        <time>2017-05-21T08:22:00.000Z</time>
      </trkpt>
      <trkpt lat="49.4546" lon="2.03371">
        <ele>127.70196533203</ele>
        <time>2017-05-21T08:22:02.000Z</time>
      </trkpt>
      <trkpt lat="49.45459" lon="2.03389">
        <ele>127.60042572021</ele>
        <time>2017-05-21T08:22:05.000Z</time>
      </trkpt>
      <trkpt lat="49.45458" lon="2.03404">
        <ele>127.54638671875</ele>
        <time>2017-05-21T08:22:07.000Z</time>
      </trkpt>
      <trkpt lat="49.45454" lon="2.03417">
        <ele>127.39588928223</ele>
        <time>2017-05-21T08:22:10.000Z</time>
      </trkpt>
      <trkpt lat="49.45451" lon="2.03426">
        <ele>127.17895507812</ele>
        <time>2017-05-21T08:22:12.000Z</time>
      </trkpt>
      <trkpt lat="49.45454" lon="2.03442">
        <ele>127.06441497803</ele>
        <time>2017-05-21T08:22:15.000Z</time>
      </trkpt>
      <trkpt lat="49.45454" lon="2.03453">
        <ele>126.96952056885</ele>
        <time>2017-05-21T08:22:17.000Z</time>
      </trkpt>
      <trkpt lat="49.45455" lon="2.03472">
        <ele>126.9091796875</ele>
        <time>2017-05-21T08:22:20.000Z</time>
      </trkpt>
      <trkpt lat="49.45456" lon="2.03481">
        <ele>126.94140625</ele>
        <time>2017-05-21T08:22:22.000Z</time>
      </trkpt>
      <trkpt lat="49.45453" lon="2.0349">
        <ele>126.9951171875</ele>
        <time>2017-05-21T08:22:25.000Z</time>
      </trkpt>
      <trkpt lat="49.45454" lon="2.03499">
        <ele>126.9951171875</ele>
        <time>2017-05-21T08:22:27.000Z</time>
      </trkpt>
      <trkpt lat="49.45456" lon="2.03507">
        <ele>127.03898620605</ele>
        <time>2017-05-21T08:22:30.000Z</time>
      </trkpt>
      <trkpt lat="49.45458" lon="2.03515">
        <ele>127.11433410645</ele>
        <time>2017-05-21T08:22:32.000Z</time>
      </trkpt>
      <trkpt lat="49.45459" lon="2.03527">
        <ele>127.18914794922</ele>
        <time>2017-05-21T08:22:35.000Z</time>
      </trkpt>
      <trkpt lat="49.45452" lon="2.03533">
        <ele>127.16896820068</ele>
        <time>2017-05-21T08:22:38.000Z</time>
      </trkpt>
      <trkpt lat="49.45446" lon="2.03535">
        <ele>126.97969055176</ele>
        <time>2017-05-21T08:22:40.000Z</time>
      </trkpt>
      <trkpt lat="49.45435" lon="2.03542">
        <ele>126.46652984619</ele>
        <time>2017-05-21T08:22:43.000Z</time>
      </trkpt>
      <trkpt lat="49.45427" lon="2.03549">
        <ele>125.73719787598</ele>
        <time>2017-05-21T08:22:45.000Z</time>
      </trkpt>
      <trkpt lat="49.45419" lon="2.03558">
        <ele>124.81705474854</ele>
        <time>2017-05-21T08:22:47.000Z</time>
      </trkpt>
      <trkpt lat="49.45405" lon="2.03574">
        <ele>123.66383361816</ele>
        <time>2017-05-21T08:22:50.000Z</time>
      </trkpt>
      <trkpt lat="49.45392" lon="2.03595">
        <ele>122.380027771</ele>
        <time>2017-05-21T08:22:53.000Z</time>
      </trkpt>
      <trkpt lat="49.45386" lon="2.03616">
        <ele>121.4009552002</ele>
        <time>2017-05-21T08:22:56.000Z</time>
      </trkpt>
      <trkpt lat="49.45383" lon="2.03629">
        <ele>120.66467285156</ele>
        <time>2017-05-21T08:22:58.000Z</time>
      </trkpt>
      <trkpt lat="49.45378" lon="2.03651">
        <ele>120.18171691895</ele>
        <time>2017-05-21T08:23:01.000Z</time>
      </trkpt>
      <trkpt lat="49.45374" lon="2.03667">
        <ele>120.16943359375</ele>
        <time>2017-05-21T08:23:04.000Z</time>
      </trkpt>
      <trkpt lat="49.4537" lon="2.03681">
        <ele>120.35322570801</ele>
        <time>2017-05-21T08:23:07.000Z</time>
      </trkpt>
      <trkpt lat="49.45368" lon="2.03693">
        <ele>120.4847869873</ele>
        <time>2017-05-21T08:23:09.000Z</time>
      </trkpt>
      <trkpt lat="49.45359" lon="2.03707">
        <ele>120.34926605225</ele>
        <time>2017-05-21T08:23:12.000Z</time>
      </trkpt>
      <trkpt lat="49.45341" lon="2.03725">
        <ele>119.80838775635</ele>
        <time>2017-05-21T08:23:15.000Z</time>
      </trkpt>
      <trkpt lat="49.45335" lon="2.03748">
        <ele>119.23400878906</ele>
        <time>2017-05-21T08:23:17.000Z</time>
      </trkpt>
      <trkpt lat="49.45321" lon="2.03783">
        <ele>118.25734710693</ele>
        <time>2017-05-21T08:23:20.000Z</time>
      </trkpt>
      <trkpt lat="49.45314" lon="2.03821">
        <ele>116.8427734375</ele>
        <time>2017-05-21T08:23:23.000Z</time>
      </trkpt>
      <trkpt lat="49.4531" lon="2.03847">
        <ele>115.41396331787</ele>
        <time>2017-05-21T08:23:25.000Z</time>
      </trkpt>
      <trkpt lat="49.45313" lon="2.03878">
        <ele>114.41877746582</ele>
        <time>2017-05-21T08:23:27.000Z</time>
      </trkpt>
      <trkpt lat="49.45322" lon="2.03912">
        <ele>113.82319641113</ele>
        <time>2017-05-21T08:23:30.000Z</time>
      </trkpt>
      <trkpt lat="49.45321" lon="2.0393">
        <ele>113.72690582275</ele>
        <time>2017-05-21T08:23:32.000Z</time>
      </trkpt>
      <trkpt lat="49.45322" lon="2.03955">
        <ele>114.14482116699</ele>
        <time>2017-05-21T08:23:35.000Z</time>
      </trkpt>
      <trkpt lat="49.45321" lon="2.03968">
        <ele>114.68691253662</ele>
        <time>2017-05-21T08:23:37.000Z</time>
      </trkpt>
      <trkpt lat="49.45317" lon="2.03988">
        <ele>114.95615386963</ele>
        <time>2017-05-21T08:23:40.000Z</time>
      </trkpt>
      <trkpt lat="49.45314" lon="2.04012">
        <ele>114.59267425537</ele>
        <time>2017-05-21T08:23:43.000Z</time>
      </trkpt>
      <trkpt lat="49.45308" lon="2.04033">
        <ele>113.88323974609</ele>
        <time>2017-05-21T08:23:46.000Z</time>
      </trkpt>
      <trkpt lat="49.45301" lon="2.04046">
        <ele>112.6640625</ele>
        <time>2017-05-21T08:23:48.000Z</time>
      </trkpt>
      <trkpt lat="49.45293" lon="2.0407">
        <ele>111.009765625</ele>
        <time>2017-05-21T08:23:51.000Z</time>
      </trkpt>
      <trkpt lat="49.45288" lon="2.04094">
        <ele>109.28698730469</ele>
        <time>2017-05-21T08:23:53.000Z</time>
      </trkpt>
      <trkpt lat="49.45292" lon="2.04146">
        <ele>107.92216491699</ele>
        <time>2017-05-21T08:23:56.000Z</time>
      </trkpt>
      <trkpt lat="49.45286" lon="2.04169">
        <ele>106.61812591553</ele>
        <time>2017-05-21T08:23:58.000Z</time>
      </trkpt>
      <trkpt lat="49.45285" lon="2.04191">
        <ele>105.76013183594</ele>
        <time>2017-05-21T08:24:00.000Z</time>
      </trkpt>
      <trkpt lat="49.45279" lon="2.04206">
        <ele>105.17486572266</ele>
        <time>2017-05-21T08:24:02.000Z</time>
      </trkpt>
      <trkpt lat="49.45268" lon="2.04221">
        <ele>104.40852355957</ele>
        <time>2017-05-21T08:24:05.000Z</time>
      </trkpt>
      <trkpt lat="49.45263" lon="2.04244">
        <ele>103.36966705322</ele>
        <time>2017-05-21T08:24:08.000Z</time>
      </trkpt>
      <trkpt lat="49.45261" lon="2.04258">
        <ele>102.67112731934</ele>
        <time>2017-05-21T08:24:11.000Z</time>
      </trkpt>
      <trkpt lat="49.45259" lon="2.04267">
        <ele>102.04581451416</ele>
        <time>2017-05-21T08:24:14.000Z</time>
      </trkpt>
      <trkpt lat="49.45256" lon="2.04271">
        <ele>101.58591461182</ele>
        <time>2017-05-21T08:24:16.000Z</time>
      </trkpt>
      <trkpt lat="49.45248" lon="2.0427">
        <ele>101.27354431152</ele>
        <time>2017-05-21T08:24:18.000Z</time>
      </trkpt>
      <trkpt lat="49.45237" lon="2.04272">
        <ele>100.73482513428</ele>
        <time>2017-05-21T08:24:21.000Z</time>
      </trkpt>
      <trkpt lat="49.45229" lon="2.04289">
        <ele>100.03284454346</ele>
        <time>2017-05-21T08:24:24.000Z</time>
      </trkpt>
      <trkpt lat="49.45227" lon="2.04304">
        <ele>99.333023071289</ele>
        <time>2017-05-21T08:24:26.000Z</time>
      </trkpt>
      <trkpt lat="49.45225" lon="2.0433">
        <ele>98.890014648438</ele>
        <time>2017-05-21T08:24:29.000Z</time>
      </trkpt>
      <trkpt lat="49.45229" lon="2.04366">
        <ele>98.694931030273</ele>
        <time>2017-05-21T08:24:32.000Z</time>
      </trkpt>
      <trkpt lat="49.45238" lon="2.04395">
        <ele>98.932540893555</ele>
        <time>2017-05-21T08:24:35.000Z</time>
      </trkpt>
      <trkpt lat="49.45244" lon="2.0441">
        <ele>99.36173248291</ele>
        <time>2017-05-21T08:24:37.000Z</time>
      </trkpt>
      <trkpt lat="49.45253" lon="2.04422">
        <ele>99.816940307617</ele>
        <time>2017-05-21T08:24:39.000Z</time>
      </trkpt>
      <trkpt lat="49.45262" lon="2.04435">
        <ele>99.97435760498</ele>
        <time>2017-05-21T08:24:42.000Z</time>
      </trkpt>
      <trkpt lat="49.45264" lon="2.0445">
        <ele>99.880508422852</ele>
        <time>2017-05-21T08:24:45.000Z</time>
      </trkpt>
      <trkpt lat="49.45269" lon="2.04459">
        <ele>99.610237121582</ele>
        <time>2017-05-21T08:24:48.000Z</time>
      </trkpt>
      <trkpt lat="49.45274" lon="2.04463">
        <ele>99.272827148438</ele>
        <time>2017-05-21T08:24:50.000Z</time>
      </trkpt>
      <trkpt lat="49.45278" lon="2.04471">
        <ele>98.77165222168</ele>
        <time>2017-05-21T08:24:52.000Z</time>
      </trkpt>
      <trkpt lat="49.45284" lon="2.04479">
        <ele>98.390167236328</ele>
        <time>2017-05-21T08:24:54.000Z</time>
      </trkpt>
      <trkpt lat="49.45291" lon="2.04485">
        <ele>98.32999420166</ele>
        <time>2017-05-21T08:24:56.000Z</time>
      </trkpt>
      <trkpt lat="49.453" lon="2.04498">
        <ele>98.339920043945</ele>
        <time>2017-05-21T08:24:59.000Z</time>
      </trkpt>
      <trkpt lat="49.45303" lon="2.04506">
        <ele>98.262252807617</ele>
        <time>2017-05-21T08:25:01.000Z</time>
      </trkpt>
      <trkpt lat="49.45305" lon="2.04517">
        <ele>98.102111816406</ele>
        <time>2017-05-21T08:25:04.000Z</time>
      </trkpt>
      <trkpt lat="49.4531" lon="2.04528">
        <ele>97.894577026367</ele>
        <time>2017-05-21T08:25:07.000Z</time>
      </trkpt>
      <trkpt lat="49.45313" lon="2.04537">
        <ele>97.584289550781</ele>
        <time>2017-05-21T08:25:09.000Z</time>
      </trkpt>
      <trkpt lat="49.45316" lon="2.04549">
        <ele>97.166389465332</ele>
        <time>2017-05-21T08:25:11.000Z</time>
      </trkpt>
      <trkpt lat="49.45321" lon="2.04566">
        <ele>96.668144226074</ele>
        <time>2017-05-21T08:25:14.000Z</time>
      </trkpt>
      <trkpt lat="49.45327" lon="2.04582">
        <ele>96.217018127441</ele>
        <time>2017-05-21T08:25:17.000Z</time>
      </trkpt>
      <trkpt lat="49.45332" lon="2.04591">
        <ele>95.800910949707</ele>
        <time>2017-05-21T08:25:20.000Z</time>
      </trkpt>
      <trkpt lat="49.45341" lon="2.04602">
        <ele>95.418960571289</ele>
        <time>2017-05-21T08:25:23.000Z</time>
      </trkpt>
      <trkpt lat="49.45347" lon="2.04605">
        <ele>95.221267700195</ele>
        <time>2017-05-21T08:25:25.000Z</time>
      </trkpt>
      <trkpt lat="49.45354" lon="2.04617">
        <ele>95.103607177734</ele>
        <time>2017-05-21T08:25:28.000Z</time>
      </trkpt>
      <trkpt lat="49.45356" lon="2.04627">
        <ele>94.953125</ele>
        <time>2017-05-21T08:25:30.000Z</time>
      </trkpt>
      <trkpt lat="49.45358" lon="2.04638">
        <ele>94.685165405273</ele>
        <time>2017-05-21T08:25:32.000Z</time>
      </trkpt>
      <trkpt lat="49.45362" lon="2.04648">
        <ele>94.353134155273</ele>
        <time>2017-05-21T08:25:35.000Z</time>
      </trkpt>
      <trkpt lat="49.45369" lon="2.0466">
        <ele>93.92121887207</ele>
        <time>2017-05-21T08:25:38.000Z</time>
      </trkpt>
      <trkpt lat="49.45379" lon="2.04672">
        <ele>93.623085021973</ele>
        <time>2017-05-21T08:25:41.000Z</time>
      </trkpt>
      <trkpt lat="49.45387" lon="2.04684">
        <ele>93.438758850098</ele>
        <time>2017-05-21T08:25:44.000Z</time>
      </trkpt>
      <trkpt lat="49.45393" lon="2.04697">
        <ele>93.305953979492</ele>
        <time>2017-05-21T08:25:47.000Z</time>
      </trkpt>
      <trkpt lat="49.45396" lon="2.04714">
        <ele>93.020149230957</ele>
        <time>2017-05-21T08:25:50.000Z</time>
      </trkpt>
      <trkpt lat="49.45401" lon="2.04722">
        <ele>92.719833374023</ele>
        <time>2017-05-21T08:25:52.000Z</time>
      </trkpt>
      <trkpt lat="49.4541" lon="2.04727">
        <ele>92.493881225586</ele>
        <time>2017-05-21T08:25:54.000Z</time>
      </trkpt>
      <trkpt lat="49.45428" lon="2.04732">
        <ele>92.259231567383</ele>
        <time>2017-05-21T08:25:57.000Z</time>
      </trkpt>
      <trkpt lat="49.45446" lon="2.04742">
        <ele>91.765975952148</ele>
        <time>2017-05-21T08:26:00.000Z</time>
      </trkpt>
      <trkpt lat="49.45464" lon="2.04748">
        <ele>91.27864074707</ele>
        <time>2017-05-21T08:26:03.000Z</time>
      </trkpt>
      <trkpt lat="49.45472" lon="2.0475">
        <ele>90.739227294922</ele>
        <time>2017-05-21T08:26:06.000Z</time>
      </trkpt>
      <trkpt lat="49.45473" lon="2.04754">
        <ele>89.989379882812</ele>
        <time>2017-05-21T08:26:08.000Z</time>
      </trkpt>
      <trkpt lat="49.45478" lon="2.04762">
        <ele>89.105979919434</ele>
        <time>2017-05-21T08:26:11.000Z</time>
      </trkpt>
      <trkpt lat="49.45485" lon="2.04766">
        <ele>88.468414306641</ele>
        <time>2017-05-21T08:26:13.000Z</time>
      </trkpt>
      <trkpt lat="49.45496" lon="2.04773">
        <ele>87.915054321289</ele>
        <time>2017-05-21T08:26:16.000Z</time>
      </trkpt>
      <trkpt lat="49.4551" lon="2.04777">
        <ele>87.326560974121</ele>
        <time>2017-05-21T08:26:19.000Z</time>
      </trkpt>
      <trkpt lat="49.45524" lon="2.0478">
        <ele>86.673278808594</ele>
        <time>2017-05-21T08:26:22.000Z</time>
      </trkpt>
      <trkpt lat="49.45534" lon="2.04782">
        <ele>86.082489013672</ele>
        <time>2017-05-21T08:26:24.000Z</time>
      </trkpt>
      <trkpt lat="49.45543" lon="2.0478">
        <ele>85.533958435059</ele>
        <time>2017-05-21T08:26:26.000Z</time>
      </trkpt>
      <trkpt lat="49.45552" lon="2.04776">
        <ele>85.103935241699</ele>
        <time>2017-05-21T08:26:28.000Z</time>
      </trkpt>
      <trkpt lat="49.45567" lon="2.0477">
        <ele>84.729804992676</ele>
        <time>2017-05-21T08:26:31.000Z</time>
      </trkpt>
      <trkpt lat="49.4558" lon="2.04762">
        <ele>84.430290222168</ele>
        <time>2017-05-21T08:26:34.000Z</time>
      </trkpt>
      <trkpt lat="49.4559" lon="2.04757">
        <ele>84.272079467773</ele>
        <time>2017-05-21T08:26:37.000Z</time>
      </trkpt>
      <trkpt lat="49.45597" lon="2.04759">
        <ele>84.210083007812</ele>
        <time>2017-05-21T08:26:40.000Z</time>
      </trkpt>
      <trkpt lat="49.45599" lon="2.04759">
        <ele>84.203079223633</ele>
        <time>2017-05-21T08:26:42.000Z</time>
      </trkpt>
      <trkpt lat="49.45608" lon="2.04756">
        <ele>84.362358093262</ele>
        <time>2017-05-21T08:26:45.000Z</time>
      </trkpt>
      <trkpt lat="49.45617" lon="2.04756">
        <ele>84.672470092773</ele>
        <time>2017-05-21T08:26:48.000Z</time>
      </trkpt>
      <trkpt lat="49.45626" lon="2.04755">
        <ele>85.014755249023</ele>
        <time>2017-05-21T08:26:51.000Z</time>
      </trkpt>
      <trkpt lat="49.45632" lon="2.04758">
        <ele>85.338119506836</ele>
        <time>2017-05-21T08:26:53.000Z</time>
      </trkpt>
      <trkpt lat="49.45642" lon="2.04761">
        <ele>85.698631286621</ele>
        <time>2017-05-21T08:26:56.000Z</time>
      </trkpt>
      <trkpt lat="49.45653" lon="2.04761">
        <ele>86.058738708496</ele>
        <time>2017-05-21T08:26:59.000Z</time>
      </trkpt>
      <trkpt lat="49.45663" lon="2.04758">
        <ele>86.452377319336</ele>
        <time>2017-05-21T08:27:02.000Z</time>
      </trkpt>
      <trkpt lat="49.4567" lon="2.04758">
        <ele>86.812614440918</ele>
        <time>2017-05-21T08:27:05.000Z</time>
      </trkpt>
      <trkpt lat="49.45675" lon="2.0476">
        <ele>87.158065795898</ele>
        <time>2017-05-21T08:27:07.000Z</time>
      </trkpt>
      <trkpt lat="49.45684" lon="2.04763">
        <ele>87.476089477539</ele>
        <time>2017-05-21T08:27:10.000Z</time>
      </trkpt>
      <trkpt lat="49.45692" lon="2.04764">
        <ele>87.740699768066</ele>
        <time>2017-05-21T08:27:12.000Z</time>
      </trkpt>
      <trkpt lat="49.457" lon="2.04765">
        <ele>87.928497314453</ele>
        <time>2017-05-21T08:27:14.000Z</time>
      </trkpt>
      <trkpt lat="49.45709" lon="2.04774">
        <ele>88.018524169922</ele>
        <time>2017-05-21T08:27:17.000Z</time>
      </trkpt>
      <trkpt lat="49.45715" lon="2.04783">
        <ele>88.023773193359</ele>
        <time>2017-05-21T08:27:19.000Z</time>
      </trkpt>
      <trkpt lat="49.45726" lon="2.04789">
        <ele>87.997711181641</ele>
        <time>2017-05-21T08:27:22.000Z</time>
      </trkpt>
      <trkpt lat="49.45734" lon="2.04793">
        <ele>87.949859619141</ele>
        <time>2017-05-21T08:27:24.000Z</time>
      </trkpt>
      <trkpt lat="49.45743" lon="2.04797">
        <ele>87.875274658203</ele>
        <time>2017-05-21T08:27:26.000Z</time>
      </trkpt>
      <trkpt lat="49.4575" lon="2.04801">
        <ele>87.845092773438</ele>
        <time>2017-05-21T08:27:28.000Z</time>
      </trkpt>
      <trkpt lat="49.45763" lon="2.04811">
        <ele>87.843734741211</ele>
        <time>2017-05-21T08:27:31.000Z</time>
      </trkpt>
      <trkpt lat="49.45771" lon="2.04819">
        <ele>87.807815551758</ele>
        <time>2017-05-21T08:27:34.000Z</time>
      </trkpt>
      <trkpt lat="49.45779" lon="2.04824">
        <ele>87.752494812012</ele>
        <time>2017-05-21T08:27:37.000Z</time>
      </trkpt>
      <trkpt lat="49.45788" lon="2.04827">
        <ele>87.707061767578</ele>
        <time>2017-05-21T08:27:40.000Z</time>
      </trkpt>
      <trkpt lat="49.45794" lon="2.04829">
        <ele>87.686744689941</ele>
        <time>2017-05-21T08:27:42.000Z</time>
      </trkpt>
      <trkpt lat="49.458" lon="2.04832">
        <ele>87.712699890137</ele>
        <time>2017-05-21T08:27:44.000Z</time>
      </trkpt>
      <trkpt lat="49.45808" lon="2.04835">
        <ele>87.805770874023</ele>
        <time>2017-05-21T08:27:47.000Z</time>
      </trkpt>
      <trkpt lat="49.4582" lon="2.04836">
        <ele>87.979484558105</ele>
        <time>2017-05-21T08:27:50.000Z</time>
      </trkpt>
      <trkpt lat="49.45831" lon="2.04837">
        <ele>88.189071655273</ele>
        <time>2017-05-21T08:27:53.000Z</time>
      </trkpt>
      <trkpt lat="49.45837" lon="2.04838">
        <ele>88.408317565918</ele>
        <time>2017-05-21T08:27:55.000Z</time>
      </trkpt>
      <trkpt lat="49.45843" lon="2.04837">
        <ele>88.648124694824</ele>
        <time>2017-05-21T08:27:57.000Z</time>
      </trkpt>
      <trkpt lat="49.45849" lon="2.04836">
        <ele>88.890342712402</ele>
        <time>2017-05-21T08:27:59.000Z</time>
      </trkpt>
      <trkpt lat="49.45857" lon="2.04836">
        <ele>89.092102050781</ele>
        <time>2017-05-21T08:28:01.000Z</time>
      </trkpt>
      <trkpt lat="49.45866" lon="2.04837">
        <ele>89.25505065918</ele>
        <time>2017-05-21T08:28:04.000Z</time>
      </trkpt>
      <trkpt lat="49.45873" lon="2.04839">
        <ele>89.394027709961</ele>
        <time>2017-05-21T08:28:06.000Z</time>
      </trkpt>
      <trkpt lat="49.45884" lon="2.04841">
        <ele>89.534721374512</ele>
        <time>2017-05-21T08:28:09.000Z</time>
      </trkpt>
      <trkpt lat="49.4589" lon="2.04838">
        <ele>89.703483581543</ele>
        <time>2017-05-21T08:28:12.000Z</time>
      </trkpt>
      <trkpt lat="49.45892" lon="2.04833">
        <ele>89.900230407715</ele>
        <time>2017-05-21T08:28:14.000Z</time>
      </trkpt>
      <trkpt lat="49.45895" lon="2.04824">
        <ele>90.206527709961</ele>
        <time>2017-05-21T08:28:17.000Z</time>
      </trkpt>
      <trkpt lat="49.45898" lon="2.04818">
        <ele>90.59114074707</ele>
        <time>2017-05-21T08:28:19.000Z</time>
      </trkpt>
      <trkpt lat="49.45902" lon="2.04812">
        <ele>91.052810668945</ele>
        <time>2017-05-21T08:28:22.000Z</time>
      </trkpt>
      <trkpt lat="49.45904" lon="2.04808">
        <ele>91.5166015625</ele>
        <time>2017-05-21T08:28:24.000Z</time>
      </trkpt>
      <trkpt lat="49.45908" lon="2.04801">
        <ele>92.038291931152</ele>
        <time>2017-05-21T08:28:27.000Z</time>
      </trkpt>
      <trkpt lat="49.4591" lon="2.04796">
        <ele>92.503707885742</ele>
        <time>2017-05-21T08:28:29.000Z</time>
      </trkpt>
      <trkpt lat="49.45912" lon="2.04791">
        <ele>92.968574523926</ele>
        <time>2017-05-21T08:28:31.000Z</time>
      </trkpt>
      <trkpt lat="49.45914" lon="2.04786">
        <ele>93.407386779785</ele>
        <time>2017-05-21T08:28:34.000Z</time>
      </trkpt>
      <trkpt lat="49.45916" lon="2.04784">
        <ele>93.833740234375</ele>
        <time>2017-05-21T08:28:36.000Z</time>
      </trkpt>
      <trkpt lat="49.45918" lon="2.0478">
        <ele>94.198448181152</ele>
        <time>2017-05-21T08:28:38.000Z</time>
      </trkpt>
      <trkpt lat="49.4592" lon="2.04773">
        <ele>94.602867126465</ele>
        <time>2017-05-21T08:28:41.000Z</time>
      </trkpt>
      <trkpt lat="49.45922" lon="2.04767">
        <ele>95.012107849121</ele>
        <time>2017-05-21T08:28:43.000Z</time>
      </trkpt>
      <trkpt lat="49.45923" lon="2.04762">
        <ele>95.419654846191</ele>
        <time>2017-05-21T08:28:45.000Z</time>
      </trkpt>
      <trkpt lat="49.45925" lon="2.04755">
        <ele>95.894203186035</ele>
        <time>2017-05-21T08:28:48.000Z</time>
      </trkpt>
      <trkpt lat="49.45926" lon="2.04745">
        <ele>96.495315551758</ele>
        <time>2017-05-21T08:28:51.000Z</time>
      </trkpt>
      <trkpt lat="49.45927" lon="2.04738">
        <ele>97.12914276123</ele>
        <time>2017-05-21T08:28:53.000Z</time>
      </trkpt>
      <trkpt lat="49.45926" lon="2.04729">
        <ele>97.85725402832</ele>
        <time>2017-05-21T08:28:56.000Z</time>
      </trkpt>
      <trkpt lat="49.45925" lon="2.04723">
        <ele>98.619979858398</ele>
        <time>2017-05-21T08:28:58.000Z</time>
      </trkpt>
      <trkpt lat="49.45924" lon="2.04715">
        <ele>99.423461914062</ele>
        <time>2017-05-21T08:29:01.000Z</time>
      </trkpt>
      <trkpt lat="49.45923" lon="2.0471">
        <ele>100.13164520264</ele>
        <time>2017-05-21T08:29:03.000Z</time>
      </trkpt>
      <trkpt lat="49.45922" lon="2.04706">
        <ele>100.7825088501</ele>
        <time>2017-05-21T08:29:05.000Z</time>
      </trkpt>
      <trkpt lat="49.45918" lon="2.04698">
        <ele>101.40696716309</ele>
        <time>2017-05-21T08:29:08.000Z</time>
      </trkpt>
      <trkpt lat="49.45913" lon="2.04693">
        <ele>101.98735046387</ele>
        <time>2017-05-21T08:29:10.000Z</time>
      </trkpt>
      <trkpt lat="49.45906" lon="2.04685">
        <ele>102.48908996582</ele>
        <time>2017-05-21T08:29:13.000Z</time>
      </trkpt>
      <trkpt lat="49.459" lon="2.04674">
        <ele>103.05074310303</ele>
        <time>2017-05-21T08:29:16.000Z</time>
      </trkpt>
      <trkpt lat="49.45894" lon="2.04666">
        <ele>103.6212310791</ele>
        <time>2017-05-21T08:29:19.000Z</time>
      </trkpt>
      <trkpt lat="49.45889" lon="2.04657">
        <ele>104.10705566406</ele>
        <time>2017-05-21T08:29:22.000Z</time>
      </trkpt>
      <trkpt lat="49.4588" lon="2.04648">
        <ele>104.54516601562</ele>
        <time>2017-05-21T08:29:25.000Z</time>
      </trkpt>
      <trkpt lat="49.45874" lon="2.04644">
        <ele>104.89686584473</ele>
        <time>2017-05-21T08:29:27.000Z</time>
      </trkpt>
      <trkpt lat="49.45868" lon="2.04635">
        <ele>105.16282653809</ele>
        <time>2017-05-21T08:29:30.000Z</time>
      </trkpt>
      <trkpt lat="49.45861" lon="2.04625">
        <ele>105.41319274902</ele>
        <time>2017-05-21T08:29:33.000Z</time>
      </trkpt>
      <trkpt lat="49.45855" lon="2.04618">
        <ele>105.64080810547</ele>
        <time>2017-05-21T08:29:35.000Z</time>
      </trkpt>
      <trkpt lat="49.45844" lon="2.04606">
        <ele>105.91835021973</ele>
        <time>2017-05-21T08:29:38.000Z</time>
      </trkpt>
      <trkpt lat="49.45832" lon="2.04594">
        <ele>106.28869628906</ele>
        <time>2017-05-21T08:29:41.000Z</time>
      </trkpt>
      <trkpt lat="49.45826" lon="2.04588">
        <ele>106.61842346191</ele>
        <time>2017-05-21T08:29:43.000Z</time>
      </trkpt>
      <trkpt lat="49.45814" lon="2.04577">
        <ele>106.84037780762</ele>
        <time>2017-05-21T08:29:46.000Z</time>
      </trkpt>
      <trkpt lat="49.45803" lon="2.04568">
        <ele>106.96705627441</ele>
        <time>2017-05-21T08:29:49.000Z</time>
      </trkpt>
      <trkpt lat="49.45794" lon="2.0456">
        <ele>106.99359130859</ele>
        <time>2017-05-21T08:29:52.000Z</time>
      </trkpt>
      <trkpt lat="49.45785" lon="2.04552">
        <ele>106.91674804688</ele>
        <time>2017-05-21T08:29:55.000Z</time>
      </trkpt>
      <trkpt lat="49.45775" lon="2.04542">
        <ele>106.81716156006</ele>
        <time>2017-05-21T08:29:58.000Z</time>
      </trkpt>
      <trkpt lat="49.45766" lon="2.04534">
        <ele>106.72972106934</ele>
        <time>2017-05-21T08:30:01.000Z</time>
      </trkpt>
      <trkpt lat="49.45759" lon="2.04529">
        <ele>106.6837387085</ele>
        <time>2017-05-21T08:30:03.000Z</time>
      </trkpt>
      <trkpt lat="49.45745" lon="2.0452">
        <ele>106.61956787109</ele>
        <time>2017-05-21T08:30:06.000Z</time>
      </trkpt>
      <trkpt lat="49.45731" lon="2.04515">
        <ele>106.45361328125</ele>
        <time>2017-05-21T08:30:08.000Z</time>
      </trkpt>
      <trkpt lat="49.45713" lon="2.04506">
        <ele>106.17765808105</ele>
        <time>2017-05-21T08:30:11.000Z</time>
      </trkpt>
      <trkpt lat="49.45703" lon="2.045">
        <ele>105.88220214844</ele>
        <time>2017-05-21T08:30:13.000Z</time>
      </trkpt>
      <trkpt lat="49.45691" lon="2.0449">
        <ele>105.5463104248</ele>
        <time>2017-05-21T08:30:16.000Z</time>
      </trkpt>
      <trkpt lat="49.45684" lon="2.04485">
        <ele>105.23598480225</ele>
        <time>2017-05-21T08:30:18.000Z</time>
      </trkpt>
      <trkpt lat="49.45676" lon="2.04479">
        <ele>105.05212402344</ele>
        <time>2017-05-21T08:30:20.000Z</time>
      </trkpt>
      <trkpt lat="49.45662" lon="2.04468">
        <ele>105.02968597412</ele>
        <time>2017-05-21T08:30:23.000Z</time>
      </trkpt>
      <trkpt lat="49.45647" lon="2.04458">
        <ele>105.12109375</ele>
        <time>2017-05-21T08:30:26.000Z</time>
      </trkpt>
      <trkpt lat="49.45641" lon="2.04451">
        <ele>105.349609375</ele>
        <time>2017-05-21T08:30:28.000Z</time>
      </trkpt>
      <trkpt lat="49.45631" lon="2.04439">
        <ele>105.78100585938</ele>
        <time>2017-05-21T08:30:31.000Z</time>
      </trkpt>
      <trkpt lat="49.45622" lon="2.04432">
        <ele>106.32405853271</ele>
        <time>2017-05-21T08:30:33.000Z</time>
      </trkpt>
      <trkpt lat="49.45607" lon="2.04421">
        <ele>106.99674987793</ele>
        <time>2017-05-21T08:30:36.000Z</time>
      </trkpt>
      <trkpt lat="49.45601" lon="2.04413">
        <ele>107.69010925293</ele>
        <time>2017-05-21T08:30:38.000Z</time>
      </trkpt>
      <trkpt lat="49.45599" lon="2.04406">
        <ele>108.34269714355</ele>
        <time>2017-05-21T08:30:40.000Z</time>
      </trkpt>
      <trkpt lat="49.45601" lon="2.04403">
        <ele>108.83319091797</ele>
        <time>2017-05-21T08:30:43.000Z</time>
      </trkpt>
      <trkpt lat="49.45604" lon="2.04399">
        <ele>109.2218170166</ele>
        <time>2017-05-21T08:30:45.000Z</time>
      </trkpt>
      <trkpt lat="49.45606" lon="2.04391">
        <ele>109.47236633301</ele>
        <time>2017-05-21T08:30:48.000Z</time>
      </trkpt>
      <trkpt lat="49.45609" lon="2.04379">
        <ele>109.67031097412</ele>
        <time>2017-05-21T08:30:51.000Z</time>
      </trkpt>
      <trkpt lat="49.45613" lon="2.04372">
        <ele>109.83255767822</ele>
        <time>2017-05-21T08:30:54.000Z</time>
      </trkpt>
      <trkpt lat="49.45615" lon="2.04367">
        <ele>109.9873046875</ele>
        <time>2017-05-21T08:30:56.000Z</time>
      </trkpt>
      <trkpt lat="49.4562" lon="2.0436">
        <ele>110.11976623535</ele>
        <time>2017-05-21T08:30:59.000Z</time>
      </trkpt>
      <trkpt lat="49.45624" lon="2.04351">
        <ele>110.20112609863</ele>
        <time>2017-05-21T08:31:02.000Z</time>
      </trkpt>
      <trkpt lat="49.45625" lon="2.04344">
        <ele>110.23831939697</ele>
        <time>2017-05-21T08:31:04.000Z</time>
      </trkpt>
      <trkpt lat="49.45626" lon="2.04338">
        <ele>110.26902770996</ele>
        <time>2017-05-21T08:31:06.000Z</time>
      </trkpt>
      <trkpt lat="49.45631" lon="2.04328">
        <ele>110.2935333252</ele>
        <time>2017-05-21T08:31:09.000Z</time>
      </trkpt>
      <trkpt lat="49.45635" lon="2.04316">
        <ele>110.39817810059</ele>
        <time>2017-05-21T08:31:12.000Z</time>
      </trkpt>
      <trkpt lat="49.45639" lon="2.04302">
        <ele>110.58713531494</ele>
        <time>2017-05-21T08:31:15.000Z</time>
      </trkpt>
      <trkpt lat="49.45641" lon="2.04294">
        <ele>110.81330871582</ele>
        <time>2017-05-21T08:31:17.000Z</time>
      </trkpt>
      <trkpt lat="49.45644" lon="2.04286">
        <ele>111.068359375</ele>
        <time>2017-05-21T08:31:19.000Z</time>
      </trkpt>
      <trkpt lat="49.45647" lon="2.04274">
        <ele>111.39624023438</ele>
        <time>2017-05-21T08:31:22.000Z</time>
      </trkpt>
      <trkpt lat="49.45652" lon="2.04261">
        <ele>111.71313476562</ele>
        <time>2017-05-21T08:31:25.000Z</time>
      </trkpt>
      <trkpt lat="49.45656" lon="2.04253">
        <ele>111.97766113281</ele>
        <time>2017-05-21T08:31:28.000Z</time>
      </trkpt>
      <trkpt lat="49.45659" lon="2.04246">
        <ele>112.24691009521</ele>
        <time>2017-05-21T08:31:30.000Z</time>
      </trkpt>
      <trkpt lat="49.45663" lon="2.0424">
        <ele>112.53460693359</ele>
        <time>2017-05-21T08:31:32.000Z</time>
      </trkpt>
      <trkpt lat="49.45667" lon="2.04228">
        <ele>112.90915679932</ele>
        <time>2017-05-21T08:31:35.000Z</time>
      </trkpt>
      <trkpt lat="49.4567" lon="2.04215">
        <ele>113.44703674316</ele>
        <time>2017-05-21T08:31:39.000Z</time>
      </trkpt>
      <trkpt lat="49.45673" lon="2.04204">
        <ele>114.15041351318</ele>
        <time>2017-05-21T08:31:41.000Z</time>
      </trkpt>
      <trkpt lat="49.45677" lon="2.04192">
        <ele>115.02038574219</ele>
        <time>2017-05-21T08:31:44.000Z</time>
      </trkpt>
      <trkpt lat="49.4568" lon="2.04184">
        <ele>115.97402191162</ele>
        <time>2017-05-21T08:31:46.000Z</time>
      </trkpt>
      <trkpt lat="49.45685" lon="2.04173">
        <ele>116.97723388672</ele>
        <time>2017-05-21T08:31:49.000Z</time>
      </trkpt>
      <trkpt lat="49.45689" lon="2.0416">
        <ele>117.95109558105</ele>
        <time>2017-05-21T08:31:52.000Z</time>
      </trkpt>
      <trkpt lat="49.45693" lon="2.04152">
        <ele>118.83933258057</ele>
        <time>2017-05-21T08:31:55.000Z</time>
      </trkpt>
      <trkpt lat="49.45696" lon="2.04146">
        <ele>119.58485412598</ele>
        <time>2017-05-21T08:31:57.000Z</time>
      </trkpt>
      <trkpt lat="49.45701" lon="2.04136">
        <ele>120.32524108887</ele>
        <time>2017-05-21T08:32:00.000Z</time>
      </trkpt>
      <trkpt lat="49.45703" lon="2.04129">
        <ele>120.93161773682</ele>
        <time>2017-05-21T08:32:02.000Z</time>
      </trkpt>
      <trkpt lat="49.45705" lon="2.04121">
        <ele>121.43586730957</ele>
        <time>2017-05-21T08:32:04.000Z</time>
      </trkpt>
      <trkpt lat="49.4571" lon="2.0411">
        <ele>121.96504211426</ele>
        <time>2017-05-21T08:32:07.000Z</time>
      </trkpt>
      <trkpt lat="49.45715" lon="2.04096">
        <ele>122.57279205322</ele>
        <time>2017-05-21T08:32:10.000Z</time>
      </trkpt>
      <trkpt lat="49.45718" lon="2.04089">
        <ele>123.13206481934</ele>
        <time>2017-05-21T08:32:12.000Z</time>
      </trkpt>
      <trkpt lat="49.45721" lon="2.04081">
        <ele>123.67926025391</ele>
        <time>2017-05-21T08:32:14.000Z</time>
      </trkpt>
      <trkpt lat="49.45724" lon="2.04069">
        <ele>124.16658782959</ele>
        <time>2017-05-21T08:32:17.000Z</time>
      </trkpt>
      <trkpt lat="49.45728" lon="2.04061">
        <ele>124.54753112793</ele>
        <time>2017-05-21T08:32:19.000Z</time>
      </trkpt>
      <trkpt lat="49.4573" lon="2.04051">
        <ele>124.80017089844</ele>
        <time>2017-05-21T08:32:21.000Z</time>
      </trkpt>
      <trkpt lat="49.45732" lon="2.04036">
        <ele>125.00543212891</ele>
        <time>2017-05-21T08:32:24.000Z</time>
      </trkpt>
      <trkpt lat="49.45734" lon="2.04029">
        <ele>125.16452789307</ele>
        <time>2017-05-21T08:32:26.000Z</time>
      </trkpt>
      <trkpt lat="49.45739" lon="2.04014">
        <ele>125.33197021484</ele>
        <time>2017-05-21T08:32:29.000Z</time>
      </trkpt>
      <trkpt lat="49.45743" lon="2.04005">
        <ele>125.50148773193</ele>
        <time>2017-05-21T08:32:31.000Z</time>
      </trkpt>
      <trkpt lat="49.45747" lon="2.03997">
        <ele>125.67496490479</ele>
        <time>2017-05-21T08:32:33.000Z</time>
      </trkpt>
      <trkpt lat="49.45752" lon="2.03986">
        <ele>125.85066223145</ele>
        <time>2017-05-21T08:32:36.000Z</time>
      </trkpt>
      <trkpt lat="49.45757" lon="2.0397">
        <ele>126.06620788574</ele>
        <time>2017-05-21T08:32:39.000Z</time>
      </trkpt>
      <trkpt lat="49.4576" lon="2.03956">
        <ele>126.29174804688</ele>
        <time>2017-05-21T08:32:41.000Z</time>
      </trkpt>
      <trkpt lat="49.45766" lon="2.03938">
        <ele>126.58050537109</ele>
        <time>2017-05-21T08:32:44.000Z</time>
      </trkpt>
      <trkpt lat="49.45773" lon="2.03926">
        <ele>126.91186523438</ele>
        <time>2017-05-21T08:32:46.000Z</time>
      </trkpt>
      <trkpt lat="49.45776" lon="2.03918">
        <ele>127.25030517578</ele>
        <time>2017-05-21T08:32:48.000Z</time>
      </trkpt>
      <trkpt lat="49.45779" lon="2.03905">
        <ele>127.58683013916</ele>
        <time>2017-05-21T08:32:51.000Z</time>
      </trkpt>
      <trkpt lat="49.45781" lon="2.03896">
        <ele>127.90913391113</ele>
        <time>2017-05-21T08:32:53.000Z</time>
      </trkpt>
      <trkpt lat="49.45784" lon="2.03888">
        <ele>128.17889404297</ele>
        <time>2017-05-21T08:32:55.000Z</time>
      </trkpt>
      <trkpt lat="49.45789" lon="2.03875">
        <ele>128.43257141113</ele>
        <time>2017-05-21T08:32:58.000Z</time>
      </trkpt>
      <trkpt lat="49.45792" lon="2.03867">
        <ele>128.66885375977</ele>
        <time>2017-05-21T08:33:00.000Z</time>
      </trkpt>
      <trkpt lat="49.45795" lon="2.03854">
        <ele>128.88705444336</ele>
        <time>2017-05-21T08:33:03.000Z</time>
      </trkpt>
      <trkpt lat="49.45797" lon="2.03847">
        <ele>129.08436584473</ele>
        <time>2017-05-21T08:33:05.000Z</time>
      </trkpt>
      <trkpt lat="49.45798" lon="2.03842">
        <ele>129.25405883789</ele>
        <time>2017-05-21T08:33:07.000Z</time>
      </trkpt>
      <trkpt lat="49.45799" lon="2.03839">
        <ele>129.37307739258</ele>
        <time>2017-05-21T08:33:10.000Z</time>
      </trkpt>
      <trkpt lat="49.458" lon="2.03832">
        <ele>129.4758605957</ele>
        <time>2017-05-21T08:33:22.000Z</time>
      </trkpt>
      <trkpt lat="49.458" lon="2.03831">
        <ele>129.54061889648</ele>
        <time>2017-05-21T08:33:35.000Z</time>
      </trkpt>
      <trkpt lat="49.45799" lon="2.03831">
        <ele>129.58128356934</ele>
        <time>2017-05-21T08:33:42.000Z</time>
      </trkpt>
      <trkpt lat="49.45798" lon="2.03829">
        <ele>129.61148071289</ele>
        <time>2017-05-21T08:34:00.000Z</time>
      </trkpt>
      <trkpt lat="49.45799" lon="2.03828">
        <ele>129.63735961914</ele>
        <time>2017-05-21T08:34:03.000Z</time>
      </trkpt>
      <trkpt lat="49.45797" lon="2.03824">
        <ele>129.65689086914</ele>
        <time>2017-05-21T08:34:14.000Z</time>
      </trkpt>
      <trkpt lat="49.45799" lon="2.03824">
        <ele>129.67231750488</ele>
        <time>2017-05-21T08:34:24.000Z</time>
      </trkpt>
      <trkpt lat="49.458" lon="2.03825">
        <ele>129.69140625</ele>
        <time>2017-05-21T08:34:26.000Z</time>
      </trkpt>
      <trkpt lat="49.45801" lon="2.03825">
        <ele>129.70889282227</ele>
        <time>2017-05-21T08:34:30.000Z</time>
      </trkpt>
      <trkpt lat="49.45802" lon="2.03828">
        <ele>129.71621704102</ele>
        <time>2017-05-21T08:34:35.000Z</time>
      </trkpt>
      <trkpt lat="49.45803" lon="2.03828">
        <ele>129.71575927734</ele>
        <time>2017-05-21T08:34:39.000Z</time>
      </trkpt>
      <trkpt lat="49.45805" lon="2.03829">
        <ele>129.71342468262</ele>
        <time>2017-05-21T08:34:42.000Z</time>
      </trkpt>
      <trkpt lat="49.45805" lon="2.03828">
        <ele>129.71383666992</ele>
        <time>2017-05-21T08:34:47.000Z</time>
      </trkpt>
      <trkpt lat="49.45804" lon="2.03827">
        <ele>129.71398925781</ele>
        <time>2017-05-21T08:34:51.000Z</time>
      </trkpt>
      <trkpt lat="49.45803" lon="2.03825">
        <ele>129.72250366211</ele>
        <time>2017-05-21T08:35:02.000Z</time>
      </trkpt>
      <trkpt lat="49.45803" lon="2.03827">
        <ele>129.72518920898</ele>
        <time>2017-05-21T08:35:11.000Z</time>
      </trkpt>
      <trkpt lat="49.45802" lon="2.03826">
        <ele>129.72915649414</ele>
        <time>2017-05-21T08:35:19.000Z</time>
      </trkpt>
      <trkpt lat="49.45801" lon="2.03824">
        <ele>129.73292541504</ele>
        <time>2017-05-21T08:35:32.000Z</time>
      </trkpt>
      <trkpt lat="49.45801" lon="2.03824">
        <ele>129.73292541504</ele>
        <time>2017-05-21T08:35:52.000Z</time>
      </trkpt>
      <trkpt lat="49.45803" lon="2.03823">
        <ele>129.74104309082</ele>
        <time>2017-05-21T08:36:56.000Z</time>
      </trkpt>
      <trkpt lat="49.45803" lon="2.03823">
        <ele>129.74104309082</ele>
        <time>2017-05-21T08:37:16.000Z</time>
      </trkpt>
      <trkpt lat="49.458" lon="2.03824">
        <ele>129.74002075195</ele>
        <time>2017-05-21T08:37:46.000Z</time>
      </trkpt>
      <trkpt lat="49.458" lon="2.03826">
        <ele>129.73803710938</ele>
        <time>2017-05-21T08:37:48.000Z</time>
      </trkpt>
      <trkpt lat="49.45798" lon="2.03825">
        <ele>129.73431396484</ele>
        <time>2017-05-21T08:37:51.000Z</time>
      </trkpt>
      <trkpt lat="49.45797" lon="2.03823">
        <ele>129.73043823242</ele>
        <time>2017-05-21T08:37:54.000Z</time>
      </trkpt>
      <trkpt lat="49.45795" lon="2.03819">
        <ele>129.73208618164</ele>
        <time>2017-05-21T08:37:56.000Z</time>
      </trkpt>
      <trkpt lat="49.45792" lon="2.03816">
        <ele>129.74597167969</ele>
        <time>2017-05-21T08:37:59.000Z</time>
      </trkpt>
      <trkpt lat="49.4579" lon="2.03817">
        <ele>129.76077270508</ele>
        <time>2017-05-21T08:38:01.000Z</time>
      </trkpt>
      <trkpt lat="49.45789" lon="2.03819">
        <ele>129.76914978027</ele>
        <time>2017-05-21T08:38:04.000Z</time>
      </trkpt>
      <trkpt lat="49.45786" lon="2.03817">
        <ele>129.7784576416</ele>
        <time>2017-05-21T08:38:11.000Z</time>
      </trkpt>
      <trkpt lat="49.45783" lon="2.03818">
        <ele>129.76754760742</ele>
        <time>2017-05-21T08:38:14.000Z</time>
      </trkpt>
      <trkpt lat="49.45782" lon="2.03818">
        <ele>129.74946594238</ele>
        <time>2017-05-21T08:38:17.000Z</time>
      </trkpt>
      <trkpt lat="49.45784" lon="2.03819">
        <ele>129.73693847656</ele>
        <time>2017-05-21T08:38:27.000Z</time>
      </trkpt>
      <trkpt lat="49.45784" lon="2.03817">
        <ele>129.73728942871</ele>
        <time>2017-05-21T08:38:29.000Z</time>
      </trkpt>
      <trkpt lat="49.45789" lon="2.03819">
        <ele>129.73165893555</ele>
        <time>2017-05-21T08:38:35.000Z</time>
      </trkpt>
      <trkpt lat="49.45793" lon="2.0382">
        <ele>129.73515319824</ele>
        <time>2017-05-21T08:38:39.000Z</time>
      </trkpt>
      <trkpt lat="49.45797" lon="2.03823">
        <ele>129.73791503906</ele>
        <time>2017-05-21T08:38:43.000Z</time>
      </trkpt>
      <trkpt lat="49.45798" lon="2.03824">
        <ele>129.73788452148</ele>
        <time>2017-05-21T08:38:47.000Z</time>
      </trkpt>
      <trkpt lat="49.45798" lon="2.03822">
        <ele>129.73597717285</ele>
        <time>2017-05-21T08:38:49.000Z</time>
      </trkpt>
      <trkpt lat="49.45794" lon="2.03815">
        <ele>129.75424194336</ele>
        <time>2017-05-21T08:38:52.000Z</time>
      </trkpt>
      <trkpt lat="49.45793" lon="2.03816">
        <ele>129.76921081543</ele>
        <time>2017-05-21T08:38:55.000Z</time>
      </trkpt>
      <trkpt lat="49.45794" lon="2.03819">
        <ele>129.77847290039</ele>
        <time>2017-05-21T08:39:05.000Z</time>
      </trkpt>
      <trkpt lat="49.45795" lon="2.03819">
        <ele>129.7873840332</ele>
        <time>2017-05-21T08:39:17.000Z</time>
      </trkpt>
      <trkpt lat="49.45796" lon="2.03819">
        <ele>129.79623413086</ele>
        <time>2017-05-21T08:39:20.000Z</time>
      </trkpt>
      <trkpt lat="49.45798" lon="2.03815">
        <ele>129.8010559082</ele>
        <time>2017-05-21T08:39:22.000Z</time>
      </trkpt>
      <trkpt lat="49.458" lon="2.03812">
        <ele>129.8189239502</ele>
        <time>2017-05-21T08:39:25.000Z</time>
      </trkpt>
      <trkpt lat="49.45799" lon="2.03807">
        <ele>129.85884094238</ele>
        <time>2017-05-21T08:39:28.000Z</time>
      </trkpt>
      <trkpt lat="49.45796" lon="2.03806">
        <ele>129.90464782715</ele>
        <time>2017-05-21T08:39:31.000Z</time>
      </trkpt>
      <trkpt lat="49.45798" lon="2.03807">
        <ele>129.9423828125</ele>
        <time>2017-05-21T08:39:33.000Z</time>
      </trkpt>
      <trkpt lat="49.45802" lon="2.03807">
        <ele>129.96635437012</ele>
        <time>2017-05-21T08:39:35.000Z</time>
      </trkpt>
      <trkpt lat="49.45803" lon="2.03806">
        <ele>129.98294067383</ele>
        <time>2017-05-21T08:39:38.000Z</time>
      </trkpt>
      <trkpt lat="49.45805" lon="2.03805">
        <ele>129.99067687988</ele>
        <time>2017-05-21T08:39:41.000Z</time>
      </trkpt>
      <trkpt lat="49.45807" lon="2.03803">
        <ele>129.99839782715</ele>
        <time>2017-05-21T08:39:46.000Z</time>
      </trkpt>
      <trkpt lat="49.45807" lon="2.03803">
        <ele>129.99839782715</ele>
        <time>2017-05-21T08:40:06.000Z</time>
      </trkpt>
      <trkpt lat="49.45806" lon="2.03804">
        <ele>130.00811767578</ele>
        <time>2017-05-21T08:40:16.000Z</time>
      </trkpt>
      <trkpt lat="49.45804" lon="2.03801">
        <ele>130.02326965332</ele>
        <time>2017-05-21T08:40:18.000Z</time>
      </trkpt>
      <trkpt lat="49.45803" lon="2.03799">
        <ele>130.04252624512</ele>
        <time>2017-05-21T08:40:21.000Z</time>
      </trkpt>
      <trkpt lat="49.45805" lon="2.03797">
        <ele>130.06132507324</ele>
        <time>2017-05-21T08:40:23.000Z</time>
      </trkpt>
      <trkpt lat="49.45805" lon="2.038">
        <ele>130.06942749023</ele>
        <time>2017-05-21T08:40:26.000Z</time>
      </trkpt>
      <trkpt lat="49.45803" lon="2.03801">
        <ele>130.07614135742</ele>
        <time>2017-05-21T08:40:28.000Z</time>
      </trkpt>
      <trkpt lat="49.45805" lon="2.03803">
        <ele>130.07238769531</ele>
        <time>2017-05-21T08:40:30.000Z</time>
      </trkpt>
      <trkpt lat="49.45803" lon="2.03806">
        <ele>130.05517578125</ele>
        <time>2017-05-21T08:40:33.000Z</time>
      </trkpt>
      <trkpt lat="49.45804" lon="2.03804">
        <ele>130.03799438477</ele>
        <time>2017-05-21T08:40:35.000Z</time>
      </trkpt>
      <trkpt lat="49.45806" lon="2.03801">
        <ele>130.03491210938</ele>
        <time>2017-05-21T08:40:38.000Z</time>
      </trkpt>
      <trkpt lat="49.45804" lon="2.03799">
        <ele>130.03930664062</ele>
        <time>2017-05-21T08:40:49.000Z</time>
      </trkpt>
      <trkpt lat="49.45803" lon="2.03799">
        <ele>130.04885864258</ele>
        <time>2017-05-21T08:40:51.000Z</time>
      </trkpt>
      <trkpt lat="49.45801" lon="2.03797">
        <ele>130.07382202148</ele>
        <time>2017-05-21T08:40:55.000Z</time>
      </trkpt>
      <trkpt lat="49.45801" lon="2.03795">
        <ele>130.09857177734</ele>
        <time>2017-05-21T08:40:58.000Z</time>
      </trkpt>
      <trkpt lat="49.45801" lon="2.03797">
        <ele>130.11051940918</ele>
        <time>2017-05-21T08:41:01.000Z</time>
      </trkpt>
      <trkpt lat="49.458" lon="2.03799">
        <ele>130.11386108398</ele>
        <time>2017-05-21T08:41:06.000Z</time>
      </trkpt>
      <trkpt lat="49.45802" lon="2.03795">
        <ele>130.12579345703</ele>
        <time>2017-05-21T08:41:09.000Z</time>
      </trkpt>
      <trkpt lat="49.45804" lon="2.03791">
        <ele>130.13684082031</ele>
        <time>2017-05-21T08:41:11.000Z</time>
      </trkpt>
      <trkpt lat="49.45805" lon="2.0379">
        <ele>130.1462097168</ele>
        <time>2017-05-21T08:41:13.000Z</time>
      </trkpt>
      <trkpt lat="49.45804" lon="2.03795">
        <ele>130.14895629883</ele>
        <time>2017-05-21T08:41:16.000Z</time>
      </trkpt>
      <trkpt lat="49.45803" lon="2.038">
        <ele>130.1455078125</ele>
        <time>2017-05-21T08:41:18.000Z</time>
      </trkpt>
      <trkpt lat="49.45798" lon="2.03804">
        <ele>130.12063598633</ele>
        <time>2017-05-21T08:41:20.000Z</time>
      </trkpt>
      <trkpt lat="49.45793" lon="2.03804">
        <ele>130.09115600586</ele>
        <time>2017-05-21T08:41:23.000Z</time>
      </trkpt>
      <trkpt lat="49.45791" lon="2.03804">
        <ele>130.05856323242</ele>
        <time>2017-05-21T08:41:25.000Z</time>
      </trkpt>
      <trkpt lat="49.45788" lon="2.03806">
        <ele>130.03140258789</ele>
        <time>2017-05-21T08:41:28.000Z</time>
      </trkpt>
      <trkpt lat="49.45787" lon="2.03805">
        <ele>130.01924133301</ele>
        <time>2017-05-21T08:41:31.000Z</time>
      </trkpt>
      <trkpt lat="49.45785" lon="2.03804">
        <ele>130.02278137207</ele>
        <time>2017-05-21T08:41:34.000Z</time>
      </trkpt>
      <trkpt lat="49.45787" lon="2.03803">
        <ele>130.02529907227</ele>
        <time>2017-05-21T08:41:37.000Z</time>
      </trkpt>
      <trkpt lat="49.45789" lon="2.03802">
        <ele>130.03384399414</ele>
        <time>2017-05-21T08:41:40.000Z</time>
      </trkpt>
      <trkpt lat="49.4579" lon="2.038">
        <ele>130.05349731445</ele>
        <time>2017-05-21T08:41:42.000Z</time>
      </trkpt>
      <trkpt lat="49.45792" lon="2.03798">
        <ele>130.07629394531</ele>
        <time>2017-05-21T08:41:45.000Z</time>
      </trkpt>
      <trkpt lat="49.45794" lon="2.03797">
        <ele>130.09823608398</ele>
        <time>2017-05-21T08:41:48.000Z</time>
      </trkpt>
      <trkpt lat="49.45795" lon="2.03796">
        <ele>130.11929321289</ele>
        <time>2017-05-21T08:41:50.000Z</time>
      </trkpt>
      <trkpt lat="49.45796" lon="2.03796">
        <ele>130.13409423828</ele>
        <time>2017-05-21T08:41:52.000Z</time>
      </trkpt>
      <trkpt lat="49.45797" lon="2.03797">
        <ele>130.14236450195</ele>
        <time>2017-05-21T08:41:56.000Z</time>
      </trkpt>
      <trkpt lat="49.45798" lon="2.03796">
        <ele>130.1449432373</ele>
        <time>2017-05-21T08:41:59.000Z</time>
      </trkpt>
      <trkpt lat="49.458" lon="2.03796">
        <ele>130.1429901123</ele>
        <time>2017-05-21T08:42:02.000Z</time>
      </trkpt>
      <trkpt lat="49.458" lon="2.03794">
        <ele>130.1456451416</ele>
        <time>2017-05-21T08:42:10.000Z</time>
      </trkpt>
      <trkpt lat="49.45801" lon="2.03791">
        <ele>130.15843200684</ele>
        <time>2017-05-21T08:42:25.000Z</time>
      </trkpt>
      <trkpt lat="49.45804" lon="2.03785">
        <ele>130.18325805664</ele>
        <time>2017-05-21T08:42:27.000Z</time>
      </trkpt>
      <trkpt lat="49.45811" lon="2.03784">
        <ele>130.19717407227</ele>
        <time>2017-05-21T08:42:30.000Z</time>
      </trkpt>
      <trkpt lat="49.45816" lon="2.03785">
        <ele>130.20083618164</ele>
        <time>2017-05-21T08:42:33.000Z</time>
      </trkpt>
      <trkpt lat="49.45814" lon="2.03788">
        <ele>130.1978302002</ele>
        <time>2017-05-21T08:42:35.000Z</time>
      </trkpt>
      <trkpt lat="49.45812" lon="2.03787">
        <ele>130.19094848633</ele>
        <time>2017-05-21T08:42:38.000Z</time>
      </trkpt>
      <trkpt lat="49.45811" lon="2.03788">
        <ele>130.17192077637</ele>
        <time>2017-05-21T08:42:40.000Z</time>
      </trkpt>
      <trkpt lat="49.45805" lon="2.03791">
        <ele>130.16525268555</ele>
        <time>2017-05-21T08:42:43.000Z</time>
      </trkpt>
      <trkpt lat="49.45804" lon="2.03791">
        <ele>130.17010498047</ele>
        <time>2017-05-21T08:42:45.000Z</time>
      </trkpt>
      <trkpt lat="49.45806" lon="2.03788">
        <ele>130.18179321289</ele>
        <time>2017-05-21T08:42:50.000Z</time>
      </trkpt>
      <trkpt lat="49.45809" lon="2.03782">
        <ele>130.19619750977</ele>
        <time>2017-05-21T08:42:52.000Z</time>
      </trkpt>
      <trkpt lat="49.45809" lon="2.0378">
        <ele>130.21647644043</ele>
        <time>2017-05-21T08:42:55.000Z</time>
      </trkpt>
      <trkpt lat="49.4581" lon="2.03785">
        <ele>130.22276306152</ele>
        <time>2017-05-21T08:42:58.000Z</time>
      </trkpt>
      <trkpt lat="49.45813" lon="2.03788">
        <ele>130.21801757812</ele>
        <time>2017-05-21T08:43:01.000Z</time>
      </trkpt>
      <trkpt lat="49.45814" lon="2.03787">
        <ele>130.20864868164</ele>
        <time>2017-05-21T08:43:04.000Z</time>
      </trkpt>
      <trkpt lat="49.45811" lon="2.03786">
        <ele>130.19790649414</ele>
        <time>2017-05-21T08:43:12.000Z</time>
      </trkpt>
      <trkpt lat="49.45812" lon="2.03786">
        <ele>130.18099975586</ele>
        <time>2017-05-21T08:43:18.000Z</time>
      </trkpt>
      <trkpt lat="49.45813" lon="2.03785">
        <ele>130.17384338379</ele>
        <time>2017-05-21T08:43:21.000Z</time>
      </trkpt>
      <trkpt lat="49.45815" lon="2.03785">
        <ele>130.17576599121</ele>
        <time>2017-05-21T08:43:25.000Z</time>
      </trkpt>
      <trkpt lat="49.45813" lon="2.03784">
        <ele>130.18173217773</ele>
        <time>2017-05-21T08:43:27.000Z</time>
      </trkpt>
      <trkpt lat="49.45811" lon="2.03788">
        <ele>130.1782989502</ele>
        <time>2017-05-21T08:43:32.000Z</time>
      </trkpt>
      <trkpt lat="49.45812" lon="2.03787">
        <ele>130.1761932373</ele>
        <time>2017-05-21T08:43:44.000Z</time>
      </trkpt>
      <trkpt lat="49.4581" lon="2.03786">
        <ele>130.18087768555</ele>
        <time>2017-05-21T08:43:59.000Z</time>
      </trkpt>
      <trkpt lat="49.4581" lon="2.03786">
        <ele>130.18087768555</ele>
        <time>2017-05-21T08:44:19.000Z</time>
      </trkpt>
      <trkpt lat="49.45811" lon="2.03786">
        <ele>130.18569946289</ele>
        <time>2017-05-21T08:44:43.000Z</time>
      </trkpt>
      <trkpt lat="49.45812" lon="2.03784">
        <ele>130.18801879883</ele>
        <time>2017-05-21T08:44:48.000Z</time>
      </trkpt>
      <trkpt lat="49.45813" lon="2.03784">
        <ele>130.19129943848</ele>
        <time>2017-05-21T08:44:51.000Z</time>
      </trkpt>
      <trkpt lat="49.45811" lon="2.03787">
        <ele>130.19177246094</ele>
        <time>2017-05-21T08:45:06.000Z</time>
      </trkpt>
      <trkpt lat="49.4581" lon="2.03787">
        <ele>130.18878173828</ele>
        <time>2017-05-21T08:45:09.000Z</time>
      </trkpt>
      <trkpt lat="49.45809" lon="2.03787">
        <ele>130.19018554688</ele>
        <time>2017-05-21T08:45:11.000Z</time>
      </trkpt>
      <trkpt lat="49.45808" lon="2.03785">
        <ele>130.19436645508</ele>
        <time>2017-05-21T08:45:13.000Z</time>
      </trkpt>
      <trkpt lat="49.45807" lon="2.03784">
        <ele>130.20642089844</ele>
        <time>2017-05-21T08:45:16.000Z</time>
      </trkpt>
      <trkpt lat="49.45809" lon="2.03782">
        <ele>130.22058105469</ele>
        <time>2017-05-21T08:45:19.000Z</time>
      </trkpt>
      <trkpt lat="49.45811" lon="2.03777">
        <ele>130.23880004883</ele>
        <time>2017-05-21T08:45:22.000Z</time>
      </trkpt>
      <trkpt lat="49.45813" lon="2.03773">
        <ele>130.25828552246</ele>
        <time>2017-05-21T08:45:24.000Z</time>
      </trkpt>
      <trkpt lat="49.45819" lon="2.03765">
        <ele>130.26341247559</ele>
        <time>2017-05-21T08:45:27.000Z</time>
      </trkpt>
      <trkpt lat="49.45821" lon="2.03755">
        <ele>130.26608276367</ele>
        <time>2017-05-21T08:45:30.000Z</time>
      </trkpt>
      <trkpt lat="49.45824" lon="2.03745">
        <ele>130.29322814941</ele>
        <time>2017-05-21T08:45:32.000Z</time>
      </trkpt>
      <trkpt lat="49.45829" lon="2.03728">
        <ele>130.41409301758</ele>
        <time>2017-05-21T08:45:35.000Z</time>
      </trkpt>
      <trkpt lat="49.45836" lon="2.03712">
        <ele>130.62957763672</ele>
        <time>2017-05-21T08:45:38.000Z</time>
      </trkpt>
      <trkpt lat="49.45847" lon="2.03699">
        <ele>130.92855834961</ele>
        <time>2017-05-21T08:45:41.000Z</time>
      </trkpt>
      <trkpt lat="49.45853" lon="2.03691">
        <ele>131.2688293457</ele>
        <time>2017-05-21T08:45:43.000Z</time>
      </trkpt>
      <trkpt lat="49.45857" lon="2.03684">
        <ele>131.62382507324</ele>
        <time>2017-05-21T08:45:45.000Z</time>
      </trkpt>
      <trkpt lat="49.45863" lon="2.03666">
        <ele>131.97631835938</ele>
        <time>2017-05-21T08:45:48.000Z</time>
      </trkpt>
      <trkpt lat="49.45869" lon="2.03655">
        <ele>132.23275756836</ele>
        <time>2017-05-21T08:45:50.000Z</time>
      </trkpt>
      <trkpt lat="49.45876" lon="2.03638">
        <ele>132.41340637207</ele>
        <time>2017-05-21T08:45:53.000Z</time>
      </trkpt>
      <trkpt lat="49.45881" lon="2.03625">
        <ele>132.54864501953</ele>
        <time>2017-05-21T08:45:55.000Z</time>
      </trkpt>
      <trkpt lat="49.45886" lon="2.03606">
        <ele>132.64541625977</ele>
        <time>2017-05-21T08:45:58.000Z</time>
      </trkpt>
      <trkpt lat="49.45889" lon="2.03587">
        <ele>132.64837646484</ele>
        <time>2017-05-21T08:46:01.000Z</time>
      </trkpt>
      <trkpt lat="49.45891" lon="2.03574">
        <ele>132.59666442871</ele>
        <time>2017-05-21T08:46:04.000Z</time>
      </trkpt>
      <trkpt lat="49.45895" lon="2.03562">
        <ele>132.4595489502</ele>
        <time>2017-05-21T08:46:06.000Z</time>
      </trkpt>
      <trkpt lat="49.45899" lon="2.03547">
        <ele>132.20846557617</ele>
        <time>2017-05-21T08:46:08.000Z</time>
      </trkpt>
      <trkpt lat="49.45908" lon="2.03525">
        <ele>131.74682617188</ele>
        <time>2017-05-21T08:46:11.000Z</time>
      </trkpt>
      <trkpt lat="49.45917" lon="2.035">
        <ele>131.01640319824</ele>
        <time>2017-05-21T08:46:14.000Z</time>
      </trkpt>
      <trkpt lat="49.45922" lon="2.03483">
        <ele>130.28573608398</ele>
        <time>2017-05-21T08:46:16.000Z</time>
      </trkpt>
      <trkpt lat="49.4593" lon="2.0346">
        <ele>129.5677947998</ele>
        <time>2017-05-21T08:46:19.000Z</time>
      </trkpt>
      <trkpt lat="49.45938" lon="2.03439">
        <ele>128.88232421875</ele>
        <time>2017-05-21T08:46:22.000Z</time>
      </trkpt>
      <trkpt lat="49.45943" lon="2.03428">
        <ele>128.35737609863</ele>
        <time>2017-05-21T08:46:24.000Z</time>
      </trkpt>
      <trkpt lat="49.45953" lon="2.03409">
        <ele>128.05912780762</ele>
        <time>2017-05-21T08:46:27.000Z</time>
      </trkpt>
      <trkpt lat="49.4596" lon="2.0339">
        <ele>127.85764312744</ele>
        <time>2017-05-21T08:46:30.000Z</time>
      </trkpt>
      <trkpt lat="49.45965" lon="2.03378">
        <ele>127.74423980713</ele>
        <time>2017-05-21T08:46:32.000Z</time>
      </trkpt>
      <trkpt lat="49.45969" lon="2.03369">
        <ele>127.7209854126</ele>
        <time>2017-05-21T08:46:34.000Z</time>
      </trkpt>
      <trkpt lat="49.45974" lon="2.03353">
        <ele>127.77604675293</ele>
        <time>2017-05-21T08:46:37.000Z</time>
      </trkpt>
      <trkpt lat="49.45982" lon="2.03332">
        <ele>127.89267730713</ele>
        <time>2017-05-21T08:46:40.000Z</time>
      </trkpt>
      <trkpt lat="49.45989" lon="2.03316">
        <ele>127.83852386475</ele>
        <time>2017-05-21T08:46:43.000Z</time>
      </trkpt>
      <trkpt lat="49.45995" lon="2.03303">
        <ele>127.6704864502</ele>
        <time>2017-05-21T08:46:45.000Z</time>
      </trkpt>
      <trkpt lat="49.46005" lon="2.03273">
        <ele>127.28566741943</ele>
        <time>2017-05-21T08:46:48.000Z</time>
      </trkpt>
      <trkpt lat="49.46012" lon="2.0325">
        <ele>126.74597167969</ele>
        <time>2017-05-21T08:46:50.000Z</time>
      </trkpt>
      <trkpt lat="49.46018" lon="2.0323">
        <ele>126.10966491699</ele>
        <time>2017-05-21T08:46:52.000Z</time>
      </trkpt>
      <trkpt lat="49.46029" lon="2.0319">
        <ele>125.46822357178</ele>
        <time>2017-05-21T08:46:55.000Z</time>
      </trkpt>
      <trkpt lat="49.46038" lon="2.03173">
        <ele>124.82429504395</ele>
        <time>2017-05-21T08:46:57.000Z</time>
      </trkpt>
      <trkpt lat="49.46052" lon="2.03134">
        <ele>124.16984558105</ele>
        <time>2017-05-21T08:47:00.000Z</time>
      </trkpt>
      <trkpt lat="49.46066" lon="2.03093">
        <ele>123.3794708252</ele>
        <time>2017-05-21T08:47:03.000Z</time>
      </trkpt>
      <trkpt lat="49.46078" lon="2.03068">
        <ele>122.43347167969</ele>
        <time>2017-05-21T08:47:06.000Z</time>
      </trkpt>
      <trkpt lat="49.46081" lon="2.03061">
        <ele>121.56072998047</ele>
        <time>2017-05-21T08:47:08.000Z</time>
      </trkpt>
      <trkpt lat="49.4608" lon="2.03049">
        <ele>120.77516174316</ele>
        <time>2017-05-21T08:47:11.000Z</time>
      </trkpt>
      <trkpt lat="49.46077" lon="2.03042">
        <ele>120.2505645752</ele>
        <time>2017-05-21T08:47:14.000Z</time>
      </trkpt>
      <trkpt lat="49.46074" lon="2.03029">
        <ele>120.0113067627</ele>
        <time>2017-05-21T08:47:17.000Z</time>
      </trkpt>
      <trkpt lat="49.46067" lon="2.0302">
        <ele>120.08951568604</ele>
        <time>2017-05-21T08:47:20.000Z</time>
      </trkpt>
      <trkpt lat="49.46058" lon="2.03012">
        <ele>120.35119628906</ele>
        <time>2017-05-21T08:47:22.000Z</time>
      </trkpt>
      <trkpt lat="49.46049" lon="2.03006">
        <ele>120.77372741699</ele>
        <time>2017-05-21T08:47:24.000Z</time>
      </trkpt>
      <trkpt lat="49.46038" lon="2.03">
        <ele>121.33020019531</ele>
        <time>2017-05-21T08:47:27.000Z</time>
      </trkpt>
      <trkpt lat="49.46029" lon="2.02989">
        <ele>122.00815582275</ele>
        <time>2017-05-21T08:47:29.000Z</time>
      </trkpt>
      <trkpt lat="49.4602" lon="2.02981">
        <ele>122.755027771</ele>
        <time>2017-05-21T08:47:32.000Z</time>
      </trkpt>
      <trkpt lat="49.46018" lon="2.02972">
        <ele>123.41804504395</ele>
        <time>2017-05-21T08:47:35.000Z</time>
      </trkpt>
      <trkpt lat="49.46017" lon="2.02964">
        <ele>123.94924163818</ele>
        <time>2017-05-21T08:47:38.000Z</time>
      </trkpt>
      <trkpt lat="49.4602" lon="2.02948">
        <ele>124.2568359375</ele>
        <time>2017-05-21T08:47:41.000Z</time>
      </trkpt>
      <trkpt lat="49.46023" lon="2.02931">
        <ele>124.3662109375</ele>
        <time>2017-05-21T08:47:44.000Z</time>
      </trkpt>
      <trkpt lat="49.46024" lon="2.02918">
        <ele>124.2978515625</ele>
        <time>2017-05-21T08:47:46.000Z</time>
      </trkpt>
      <trkpt lat="49.46024" lon="2.02904">
        <ele>124.11624908447</ele>
        <time>2017-05-21T08:47:48.000Z</time>
      </trkpt>
      <trkpt lat="49.46019" lon="2.02885">
        <ele>123.88552093506</ele>
        <time>2017-05-21T08:47:51.000Z</time>
      </trkpt>
      <trkpt lat="49.46018" lon="2.02876">
        <ele>123.68381500244</ele>
        <time>2017-05-21T08:47:53.000Z</time>
      </trkpt>
      <trkpt lat="49.4602" lon="2.02865">
        <ele>123.43138122559</ele>
        <time>2017-05-21T08:47:56.000Z</time>
      </trkpt>
      <trkpt lat="49.4602" lon="2.02856">
        <ele>123.14437103271</ele>
        <time>2017-05-21T08:47:58.000Z</time>
      </trkpt>
      <trkpt lat="49.46016" lon="2.02835">
        <ele>122.88747406006</ele>
        <time>2017-05-21T08:48:01.000Z</time>
      </trkpt>
      <trkpt lat="49.46012" lon="2.02821">
        <ele>122.66101074219</ele>
        <time>2017-05-21T08:48:03.000Z</time>
      </trkpt>
      <trkpt lat="49.46006" lon="2.02802">
        <ele>122.44140625</ele>
        <time>2017-05-21T08:48:05.000Z</time>
      </trkpt>
      <trkpt lat="49.45996" lon="2.02784">
        <ele>122.38258361816</ele>
        <time>2017-05-21T08:48:07.000Z</time>
      </trkpt>
      <trkpt lat="49.45982" lon="2.02765">
        <ele>122.51000976562</ele>
        <time>2017-05-21T08:48:10.000Z</time>
      </trkpt>
      <trkpt lat="49.45972" lon="2.02749">
        <ele>122.78408050537</ele>
        <time>2017-05-21T08:48:13.000Z</time>
      </trkpt>
      <trkpt lat="49.45965" lon="2.02735">
        <ele>123.05265808105</ele>
        <time>2017-05-21T08:48:15.000Z</time>
      </trkpt>
      <trkpt lat="49.45959" lon="2.02724">
        <ele>123.34704589844</ele>
        <time>2017-05-21T08:48:17.000Z</time>
      </trkpt>
      <trkpt lat="49.45953" lon="2.02715">
        <ele>123.62215423584</ele>
        <time>2017-05-21T08:48:19.000Z</time>
      </trkpt>
      <trkpt lat="49.45946" lon="2.02704">
        <ele>123.78601074219</ele>
        <time>2017-05-21T08:48:22.000Z</time>
      </trkpt>
      <trkpt lat="49.45942" lon="2.02687">
        <ele>123.76147460938</ele>
        <time>2017-05-21T08:48:25.000Z</time>
      </trkpt>
      <trkpt lat="49.45942" lon="2.02678">
        <ele>123.66198730469</ele>
        <time>2017-05-21T08:48:28.000Z</time>
      </trkpt>
      <trkpt lat="49.45942" lon="2.02671">
        <ele>123.46740722656</ele>
        <time>2017-05-21T08:48:30.000Z</time>
      </trkpt>
      <trkpt lat="49.45945" lon="2.02661">
        <ele>123.13687896729</ele>
        <time>2017-05-21T08:48:33.000Z</time>
      </trkpt>
      <trkpt lat="49.45946" lon="2.02651">
        <ele>122.73488616943</ele>
        <time>2017-05-21T08:48:36.000Z</time>
      </trkpt>
      <trkpt lat="49.45948" lon="2.02643">
        <ele>122.35389709473</ele>
        <time>2017-05-21T08:48:38.000Z</time>
      </trkpt>
      <trkpt lat="49.4595" lon="2.02638">
        <ele>122.00789642334</ele>
        <time>2017-05-21T08:48:40.000Z</time>
      </trkpt>
      <trkpt lat="49.45953" lon="2.0263">
        <ele>121.69631195068</ele>
        <time>2017-05-21T08:48:43.000Z</time>
      </trkpt>
      <trkpt lat="49.45956" lon="2.02621">
        <ele>121.42022705078</ele>
        <time>2017-05-21T08:48:46.000Z</time>
      </trkpt>
      <trkpt lat="49.45962" lon="2.02609">
        <ele>121.11159515381</ele>
        <time>2017-05-21T08:48:49.000Z</time>
      </trkpt>
      <trkpt lat="49.45968" lon="2.02587">
        <ele>120.80782318115</ele>
        <time>2017-05-21T08:48:52.000Z</time>
      </trkpt>
      <trkpt lat="49.45965" lon="2.0257">
        <ele>120.61259460449</ele>
        <time>2017-05-21T08:48:55.000Z</time>
      </trkpt>
      <trkpt lat="49.45959" lon="2.02556">
        <ele>120.53869628906</ele>
        <time>2017-05-21T08:48:58.000Z</time>
      </trkpt>
      <trkpt lat="49.45956" lon="2.02547">
        <ele>120.56679534912</ele>
        <time>2017-05-21T08:49:00.000Z</time>
      </trkpt>
      <trkpt lat="49.45954" lon="2.02534">
        <ele>120.71852874756</ele>
        <time>2017-05-21T08:49:03.000Z</time>
      </trkpt>
      <trkpt lat="49.45951" lon="2.0252">
        <ele>120.96850585938</ele>
        <time>2017-05-21T08:49:06.000Z</time>
      </trkpt>
      <trkpt lat="49.45948" lon="2.02507">
        <ele>121.19401550293</ele>
        <time>2017-05-21T08:49:09.000Z</time>
      </trkpt>
      <trkpt lat="49.45945" lon="2.02493">
        <ele>121.38122558594</ele>
        <time>2017-05-21T08:49:12.000Z</time>
      </trkpt>
      <trkpt lat="49.45943" lon="2.02485">
        <ele>121.55204772949</ele>
        <time>2017-05-21T08:49:14.000Z</time>
      </trkpt>
      <trkpt lat="49.45941" lon="2.02476">
        <ele>121.70512390137</ele>
        <time>2017-05-21T08:49:17.000Z</time>
      </trkpt>
      <trkpt lat="49.45937" lon="2.02466">
        <ele>121.8357925415</ele>
        <time>2017-05-21T08:49:20.000Z</time>
      </trkpt>
      <trkpt lat="49.45937" lon="2.02453">
        <ele>121.95697021484</ele>
        <time>2017-05-21T08:49:23.000Z</time>
      </trkpt>
      <trkpt lat="49.45936" lon="2.02444">
        <ele>122.05519866943</ele>
        <time>2017-05-21T08:49:25.000Z</time>
      </trkpt>
      <trkpt lat="49.45932" lon="2.0243">
        <ele>122.1392364502</ele>
        <time>2017-05-21T08:49:28.000Z</time>
      </trkpt>
      <trkpt lat="49.45926" lon="2.02423">
        <ele>122.18713378906</ele>
        <time>2017-05-21T08:49:30.000Z</time>
      </trkpt>
      <trkpt lat="49.4592" lon="2.02411">
        <ele>122.21842193604</ele>
        <time>2017-05-21T08:49:33.000Z</time>
      </trkpt>
      <trkpt lat="49.45918" lon="2.02401">
        <ele>122.26181793213</ele>
        <time>2017-05-21T08:49:35.000Z</time>
      </trkpt>
      <trkpt lat="49.45912" lon="2.02383">
        <ele>122.40116119385</ele>
        <time>2017-05-21T08:49:38.000Z</time>
      </trkpt>
      <trkpt lat="49.45907" lon="2.02367">
        <ele>122.62017822266</ele>
        <time>2017-05-21T08:49:41.000Z</time>
      </trkpt>
      <trkpt lat="49.45903" lon="2.02351">
        <ele>122.92063140869</ele>
        <time>2017-05-21T08:49:44.000Z</time>
      </trkpt>
      <trkpt lat="49.45901" lon="2.02342">
        <ele>123.25382232666</ele>
        <time>2017-05-21T08:49:46.000Z</time>
      </trkpt>
      <trkpt lat="49.45897" lon="2.02329">
        <ele>123.60760498047</ele>
        <time>2017-05-21T08:49:49.000Z</time>
      </trkpt>
      <trkpt lat="49.45895" lon="2.02318">
        <ele>123.93193054199</ele>
        <time>2017-05-21T08:49:52.000Z</time>
      </trkpt>
      <trkpt lat="49.45893" lon="2.02308">
        <ele>124.239402771</ele>
        <time>2017-05-21T08:49:55.000Z</time>
      </trkpt>
      <trkpt lat="49.4589" lon="2.023">
        <ele>124.53713226318</ele>
        <time>2017-05-21T08:49:58.000Z</time>
      </trkpt>
      <trkpt lat="49.45887" lon="2.0229">
        <ele>124.87331390381</ele>
        <time>2017-05-21T08:50:01.000Z</time>
      </trkpt>
      <trkpt lat="49.45882" lon="2.02279">
        <ele>125.23266601562</ele>
        <time>2017-05-21T08:50:04.000Z</time>
      </trkpt>
      <trkpt lat="49.45876" lon="2.02269">
        <ele>125.58184814453</ele>
        <time>2017-05-21T08:50:07.000Z</time>
      </trkpt>
      <trkpt lat="49.45874" lon="2.02266">
        <ele>125.88771820068</ele>
        <time>2017-05-21T08:50:09.000Z</time>
      </trkpt>
      <trkpt lat="49.4587" lon="2.02255">
        <ele>126.21657562256</ele>
        <time>2017-05-21T08:50:12.000Z</time>
      </trkpt>
      <trkpt lat="49.45867" lon="2.02242">
        <ele>126.50185394287</ele>
        <time>2017-05-21T08:50:15.000Z</time>
      </trkpt>
      <trkpt lat="49.45866" lon="2.02233">
        <ele>126.7015838623</ele>
        <time>2017-05-21T08:50:17.000Z</time>
      </trkpt>
      <trkpt lat="49.45863" lon="2.02219">
        <ele>126.8193359375</ele>
        <time>2017-05-21T08:50:20.000Z</time>
      </trkpt>
      <trkpt lat="49.45857" lon="2.02207">
        <ele>126.88891601562</ele>
        <time>2017-05-21T08:50:23.000Z</time>
      </trkpt>
      <trkpt lat="49.45853" lon="2.02201">
        <ele>126.85970306396</ele>
        <time>2017-05-21T08:50:25.000Z</time>
      </trkpt>
      <trkpt lat="49.45849" lon="2.02194">
        <ele>126.78031921387</ele>
        <time>2017-05-21T08:50:28.000Z</time>
      </trkpt>
      <trkpt lat="49.45849" lon="2.02186">
        <ele>126.69255065918</ele>
        <time>2017-05-21T08:50:31.000Z</time>
      </trkpt>
      <trkpt lat="49.4585" lon="2.02176">
        <ele>126.6103515625</ele>
        <time>2017-05-21T08:50:33.000Z</time>
      </trkpt>
      <trkpt lat="49.45853" lon="2.02165">
        <ele>126.54943847656</ele>
        <time>2017-05-21T08:50:36.000Z</time>
      </trkpt>
      <trkpt lat="49.45857" lon="2.02152">
        <ele>126.52656555176</ele>
        <time>2017-05-21T08:50:39.000Z</time>
      </trkpt>
      <trkpt lat="49.45856" lon="2.02148">
        <ele>126.52109527588</ele>
        <time>2017-05-21T08:50:41.000Z</time>
      </trkpt>
      <trkpt lat="49.45856" lon="2.0214">
        <ele>126.52954101562</ele>
        <time>2017-05-21T08:50:44.000Z</time>
      </trkpt>
      <trkpt lat="49.45857" lon="2.02135">
        <ele>126.546875</ele>
        <time>2017-05-21T08:50:46.000Z</time>
      </trkpt>
      <trkpt lat="49.45859" lon="2.02129">
        <ele>126.57421875</ele>
        <time>2017-05-21T08:50:48.000Z</time>
      </trkpt>
      <trkpt lat="49.45863" lon="2.0212">
        <ele>126.6015625</ele>
        <time>2017-05-21T08:50:51.000Z</time>
      </trkpt>
      <trkpt lat="49.45866" lon="2.02112">
        <ele>126.646484375</ele>
        <time>2017-05-21T08:50:54.000Z</time>
      </trkpt>
      <trkpt lat="49.45869" lon="2.02102">
        <ele>126.708984375</ele>
        <time>2017-05-21T08:50:57.000Z</time>
      </trkpt>
      <trkpt lat="49.45875" lon="2.02091">
        <ele>126.796875</ele>
        <time>2017-05-21T08:51:00.000Z</time>
      </trkpt>
      <trkpt lat="49.4588" lon="2.02085">
        <ele>126.8984375</ele>
        <time>2017-05-21T08:51:03.000Z</time>
      </trkpt>
      <trkpt lat="49.45885" lon="2.02084">
        <ele>127.001953125</ele>
        <time>2017-05-21T08:51:05.000Z</time>
      </trkpt>
      <trkpt lat="49.45886" lon="2.02084">
        <ele>127.099609375</ele>
        <time>2017-05-21T08:51:07.000Z</time>
      </trkpt>
      <trkpt lat="49.45889" lon="2.02087">
        <ele>127.1953125</ele>
        <time>2017-05-21T08:51:10.000Z</time>
      </trkpt>
      <trkpt lat="49.4589" lon="2.02092">
        <ele>127.267578125</ele>
        <time>2017-05-21T08:51:13.000Z</time>
      </trkpt>
      <trkpt lat="49.45893" lon="2.02099">
        <ele>127.330078125</ele>
        <time>2017-05-21T08:51:14.000Z</time>
      </trkpt>
      <trkpt lat="49.45897" lon="2.02107">
        <ele>127.38671875</ele>
        <time>2017-05-21T08:51:17.000Z</time>
      </trkpt>
      <trkpt lat="49.45897" lon="2.02113">
        <ele>127.439453125</ele>
        <time>2017-05-21T08:51:19.000Z</time>
      </trkpt>
      <trkpt lat="49.45901" lon="2.02123">
        <ele>127.49609375</ele>
        <time>2017-05-21T08:51:21.000Z</time>
      </trkpt>
      <trkpt lat="49.45909" lon="2.02143">
        <ele>127.5859375</ele>
        <time>2017-05-21T08:51:24.000Z</time>
      </trkpt>
      <trkpt lat="49.45912" lon="2.02158">
        <ele>127.677734375</ele>
        <time>2017-05-21T08:51:26.000Z</time>
      </trkpt>
      <trkpt lat="49.45919" lon="2.0218">
        <ele>127.7359161377</ele>
        <time>2017-05-21T08:51:30.000Z</time>
      </trkpt>
      <trkpt lat="49.4593" lon="2.02206">
        <ele>127.70143890381</ele>
        <time>2017-05-21T08:51:32.000Z</time>
      </trkpt>
      <trkpt lat="49.45938" lon="2.02226">
        <ele>127.58292388916</ele>
        <time>2017-05-21T08:51:34.000Z</time>
      </trkpt>
      <trkpt lat="49.45956" lon="2.02255">
        <ele>127.30039215088</ele>
        <time>2017-05-21T08:51:37.000Z</time>
      </trkpt>
      <trkpt lat="49.45963" lon="2.02273">
        <ele>126.90629577637</ele>
        <time>2017-05-21T08:51:39.000Z</time>
      </trkpt>
      <trkpt lat="49.45976" lon="2.02291">
        <ele>126.44635009766</ele>
        <time>2017-05-21T08:51:42.000Z</time>
      </trkpt>
      <trkpt lat="49.45986" lon="2.02309">
        <ele>126.01914215088</ele>
        <time>2017-05-21T08:51:45.000Z</time>
      </trkpt>
      <trkpt lat="49.45991" lon="2.02322">
        <ele>125.62412261963</ele>
        <time>2017-05-21T08:51:47.000Z</time>
      </trkpt>
      <trkpt lat="49.45995" lon="2.02346">
        <ele>125.2982635498</ele>
        <time>2017-05-21T08:51:50.000Z</time>
      </trkpt>
      <trkpt lat="49.45999" lon="2.0237">
        <ele>125.02268218994</ele>
        <time>2017-05-21T08:51:53.000Z</time>
      </trkpt>
      <trkpt lat="49.46003" lon="2.02389">
        <ele>124.76908874512</ele>
        <time>2017-05-21T08:51:56.000Z</time>
      </trkpt>
      <trkpt lat="49.4601" lon="2.0241">
        <ele>124.48972320557</ele>
        <time>2017-05-21T08:51:59.000Z</time>
      </trkpt>
      <trkpt lat="49.46014" lon="2.02431">
        <ele>124.11191558838</ele>
        <time>2017-05-21T08:52:02.000Z</time>
      </trkpt>
      <trkpt lat="49.46023" lon="2.02446">
        <ele>123.65090179443</ele>
        <time>2017-05-21T08:52:04.000Z</time>
      </trkpt>
      <trkpt lat="49.4603" lon="2.0248">
        <ele>122.99631500244</ele>
        <time>2017-05-21T08:52:07.000Z</time>
      </trkpt>
      <trkpt lat="49.46048" lon="2.02511">
        <ele>122.19532775879</ele>
        <time>2017-05-21T08:52:10.000Z</time>
      </trkpt>
      <trkpt lat="49.46049" lon="2.02533">
        <ele>121.40140533447</ele>
        <time>2017-05-21T08:52:12.000Z</time>
      </trkpt>
      <trkpt lat="49.46058" lon="2.02556">
        <ele>120.65258789062</ele>
        <time>2017-05-21T08:52:15.000Z</time>
      </trkpt>
      <trkpt lat="49.46061" lon="2.02572">
        <ele>119.99367523193</ele>
        <time>2017-05-21T08:52:17.000Z</time>
      </trkpt>
      <trkpt lat="49.46069" lon="2.02598">
        <ele>119.41107177734</ele>
        <time>2017-05-21T08:52:20.000Z</time>
      </trkpt>
      <trkpt lat="49.46076" lon="2.02607">
        <ele>118.95023345947</ele>
        <time>2017-05-21T08:52:22.000Z</time>
      </trkpt>
      <trkpt lat="49.4608" lon="2.02624">
        <ele>118.39471435547</ele>
        <time>2017-05-21T08:52:24.000Z</time>
      </trkpt>
      <trkpt lat="49.46086" lon="2.02642">
        <ele>117.70660400391</ele>
        <time>2017-05-21T08:52:26.000Z</time>
      </trkpt>
      <trkpt lat="49.46101" lon="2.02672">
        <ele>116.62361907959</ele>
        <time>2017-05-21T08:52:29.000Z</time>
      </trkpt>
      <trkpt lat="49.46112" lon="2.02693">
        <ele>115.37168121338</ele>
        <time>2017-05-21T08:52:31.000Z</time>
      </trkpt>
      <trkpt lat="49.46128" lon="2.02727">
        <ele>113.66011047363</ele>
        <time>2017-05-21T08:52:34.000Z</time>
      </trkpt>
      <trkpt lat="49.46141" lon="2.02755">
        <ele>111.70308685303</ele>
        <time>2017-05-21T08:52:37.000Z</time>
      </trkpt>
      <trkpt lat="49.46144" lon="2.02774">
        <ele>109.97054290771</ele>
        <time>2017-05-21T08:52:39.000Z</time>
      </trkpt>
      <trkpt lat="49.46149" lon="2.02794">
        <ele>108.6548614502</ele>
        <time>2017-05-21T08:52:41.000Z</time>
      </trkpt>
      <trkpt lat="49.46156" lon="2.02818">
        <ele>107.62577056885</ele>
        <time>2017-05-21T08:52:44.000Z</time>
      </trkpt>
      <trkpt lat="49.46165" lon="2.02837">
        <ele>107.00639343262</ele>
        <time>2017-05-21T08:52:46.000Z</time>
      </trkpt>
      <trkpt lat="49.46168" lon="2.02863">
        <ele>106.78476715088</ele>
        <time>2017-05-21T08:52:49.000Z</time>
      </trkpt>
      <trkpt lat="49.46168" lon="2.02876">
        <ele>106.59586334229</ele>
        <time>2017-05-21T08:52:51.000Z</time>
      </trkpt>
      <trkpt lat="49.46173" lon="2.02887">
        <ele>106.32466888428</ele>
        <time>2017-05-21T08:52:58.000Z</time>
      </trkpt>
      <trkpt lat="49.46177" lon="2.02886">
        <ele>106.0101776123</ele>
        <time>2017-05-21T08:52:58.000Z</time>
      </trkpt>
      <trkpt lat="49.46181" lon="2.02886">
        <ele>105.74603271484</ele>
        <time>2017-05-21T08:53:01.000Z</time>
      </trkpt>
      <trkpt lat="49.46183" lon="2.02892">
        <ele>105.44609069824</ele>
        <time>2017-05-21T08:53:02.000Z</time>
      </trkpt>
      <trkpt lat="49.46185" lon="2.02898">
        <ele>105.07316589355</ele>
        <time>2017-05-21T08:53:05.000Z</time>
      </trkpt>
      <trkpt lat="49.46185" lon="2.02902">
        <ele>104.80474853516</ele>
        <time>2017-05-21T08:53:07.000Z</time>
      </trkpt>
      <trkpt lat="49.46186" lon="2.02907">
        <ele>104.60807800293</ele>
        <time>2017-05-21T08:53:09.000Z</time>
      </trkpt>
      <trkpt lat="49.46186" lon="2.02911">
        <ele>104.48962402344</ele>
        <time>2017-05-21T08:53:11.000Z</time>
      </trkpt>
      <trkpt lat="49.46186" lon="2.02916">
        <ele>104.43776702881</ele>
        <time>2017-05-21T08:53:14.000Z</time>
      </trkpt>
      <trkpt lat="49.4619" lon="2.02922">
        <ele>104.2984161377</ele>
        <time>2017-05-21T08:53:17.000Z</time>
      </trkpt>
      <trkpt lat="49.46194" lon="2.02923">
        <ele>104.04343414307</ele>
        <time>2017-05-21T08:53:19.000Z</time>
      </trkpt>
      <trkpt lat="49.46198" lon="2.02922">
        <ele>103.72874450684</ele>
        <time>2017-05-21T08:53:22.000Z</time>
      </trkpt>
      <trkpt lat="49.46202" lon="2.02923">
        <ele>103.30879211426</ele>
        <time>2017-05-21T08:53:25.000Z</time>
      </trkpt>
      <trkpt lat="49.46203" lon="2.02923">
        <ele>102.83299255371</ele>
        <time>2017-05-21T08:53:27.000Z</time>
      </trkpt>
      <trkpt lat="49.46206" lon="2.02922">
        <ele>102.41623687744</ele>
        <time>2017-05-21T08:53:30.000Z</time>
      </trkpt>
      <trkpt lat="49.46208" lon="2.02919">
        <ele>102.0830078125</ele>
        <time>2017-05-21T08:53:33.000Z</time>
      </trkpt>
      <trkpt lat="49.46209" lon="2.02918">
        <ele>101.80941009521</ele>
        <time>2017-05-21T08:53:36.000Z</time>
      </trkpt>
      <trkpt lat="49.46209" lon="2.02919">
        <ele>101.62034606934</ele>
        <time>2017-05-21T08:53:40.000Z</time>
      </trkpt>
      <trkpt lat="49.4621" lon="2.02922">
        <ele>101.44917297363</ele>
        <time>2017-05-21T08:53:42.000Z</time>
      </trkpt>
      <trkpt lat="49.46212" lon="2.02925">
        <ele>101.25798034668</ele>
        <time>2017-05-21T08:53:45.000Z</time>
      </trkpt>
      <trkpt lat="49.46215" lon="2.02919">
        <ele>101.0521697998</ele>
        <time>2017-05-21T08:53:48.000Z</time>
      </trkpt>
      <trkpt lat="49.46217" lon="2.02912">
        <ele>100.82847595215</ele>
        <time>2017-05-21T08:53:51.000Z</time>
      </trkpt>
      <trkpt lat="49.46219" lon="2.02907">
        <ele>100.60255432129</ele>
        <time>2017-05-21T08:53:54.000Z</time>
      </trkpt>
      <trkpt lat="49.4622" lon="2.02905">
        <ele>100.38430023193</ele>
        <time>2017-05-21T08:53:56.000Z</time>
      </trkpt>
      <trkpt lat="49.46222" lon="2.02902">
        <ele>100.19287109375</ele>
        <time>2017-05-21T08:53:58.000Z</time>
      </trkpt>
      <trkpt lat="49.46222" lon="2.02897">
        <ele>100.08799743652</ele>
        <time>2017-05-21T08:54:01.000Z</time>
      </trkpt>
      <trkpt lat="49.4622" lon="2.02893">
        <ele>100.07598876953</ele>
        <time>2017-05-21T08:54:03.000Z</time>
      </trkpt>
      <trkpt lat="49.46217" lon="2.02889">
        <ele>100.17314147949</ele>
        <time>2017-05-21T08:54:06.000Z</time>
      </trkpt>
      <trkpt lat="49.46214" lon="2.02885">
        <ele>100.36196136475</ele>
        <time>2017-05-21T08:54:08.000Z</time>
      </trkpt>
      <trkpt lat="49.46213" lon="2.02881">
        <ele>100.64127349854</ele>
        <time>2017-05-21T08:54:11.000Z</time>
      </trkpt>
      <trkpt lat="49.46211" lon="2.02878">
        <ele>100.92956542969</ele>
        <time>2017-05-21T08:54:14.000Z</time>
      </trkpt>
      <trkpt lat="49.46212" lon="2.02875">
        <ele>101.1463394165</ele>
        <time>2017-05-21T08:54:17.000Z</time>
      </trkpt>
      <trkpt lat="49.46211" lon="2.02871">
        <ele>101.29940795898</ele>
        <time>2017-05-21T08:54:20.000Z</time>
      </trkpt>
      <trkpt lat="49.46208" lon="2.02871">
        <ele>101.4596862793</ele>
        <time>2017-05-21T08:54:22.000Z</time>
      </trkpt>
      <trkpt lat="49.46204" lon="2.02872">
        <ele>101.67562103271</ele>
        <time>2017-05-21T08:54:25.000Z</time>
      </trkpt>
      <trkpt lat="49.46204" lon="2.02874">
        <ele>101.8295135498</ele>
        <time>2017-05-21T08:54:28.000Z</time>
      </trkpt>
      <trkpt lat="49.46206" lon="2.02875">
        <ele>101.96851348877</ele>
        <time>2017-05-21T08:54:30.000Z</time>
      </trkpt>
      <trkpt lat="49.46207" lon="2.02873">
        <ele>102.0666885376</ele>
        <time>2017-05-21T08:54:32.000Z</time>
      </trkpt>
      <trkpt lat="49.46209" lon="2.02872">
        <ele>102.03797912598</ele>
        <time>2017-05-21T08:54:34.000Z</time>
      </trkpt>
      <trkpt lat="49.4621" lon="2.02873">
        <ele>101.89949798584</ele>
        <time>2017-05-21T08:54:41.000Z</time>
      </trkpt>
      <trkpt lat="49.46212" lon="2.02875">
        <ele>101.73134613037</ele>
        <time>2017-05-21T08:54:50.000Z</time>
      </trkpt>
      <trkpt lat="49.46215" lon="2.02877">
        <ele>101.522605896</ele>
        <time>2017-05-21T08:54:52.000Z</time>
      </trkpt>
      <trkpt lat="49.46218" lon="2.02879">
        <ele>101.25187683105</ele>
        <time>2017-05-21T08:54:55.000Z</time>
      </trkpt>
      <trkpt lat="49.46219" lon="2.02883">
        <ele>100.99815368652</ele>
        <time>2017-05-21T08:54:57.000Z</time>
      </trkpt>
      <trkpt lat="49.46222" lon="2.02888">
        <ele>100.67558288574</ele>
        <time>2017-05-21T08:55:00.000Z</time>
      </trkpt>
      <trkpt lat="49.46225" lon="2.02885">
        <ele>100.35203552246</ele>
        <time>2017-05-21T08:55:02.000Z</time>
      </trkpt>
      <trkpt lat="49.46228" lon="2.0288">
        <ele>100.02548980713</ele>
        <time>2017-05-21T08:55:05.000Z</time>
      </trkpt>
      <trkpt lat="49.46232" lon="2.0288">
        <ele>99.713417053223</ele>
        <time>2017-05-21T08:55:08.000Z</time>
      </trkpt>
      <trkpt lat="49.46236" lon="2.02878">
        <ele>99.34024810791</ele>
        <time>2017-05-21T08:55:11.000Z</time>
      </trkpt>
      <trkpt lat="49.46239" lon="2.02868">
        <ele>99.020141601562</ele>
        <time>2017-05-21T08:55:14.000Z</time>
      </trkpt>
      <trkpt lat="49.46239" lon="2.02861">
        <ele>98.777633666992</ele>
        <time>2017-05-21T08:55:16.000Z</time>
      </trkpt>
      <trkpt lat="49.4624" lon="2.02851">
        <ele>98.61905670166</ele>
        <time>2017-05-21T08:55:19.000Z</time>
      </trkpt>
      <trkpt lat="49.4624" lon="2.02846">
        <ele>98.561111450195</ele>
        <time>2017-05-21T08:55:21.000Z</time>
      </trkpt>
      <trkpt lat="49.46241" lon="2.02844">
        <ele>98.58381652832</ele>
        <time>2017-05-21T08:55:25.000Z</time>
      </trkpt>
      <trkpt lat="49.46242" lon="2.02842">
        <ele>98.624099731445</ele>
        <time>2017-05-21T08:55:27.000Z</time>
      </trkpt>
      <trkpt lat="49.46243" lon="2.02841">
        <ele>98.618240356445</ele>
        <time>2017-05-21T08:55:29.000Z</time>
      </trkpt>
      <trkpt lat="49.46243" lon="2.02839">
        <ele>98.599594116211</ele>
        <time>2017-05-21T08:55:32.000Z</time>
      </trkpt>
      <trkpt lat="49.46243" lon="2.02838">
        <ele>98.575424194336</ele>
        <time>2017-05-21T08:55:35.000Z</time>
      </trkpt>
      <trkpt lat="49.46243" lon="2.02836">
        <ele>98.569442749023</ele>
        <time>2017-05-21T08:55:37.000Z</time>
      </trkpt>
      <trkpt lat="49.46243" lon="2.02832">
        <ele>98.599739074707</ele>
        <time>2017-05-21T08:55:40.000Z</time>
      </trkpt>
      <trkpt lat="49.46244" lon="2.02828">
        <ele>98.667274475098</ele>
        <time>2017-05-21T08:55:42.000Z</time>
      </trkpt>
      <trkpt lat="49.46244" lon="2.02827">
        <ele>98.739517211914</ele>
        <time>2017-05-21T08:55:44.000Z</time>
      </trkpt>
      <trkpt lat="49.46246" lon="2.02826">
        <ele>98.759048461914</ele>
        <time>2017-05-21T08:55:46.000Z</time>
      </trkpt>
      <trkpt lat="49.46247" lon="2.02824">
        <ele>98.764846801758</ele>
        <time>2017-05-21T08:55:49.000Z</time>
      </trkpt>
      <trkpt lat="49.46249" lon="2.02819">
        <ele>98.770790100098</ele>
        <time>2017-05-21T08:55:52.000Z</time>
      </trkpt>
      <trkpt lat="49.46247" lon="2.02813">
        <ele>98.84831237793</ele>
        <time>2017-05-21T08:55:57.000Z</time>
      </trkpt>
      <trkpt lat="49.46247" lon="2.02811">
        <ele>98.94734954834</ele>
        <time>2017-05-21T08:55:59.000Z</time>
      </trkpt>
      <trkpt lat="49.46248" lon="2.02807">
        <ele>99.084762573242</ele>
        <time>2017-05-21T08:56:11.000Z</time>
      </trkpt>
      <trkpt lat="49.4625" lon="2.0281">
        <ele>99.173377990723</ele>
        <time>2017-05-21T08:56:16.000Z</time>
      </trkpt>
      <trkpt lat="49.4625" lon="2.0281">
        <ele>99.173377990723</ele>
        <time>2017-05-21T08:56:36.000Z</time>
      </trkpt>
      <trkpt lat="49.46249" lon="2.02807">
        <ele>99.284439086914</ele>
        <time>2017-05-21T08:57:12.000Z</time>
      </trkpt>
      <trkpt lat="49.46248" lon="2.02809">
        <ele>99.297035217285</ele>
        <time>2017-05-21T08:57:16.000Z</time>
      </trkpt>
      <trkpt lat="49.46248" lon="2.02811">
        <ele>99.271331787109</ele>
        <time>2017-05-21T08:57:18.000Z</time>
      </trkpt>
      <trkpt lat="49.46247" lon="2.02821">
        <ele>99.172988891602</ele>
        <time>2017-05-21T08:57:21.000Z</time>
      </trkpt>
      <trkpt lat="49.46247" lon="2.02831">
        <ele>99.016052246094</ele>
        <time>2017-05-21T08:57:23.000Z</time>
      </trkpt>
      <trkpt lat="49.46247" lon="2.02844">
        <ele>98.748031616211</ele>
        <time>2017-05-21T08:57:26.000Z</time>
      </trkpt>
      <trkpt lat="49.46247" lon="2.02856">
        <ele>98.440887451172</ele>
        <time>2017-05-21T08:57:28.000Z</time>
      </trkpt>
      <trkpt lat="49.4625" lon="2.02877">
        <ele>97.993804931641</ele>
        <time>2017-05-21T08:57:31.000Z</time>
      </trkpt>
      <trkpt lat="49.46253" lon="2.02891">
        <ele>97.62678527832</ele>
        <time>2017-05-21T08:57:33.000Z</time>
      </trkpt>
      <trkpt lat="49.46255" lon="2.02905">
        <ele>97.386093139648</ele>
        <time>2017-05-21T08:57:35.000Z</time>
      </trkpt>
      <trkpt lat="49.46257" lon="2.02919">
        <ele>97.16251373291</ele>
        <time>2017-05-21T08:57:38.000Z</time>
      </trkpt>
      <trkpt lat="49.46255" lon="2.02928">
        <ele>96.860656738281</ele>
        <time>2017-05-21T08:57:40.000Z</time>
      </trkpt>
      <trkpt lat="49.46255" lon="2.02937">
        <ele>96.610542297363</ele>
        <time>2017-05-21T08:57:43.000Z</time>
      </trkpt>
      <trkpt lat="49.46255" lon="2.02941">
        <ele>96.308006286621</ele>
        <time>2017-05-21T08:57:45.000Z</time>
      </trkpt>
      <trkpt lat="49.46255" lon="2.02945">
        <ele>95.954742431641</ele>
        <time>2017-05-21T08:57:48.000Z</time>
      </trkpt>
      <trkpt lat="49.46257" lon="2.0295">
        <ele>95.670425415039</ele>
        <time>2017-05-21T08:57:51.000Z</time>
      </trkpt>
      <trkpt lat="49.46259" lon="2.02955">
        <ele>95.548271179199</ele>
        <time>2017-05-21T08:57:53.000Z</time>
      </trkpt>
      <trkpt lat="49.4626" lon="2.02963">
        <ele>95.476318359375</ele>
        <time>2017-05-21T08:57:56.000Z</time>
      </trkpt>
      <trkpt lat="49.4626" lon="2.02971">
        <ele>95.35432434082</ele>
        <time>2017-05-21T08:57:58.000Z</time>
      </trkpt>
      <trkpt lat="49.4626" lon="2.02986">
        <ele>95.165473937988</ele>
        <time>2017-05-21T08:58:00.000Z</time>
      </trkpt>
      <trkpt lat="49.46263" lon="2.0301">
        <ele>94.789360046387</ele>
        <time>2017-05-21T08:58:03.000Z</time>
      </trkpt>
      <trkpt lat="49.46265" lon="2.03025">
        <ele>94.25569152832</ele>
        <time>2017-05-21T08:58:05.000Z</time>
      </trkpt>
      <trkpt lat="49.46265" lon="2.03042">
        <ele>93.595039367676</ele>
        <time>2017-05-21T08:58:07.000Z</time>
      </trkpt>
      <trkpt lat="49.46268" lon="2.03066">
        <ele>92.820854187012</ele>
        <time>2017-05-21T08:58:10.000Z</time>
      </trkpt>
      <trkpt lat="49.46272" lon="2.03088">
        <ele>92.08031463623</ele>
        <time>2017-05-21T08:58:13.000Z</time>
      </trkpt>
      <trkpt lat="49.46275" lon="2.03103">
        <ele>91.550773620605</ele>
        <time>2017-05-21T08:58:19.000Z</time>
      </trkpt>
      <trkpt lat="49.46278" lon="2.03124">
        <ele>91.200759887695</ele>
        <time>2017-05-21T08:58:19.000Z</time>
      </trkpt>
      <trkpt lat="49.4628" lon="2.03139">
        <ele>91.04264831543</ele>
        <time>2017-05-21T08:58:20.000Z</time>
      </trkpt>
      <trkpt lat="49.46284" lon="2.0316">
        <ele>91.099227905273</ele>
        <time>2017-05-21T08:58:23.000Z</time>
      </trkpt>
      <trkpt lat="49.46286" lon="2.03175">
        <ele>91.238998413086</ele>
        <time>2017-05-21T08:58:25.000Z</time>
      </trkpt>
      <trkpt lat="49.46289" lon="2.03196">
        <ele>91.379829406738</ele>
        <time>2017-05-21T08:58:28.000Z</time>
      </trkpt>
      <trkpt lat="49.46292" lon="2.03218">
        <ele>91.483665466309</ele>
        <time>2017-05-21T08:58:31.000Z</time>
      </trkpt>
      <trkpt lat="49.46295" lon="2.03232">
        <ele>91.582733154297</ele>
        <time>2017-05-21T08:58:33.000Z</time>
      </trkpt>
      <trkpt lat="49.46299" lon="2.03254">
        <ele>91.632041931152</ele>
        <time>2017-05-21T08:58:36.000Z</time>
      </trkpt>
      <trkpt lat="49.46301" lon="2.03277">
        <ele>91.531707763672</ele>
        <time>2017-05-21T08:58:39.000Z</time>
      </trkpt>
      <trkpt lat="49.46302" lon="2.03291">
        <ele>91.297500610352</ele>
        <time>2017-05-21T08:58:41.000Z</time>
      </trkpt>
      <trkpt lat="49.46304" lon="2.03306">
        <ele>90.945816040039</ele>
        <time>2017-05-21T08:58:43.000Z</time>
      </trkpt>
      <trkpt lat="49.46305" lon="2.03328">
        <ele>90.430442810059</ele>
        <time>2017-05-21T08:58:46.000Z</time>
      </trkpt>
      <trkpt lat="49.46307" lon="2.03348">
        <ele>89.772972106934</ele>
        <time>2017-05-21T08:58:49.000Z</time>
      </trkpt>
      <trkpt lat="49.46307" lon="2.03367">
        <ele>89.065811157227</ele>
        <time>2017-05-21T08:58:52.000Z</time>
      </trkpt>
      <trkpt lat="49.46308" lon="2.03389">
        <ele>88.238510131836</ele>
        <time>2017-05-21T08:58:55.000Z</time>
      </trkpt>
      <trkpt lat="49.46308" lon="2.03413">
        <ele>87.28288269043</ele>
        <time>2017-05-21T08:58:58.000Z</time>
      </trkpt>
      <trkpt lat="49.46308" lon="2.03429">
        <ele>86.378799438477</ele>
        <time>2017-05-21T08:59:00.000Z</time>
      </trkpt>
      <trkpt lat="49.46308" lon="2.0345">
        <ele>85.53865814209</ele>
        <time>2017-05-21T08:59:03.000Z</time>
      </trkpt>
      <trkpt lat="49.46313" lon="2.03457">
        <ele>84.869346618652</ele>
        <time>2017-05-21T08:59:06.000Z</time>
      </trkpt>
      <trkpt lat="49.4632" lon="2.03455">
        <ele>84.452087402344</ele>
        <time>2017-05-21T08:59:08.000Z</time>
      </trkpt>
      <trkpt lat="49.46326" lon="2.03453">
        <ele>84.293739318848</ele>
        <time>2017-05-21T08:59:10.000Z</time>
      </trkpt>
      <trkpt lat="49.46334" lon="2.03452">
        <ele>84.289657592773</ele>
        <time>2017-05-21T08:59:13.000Z</time>
      </trkpt>
      <trkpt lat="49.46339" lon="2.03451">
        <ele>84.489669799805</ele>
        <time>2017-05-21T08:59:15.000Z</time>
      </trkpt>
      <trkpt lat="49.46345" lon="2.03447">
        <ele>84.832008361816</ele>
        <time>2017-05-21T08:59:18.000Z</time>
      </trkpt>
      <trkpt lat="49.46349" lon="2.03444">
        <ele>85.204521179199</ele>
        <time>2017-05-21T08:59:20.000Z</time>
      </trkpt>
      <trkpt lat="49.46353" lon="2.03439">
        <ele>85.615562438965</ele>
        <time>2017-05-21T08:59:22.000Z</time>
      </trkpt>
      <trkpt lat="49.46356" lon="2.03434">
        <ele>86.02848815918</ele>
        <time>2017-05-21T08:59:24.000Z</time>
      </trkpt>
      <trkpt lat="49.46359" lon="2.0343">
        <ele>86.39436340332</ele>
        <time>2017-05-21T08:59:26.000Z</time>
      </trkpt>
      <trkpt lat="49.46365" lon="2.03422">
        <ele>86.708930969238</ele>
        <time>2017-05-21T08:59:29.000Z</time>
      </trkpt>
      <trkpt lat="49.46368" lon="2.03418">
        <ele>86.985000610352</ele>
        <time>2017-05-21T08:59:31.000Z</time>
      </trkpt>
      <trkpt lat="49.46373" lon="2.03409">
        <ele>87.313201904297</ele>
        <time>2017-05-21T08:59:34.000Z</time>
      </trkpt>
      <trkpt lat="49.46376" lon="2.03403">
        <ele>87.681976318359</ele>
        <time>2017-05-21T08:59:36.000Z</time>
      </trkpt>
      <trkpt lat="49.46379" lon="2.03397">
        <ele>88.081909179688</ele>
        <time>2017-05-21T08:59:38.000Z</time>
      </trkpt>
      <trkpt lat="49.46383" lon="2.03387">
        <ele>88.535850524902</ele>
        <time>2017-05-21T08:59:41.000Z</time>
      </trkpt>
      <trkpt lat="49.46386" lon="2.03382">
        <ele>89.028350830078</ele>
        <time>2017-05-21T08:59:43.000Z</time>
      </trkpt>
      <trkpt lat="49.46389" lon="2.03376">
        <ele>89.469970703125</ele>
        <time>2017-05-21T08:59:45.000Z</time>
      </trkpt>
      <trkpt lat="49.46392" lon="2.0337">
        <ele>89.889091491699</ele>
        <time>2017-05-21T08:59:47.000Z</time>
      </trkpt>
      <trkpt lat="49.46396" lon="2.03359">
        <ele>90.347518920898</ele>
        <time>2017-05-21T08:59:50.000Z</time>
      </trkpt>
      <trkpt lat="49.464" lon="2.0335">
        <ele>90.776268005371</ele>
        <time>2017-05-21T08:59:53.000Z</time>
      </trkpt>
      <trkpt lat="49.46404" lon="2.03342">
        <ele>91.222099304199</ele>
        <time>2017-05-21T08:59:56.000Z</time>
      </trkpt>
      <trkpt lat="49.46408" lon="2.03332">
        <ele>91.696426391602</ele>
        <time>2017-05-21T08:59:59.000Z</time>
      </trkpt>
      <trkpt lat="49.46412" lon="2.03326">
        <ele>92.236190795898</ele>
        <time>2017-05-21T09:00:01.000Z</time>
      </trkpt>
      <trkpt lat="49.46414" lon="2.0332">
        <ele>92.796821594238</ele>
        <time>2017-05-21T09:00:03.000Z</time>
      </trkpt>
      <trkpt lat="49.46418" lon="2.03311">
        <ele>93.438049316406</ele>
        <time>2017-05-21T09:00:06.000Z</time>
      </trkpt>
      <trkpt lat="49.46421" lon="2.03306">
        <ele>94.095993041992</ele>
        <time>2017-05-21T09:00:08.000Z</time>
      </trkpt>
      <trkpt lat="49.46425" lon="2.03296">
        <ele>94.817970275879</ele>
        <time>2017-05-21T09:00:11.000Z</time>
      </trkpt>
      <trkpt lat="49.46429" lon="2.03285">
        <ele>95.564392089844</ele>
        <time>2017-05-21T09:00:14.000Z</time>
      </trkpt>
      <trkpt lat="49.46433" lon="2.03278">
        <ele>96.258224487305</ele>
        <time>2017-05-21T09:00:16.000Z</time>
      </trkpt>
      <trkpt lat="49.46438" lon="2.03268">
        <ele>96.875717163086</ele>
        <time>2017-05-21T09:00:19.000Z</time>
      </trkpt>
      <trkpt lat="49.46441" lon="2.0326">
        <ele>97.44856262207</ele>
        <time>2017-05-21T09:00:21.000Z</time>
      </trkpt>
      <trkpt lat="49.46446" lon="2.03249">
        <ele>97.915603637695</ele>
        <time>2017-05-21T09:00:24.000Z</time>
      </trkpt>
      <trkpt lat="49.4645" lon="2.03242">
        <ele>98.287879943848</ele>
        <time>2017-05-21T09:00:26.000Z</time>
      </trkpt>
      <trkpt lat="49.46455" lon="2.0323">
        <ele>98.667526245117</ele>
        <time>2017-05-21T09:00:29.000Z</time>
      </trkpt>
      <trkpt lat="49.46458" lon="2.03223">
        <ele>98.986106872559</ele>
        <time>2017-05-21T09:00:31.000Z</time>
      </trkpt>
      <trkpt lat="49.46463" lon="2.03214">
        <ele>99.292015075684</ele>
        <time>2017-05-21T09:00:34.000Z</time>
      </trkpt>
      <trkpt lat="49.46466" lon="2.03207">
        <ele>99.5654296875</ele>
        <time>2017-05-21T09:00:36.000Z</time>
      </trkpt>
      <trkpt lat="49.46469" lon="2.03201">
        <ele>99.799423217773</ele>
        <time>2017-05-21T09:00:38.000Z</time>
      </trkpt>
      <trkpt lat="49.46474" lon="2.03192">
        <ele>99.96662902832</ele>
        <time>2017-05-21T09:00:41.000Z</time>
      </trkpt>
      <trkpt lat="49.46476" lon="2.03186">
        <ele>100.10706329346</ele>
        <time>2017-05-21T09:00:43.000Z</time>
      </trkpt>
      <trkpt lat="49.46481" lon="2.03176">
        <ele>100.21395874023</ele>
        <time>2017-05-21T09:00:46.000Z</time>
      </trkpt>
      <trkpt lat="49.46484" lon="2.03169">
        <ele>100.30976867676</ele>
        <time>2017-05-21T09:00:48.000Z</time>
      </trkpt>
      <trkpt lat="49.46488" lon="2.03159">
        <ele>100.50127410889</ele>
        <time>2017-05-21T09:00:51.000Z</time>
      </trkpt>
      <trkpt lat="49.46492" lon="2.03149">
        <ele>100.82279205322</ele>
        <time>2017-05-21T09:00:54.000Z</time>
      </trkpt>
      <trkpt lat="49.46495" lon="2.03142">
        <ele>101.23368835449</ele>
        <time>2017-05-21T09:00:56.000Z</time>
      </trkpt>
      <trkpt lat="49.46498" lon="2.03132">
        <ele>101.79954528809</ele>
        <time>2017-05-21T09:00:59.000Z</time>
      </trkpt>
      <trkpt lat="49.46503" lon="2.03122">
        <ele>102.56156158447</ele>
        <time>2017-05-21T09:01:02.000Z</time>
      </trkpt>
      <trkpt lat="49.46505" lon="2.03117">
        <ele>103.31691741943</ele>
        <time>2017-05-21T09:01:04.000Z</time>
      </trkpt>
      <trkpt lat="49.46508" lon="2.03111">
        <ele>104.04034423828</ele>
        <time>2017-05-21T09:01:06.000Z</time>
      </trkpt>
      <trkpt lat="49.46511" lon="2.03105">
        <ele>104.77333068848</ele>
        <time>2017-05-21T09:01:08.000Z</time>
      </trkpt>
      <trkpt lat="49.46515" lon="2.03096">
        <ele>105.4907989502</ele>
        <time>2017-05-21T09:01:11.000Z</time>
      </trkpt>
      <trkpt lat="49.46517" lon="2.0309">
        <ele>106.0908203125</ele>
        <time>2017-05-21T09:01:13.000Z</time>
      </trkpt>
      <trkpt lat="49.46521" lon="2.0308">
        <ele>106.7045135498</ele>
        <time>2017-05-21T09:01:16.000Z</time>
      </trkpt>
      <trkpt lat="49.46525" lon="2.03071">
        <ele>107.27109527588</ele>
        <time>2017-05-21T09:01:19.000Z</time>
      </trkpt>
      <trkpt lat="49.46528" lon="2.03065">
        <ele>107.75998687744</ele>
        <time>2017-05-21T09:01:21.000Z</time>
      </trkpt>
      <trkpt lat="49.46531" lon="2.03059">
        <ele>108.14345550537</ele>
        <time>2017-05-21T09:01:23.000Z</time>
      </trkpt>
      <trkpt lat="49.46534" lon="2.0305">
        <ele>108.4757232666</ele>
        <time>2017-05-21T09:01:26.000Z</time>
      </trkpt>
      <trkpt lat="49.46536" lon="2.03045">
        <ele>108.69332122803</ele>
        <time>2017-05-21T09:01:28.000Z</time>
      </trkpt>
      <trkpt lat="49.4654" lon="2.03037">
        <ele>108.8738861084</ele>
        <time>2017-05-21T09:01:31.000Z</time>
      </trkpt>
      <trkpt lat="49.46542" lon="2.03032">
        <ele>109.030418396</ele>
        <time>2017-05-21T09:01:33.000Z</time>
      </trkpt>
      <trkpt lat="49.46545" lon="2.03023">
        <ele>109.16721343994</ele>
        <time>2017-05-21T09:01:36.000Z</time>
      </trkpt>
      <trkpt lat="49.46548" lon="2.03012">
        <ele>109.2975692749</ele>
        <time>2017-05-21T09:01:39.000Z</time>
      </trkpt>
      <trkpt lat="49.46551" lon="2.03002">
        <ele>109.4546661377</ele>
        <time>2017-05-21T09:01:42.000Z</time>
      </trkpt>
      <trkpt lat="49.46553" lon="2.02991">
        <ele>109.59670257568</ele>
        <time>2017-05-21T09:01:45.000Z</time>
      </trkpt>
      <trkpt lat="49.46556" lon="2.02978">
        <ele>109.73559570312</ele>
        <time>2017-05-21T09:01:48.000Z</time>
      </trkpt>
      <trkpt lat="49.46559" lon="2.02965">
        <ele>109.8595123291</ele>
        <time>2017-05-21T09:01:51.000Z</time>
      </trkpt>
      <trkpt lat="49.46561" lon="2.02952">
        <ele>109.97383117676</ele>
        <time>2017-05-21T09:01:54.000Z</time>
      </trkpt>
      <trkpt lat="49.46563" lon="2.02939">
        <ele>110.06992340088</ele>
        <time>2017-05-21T09:01:57.000Z</time>
      </trkpt>
      <trkpt lat="49.46564" lon="2.0293">
        <ele>110.15366363525</ele>
        <time>2017-05-21T09:01:59.000Z</time>
      </trkpt>
      <trkpt lat="49.46566" lon="2.0292">
        <ele>110.23287200928</ele>
        <time>2017-05-21T09:02:01.000Z</time>
      </trkpt>
      <trkpt lat="49.46569" lon="2.02907">
        <ele>110.5047454834</ele>
        <time>2017-05-21T09:02:04.000Z</time>
      </trkpt>
      <trkpt lat="49.46571" lon="2.02895">
        <ele>111.02174377441</ele>
        <time>2017-05-21T09:02:07.000Z</time>
      </trkpt>
      <trkpt lat="49.46572" lon="2.02888">
        <ele>111.68985748291</ele>
        <time>2017-05-21T09:02:09.000Z</time>
      </trkpt>
      <trkpt lat="49.46573" lon="2.02883">
        <ele>112.4556427002</ele>
        <time>2017-05-21T09:02:11.000Z</time>
      </trkpt>
      <trkpt lat="49.46575" lon="2.02873">
        <ele>113.44165039062</ele>
        <time>2017-05-21T09:02:14.000Z</time>
      </trkpt>
      <trkpt lat="49.46577" lon="2.02863">
        <ele>114.44832611084</ele>
        <time>2017-05-21T09:02:17.000Z</time>
      </trkpt>
      <trkpt lat="49.46579" lon="2.02857">
        <ele>115.30253601074</ele>
        <time>2017-05-21T09:02:19.000Z</time>
      </trkpt>
      <trkpt lat="49.46582" lon="2.02852">
        <ele>116.04569244385</ele>
        <time>2017-05-21T09:02:21.000Z</time>
      </trkpt>
      <trkpt lat="49.46587" lon="2.02848">
        <ele>116.79317474365</ele>
        <time>2017-05-21T09:02:23.000Z</time>
      </trkpt>
      <trkpt lat="49.46595" lon="2.02844">
        <ele>117.44387054443</ele>
        <time>2017-05-21T09:02:26.000Z</time>
      </trkpt>
      <trkpt lat="49.46601" lon="2.02837">
        <ele>118.07546234131</ele>
        <time>2017-05-21T09:02:29.000Z</time>
      </trkpt>
      <trkpt lat="49.46605" lon="2.02829">
        <ele>118.77185058594</ele>
        <time>2017-05-21T09:02:31.000Z</time>
      </trkpt>
      <trkpt lat="49.46607" lon="2.02818">
        <ele>119.647315979</ele>
        <time>2017-05-21T09:02:34.000Z</time>
      </trkpt>
      <trkpt lat="49.4661" lon="2.02806">
        <ele>120.67039489746</ele>
        <time>2017-05-21T09:02:37.000Z</time>
      </trkpt>
      <trkpt lat="49.46613" lon="2.02795">
        <ele>121.81758117676</ele>
        <time>2017-05-21T09:02:40.000Z</time>
      </trkpt>
      <trkpt lat="49.46614" lon="2.02786">
        <ele>122.97605895996</ele>
        <time>2017-05-21T09:02:43.000Z</time>
      </trkpt>
      <trkpt lat="49.46617" lon="2.02774">
        <ele>124.20822906494</ele>
        <time>2017-05-21T09:02:46.000Z</time>
      </trkpt>
      <trkpt lat="49.46619" lon="2.02765">
        <ele>125.41471862793</ele>
        <time>2017-05-21T09:02:48.000Z</time>
      </trkpt>
      <trkpt lat="49.46621" lon="2.02752">
        <ele>126.65421295166</ele>
        <time>2017-05-21T09:02:51.000Z</time>
      </trkpt>
      <trkpt lat="49.46622" lon="2.02745">
        <ele>127.72717285156</ele>
        <time>2017-05-21T09:02:53.000Z</time>
      </trkpt>
      <trkpt lat="49.46624" lon="2.02733">
        <ele>128.67817687988</ele>
        <time>2017-05-21T09:02:56.000Z</time>
      </trkpt>
      <trkpt lat="49.46626" lon="2.02724">
        <ele>129.42953491211</ele>
        <time>2017-05-21T09:02:58.000Z</time>
      </trkpt>
      <trkpt lat="49.46625" lon="2.02715">
        <ele>130.03012084961</ele>
        <time>2017-05-21T09:03:01.000Z</time>
      </trkpt>
      <trkpt lat="49.46627" lon="2.0271">
        <ele>130.3805847168</ele>
        <time>2017-05-21T09:03:03.000Z</time>
      </trkpt>
      <trkpt lat="49.4663" lon="2.02697">
        <ele>130.72898864746</ele>
        <time>2017-05-21T09:03:06.000Z</time>
      </trkpt>
      <trkpt lat="49.4663" lon="2.02686">
        <ele>131.0563659668</ele>
        <time>2017-05-21T09:03:09.000Z</time>
      </trkpt>
      <trkpt lat="49.46632" lon="2.02678">
        <ele>131.37965393066</ele>
        <time>2017-05-21T09:03:11.000Z</time>
      </trkpt>
      <trkpt lat="49.46635" lon="2.02665">
        <ele>131.70608520508</ele>
        <time>2017-05-21T09:03:14.000Z</time>
      </trkpt>
      <trkpt lat="49.46637" lon="2.02655">
        <ele>131.98695373535</ele>
        <time>2017-05-21T09:03:16.000Z</time>
      </trkpt>
      <trkpt lat="49.4664" lon="2.0264">
        <ele>132.1735534668</ele>
        <time>2017-05-21T09:03:18.000Z</time>
      </trkpt>
      <trkpt lat="49.46642" lon="2.02627">
        <ele>132.28115844727</ele>
        <time>2017-05-21T09:03:20.000Z</time>
      </trkpt>
      <trkpt lat="49.46645" lon="2.02618">
        <ele>132.326171875</ele>
        <time>2017-05-21T09:03:23.000Z</time>
      </trkpt>
      <trkpt lat="49.46648" lon="2.02606">
        <ele>132.2939453125</ele>
        <time>2017-05-21T09:03:26.000Z</time>
      </trkpt>
      <trkpt lat="49.4665" lon="2.02594">
        <ele>132.26171875</ele>
        <time>2017-05-21T09:03:29.000Z</time>
      </trkpt>
      <trkpt lat="49.4665" lon="2.02588">
        <ele>132.2373046875</ele>
        <time>2017-05-21T09:03:31.000Z</time>
      </trkpt>
      <trkpt lat="49.4665" lon="2.02581">
        <ele>132.2177734375</ele>
        <time>2017-05-21T09:03:33.000Z</time>
      </trkpt>
      <trkpt lat="49.46651" lon="2.02574">
        <ele>132.20381164551</ele>
        <time>2017-05-21T09:03:35.000Z</time>
      </trkpt>
      <trkpt lat="49.46651" lon="2.02563">
        <ele>132.19967651367</ele>
        <time>2017-05-21T09:03:38.000Z</time>
      </trkpt>
      <trkpt lat="49.46651" lon="2.02552">
        <ele>132.20219421387</ele>
        <time>2017-05-21T09:03:41.000Z</time>
      </trkpt>
      <trkpt lat="49.46652" lon="2.02543">
        <ele>132.20915222168</ele>
        <time>2017-05-21T09:03:44.000Z</time>
      </trkpt>
      <trkpt lat="49.46653" lon="2.02535">
        <ele>132.22019958496</ele>
        <time>2017-05-21T09:03:46.000Z</time>
      </trkpt>
      <trkpt lat="49.46653" lon="2.02528">
        <ele>132.23510742188</ele>
        <time>2017-05-21T09:03:48.000Z</time>
      </trkpt>
      <trkpt lat="49.46652" lon="2.02521">
        <ele>132.24751281738</ele>
        <time>2017-05-21T09:03:51.000Z</time>
      </trkpt>
      <trkpt lat="49.46651" lon="2.02515">
        <ele>132.2568359375</ele>
        <time>2017-05-21T09:03:53.000Z</time>
      </trkpt>
      <trkpt lat="49.46652" lon="2.02508">
        <ele>132.26684570312</ele>
        <time>2017-05-21T09:03:55.000Z</time>
      </trkpt>
      <trkpt lat="49.46654" lon="2.02501">
        <ele>132.29042053223</ele>
        <time>2017-05-21T09:03:57.000Z</time>
      </trkpt>
      <trkpt lat="49.46655" lon="2.0249">
        <ele>132.18612670898</ele>
        <time>2017-05-21T09:03:59.000Z</time>
      </trkpt>
      <trkpt lat="49.46657" lon="2.02476">
        <ele>131.87791442871</ele>
        <time>2017-05-21T09:04:02.000Z</time>
      </trkpt>
      <trkpt lat="49.46659" lon="2.02465">
        <ele>131.40293884277</ele>
        <time>2017-05-21T09:04:05.000Z</time>
      </trkpt>
      <trkpt lat="49.46661" lon="2.02455">
        <ele>130.77229309082</ele>
        <time>2017-05-21T09:04:08.000Z</time>
      </trkpt>
      <trkpt lat="49.46663" lon="2.02446">
        <ele>129.9814453125</ele>
        <time>2017-05-21T09:04:10.000Z</time>
      </trkpt>
      <trkpt lat="49.46666" lon="2.02433">
        <ele>129.1159362793</ele>
        <time>2017-05-21T09:04:13.000Z</time>
      </trkpt>
      <trkpt lat="49.46667" lon="2.02429">
        <ele>128.37828063965</ele>
        <time>2017-05-21T09:04:16.000Z</time>
      </trkpt>
      <trkpt lat="49.46669" lon="2.02427">
        <ele>127.77868652344</ele>
        <time>2017-05-21T09:04:19.000Z</time>
      </trkpt>
      <trkpt lat="49.46671" lon="2.02425">
        <ele>127.30690765381</ele>
        <time>2017-05-21T09:04:22.000Z</time>
      </trkpt>
      <trkpt lat="49.46674" lon="2.02425">
        <ele>126.98176574707</ele>
        <time>2017-05-21T09:04:25.000Z</time>
      </trkpt>
      <trkpt lat="49.46675" lon="2.02426">
        <ele>126.87750244141</ele>
        <time>2017-05-21T09:04:27.000Z</time>
      </trkpt>
      <trkpt lat="49.46679" lon="2.02428">
        <ele>126.89666748047</ele>
        <time>2017-05-21T09:04:30.000Z</time>
      </trkpt>
      <trkpt lat="49.46682" lon="2.02429">
        <ele>126.96839904785</ele>
        <time>2017-05-21T09:04:33.000Z</time>
      </trkpt>
      <trkpt lat="49.46687" lon="2.0243">
        <ele>127.10501861572</ele>
        <time>2017-05-21T09:04:35.000Z</time>
      </trkpt>
      <trkpt lat="49.46692" lon="2.02432">
        <ele>127.29526519775</ele>
        <time>2017-05-21T09:04:38.000Z</time>
      </trkpt>
      <trkpt lat="49.46696" lon="2.02436">
        <ele>127.53871917725</ele>
        <time>2017-05-21T09:04:41.000Z</time>
      </trkpt>
      <trkpt lat="49.46701" lon="2.02441">
        <ele>127.85953521729</ele>
        <time>2017-05-21T09:04:45.000Z</time>
      </trkpt>
      <trkpt lat="49.46705" lon="2.02445">
        <ele>128.23300170898</ele>
        <time>2017-05-21T09:04:46.000Z</time>
      </trkpt>
      <trkpt lat="49.46713" lon="2.02448">
        <ele>128.66954040527</ele>
        <time>2017-05-21T09:04:49.000Z</time>
      </trkpt>
      <trkpt lat="49.46718" lon="2.02451">
        <ele>129.11596679688</ele>
        <time>2017-05-21T09:04:51.000Z</time>
      </trkpt>
      <trkpt lat="49.46724" lon="2.02455">
        <ele>129.59497070312</ele>
        <time>2017-05-21T09:04:54.000Z</time>
      </trkpt>
      <trkpt lat="49.46733" lon="2.02456">
        <ele>130.02288818359</ele>
        <time>2017-05-21T09:04:57.000Z</time>
      </trkpt>
      <trkpt lat="49.46738" lon="2.02448">
        <ele>130.22561645508</ele>
        <time>2017-05-21T09:05:00.000Z</time>
      </trkpt>
      <trkpt lat="49.4674" lon="2.02442">
        <ele>130.19956970215</ele>
        <time>2017-05-21T09:05:02.000Z</time>
      </trkpt>
      <trkpt lat="49.4674" lon="2.02438">
        <ele>130.02035522461</ele>
        <time>2017-05-21T09:05:04.000Z</time>
      </trkpt>
      <trkpt lat="49.46738" lon="2.0243">
        <ele>129.57876586914</ele>
        <time>2017-05-21T09:05:07.000Z</time>
      </trkpt>
      <trkpt lat="49.4674" lon="2.02421">
        <ele>128.87596130371</ele>
        <time>2017-05-21T09:05:10.000Z</time>
      </trkpt>
      <trkpt lat="49.4674" lon="2.02415">
        <ele>128.21076965332</ele>
        <time>2017-05-21T09:05:12.000Z</time>
      </trkpt>
      <trkpt lat="49.46743" lon="2.02401">
        <ele>127.56646728516</ele>
        <time>2017-05-21T09:05:15.000Z</time>
      </trkpt>
      <trkpt lat="49.46749" lon="2.02387">
        <ele>126.93141937256</ele>
        <time>2017-05-21T09:05:18.000Z</time>
      </trkpt>
      <trkpt lat="49.46758" lon="2.02368">
        <ele>126.34279632568</ele>
        <time>2017-05-21T09:05:21.000Z</time>
      </trkpt>
      <trkpt lat="49.46762" lon="2.02357">
        <ele>125.88459777832</ele>
        <time>2017-05-21T09:05:23.000Z</time>
      </trkpt>
      <trkpt lat="49.46764" lon="2.02348">
        <ele>125.48677062988</ele>
        <time>2017-05-21T09:05:25.000Z</time>
      </trkpt>
      <trkpt lat="49.46766" lon="2.0234">
        <ele>125.14875793457</ele>
        <time>2017-05-21T09:05:27.000Z</time>
      </trkpt>
      <trkpt lat="49.46767" lon="2.02329">
        <ele>124.88896179199</ele>
        <time>2017-05-21T09:05:30.000Z</time>
      </trkpt>
      <trkpt lat="49.46768" lon="2.02315">
        <ele>124.84329986572</ele>
        <time>2017-05-21T09:05:33.000Z</time>
      </trkpt>
      <trkpt lat="49.46771" lon="2.02305">
        <ele>124.94775390625</ele>
        <time>2017-05-21T09:05:35.000Z</time>
      </trkpt>
      <trkpt lat="49.46774" lon="2.02296">
        <ele>125.19873046875</ele>
        <time>2017-05-21T09:05:37.000Z</time>
      </trkpt>
      <trkpt lat="49.46772" lon="2.02282">
        <ele>125.58583831787</ele>
        <time>2017-05-21T09:05:40.000Z</time>
      </trkpt>
      <trkpt lat="49.46764" lon="2.02266">
        <ele>126.04257965088</ele>
        <time>2017-05-21T09:05:43.000Z</time>
      </trkpt>
      <trkpt lat="49.46763" lon="2.02252">
        <ele>126.49140930176</ele>
        <time>2017-05-21T09:05:45.000Z</time>
      </trkpt>
      <trkpt lat="49.46765" lon="2.02231">
        <ele>127.10012054443</ele>
        <time>2017-05-21T09:05:48.000Z</time>
      </trkpt>
      <trkpt lat="49.46766" lon="2.02218">
        <ele>127.78629302979</ele>
        <time>2017-05-21T09:05:50.000Z</time>
      </trkpt>
      <trkpt lat="49.46767" lon="2.02205">
        <ele>128.5424041748</ele>
        <time>2017-05-21T09:05:52.000Z</time>
      </trkpt>
      <trkpt lat="49.46767" lon="2.02187">
        <ele>129.45420837402</ele>
        <time>2017-05-21T09:05:55.000Z</time>
      </trkpt>
      <trkpt lat="49.46767" lon="2.02169">
        <ele>130.47262573242</ele>
        <time>2017-05-21T09:05:58.000Z</time>
      </trkpt>
      <trkpt lat="49.46767" lon="2.02156">
        <ele>131.25709533691</ele>
        <time>2017-05-21T09:06:00.000Z</time>
      </trkpt>
      <trkpt lat="49.46768" lon="2.02136">
        <ele>131.8860168457</ele>
        <time>2017-05-21T09:06:03.000Z</time>
      </trkpt>
      <trkpt lat="49.46769" lon="2.02122">
        <ele>132.3592376709</ele>
        <time>2017-05-21T09:06:05.000Z</time>
      </trkpt>
      <trkpt lat="49.46771" lon="2.02108">
        <ele>132.63439941406</ele>
        <time>2017-05-21T09:06:07.000Z</time>
      </trkpt>
      <trkpt lat="49.46773" lon="2.02089">
        <ele>132.7472076416</ele>
        <time>2017-05-21T09:06:10.000Z</time>
      </trkpt>
      <trkpt lat="49.46773" lon="2.02077">
        <ele>132.84811401367</ele>
        <time>2017-05-21T09:06:12.000Z</time>
      </trkpt>
      <trkpt lat="49.46774" lon="2.0206">
        <ele>132.93734741211</ele>
        <time>2017-05-21T09:06:15.000Z</time>
      </trkpt>
      <trkpt lat="49.46774" lon="2.02049">
        <ele>133.02478027344</ele>
        <time>2017-05-21T09:06:17.000Z</time>
      </trkpt>
      <trkpt lat="49.46774" lon="2.0204">
        <ele>133.07928466797</ele>
        <time>2017-05-21T09:06:19.000Z</time>
      </trkpt>
      <trkpt lat="49.46775" lon="2.02024">
        <ele>133.09484863281</ele>
        <time>2017-05-21T09:06:22.000Z</time>
      </trkpt>
      <trkpt lat="49.46775" lon="2.02015">
        <ele>133.09973144531</ele>
        <time>2017-05-21T09:06:24.000Z</time>
      </trkpt>
      <trkpt lat="49.46775" lon="2.02005">
        <ele>133.09580993652</ele>
        <time>2017-05-21T09:06:26.000Z</time>
      </trkpt>
      <trkpt lat="49.46775" lon="2.01989">
        <ele>133.17727661133</ele>
        <time>2017-05-21T09:06:29.000Z</time>
      </trkpt>
      <trkpt lat="49.46777" lon="2.01974">
        <ele>133.38038635254</ele>
        <time>2017-05-21T09:06:32.000Z</time>
      </trkpt>
      <trkpt lat="49.46774" lon="2.01958">
        <ele>133.67858886719</ele>
        <time>2017-05-21T09:06:35.000Z</time>
      </trkpt>
      <trkpt lat="49.46768" lon="2.01953">
        <ele>134.00032043457</ele>
        <time>2017-05-21T09:06:38.000Z</time>
      </trkpt>
      <trkpt lat="49.46761" lon="2.01953">
        <ele>134.30249023438</ele>
        <time>2017-05-21T09:06:40.000Z</time>
      </trkpt>
      <trkpt lat="49.46752" lon="2.01946">
        <ele>134.58081054688</ele>
        <time>2017-05-21T09:06:43.000Z</time>
      </trkpt>
      <trkpt lat="49.46749" lon="2.01935">
        <ele>134.88764953613</ele>
        <time>2017-05-21T09:06:46.000Z</time>
      </trkpt>
      <trkpt lat="49.46751" lon="2.01925">
        <ele>135.23861694336</ele>
        <time>2017-05-21T09:06:48.000Z</time>
      </trkpt>
      <trkpt lat="49.46758" lon="2.01911">
        <ele>135.66537475586</ele>
        <time>2017-05-21T09:06:51.000Z</time>
      </trkpt>
      <trkpt lat="49.46759" lon="2.01899">
        <ele>136.16278076172</ele>
        <time>2017-05-21T09:06:54.000Z</time>
      </trkpt>
      <trkpt lat="49.46759" lon="2.01891">
        <ele>136.63609313965</ele>
        <time>2017-05-21T09:06:56.000Z</time>
      </trkpt>
      <trkpt lat="49.46757" lon="2.01879">
        <ele>137.0290222168</ele>
        <time>2017-05-21T09:06:58.000Z</time>
      </trkpt>
      <trkpt lat="49.46755" lon="2.01861">
        <ele>137.37760925293</ele>
        <time>2017-05-21T09:07:01.000Z</time>
      </trkpt>
      <trkpt lat="49.46755" lon="2.01854">
        <ele>137.66567993164</ele>
        <time>2017-05-21T09:07:03.000Z</time>
      </trkpt>
      <trkpt lat="49.46755" lon="2.01847">
        <ele>137.94136047363</ele>
        <time>2017-05-21T09:07:05.000Z</time>
      </trkpt>
      <trkpt lat="49.46753" lon="2.0183">
        <ele>138.24545288086</ele>
        <time>2017-05-21T09:07:08.000Z</time>
      </trkpt>
      <trkpt lat="49.46748" lon="2.01818">
        <ele>138.48770141602</ele>
        <time>2017-05-21T09:07:10.000Z</time>
      </trkpt>
      <trkpt lat="49.46741" lon="2.01815">
        <ele>138.63246154785</ele>
        <time>2017-05-21T09:07:12.000Z</time>
      </trkpt>
      <trkpt lat="49.46733" lon="2.01811">
        <ele>138.74700927734</ele>
        <time>2017-05-21T09:07:14.000Z</time>
      </trkpt>
      <trkpt lat="49.46721" lon="2.01805">
        <ele>138.83781433105</ele>
        <time>2017-05-21T09:07:17.000Z</time>
      </trkpt>
      <trkpt lat="49.46709" lon="2.01801">
        <ele>138.87612915039</ele>
        <time>2017-05-21T09:07:20.000Z</time>
      </trkpt>
      <trkpt lat="49.46701" lon="2.01798">
        <ele>138.92672729492</ele>
        <time>2017-05-21T09:07:22.000Z</time>
      </trkpt>
      <trkpt lat="49.46693" lon="2.01796">
        <ele>138.99583435059</ele>
        <time>2017-05-21T09:07:24.000Z</time>
      </trkpt>
      <trkpt lat="49.46688" lon="2.01796">
        <ele>139.06918334961</ele>
        <time>2017-05-21T09:07:26.000Z</time>
      </trkpt>
      <trkpt lat="49.46681" lon="2.01792">
        <ele>139.15469360352</ele>
        <time>2017-05-21T09:07:29.000Z</time>
      </trkpt>
      <trkpt lat="49.46672" lon="2.01788">
        <ele>139.25051879883</ele>
        <time>2017-05-21T09:07:31.000Z</time>
      </trkpt>
      <trkpt lat="49.46663" lon="2.01785">
        <ele>139.33213806152</ele>
        <time>2017-05-21T09:07:33.000Z</time>
      </trkpt>
      <trkpt lat="49.46653" lon="2.01786">
        <ele>139.34396362305</ele>
        <time>2017-05-21T09:07:36.000Z</time>
      </trkpt>
      <trkpt lat="49.46643" lon="2.01785">
        <ele>139.30239868164</ele>
        <time>2017-05-21T09:07:39.000Z</time>
      </trkpt>
      <trkpt lat="49.46635" lon="2.01785">
        <ele>139.20379638672</ele>
        <time>2017-05-21T09:07:42.000Z</time>
      </trkpt>
      <trkpt lat="49.46633" lon="2.01784">
        <ele>139.06652832031</ele>
        <time>2017-05-21T09:07:44.000Z</time>
      </trkpt>
      <trkpt lat="49.46631" lon="2.01782">
        <ele>138.92053222656</ele>
        <time>2017-05-21T09:07:46.000Z</time>
      </trkpt>
      <trkpt lat="49.46626" lon="2.01776">
        <ele>138.81860351562</ele>
        <time>2017-05-21T09:07:49.000Z</time>
      </trkpt>
      <trkpt lat="49.46622" lon="2.01769">
        <ele>138.7601776123</ele>
        <time>2017-05-21T09:07:51.000Z</time>
      </trkpt>
      <trkpt lat="49.46616" lon="2.01759">
        <ele>138.72933959961</ele>
        <time>2017-05-21T09:07:55.000Z</time>
      </trkpt>
      <trkpt lat="49.46614" lon="2.01752">
        <ele>138.71405029297</ele>
        <time>2017-05-21T09:07:56.000Z</time>
      </trkpt>
      <trkpt lat="49.46611" lon="2.01742">
        <ele>138.73731994629</ele>
        <time>2017-05-21T09:07:59.000Z</time>
      </trkpt>
      <trkpt lat="49.46607" lon="2.01727">
        <ele>138.82685852051</ele>
        <time>2017-05-21T09:08:02.000Z</time>
      </trkpt>
      <trkpt lat="49.46604" lon="2.01716">
        <ele>138.96806335449</ele>
        <time>2017-05-21T09:08:04.000Z</time>
      </trkpt>
      <trkpt lat="49.46596" lon="2.01702">
        <ele>139.18423461914</ele>
        <time>2017-05-21T09:08:07.000Z</time>
      </trkpt>
      <trkpt lat="49.46587" lon="2.01693">
        <ele>139.45542907715</ele>
        <time>2017-05-21T09:08:10.000Z</time>
      </trkpt>
      <trkpt lat="49.46583" lon="2.01687">
        <ele>139.73364257812</ele>
        <time>2017-05-21T09:08:12.000Z</time>
      </trkpt>
      <trkpt lat="49.46574" lon="2.01681">
        <ele>139.99269104004</ele>
        <time>2017-05-21T09:08:15.000Z</time>
      </trkpt>
      <trkpt lat="49.46567" lon="2.01673">
        <ele>140.26284790039</ele>
        <time>2017-05-21T09:08:18.000Z</time>
      </trkpt>
      <trkpt lat="49.4656" lon="2.01666">
        <ele>140.51322937012</ele>
        <time>2017-05-21T09:08:20.000Z</time>
      </trkpt>
      <trkpt lat="49.46553" lon="2.01663">
        <ele>140.73002624512</ele>
        <time>2017-05-21T09:08:22.000Z</time>
      </trkpt>
      <trkpt lat="49.46547" lon="2.01659">
        <ele>140.9501953125</ele>
        <time>2017-05-21T09:08:24.000Z</time>
      </trkpt>
      <trkpt lat="49.46534" lon="2.01652">
        <ele>141.20826721191</ele>
        <time>2017-05-21T09:08:27.000Z</time>
      </trkpt>
      <trkpt lat="49.46521" lon="2.01646">
        <ele>141.50186157227</ele>
        <time>2017-05-21T09:08:30.000Z</time>
      </trkpt>
      <trkpt lat="49.46515" lon="2.01643">
        <ele>141.79681396484</ele>
        <time>2017-05-21T09:08:33.000Z</time>
      </trkpt>
      <trkpt lat="49.46511" lon="2.0164">
        <ele>142.11558532715</ele>
        <time>2017-05-21T09:08:35.000Z</time>
      </trkpt>
      <trkpt lat="49.46504" lon="2.01632">
        <ele>142.52310180664</ele>
        <time>2017-05-21T09:08:38.000Z</time>
      </trkpt>
      <trkpt lat="49.46501" lon="2.0163">
        <ele>142.90086364746</ele>
        <time>2017-05-21T09:08:40.000Z</time>
      </trkpt>
      <trkpt lat="49.46496" lon="2.01626">
        <ele>143.21401977539</ele>
        <time>2017-05-21T09:08:43.000Z</time>
      </trkpt>
      <trkpt lat="49.4649" lon="2.01624">
        <ele>143.45973205566</ele>
        <time>2017-05-21T09:08:46.000Z</time>
      </trkpt>
      <trkpt lat="49.46487" lon="2.01625">
        <ele>143.61532592773</ele>
        <time>2017-05-21T09:08:49.000Z</time>
      </trkpt>
      <trkpt lat="49.46483" lon="2.01626">
        <ele>143.60507202148</ele>
        <time>2017-05-21T09:08:52.000Z</time>
      </trkpt>
      <trkpt lat="49.46478" lon="2.01627">
        <ele>143.49917602539</ele>
        <time>2017-05-21T09:08:57.000Z</time>
      </trkpt>
      <trkpt lat="49.46477" lon="2.01627">
        <ele>143.34443664551</ele>
        <time>2017-05-21T09:09:00.000Z</time>
      </trkpt>
      <trkpt lat="49.46472" lon="2.01628">
        <ele>143.16044616699</ele>
        <time>2017-05-21T09:09:06.000Z</time>
      </trkpt>
      <trkpt lat="49.46466" lon="2.01627">
        <ele>142.99589538574</ele>
        <time>2017-05-21T09:09:09.000Z</time>
      </trkpt>
      <trkpt lat="49.46466" lon="2.01627">
        <ele>142.99589538574</ele>
        <time>2017-05-21T09:09:29.000Z</time>
      </trkpt>
      <trkpt lat="49.46464" lon="2.01626">
        <ele>142.8537902832</ele>
        <time>2017-05-21T09:09:30.000Z</time>
      </trkpt>
      <trkpt lat="49.46463" lon="2.01627">
        <ele>142.7396697998</ele>
        <time>2017-05-21T09:09:32.000Z</time>
      </trkpt>
      <trkpt lat="49.4646" lon="2.01631">
        <ele>142.58554077148</ele>
        <time>2017-05-21T09:09:34.000Z</time>
      </trkpt>
      <trkpt lat="49.46453" lon="2.01636">
        <ele>142.38754272461</ele>
        <time>2017-05-21T09:09:37.000Z</time>
      </trkpt>
      <trkpt lat="49.46449" lon="2.01636">
        <ele>142.18746948242</ele>
        <time>2017-05-21T09:09:39.000Z</time>
      </trkpt>
      <trkpt lat="49.46439" lon="2.01635">
        <ele>141.94692993164</ele>
        <time>2017-05-21T09:09:42.000Z</time>
      </trkpt>
      <trkpt lat="49.46432" lon="2.01634">
        <ele>141.69560241699</ele>
        <time>2017-05-21T09:09:44.000Z</time>
      </trkpt>
      <trkpt lat="49.46424" lon="2.01634">
        <ele>141.44950866699</ele>
        <time>2017-05-21T09:09:47.000Z</time>
      </trkpt>
      <trkpt lat="49.46415" lon="2.01636">
        <ele>141.18424987793</ele>
        <time>2017-05-21T09:09:50.000Z</time>
      </trkpt>
      <trkpt lat="49.46408" lon="2.0164">
        <ele>140.68701171875</ele>
        <time>2017-05-21T09:09:52.000Z</time>
      </trkpt>
      <trkpt lat="49.46399" lon="2.01647">
        <ele>139.97058105469</ele>
        <time>2017-05-21T09:09:55.000Z</time>
      </trkpt>
      <trkpt lat="49.46387" lon="2.01656">
        <ele>138.94313049316</ele>
        <time>2017-05-21T09:09:58.000Z</time>
      </trkpt>
      <trkpt lat="49.46376" lon="2.01661">
        <ele>137.71650695801</ele>
        <time>2017-05-21T09:10:01.000Z</time>
      </trkpt>
      <trkpt lat="49.46372" lon="2.01665">
        <ele>136.52890014648</ele>
        <time>2017-05-21T09:10:03.000Z</time>
      </trkpt>
      <trkpt lat="49.4636" lon="2.01678">
        <ele>135.36157226562</ele>
        <time>2017-05-21T09:10:06.000Z</time>
      </trkpt>
      <trkpt lat="49.46361" lon="2.01677">
        <ele>134.49844360352</ele>
        <time>2017-05-21T09:10:09.000Z</time>
      </trkpt>
      <trkpt lat="49.46366" lon="2.01677">
        <ele>134.08303833008</ele>
        <time>2017-05-21T09:10:12.000Z</time>
      </trkpt>
      <trkpt lat="49.46374" lon="2.01675">
        <ele>134.08578491211</ele>
        <time>2017-05-21T09:10:15.000Z</time>
      </trkpt>
      <trkpt lat="49.46382" lon="2.01671">
        <ele>134.35025024414</ele>
        <time>2017-05-21T09:10:18.000Z</time>
      </trkpt>
      <trkpt lat="49.46387" lon="2.01668">
        <ele>134.95434570312</ele>
        <time>2017-05-21T09:10:20.000Z</time>
      </trkpt>
      <trkpt lat="49.46392" lon="2.01667">
        <ele>135.64392089844</ele>
        <time>2017-05-21T09:10:22.000Z</time>
      </trkpt>
      <trkpt lat="49.46399" lon="2.01665">
        <ele>136.4132232666</ele>
        <time>2017-05-21T09:10:25.000Z</time>
      </trkpt>
      <trkpt lat="49.46405" lon="2.01662">
        <ele>137.14694213867</ele>
        <time>2017-05-21T09:10:27.000Z</time>
      </trkpt>
      <trkpt lat="49.46412" lon="2.01655">
        <ele>137.88735961914</ele>
        <time>2017-05-21T09:10:30.000Z</time>
      </trkpt>
      <trkpt lat="49.46417" lon="2.0165">
        <ele>138.69171142578</ele>
        <time>2017-05-21T09:10:32.000Z</time>
      </trkpt>
      <trkpt lat="49.46425" lon="2.0164">
        <ele>139.46907043457</ele>
        <time>2017-05-21T09:10:35.000Z</time>
      </trkpt>
      <trkpt lat="49.46432" lon="2.01634">
        <ele>140.13827514648</ele>
        <time>2017-05-21T09:10:38.000Z</time>
      </trkpt>
      <trkpt lat="49.46437" lon="2.01624">
        <ele>140.7815246582</ele>
        <time>2017-05-21T09:10:40.000Z</time>
      </trkpt>
      <trkpt lat="49.46443" lon="2.01613">
        <ele>141.35433959961</ele>
        <time>2017-05-21T09:10:42.000Z</time>
      </trkpt>
      <trkpt lat="49.46451" lon="2.01599">
        <ele>141.94454956055</ele>
        <time>2017-05-21T09:10:45.000Z</time>
      </trkpt>
      <trkpt lat="49.46459" lon="2.01587">
        <ele>142.64541625977</ele>
        <time>2017-05-21T09:10:48.000Z</time>
      </trkpt>
      <trkpt lat="49.46464" lon="2.01578">
        <ele>143.29911804199</ele>
        <time>2017-05-21T09:10:50.000Z</time>
      </trkpt>
      <trkpt lat="49.46467" lon="2.01569">
        <ele>143.80075073242</ele>
        <time>2017-05-21T09:10:52.000Z</time>
      </trkpt>
      <trkpt lat="49.46471" lon="2.01558">
        <ele>144.13693237305</ele>
        <time>2017-05-21T09:10:54.000Z</time>
      </trkpt>
      <trkpt lat="49.46475" lon="2.01537">
        <ele>144.19584655762</ele>
        <time>2017-05-21T09:10:57.000Z</time>
      </trkpt>
      <trkpt lat="49.46478" lon="2.01519">
        <ele>143.98446655273</ele>
        <time>2017-05-21T09:10:59.000Z</time>
      </trkpt>
      <trkpt lat="49.46484" lon="2.01491">
        <ele>143.72370910645</ele>
        <time>2017-05-21T09:11:02.000Z</time>
      </trkpt>
      <trkpt lat="49.46489" lon="2.01477">
        <ele>143.60432434082</ele>
        <time>2017-05-21T09:11:04.000Z</time>
      </trkpt>
      <trkpt lat="49.46494" lon="2.01457">
        <ele>143.70515441895</ele>
        <time>2017-05-21T09:11:07.000Z</time>
      </trkpt>
      <trkpt lat="49.46497" lon="2.0144">
        <ele>144.03280639648</ele>
        <time>2017-05-21T09:11:09.000Z</time>
      </trkpt>
      <trkpt lat="49.46502" lon="2.01422">
        <ele>144.56817626953</ele>
        <time>2017-05-21T09:11:11.000Z</time>
      </trkpt>
      <trkpt lat="49.46507" lon="2.01394">
        <ele>144.8256072998</ele>
        <time>2017-05-21T09:11:14.000Z</time>
      </trkpt>
      <trkpt lat="49.4651" lon="2.01377">
        <ele>144.78242492676</ele>
        <time>2017-05-21T09:11:16.000Z</time>
      </trkpt>
      <trkpt lat="49.46513" lon="2.01355">
        <ele>144.31298828125</ele>
        <time>2017-05-21T09:11:18.000Z</time>
      </trkpt>
      <trkpt lat="49.46514" lon="2.01318">
        <ele>143.40023803711</ele>
        <time>2017-05-21T09:11:21.000Z</time>
      </trkpt>
      <trkpt lat="49.46513" lon="2.01289">
        <ele>142.24647521973</ele>
        <time>2017-05-21T09:11:23.000Z</time>
      </trkpt>
      <trkpt lat="49.46498" lon="2.01215">
        <ele>140.7300567627</ele>
        <time>2017-05-21T09:11:27.000Z</time>
      </trkpt>
      <trkpt lat="49.46488" lon="2.01186">
        <ele>138.54692077637</ele>
        <time>2017-05-21T09:11:29.000Z</time>
      </trkpt>
      <trkpt lat="49.46478" lon="2.01136">
        <ele>135.71208190918</ele>
        <time>2017-05-21T09:11:32.000Z</time>
      </trkpt>
      <trkpt lat="49.46473" lon="2.01093">
        <ele>132.62483215332</ele>
        <time>2017-05-21T09:11:35.000Z</time>
      </trkpt>
      <trkpt lat="49.46478" lon="2.01054">
        <ele>129.63128662109</ele>
        <time>2017-05-21T09:11:38.000Z</time>
      </trkpt>
      <trkpt lat="49.46481" lon="2.01039">
        <ele>127.36185455322</ele>
        <time>2017-05-21T09:11:41.000Z</time>
      </trkpt>
      <trkpt lat="49.46489" lon="2.01017">
        <ele>126.16512298584</ele>
        <time>2017-05-21T09:11:44.000Z</time>
      </trkpt>
      <trkpt lat="49.46497" lon="2.01">
        <ele>126.0251083374</ele>
        <time>2017-05-21T09:11:47.000Z</time>
      </trkpt>
      <trkpt lat="49.46502" lon="2.00986">
        <ele>126.44905090332</ele>
        <time>2017-05-21T09:11:49.000Z</time>
      </trkpt>
      <trkpt lat="49.46508" lon="2.0097">
        <ele>126.90673828125</ele>
        <time>2017-05-21T09:11:52.000Z</time>
      </trkpt>
      <trkpt lat="49.46511" lon="2.00957">
        <ele>127.27925872803</ele>
        <time>2017-05-21T09:11:54.000Z</time>
      </trkpt>
      <trkpt lat="49.46512" lon="2.00936">
        <ele>127.28450012207</ele>
        <time>2017-05-21T09:11:57.000Z</time>
      </trkpt>
      <trkpt lat="49.46514" lon="2.00924">
        <ele>127.0916519165</ele>
        <time>2017-05-21T09:11:59.000Z</time>
      </trkpt>
      <trkpt lat="49.46516" lon="2.00913">
        <ele>126.8614730835</ele>
        <time>2017-05-21T09:12:01.000Z</time>
      </trkpt>
      <trkpt lat="49.46519" lon="2.00889">
        <ele>126.46903991699</ele>
        <time>2017-05-21T09:12:04.000Z</time>
      </trkpt>
      <trkpt lat="49.46516" lon="2.00868">
        <ele>125.75819396973</ele>
        <time>2017-05-21T09:12:07.000Z</time>
      </trkpt>
      <trkpt lat="49.46515" lon="2.00858">
        <ele>125.02772521973</ele>
        <time>2017-05-21T09:12:10.000Z</time>
      </trkpt>
      <trkpt lat="49.46514" lon="2.00847">
        <ele>124.1756362915</ele>
        <time>2017-05-21T09:12:13.000Z</time>
      </trkpt>
      <trkpt lat="49.46513" lon="2.00826">
        <ele>123.15879821777</ele>
        <time>2017-05-21T09:12:16.000Z</time>
      </trkpt>
      <trkpt lat="49.46514" lon="2.00805">
        <ele>122.30544281006</ele>
        <time>2017-05-21T09:12:19.000Z</time>
      </trkpt>
      <trkpt lat="49.46514" lon="2.0078">
        <ele>121.75026702881</ele>
        <time>2017-05-21T09:12:22.000Z</time>
      </trkpt>
      <trkpt lat="49.46508" lon="2.00755">
        <ele>121.10504150391</ele>
        <time>2017-05-21T09:12:25.000Z</time>
      </trkpt>
      <trkpt lat="49.46507" lon="2.00738">
        <ele>120.58323669434</ele>
        <time>2017-05-21T09:12:27.000Z</time>
      </trkpt>
      <trkpt lat="49.46508" lon="2.00717">
        <ele>120.33475494385</ele>
        <time>2017-05-21T09:12:30.000Z</time>
      </trkpt>
      <trkpt lat="49.4651" lon="2.00713">
        <ele>120.11093902588</ele>
        <time>2017-05-21T09:12:32.000Z</time>
      </trkpt>
      <trkpt lat="49.46512" lon="2.00703">
        <ele>120.02722167969</ele>
        <time>2017-05-21T09:12:35.000Z</time>
      </trkpt>
      <trkpt lat="49.46512" lon="2.00694">
        <ele>120.22798919678</ele>
        <time>2017-05-21T09:12:37.000Z</time>
      </trkpt>
      <trkpt lat="49.46511" lon="2.00686">
        <ele>120.45849609375</ele>
        <time>2017-05-21T09:12:40.000Z</time>
      </trkpt>
      <trkpt lat="49.46511" lon="2.00682">
        <ele>120.60305023193</ele>
        <time>2017-05-21T09:12:42.000Z</time>
      </trkpt>
      <trkpt lat="49.46513" lon="2.00675">
        <ele>120.74332427979</ele>
        <time>2017-05-21T09:12:44.000Z</time>
      </trkpt>
      <trkpt lat="49.46515" lon="2.00667">
        <ele>120.8685760498</ele>
        <time>2017-05-21T09:12:47.000Z</time>
      </trkpt>
      <trkpt lat="49.46518" lon="2.00658">
        <ele>120.99028015137</ele>
        <time>2017-05-21T09:12:50.000Z</time>
      </trkpt>
      <trkpt lat="49.46519" lon="2.00652">
        <ele>121.08835601807</ele>
        <time>2017-05-21T09:12:52.000Z</time>
      </trkpt>
      <trkpt lat="49.4652" lon="2.00641">
        <ele>121.11396789551</ele>
        <time>2017-05-21T09:12:55.000Z</time>
      </trkpt>
      <trkpt lat="49.46516" lon="2.00635">
        <ele>120.91363525391</ele>
        <time>2017-05-21T09:12:57.000Z</time>
      </trkpt>
      <trkpt lat="49.46512" lon="2.00633">
        <ele>120.48641204834</ele>
        <time>2017-05-21T09:12:59.000Z</time>
      </trkpt>
      <trkpt lat="49.46506" lon="2.00631">
        <ele>119.84190368652</ele>
        <time>2017-05-21T09:13:03.000Z</time>
      </trkpt>
      <trkpt lat="49.46502" lon="2.00628">
        <ele>119.08610534668</ele>
        <time>2017-05-21T09:13:04.000Z</time>
      </trkpt>
      <trkpt lat="49.46495" lon="2.00625">
        <ele>118.2622833252</ele>
        <time>2017-05-21T09:13:06.000Z</time>
      </trkpt>
      <trkpt lat="49.46486" lon="2.00625">
        <ele>117.47206115723</ele>
        <time>2017-05-21T09:13:09.000Z</time>
      </trkpt>
      <trkpt lat="49.46473" lon="2.00626">
        <ele>116.66198730469</ele>
        <time>2017-05-21T09:13:12.000Z</time>
      </trkpt>
      <trkpt lat="49.46467" lon="2.00622">
        <ele>115.93397521973</ele>
        <time>2017-05-21T09:13:15.000Z</time>
      </trkpt>
      <trkpt lat="49.46465" lon="2.00617">
        <ele>115.25395202637</ele>
        <time>2017-05-21T09:13:17.000Z</time>
      </trkpt>
      <trkpt lat="49.46461" lon="2.00614">
        <ele>114.63349914551</ele>
        <time>2017-05-21T09:13:19.000Z</time>
      </trkpt>
      <trkpt lat="49.46452" lon="2.00617">
        <ele>114.05294036865</ele>
        <time>2017-05-21T09:13:22.000Z</time>
      </trkpt>
      <trkpt lat="49.46449" lon="2.00617">
        <ele>113.58040618896</ele>
        <time>2017-05-21T09:13:24.000Z</time>
      </trkpt>
      <trkpt lat="49.46442" lon="2.00613">
        <ele>113.08290863037</ele>
        <time>2017-05-21T09:13:27.000Z</time>
      </trkpt>
      <trkpt lat="49.46435" lon="2.00607">
        <ele>112.51080322266</ele>
        <time>2017-05-21T09:13:29.000Z</time>
      </trkpt>
      <trkpt lat="49.46428" lon="2.00601">
        <ele>111.82429504395</ele>
        <time>2017-05-21T09:13:31.000Z</time>
      </trkpt>
      <trkpt lat="49.46425" lon="2.00599">
        <ele>111.17362976074</ele>
        <time>2017-05-21T09:13:33.000Z</time>
      </trkpt>
      <trkpt lat="49.46424" lon="2.00597">
        <ele>110.52299499512</ele>
        <time>2017-05-21T09:13:35.000Z</time>
      </trkpt>
      <trkpt lat="49.4642" lon="2.00592">
        <ele>109.90760803223</ele>
        <time>2017-05-21T09:13:37.000Z</time>
      </trkpt>
      <trkpt lat="49.46414" lon="2.00589">
        <ele>109.42783355713</ele>
        <time>2017-05-21T09:13:39.000Z</time>
      </trkpt>
      <trkpt lat="49.46406" lon="2.00586">
        <ele>109.39831542969</ele>
        <time>2017-05-21T09:13:42.000Z</time>
      </trkpt>
      <trkpt lat="49.46399" lon="2.00582">
        <ele>109.61799621582</ele>
        <time>2017-05-21T09:13:44.000Z</time>
      </trkpt>
      <trkpt lat="49.46394" lon="2.0058">
        <ele>110.04795837402</ele>
        <time>2017-05-21T09:13:48.000Z</time>
      </trkpt>
      <trkpt lat="49.46389" lon="2.00581">
        <ele>110.76334381104</ele>
        <time>2017-05-21T09:13:50.000Z</time>
      </trkpt>
      <trkpt lat="49.46388" lon="2.00582">
        <ele>111.57026672363</ele>
        <time>2017-05-21T09:13:52.000Z</time>
      </trkpt>
      <trkpt lat="49.46388" lon="2.00578">
        <ele>112.11552429199</ele>
        <time>2017-05-21T09:13:57.000Z</time>
      </trkpt>
      <trkpt lat="49.46385" lon="2.00572">
        <ele>112.55436706543</ele>
        <time>2017-05-21T09:13:59.000Z</time>
      </trkpt>
      <trkpt lat="49.46382" lon="2.00562">
        <ele>112.89665222168</ele>
        <time>2017-05-21T09:14:02.000Z</time>
      </trkpt>
      <trkpt lat="49.46381" lon="2.00556">
        <ele>113.090675354</ele>
        <time>2017-05-21T09:14:04.000Z</time>
      </trkpt>
      <trkpt lat="49.46379" lon="2.00543">
        <ele>113.24770355225</ele>
        <time>2017-05-21T09:14:07.000Z</time>
      </trkpt>
      <trkpt lat="49.46377" lon="2.00533">
        <ele>113.4525604248</ele>
        <time>2017-05-21T09:14:10.000Z</time>
      </trkpt>
      <trkpt lat="49.46376" lon="2.00528">
        <ele>113.60921478271</ele>
        <time>2017-05-21T09:14:12.000Z</time>
      </trkpt>
      <trkpt lat="49.46375" lon="2.00518">
        <ele>113.71559143066</ele>
        <time>2017-05-21T09:14:15.000Z</time>
      </trkpt>
      <trkpt lat="49.46373" lon="2.00506">
        <ele>113.80635070801</ele>
        <time>2017-05-21T09:14:18.000Z</time>
      </trkpt>
      <trkpt lat="49.46373" lon="2.00501">
        <ele>113.85301208496</ele>
        <time>2017-05-21T09:14:20.000Z</time>
      </trkpt>
      <trkpt lat="49.46375" lon="2.00488">
        <ele>113.72290039062</ele>
        <time>2017-05-21T09:14:23.000Z</time>
      </trkpt>
      <trkpt lat="49.46378" lon="2.00475">
        <ele>113.38626861572</ele>
        <time>2017-05-21T09:14:26.000Z</time>
      </trkpt>
      <trkpt lat="49.46376" lon="2.00467">
        <ele>113.02146148682</ele>
        <time>2017-05-21T09:14:28.000Z</time>
      </trkpt>
      <trkpt lat="49.46373" lon="2.0046">
        <ele>112.696144104</ele>
        <time>2017-05-21T09:14:30.000Z</time>
      </trkpt>
      <trkpt lat="49.46368" lon="2.00449">
        <ele>112.42557525635</ele>
        <time>2017-05-21T09:14:33.000Z</time>
      </trkpt>
      <trkpt lat="49.46365" lon="2.00437">
        <ele>112.26969146729</ele>
        <time>2017-05-21T09:14:36.000Z</time>
      </trkpt>
      <trkpt lat="49.46363" lon="2.00427">
        <ele>112.2386932373</ele>
        <time>2017-05-21T09:14:39.000Z</time>
      </trkpt>
      <trkpt lat="49.46363" lon="2.00424">
        <ele>112.19582366943</ele>
        <time>2017-05-21T09:14:41.000Z</time>
      </trkpt>
      <trkpt lat="49.46362" lon="2.00419">
        <ele>112.08367919922</ele>
        <time>2017-05-21T09:14:43.000Z</time>
      </trkpt>
      <trkpt lat="49.4636" lon="2.00415">
        <ele>111.91627502441</ele>
        <time>2017-05-21T09:14:45.000Z</time>
      </trkpt>
      <trkpt lat="49.46356" lon="2.00407">
        <ele>111.6971206665</ele>
        <time>2017-05-21T09:14:48.000Z</time>
      </trkpt>
      <trkpt lat="49.4635" lon="2.00392">
        <ele>111.30519866943</ele>
        <time>2017-05-21T09:14:51.000Z</time>
      </trkpt>
      <trkpt lat="49.46342" lon="2.0038">
        <ele>110.71849060059</ele>
        <time>2017-05-21T09:14:54.000Z</time>
      </trkpt>
      <trkpt lat="49.46334" lon="2.00373">
        <ele>110.02858734131</ele>
        <time>2017-05-21T09:14:56.000Z</time>
      </trkpt>
      <trkpt lat="49.46323" lon="2.00366">
        <ele>109.47583007812</ele>
        <time>2017-05-21T09:14:59.000Z</time>
      </trkpt>
      <trkpt lat="49.46313" lon="2.0036">
        <ele>109.13403320312</ele>
        <time>2017-05-21T09:15:02.000Z</time>
      </trkpt>
      <trkpt lat="49.46307" lon="2.00356">
        <ele>109.10276031494</ele>
        <time>2017-05-21T09:15:04.000Z</time>
      </trkpt>
      <trkpt lat="49.46298" lon="2.0035">
        <ele>109.43581390381</ele>
        <time>2017-05-21T09:15:07.000Z</time>
      </trkpt>
      <trkpt lat="49.46289" lon="2.00346">
        <ele>110.07688140869</ele>
        <time>2017-05-21T09:15:10.000Z</time>
      </trkpt>
      <trkpt lat="49.46284" lon="2.00341">
        <ele>110.64888763428</ele>
        <time>2017-05-21T09:15:12.000Z</time>
      </trkpt>
      <trkpt lat="49.46277" lon="2.00333">
        <ele>111.09397888184</ele>
        <time>2017-05-21T09:15:15.000Z</time>
      </trkpt>
      <trkpt lat="49.46274" lon="2.0033">
        <ele>111.50090026855</ele>
        <time>2017-05-21T09:15:17.000Z</time>
      </trkpt>
      <trkpt lat="49.46272" lon="2.00328">
        <ele>111.77586364746</ele>
        <time>2017-05-21T09:15:19.000Z</time>
      </trkpt>
      <trkpt lat="49.4627" lon="2.00325">
        <ele>111.8876953125</ele>
        <time>2017-05-21T09:15:21.000Z</time>
      </trkpt>
      <trkpt lat="49.46268" lon="2.00324">
        <ele>111.98585510254</ele>
        <time>2017-05-21T09:15:24.000Z</time>
      </trkpt>
      <trkpt lat="49.46266" lon="2.00323">
        <ele>112.12899017334</ele>
        <time>2017-05-21T09:15:27.000Z</time>
      </trkpt>
      <trkpt lat="49.46264" lon="2.00322">
        <ele>112.26650238037</ele>
        <time>2017-05-21T09:15:29.000Z</time>
      </trkpt>
      <trkpt lat="49.46263" lon="2.0032">
        <ele>112.39678955078</ele>
        <time>2017-05-21T09:15:31.000Z</time>
      </trkpt>
      <trkpt lat="49.46261" lon="2.00318">
        <ele>112.50081634521</ele>
        <time>2017-05-21T09:15:34.000Z</time>
      </trkpt>
      <trkpt lat="49.4626" lon="2.00318">
        <ele>112.61855316162</ele>
        <time>2017-05-21T09:15:37.000Z</time>
      </trkpt>
      <trkpt lat="49.46259" lon="2.0032">
        <ele>112.76483154297</ele>
        <time>2017-05-21T09:15:43.000Z</time>
      </trkpt>
      <trkpt lat="49.46258" lon="2.00321">
        <ele>112.90898132324</ele>
        <time>2017-05-21T09:15:47.000Z</time>
      </trkpt>
      <trkpt lat="49.46257" lon="2.00321">
        <ele>113.09870910645</ele>
        <time>2017-05-21T09:15:50.000Z</time>
      </trkpt>
      <trkpt lat="49.46254" lon="2.00322">
        <ele>113.39583587646</ele>
        <time>2017-05-21T09:15:53.000Z</time>
      </trkpt>
      <trkpt lat="49.46252" lon="2.00323">
        <ele>113.74577331543</ele>
        <time>2017-05-21T09:15:56.000Z</time>
      </trkpt>
      <trkpt lat="49.4625" lon="2.00324">
        <ele>114.0993270874</ele>
        <time>2017-05-21T09:15:59.000Z</time>
      </trkpt>
      <trkpt lat="49.46249" lon="2.00328">
        <ele>114.53105163574</ele>
        <time>2017-05-21T09:16:02.000Z</time>
      </trkpt>
      <trkpt lat="49.46248" lon="2.00331">
        <ele>115.00993347168</ele>
        <time>2017-05-21T09:16:05.000Z</time>
      </trkpt>
      <trkpt lat="49.46247" lon="2.00333">
        <ele>115.45743560791</ele>
        <time>2017-05-21T09:16:08.000Z</time>
      </trkpt>
      <trkpt lat="49.46247" lon="2.00333">
        <ele>115.84242248535</ele>
        <time>2017-05-21T09:16:10.000Z</time>
      </trkpt>
      <trkpt lat="49.46245" lon="2.00333">
        <ele>116.20821380615</ele>
        <time>2017-05-21T09:16:13.000Z</time>
      </trkpt>
      <trkpt lat="49.46244" lon="2.00335">
        <ele>116.51142883301</ele>
        <time>2017-05-21T09:16:16.000Z</time>
      </trkpt>
      <trkpt lat="49.46244" lon="2.00336">
        <ele>116.77601623535</ele>
        <time>2017-05-21T09:16:19.000Z</time>
      </trkpt>
      <trkpt lat="49.46243" lon="2.00338">
        <ele>117.0277557373</ele>
        <time>2017-05-21T09:16:21.000Z</time>
      </trkpt>
      <trkpt lat="49.46242" lon="2.00338">
        <ele>117.285987854</ele>
        <time>2017-05-21T09:16:24.000Z</time>
      </trkpt>
      <trkpt lat="49.46241" lon="2.0034">
        <ele>117.54670715332</ele>
        <time>2017-05-21T09:16:27.000Z</time>
      </trkpt>
      <trkpt lat="49.46241" lon="2.0034">
        <ele>117.54670715332</ele>
        <time>2017-05-21T09:16:47.000Z</time>
      </trkpt>
      <trkpt lat="49.46241" lon="2.00344">
        <ele>117.85571289062</ele>
        <time>2017-05-21T09:16:51.000Z</time>
      </trkpt>
      <trkpt lat="49.46241" lon="2.00347">
        <ele>118.15567779541</ele>
        <time>2017-05-21T09:16:57.000Z</time>
      </trkpt>
      <trkpt lat="49.46243" lon="2.00355">
        <ele>118.54786682129</ele>
        <time>2017-05-21T09:17:09.000Z</time>
      </trkpt>
      <trkpt lat="49.46243" lon="2.00356">
        <ele>118.91219329834</ele>
        <time>2017-05-21T09:17:16.000Z</time>
      </trkpt>
      <trkpt lat="49.46243" lon="2.00356">
        <ele>118.91219329834</ele>
        <time>2017-05-21T09:17:36.000Z</time>
      </trkpt>
      <trkpt lat="49.46243" lon="2.00358">
        <ele>119.26805114746</ele>
        <time>2017-05-21T09:17:37.000Z</time>
      </trkpt>
      <trkpt lat="49.46242" lon="2.00359">
        <ele>119.57466125488</ele>
        <time>2017-05-21T09:17:40.000Z</time>
      </trkpt>
      <trkpt lat="49.46241" lon="2.00361">
        <ele>119.89766693115</ele>
        <time>2017-05-21T09:17:42.000Z</time>
      </trkpt>
      <trkpt lat="49.4624" lon="2.00365">
        <ele>120.18176269531</ele>
        <time>2017-05-21T09:17:45.000Z</time>
      </trkpt>
      <trkpt lat="49.46238" lon="2.00366">
        <ele>120.52241516113</ele>
        <time>2017-05-21T09:17:47.000Z</time>
      </trkpt>
      <trkpt lat="49.46236" lon="2.0037">
        <ele>120.93563079834</ele>
        <time>2017-05-21T09:17:50.000Z</time>
      </trkpt>
      <trkpt lat="49.46234" lon="2.00373">
        <ele>121.42333984375</ele>
        <time>2017-05-21T09:17:52.000Z</time>
      </trkpt>
      <trkpt lat="49.46229" lon="2.00381">
        <ele>122.11302185059</ele>
        <time>2017-05-21T09:17:55.000Z</time>
      </trkpt>
      <trkpt lat="49.46227" lon="2.00385">
        <ele>122.8231048584</ele>
        <time>2017-05-21T09:17:57.000Z</time>
      </trkpt>
      <trkpt lat="49.46222" lon="2.00392">
        <ele>123.6697845459</ele>
        <time>2017-05-21T09:18:00.000Z</time>
      </trkpt>
      <trkpt lat="49.46217" lon="2.00401">
        <ele>124.61964416504</ele>
        <time>2017-05-21T09:18:03.000Z</time>
      </trkpt>
      <trkpt lat="49.46214" lon="2.00406">
        <ele>125.58415222168</ele>
        <time>2017-05-21T09:18:05.000Z</time>
      </trkpt>
      <trkpt lat="49.46209" lon="2.00416">
        <ele>126.49538421631</ele>
        <time>2017-05-21T09:18:08.000Z</time>
      </trkpt>
      <trkpt lat="49.46202" lon="2.00427">
        <ele>127.39583587646</ele>
        <time>2017-05-21T09:18:11.000Z</time>
      </trkpt>
      <trkpt lat="49.46199" lon="2.00435">
        <ele>128.12992858887</ele>
        <time>2017-05-21T09:18:13.000Z</time>
      </trkpt>
      <trkpt lat="49.46194" lon="2.00449">
        <ele>128.68881225586</ele>
        <time>2017-05-21T09:18:16.000Z</time>
      </trkpt>
      <trkpt lat="49.46189" lon="2.00463">
        <ele>129.15742492676</ele>
        <time>2017-05-21T09:18:19.000Z</time>
      </trkpt>
      <trkpt lat="49.46183" lon="2.00476">
        <ele>129.44973754883</ele>
        <time>2017-05-21T09:18:22.000Z</time>
      </trkpt>
      <trkpt lat="49.46178" lon="2.00483">
        <ele>129.64273071289</ele>
        <time>2017-05-21T09:18:24.000Z</time>
      </trkpt>
      <trkpt lat="49.46174" lon="2.00499">
        <ele>129.78744506836</ele>
        <time>2017-05-21T09:18:27.000Z</time>
      </trkpt>
      <trkpt lat="49.46169" lon="2.00518">
        <ele>129.80787658691</ele>
        <time>2017-05-21T09:18:30.000Z</time>
      </trkpt>
      <trkpt lat="49.46167" lon="2.0053">
        <ele>129.72074890137</ele>
        <time>2017-05-21T09:18:32.000Z</time>
      </trkpt>
      <trkpt lat="49.46165" lon="2.00537">
        <ele>129.54931640625</ele>
        <time>2017-05-21T09:18:34.000Z</time>
      </trkpt>
      <trkpt lat="49.46161" lon="2.00549">
        <ele>129.24044799805</ele>
        <time>2017-05-21T09:18:37.000Z</time>
      </trkpt>
      <trkpt lat="49.46156" lon="2.00563">
        <ele>128.79411315918</ele>
        <time>2017-05-21T09:18:40.000Z</time>
      </trkpt>
      <trkpt lat="49.46152" lon="2.00573">
        <ele>128.29067993164</ele>
        <time>2017-05-21T09:18:42.000Z</time>
      </trkpt>
      <trkpt lat="49.46147" lon="2.00583">
        <ele>127.70542144775</ele>
        <time>2017-05-21T09:18:44.000Z</time>
      </trkpt>
      <trkpt lat="49.46139" lon="2.00597">
        <ele>127.051902771</ele>
        <time>2017-05-21T09:18:47.000Z</time>
      </trkpt>
      <trkpt lat="49.46136" lon="2.00603">
        <ele>126.47434234619</ele>
        <time>2017-05-21T09:18:49.000Z</time>
      </trkpt>
      <trkpt lat="49.46129" lon="2.00615">
        <ele>125.94052886963</ele>
        <time>2017-05-21T09:18:52.000Z</time>
      </trkpt>
      <trkpt lat="49.4612" lon="2.00622">
        <ele>125.40041351318</ele>
        <time>2017-05-21T09:18:54.000Z</time>
      </trkpt>
      <trkpt lat="49.4611" lon="2.0063">
        <ele>124.84851074219</ele>
        <time>2017-05-21T09:18:56.000Z</time>
      </trkpt>
      <trkpt lat="49.46096" lon="2.00646">
        <ele>124.24731445312</ele>
        <time>2017-05-21T09:18:59.000Z</time>
      </trkpt>
      <trkpt lat="49.46088" lon="2.00662">
        <ele>123.60781097412</ele>
        <time>2017-05-21T09:19:01.000Z</time>
      </trkpt>
      <trkpt lat="49.46077" lon="2.00687">
        <ele>123.11846923828</ele>
        <time>2017-05-21T09:19:04.000Z</time>
      </trkpt>
      <trkpt lat="49.46067" lon="2.00707">
        <ele>122.84272766113</ele>
        <time>2017-05-21T09:19:06.000Z</time>
      </trkpt>
      <trkpt lat="49.46056" lon="2.00727">
        <ele>122.75498199463</ele>
        <time>2017-05-21T09:19:08.000Z</time>
      </trkpt>
      <trkpt lat="49.4604" lon="2.00761">
        <ele>122.72053527832</ele>
        <time>2017-05-21T09:19:11.000Z</time>
      </trkpt>
      <trkpt lat="49.46035" lon="2.00773">
        <ele>122.6595916748</ele>
        <time>2017-05-21T09:19:14.000Z</time>
      </trkpt>
      <trkpt lat="49.46023" lon="2.00787">
        <ele>122.39218902588</ele>
        <time>2017-05-21T09:19:17.000Z</time>
      </trkpt>
      <trkpt lat="49.46015" lon="2.00799">
        <ele>121.92004394531</ele>
        <time>2017-05-21T09:19:19.000Z</time>
      </trkpt>
      <trkpt lat="49.46006" lon="2.00816">
        <ele>121.24338531494</ele>
        <time>2017-05-21T09:19:22.000Z</time>
      </trkpt>
      <trkpt lat="49.45999" lon="2.00827">
        <ele>120.58026123047</ele>
        <time>2017-05-21T09:19:24.000Z</time>
      </trkpt>
      <trkpt lat="49.45992" lon="2.00839">
        <ele>119.98741149902</ele>
        <time>2017-05-21T09:19:26.000Z</time>
      </trkpt>
      <trkpt lat="49.45982" lon="2.00857">
        <ele>119.41804504395</ele>
        <time>2017-05-21T09:19:29.000Z</time>
      </trkpt>
      <trkpt lat="49.45975" lon="2.00869">
        <ele>118.88116455078</ele>
        <time>2017-05-21T09:19:31.000Z</time>
      </trkpt>
      <trkpt lat="49.45965" lon="2.00887">
        <ele>118.36822509766</ele>
        <time>2017-05-21T09:19:34.000Z</time>
      </trkpt>
      <trkpt lat="49.45955" lon="2.00905">
        <ele>117.80415344238</ele>
        <time>2017-05-21T09:19:37.000Z</time>
      </trkpt>
      <trkpt lat="49.45943" lon="2.00925">
        <ele>117.10717773438</ele>
        <time>2017-05-21T09:19:40.000Z</time>
      </trkpt>
      <trkpt lat="49.45931" lon="2.00946">
        <ele>116.34047698975</ele>
        <time>2017-05-21T09:19:43.000Z</time>
      </trkpt>
      <trkpt lat="49.45918" lon="2.00968">
        <ele>115.41463470459</ele>
        <time>2017-05-21T09:19:46.000Z</time>
      </trkpt>
      <trkpt lat="49.4591" lon="2.00983">
        <ele>114.4645614624</ele>
        <time>2017-05-21T09:19:48.000Z</time>
      </trkpt>
      <trkpt lat="49.45897" lon="2.01003">
        <ele>113.61506652832</ele>
        <time>2017-05-21T09:19:51.000Z</time>
      </trkpt>
      <trkpt lat="49.4589" lon="2.01019">
        <ele>113.23803710938</ele>
        <time>2017-05-21T09:19:54.000Z</time>
      </trkpt>
      <trkpt lat="49.45878" lon="2.01026">
        <ele>113.32442474365</ele>
        <time>2017-05-21T09:19:56.000Z</time>
      </trkpt>
      <trkpt lat="49.45877" lon="2.01039">
        <ele>113.87950134277</ele>
        <time>2017-05-21T09:19:58.000Z</time>
      </trkpt>
      <trkpt lat="49.45872" lon="2.01044">
        <ele>114.78643798828</ele>
        <time>2017-05-21T09:20:01.000Z</time>
      </trkpt>
      <trkpt lat="49.45864" lon="2.01055">
        <ele>116.07053375244</ele>
        <time>2017-05-21T09:20:04.000Z</time>
      </trkpt>
      <trkpt lat="49.4586" lon="2.01065">
        <ele>117.35345458984</ele>
        <time>2017-05-21T09:20:07.000Z</time>
      </trkpt>
      <trkpt lat="49.45857" lon="2.0107">
        <ele>118.52149963379</ele>
        <time>2017-05-21T09:20:09.000Z</time>
      </trkpt>
      <trkpt lat="49.45853" lon="2.01076">
        <ele>119.67530822754</ele>
        <time>2017-05-21T09:20:12.000Z</time>
      </trkpt>
      <trkpt lat="49.45849" lon="2.01084">
        <ele>120.91297912598</ele>
        <time>2017-05-21T09:20:15.000Z</time>
      </trkpt>
      <trkpt lat="49.45846" lon="2.0109">
        <ele>121.97066497803</ele>
        <time>2017-05-21T09:20:17.000Z</time>
      </trkpt>
      <trkpt lat="49.45842" lon="2.01096">
        <ele>122.90116882324</ele>
        <time>2017-05-21T09:20:19.000Z</time>
      </trkpt>
      <trkpt lat="49.45839" lon="2.01103">
        <ele>123.85713195801</ele>
        <time>2017-05-21T09:20:22.000Z</time>
      </trkpt>
      <trkpt lat="49.45835" lon="2.0111">
        <ele>124.78742980957</ele>
        <time>2017-05-21T09:20:24.000Z</time>
      </trkpt>
      <trkpt lat="49.45829" lon="2.01119">
        <ele>125.65380859375</ele>
        <time>2017-05-21T09:20:27.000Z</time>
      </trkpt>
      <trkpt lat="49.45824" lon="2.01131">
        <ele>126.58168792725</ele>
        <time>2017-05-21T09:20:30.000Z</time>
      </trkpt>
      <trkpt lat="49.45818" lon="2.01137">
        <ele>127.48642730713</ele>
        <time>2017-05-21T09:20:33.000Z</time>
      </trkpt>
      <trkpt lat="49.45812" lon="2.01139">
        <ele>128.31745910645</ele>
        <time>2017-05-21T09:20:35.000Z</time>
      </trkpt>
      <trkpt lat="49.45807" lon="2.01144">
        <ele>129.08840942383</ele>
        <time>2017-05-21T09:20:37.000Z</time>
      </trkpt>
      <trkpt lat="49.458" lon="2.01158">
        <ele>129.8431854248</ele>
        <time>2017-05-21T09:20:40.000Z</time>
      </trkpt>
      <trkpt lat="49.45795" lon="2.01165">
        <ele>130.48928833008</ele>
        <time>2017-05-21T09:20:42.000Z</time>
      </trkpt>
      <trkpt lat="49.45789" lon="2.01174">
        <ele>131.05094909668</ele>
        <time>2017-05-21T09:20:44.000Z</time>
      </trkpt>
      <trkpt lat="49.45781" lon="2.01189">
        <ele>131.564453125</ele>
        <time>2017-05-21T09:20:47.000Z</time>
      </trkpt>
      <trkpt lat="49.45775" lon="2.01197">
        <ele>132.00151062012</ele>
        <time>2017-05-21T09:20:49.000Z</time>
      </trkpt>
      <trkpt lat="49.45768" lon="2.01207">
        <ele>132.29804992676</ele>
        <time>2017-05-21T09:20:52.000Z</time>
      </trkpt>
      <trkpt lat="49.45761" lon="2.01213">
        <ele>132.54145812988</ele>
        <time>2017-05-21T09:20:55.000Z</time>
      </trkpt>
      <trkpt lat="49.45759" lon="2.01214">
        <ele>132.73519897461</ele>
        <time>2017-05-21T09:20:58.000Z</time>
      </trkpt>
      <trkpt lat="49.4576" lon="2.01213">
        <ele>132.87854003906</ele>
        <time>2017-05-21T09:21:00.000Z</time>
      </trkpt>
      <trkpt lat="49.45759" lon="2.01208">
        <ele>132.99331665039</ele>
        <time>2017-05-21T09:21:02.000Z</time>
      </trkpt>
      <trkpt lat="49.4576" lon="2.01204">
        <ele>133.06112670898</ele>
        <time>2017-05-21T09:21:04.000Z</time>
      </trkpt>
      <trkpt lat="49.45761" lon="2.01201">
        <ele>133.08642578125</ele>
        <time>2017-05-21T09:21:06.000Z</time>
      </trkpt>
      <trkpt lat="49.45761" lon="2.01198">
        <ele>133.1032409668</ele>
        <time>2017-05-21T09:21:09.000Z</time>
      </trkpt>
      <trkpt lat="49.4576" lon="2.01194">
        <ele>133.13838195801</ele>
        <time>2017-05-21T09:21:12.000Z</time>
      </trkpt>
      <trkpt lat="49.45757" lon="2.0119">
        <ele>133.19828796387</ele>
        <time>2017-05-21T09:21:14.000Z</time>
      </trkpt>
      <trkpt lat="49.45753" lon="2.01186">
        <ele>133.2972869873</ele>
        <time>2017-05-21T09:21:16.000Z</time>
      </trkpt>
      <trkpt lat="49.45752" lon="2.01183">
        <ele>133.42106628418</ele>
        <time>2017-05-21T09:21:18.000Z</time>
      </trkpt>
      <trkpt lat="49.4575" lon="2.01178">
        <ele>133.5650177002</ele>
        <time>2017-05-21T09:21:21.000Z</time>
      </trkpt>
      <trkpt lat="49.45749" lon="2.01172">
        <ele>133.72172546387</ele>
        <time>2017-05-21T09:21:24.000Z</time>
      </trkpt>
      <trkpt lat="49.45744" lon="2.01167">
        <ele>133.89372253418</ele>
        <time>2017-05-21T09:21:27.000Z</time>
      </trkpt>
      <trkpt lat="49.45741" lon="2.01164">
        <ele>134.06216430664</ele>
        <time>2017-05-21T09:21:29.000Z</time>
      </trkpt>
      <trkpt lat="49.45734" lon="2.01158">
        <ele>134.25219726562</ele>
        <time>2017-05-21T09:21:32.000Z</time>
      </trkpt>
      <trkpt lat="49.4573" lon="2.01155">
        <ele>134.44960021973</ele>
        <time>2017-05-21T09:21:34.000Z</time>
      </trkpt>
      <trkpt lat="49.45727" lon="2.01152">
        <ele>134.64279174805</ele>
        <time>2017-05-21T09:21:36.000Z</time>
      </trkpt>
      <trkpt lat="49.45723" lon="2.01149">
        <ele>134.80827331543</ele>
        <time>2017-05-21T09:21:39.000Z</time>
      </trkpt>
      <trkpt lat="49.45718" lon="2.01144">
        <ele>134.9606628418</ele>
        <time>2017-05-21T09:21:42.000Z</time>
      </trkpt>
      <trkpt lat="49.45715" lon="2.01141">
        <ele>135.07949829102</ele>
        <time>2017-05-21T09:21:44.000Z</time>
      </trkpt>
      <trkpt lat="49.45708" lon="2.01136">
        <ele>135.1989440918</ele>
        <time>2017-05-21T09:21:47.000Z</time>
      </trkpt>
      <trkpt lat="49.45705" lon="2.01132">
        <ele>135.30390930176</ele>
        <time>2017-05-21T09:21:49.000Z</time>
      </trkpt>
      <trkpt lat="49.45699" lon="2.01125">
        <ele>135.39122009277</ele>
        <time>2017-05-21T09:21:52.000Z</time>
      </trkpt>
      <trkpt lat="49.45695" lon="2.01122">
        <ele>135.46153259277</ele>
        <time>2017-05-21T09:21:54.000Z</time>
      </trkpt>
      <trkpt lat="49.45691" lon="2.01118">
        <ele>135.5234375</ele>
        <time>2017-05-21T09:21:56.000Z</time>
      </trkpt>
      <trkpt lat="49.45686" lon="2.01113">
        <ele>135.55697631836</ele>
        <time>2017-05-21T09:21:59.000Z</time>
      </trkpt>
      <trkpt lat="49.45679" lon="2.01109">
        <ele>135.58285522461</ele>
        <time>2017-05-21T09:22:02.000Z</time>
      </trkpt>
      <trkpt lat="49.45674" lon="2.01106">
        <ele>135.60975646973</ele>
        <time>2017-05-21T09:22:05.000Z</time>
      </trkpt>
      <trkpt lat="49.4567" lon="2.01105">
        <ele>135.63919067383</ele>
        <time>2017-05-21T09:22:07.000Z</time>
      </trkpt>
      <trkpt lat="49.45666" lon="2.01099">
        <ele>135.64131164551</ele>
        <time>2017-05-21T09:22:10.000Z</time>
      </trkpt>
      <trkpt lat="49.4566" lon="2.01094">
        <ele>135.62641906738</ele>
        <time>2017-05-21T09:22:12.000Z</time>
      </trkpt>
      <trkpt lat="49.45656" lon="2.01092">
        <ele>135.61584472656</ele>
        <time>2017-05-21T09:22:14.000Z</time>
      </trkpt>
      <trkpt lat="49.45654" lon="2.0109">
        <ele>135.5924987793</ele>
        <time>2017-05-21T09:22:17.000Z</time>
      </trkpt>
      <trkpt lat="49.45653" lon="2.01089">
        <ele>135.55932617188</ele>
        <time>2017-05-21T09:22:19.000Z</time>
      </trkpt>
      <trkpt lat="49.45651" lon="2.0109">
        <ele>135.55877685547</ele>
        <time>2017-05-21T09:22:22.000Z</time>
      </trkpt>
      <trkpt lat="49.45649" lon="2.01089">
        <ele>135.58264160156</ele>
        <time>2017-05-21T09:22:25.000Z</time>
      </trkpt>
      <trkpt lat="49.45646" lon="2.01088">
        <ele>135.60043334961</ele>
        <time>2017-05-21T09:22:27.000Z</time>
      </trkpt>
      <trkpt lat="49.45644" lon="2.01084">
        <ele>135.60592651367</ele>
        <time>2017-05-21T09:22:29.000Z</time>
      </trkpt>
      <trkpt lat="49.45641" lon="2.01079">
        <ele>135.57109069824</ele>
        <time>2017-05-21T09:22:32.000Z</time>
      </trkpt>
      <trkpt lat="49.45636" lon="2.01074">
        <ele>135.47152709961</ele>
        <time>2017-05-21T09:22:34.000Z</time>
      </trkpt>
      <trkpt lat="49.45626" lon="2.01064">
        <ele>135.2534942627</ele>
        <time>2017-05-21T09:22:37.000Z</time>
      </trkpt>
      <trkpt lat="49.45618" lon="2.01057">
        <ele>134.95649719238</ele>
        <time>2017-05-21T09:22:40.000Z</time>
      </trkpt>
      <trkpt lat="49.45614" lon="2.01054">
        <ele>134.64834594727</ele>
        <time>2017-05-21T09:22:42.000Z</time>
      </trkpt>
      <trkpt lat="49.45611" lon="2.01051">
        <ele>134.35592651367</ele>
        <time>2017-05-21T09:22:44.000Z</time>
      </trkpt>
      <trkpt lat="49.45607" lon="2.01051">
        <ele>134.1215057373</ele>
        <time>2017-05-21T09:22:47.000Z</time>
      </trkpt>
      <trkpt lat="49.45604" lon="2.0105">
        <ele>133.99224853516</ele>
        <time>2017-05-21T09:22:49.000Z</time>
      </trkpt>
      <trkpt lat="49.45602" lon="2.0105">
        <ele>133.94677734375</ele>
        <time>2017-05-21T09:22:51.000Z</time>
      </trkpt>
      <trkpt lat="49.456" lon="2.01049">
        <ele>133.92346191406</ele>
        <time>2017-05-21T09:22:53.000Z</time>
      </trkpt>
      <trkpt lat="49.45596" lon="2.01046">
        <ele>133.88589477539</ele>
        <time>2017-05-21T09:22:56.000Z</time>
      </trkpt>
      <trkpt lat="49.45592" lon="2.01041">
        <ele>133.77244567871</ele>
        <time>2017-05-21T09:22:59.000Z</time>
      </trkpt>
      <trkpt lat="49.45589" lon="2.01038">
        <ele>133.60974121094</ele>
        <time>2017-05-21T09:23:01.000Z</time>
      </trkpt>
      <trkpt lat="49.45586" lon="2.01034">
        <ele>133.39389038086</ele>
        <time>2017-05-21T09:23:03.000Z</time>
      </trkpt>
      <trkpt lat="49.45577" lon="2.0104">
        <ele>133.3127746582</ele>
        <time>2017-05-21T09:23:06.000Z</time>
      </trkpt>
      <trkpt lat="49.4557" lon="2.0105">
        <ele>133.47094726562</ele>
        <time>2017-05-21T09:23:09.000Z</time>
      </trkpt>
      <trkpt lat="49.45565" lon="2.01057">
        <ele>133.82127380371</ele>
        <time>2017-05-21T09:23:11.000Z</time>
      </trkpt>
      <trkpt lat="49.45558" lon="2.01066">
        <ele>134.40005493164</ele>
        <time>2017-05-21T09:23:14.000Z</time>
      </trkpt>
      <trkpt lat="49.45554" lon="2.01074">
        <ele>135.15161132812</ele>
        <time>2017-05-21T09:23:16.000Z</time>
      </trkpt>
      <trkpt lat="49.45547" lon="2.01083">
        <ele>135.92532348633</ele>
        <time>2017-05-21T09:23:19.000Z</time>
      </trkpt>
      <trkpt lat="49.45543" lon="2.0109">
        <ele>136.5986328125</ele>
        <time>2017-05-21T09:23:21.000Z</time>
      </trkpt>
      <trkpt lat="49.45539" lon="2.01095">
        <ele>137.23179626465</ele>
        <time>2017-05-21T09:23:23.000Z</time>
      </trkpt>
      <trkpt lat="49.45532" lon="2.01103">
        <ele>137.81744384766</ele>
        <time>2017-05-21T09:23:26.000Z</time>
      </trkpt>
      <trkpt lat="49.45526" lon="2.01112">
        <ele>138.42175292969</ele>
        <time>2017-05-21T09:23:29.000Z</time>
      </trkpt>
      <trkpt lat="49.4552" lon="2.0112">
        <ele>139.03253173828</ele>
        <time>2017-05-21T09:23:32.000Z</time>
      </trkpt>
      <trkpt lat="49.45514" lon="2.0113">
        <ele>139.7301940918</ele>
        <time>2017-05-21T09:23:35.000Z</time>
      </trkpt>
      <trkpt lat="49.45509" lon="2.01139">
        <ele>140.52856445312</ele>
        <time>2017-05-21T09:23:38.000Z</time>
      </trkpt>
      <trkpt lat="49.45502" lon="2.01146">
        <ele>141.38067626953</ele>
        <time>2017-05-21T09:23:41.000Z</time>
      </trkpt>
      <trkpt lat="49.45497" lon="2.01149">
        <ele>142.18344116211</ele>
        <time>2017-05-21T09:23:44.000Z</time>
      </trkpt>
      <trkpt lat="49.45492" lon="2.01152">
        <ele>142.9220123291</ele>
        <time>2017-05-21T09:23:46.000Z</time>
      </trkpt>
      <trkpt lat="49.45486" lon="2.01157">
        <ele>143.60589599609</ele>
        <time>2017-05-21T09:23:49.000Z</time>
      </trkpt>
      <trkpt lat="49.45481" lon="2.01161">
        <ele>144.20333862305</ele>
        <time>2017-05-21T09:23:51.000Z</time>
      </trkpt>
      <trkpt lat="49.45476" lon="2.01163">
        <ele>144.6851348877</ele>
        <time>2017-05-21T09:23:53.000Z</time>
      </trkpt>
      <trkpt lat="49.45468" lon="2.01166">
        <ele>145.1773223877</ele>
        <time>2017-05-21T09:23:56.000Z</time>
      </trkpt>
      <trkpt lat="49.45461" lon="2.0117">
        <ele>145.62446594238</ele>
        <time>2017-05-21T09:23:59.000Z</time>
      </trkpt>
      <trkpt lat="49.45456" lon="2.01171">
        <ele>145.97854614258</ele>
        <time>2017-05-21T09:24:01.000Z</time>
      </trkpt>
      <trkpt lat="49.45451" lon="2.01172">
        <ele>146.27339172363</ele>
        <time>2017-05-21T09:24:03.000Z</time>
      </trkpt>
      <trkpt lat="49.45446" lon="2.01176">
        <ele>146.52958679199</ele>
        <time>2017-05-21T09:24:06.000Z</time>
      </trkpt>
      <trkpt lat="49.45444" lon="2.01178">
        <ele>146.69052124023</ele>
        <time>2017-05-21T09:24:08.000Z</time>
      </trkpt>
      <trkpt lat="49.45441" lon="2.01179">
        <ele>146.81936645508</ele>
        <time>2017-05-21T09:24:11.000Z</time>
      </trkpt>
      <trkpt lat="49.4544" lon="2.0118">
        <ele>146.92147827148</ele>
        <time>2017-05-21T09:24:13.000Z</time>
      </trkpt>
      <trkpt lat="49.45436" lon="2.01182">
        <ele>147.00564575195</ele>
        <time>2017-05-21T09:24:15.000Z</time>
      </trkpt>
      <trkpt lat="49.4543" lon="2.01186">
        <ele>147.09492492676</ele>
        <time>2017-05-21T09:24:17.000Z</time>
      </trkpt>
      <trkpt lat="49.45418" lon="2.0119">
        <ele>147.24238586426</ele>
        <time>2017-05-21T09:24:20.000Z</time>
      </trkpt>
      <trkpt lat="49.45412" lon="2.01193">
        <ele>147.38555908203</ele>
        <time>2017-05-21T09:24:22.000Z</time>
      </trkpt>
      <trkpt lat="49.45402" lon="2.01198">
        <ele>147.51683044434</ele>
        <time>2017-05-21T09:24:25.000Z</time>
      </trkpt>
      <trkpt lat="49.45393" lon="2.01205">
        <ele>147.6042175293</ele>
        <time>2017-05-21T09:24:28.000Z</time>
      </trkpt>
      <trkpt lat="49.45388" lon="2.01209">
        <ele>147.6350402832</ele>
        <time>2017-05-21T09:24:30.000Z</time>
      </trkpt>
      <trkpt lat="49.45381" lon="2.01214">
        <ele>147.56579589844</ele>
        <time>2017-05-21T09:24:32.000Z</time>
      </trkpt>
      <trkpt lat="49.45373" lon="2.01217">
        <ele>147.45695495605</ele>
        <time>2017-05-21T09:24:34.000Z</time>
      </trkpt>
      <trkpt lat="49.45359" lon="2.01222">
        <ele>147.29156494141</ele>
        <time>2017-05-21T09:24:37.000Z</time>
      </trkpt>
      <trkpt lat="49.45346" lon="2.01233">
        <ele>147.01188659668</ele>
        <time>2017-05-21T09:24:40.000Z</time>
      </trkpt>
      <trkpt lat="49.45332" lon="2.01244">
        <ele>146.55422973633</ele>
        <time>2017-05-21T09:24:43.000Z</time>
      </trkpt>
      <trkpt lat="49.45316" lon="2.01258">
        <ele>145.74578857422</ele>
        <time>2017-05-21T09:24:46.000Z</time>
      </trkpt>
      <trkpt lat="49.45301" lon="2.01271">
        <ele>144.6981048584</ele>
        <time>2017-05-21T09:24:49.000Z</time>
      </trkpt>
      <trkpt lat="49.45292" lon="2.01279">
        <ele>143.55584716797</ele>
        <time>2017-05-21T09:24:51.000Z</time>
      </trkpt>
      <trkpt lat="49.45279" lon="2.0129">
        <ele>142.36892700195</ele>
        <time>2017-05-21T09:24:54.000Z</time>
      </trkpt>
      <trkpt lat="49.45268" lon="2.01301">
        <ele>141.23950195312</ele>
        <time>2017-05-21T09:24:57.000Z</time>
      </trkpt>
      <trkpt lat="49.45261" lon="2.01309">
        <ele>140.41967773438</ele>
        <time>2017-05-21T09:24:59.000Z</time>
      </trkpt>
      <trkpt lat="49.45251" lon="2.01319">
        <ele>139.7705078125</ele>
        <time>2017-05-21T09:25:02.000Z</time>
      </trkpt>
      <trkpt lat="49.45241" lon="2.01329">
        <ele>139.27215576172</ele>
        <time>2017-05-21T09:25:05.000Z</time>
      </trkpt>
      <trkpt lat="49.45232" lon="2.01337">
        <ele>138.99862670898</ele>
        <time>2017-05-21T09:25:08.000Z</time>
      </trkpt>
      <trkpt lat="49.45226" lon="2.01342">
        <ele>138.92715454102</ele>
        <time>2017-05-21T09:25:10.000Z</time>
      </trkpt>
      <trkpt lat="49.45221" lon="2.01348">
        <ele>138.99002075195</ele>
        <time>2017-05-21T09:25:12.000Z</time>
      </trkpt>
      <trkpt lat="49.45214" lon="2.01353">
        <ele>139.19052124023</ele>
        <time>2017-05-21T09:25:14.000Z</time>
      </trkpt>
      <trkpt lat="49.45207" lon="2.01362">
        <ele>139.48454284668</ele>
        <time>2017-05-21T09:25:17.000Z</time>
      </trkpt>
      <trkpt lat="49.45201" lon="2.01369">
        <ele>139.8034362793</ele>
        <time>2017-05-21T09:25:19.000Z</time>
      </trkpt>
      <trkpt lat="49.45192" lon="2.01378">
        <ele>140.11671447754</ele>
        <time>2017-05-21T09:25:22.000Z</time>
      </trkpt>
      <trkpt lat="49.45187" lon="2.01384">
        <ele>140.41223144531</ele>
        <time>2017-05-21T09:25:24.000Z</time>
      </trkpt>
      <trkpt lat="49.45179" lon="2.01394">
        <ele>140.72041320801</ele>
        <time>2017-05-21T09:25:27.000Z</time>
      </trkpt>
      <trkpt lat="49.4517" lon="2.01402">
        <ele>140.95378112793</ele>
        <time>2017-05-21T09:25:30.000Z</time>
      </trkpt>
      <trkpt lat="49.45164" lon="2.01407">
        <ele>141.12261962891</ele>
        <time>2017-05-21T09:25:32.000Z</time>
      </trkpt>
      <trkpt lat="49.45157" lon="2.01412">
        <ele>141.25784301758</ele>
        <time>2017-05-21T09:25:34.000Z</time>
      </trkpt>
      <trkpt lat="49.45148" lon="2.0142">
        <ele>141.37612915039</ele>
        <time>2017-05-21T09:25:37.000Z</time>
      </trkpt>
      <trkpt lat="49.45142" lon="2.01425">
        <ele>141.4672088623</ele>
        <time>2017-05-21T09:25:39.000Z</time>
      </trkpt>
      <trkpt lat="49.45137" lon="2.01431">
        <ele>141.57247924805</ele>
        <time>2017-05-21T09:25:41.000Z</time>
      </trkpt>
      <trkpt lat="49.45129" lon="2.0144">
        <ele>141.71246337891</ele>
        <time>2017-05-21T09:25:44.000Z</time>
      </trkpt>
      <trkpt lat="49.45123" lon="2.01445">
        <ele>141.84121704102</ele>
        <time>2017-05-21T09:25:46.000Z</time>
      </trkpt>
      <trkpt lat="49.45116" lon="2.0145">
        <ele>141.95112609863</ele>
        <time>2017-05-21T09:25:48.000Z</time>
      </trkpt>
      <trkpt lat="49.45107" lon="2.01458">
        <ele>142.03308105469</ele>
        <time>2017-05-21T09:25:51.000Z</time>
      </trkpt>
      <trkpt lat="49.45101" lon="2.01468">
        <ele>142.1403503418</ele>
        <time>2017-05-21T09:25:54.000Z</time>
      </trkpt>
      <trkpt lat="49.451" lon="2.01483">
        <ele>142.3630065918</ele>
        <time>2017-05-21T09:25:57.000Z</time>
      </trkpt>
      <trkpt lat="49.45098" lon="2.01499">
        <ele>142.71182250977</ele>
        <time>2017-05-21T09:26:00.000Z</time>
      </trkpt>
      <trkpt lat="49.45095" lon="2.01511">
        <ele>143.10095214844</ele>
        <time>2017-05-21T09:26:02.000Z</time>
      </trkpt>
      <trkpt lat="49.45092" lon="2.01523">
        <ele>143.53219604492</ele>
        <time>2017-05-21T09:26:04.000Z</time>
      </trkpt>
      <trkpt lat="49.45089" lon="2.01535">
        <ele>143.96260070801</ele>
        <time>2017-05-21T09:26:06.000Z</time>
      </trkpt>
      <trkpt lat="49.45089" lon="2.01548">
        <ele>144.32498168945</ele>
        <time>2017-05-21T09:26:08.000Z</time>
      </trkpt>
      <trkpt lat="49.45092" lon="2.01568">
        <ele>144.71014404297</ele>
        <time>2017-05-21T09:26:11.000Z</time>
      </trkpt>
      <trkpt lat="49.45095" lon="2.01586">
        <ele>145.16801452637</ele>
        <time>2017-05-21T09:26:14.000Z</time>
      </trkpt>
      <trkpt lat="49.45094" lon="2.01601">
        <ele>145.67539978027</ele>
        <time>2017-05-21T09:26:17.000Z</time>
      </trkpt>
      <trkpt lat="49.45093" lon="2.01611">
        <ele>146.18423461914</ele>
        <time>2017-05-21T09:26:19.000Z</time>
      </trkpt>
      <trkpt lat="49.4509" lon="2.01626">
        <ele>146.70324707031</ele>
        <time>2017-05-21T09:26:22.000Z</time>
      </trkpt>
      <trkpt lat="49.45086" lon="2.01629">
        <ele>147.08108520508</ele>
        <time>2017-05-21T09:26:25.000Z</time>
      </trkpt>
      <trkpt lat="49.45083" lon="2.01626">
        <ele>147.31672668457</ele>
        <time>2017-05-21T09:26:27.000Z</time>
      </trkpt>
      <trkpt lat="49.45073" lon="2.01623">
        <ele>147.34693908691</ele>
        <time>2017-05-21T09:26:30.000Z</time>
      </trkpt>
      <trkpt lat="49.45057" lon="2.01626">
        <ele>147.22547912598</ele>
        <time>2017-05-21T09:26:33.000Z</time>
      </trkpt>
      <trkpt lat="49.45049" lon="2.01628">
        <ele>146.96047973633</ele>
        <time>2017-05-21T09:26:35.000Z</time>
      </trkpt>
      <trkpt lat="49.45033" lon="2.01627">
        <ele>146.53515625</ele>
        <time>2017-05-21T09:26:38.000Z</time>
      </trkpt>
      <trkpt lat="49.45022" lon="2.01626">
        <ele>146.03550720215</ele>
        <time>2017-05-21T09:26:40.000Z</time>
      </trkpt>
      <trkpt lat="49.45006" lon="2.01624">
        <ele>145.4722442627</ele>
        <time>2017-05-21T09:26:43.000Z</time>
      </trkpt>
      <trkpt lat="49.44988" lon="2.01625">
        <ele>145.07553100586</ele>
        <time>2017-05-21T09:26:46.000Z</time>
      </trkpt>
      <trkpt lat="49.44971" lon="2.01628">
        <ele>144.92651367188</ele>
        <time>2017-05-21T09:26:49.000Z</time>
      </trkpt>
      <trkpt lat="49.44954" lon="2.01629">
        <ele>145.07795715332</ele>
        <time>2017-05-21T09:26:52.000Z</time>
      </trkpt>
      <trkpt lat="49.44939" lon="2.01629">
        <ele>145.45852661133</ele>
        <time>2017-05-21T09:26:55.000Z</time>
      </trkpt>
      <trkpt lat="49.44926" lon="2.01627">
        <ele>146.0979309082</ele>
        <time>2017-05-21T09:26:58.000Z</time>
      </trkpt>
      <trkpt lat="49.44916" lon="2.01624">
        <ele>146.68991088867</ele>
        <time>2017-05-21T09:27:01.000Z</time>
      </trkpt>
      <trkpt lat="49.44903" lon="2.01622">
        <ele>147.14401245117</ele>
        <time>2017-05-21T09:27:04.000Z</time>
      </trkpt>
      <trkpt lat="49.44894" lon="2.01622">
        <ele>147.49900817871</ele>
        <time>2017-05-21T09:27:06.000Z</time>
      </trkpt>
      <trkpt lat="49.44888" lon="2.0162">
        <ele>147.73127746582</ele>
        <time>2017-05-21T09:27:08.000Z</time>
      </trkpt>
      <trkpt lat="49.4488" lon="2.01616">
        <ele>147.86747741699</ele>
        <time>2017-05-21T09:27:10.000Z</time>
      </trkpt>
      <trkpt lat="49.44868" lon="2.01611">
        <ele>147.94717407227</ele>
        <time>2017-05-21T09:27:13.000Z</time>
      </trkpt>
      <trkpt lat="49.44861" lon="2.01606">
        <ele>147.91638183594</ele>
        <time>2017-05-21T09:27:15.000Z</time>
      </trkpt>
      <trkpt lat="49.44849" lon="2.01599">
        <ele>147.75151062012</ele>
        <time>2017-05-21T09:27:18.000Z</time>
      </trkpt>
      <trkpt lat="49.44836" lon="2.01596">
        <ele>147.58628845215</ele>
        <time>2017-05-21T09:27:21.000Z</time>
      </trkpt>
      <trkpt lat="49.44824" lon="2.01595">
        <ele>147.54078674316</ele>
        <time>2017-05-21T09:27:24.000Z</time>
      </trkpt>
      <trkpt lat="49.44812" lon="2.01597">
        <ele>147.71699523926</ele>
        <time>2017-05-21T09:27:27.000Z</time>
      </trkpt>
      <trkpt lat="49.44805" lon="2.01597">
        <ele>148.03207397461</ele>
        <time>2017-05-21T09:27:29.000Z</time>
      </trkpt>
      <trkpt lat="49.44793" lon="2.01596">
        <ele>148.55233764648</ele>
        <time>2017-05-21T09:27:32.000Z</time>
      </trkpt>
      <trkpt lat="49.44786" lon="2.01597">
        <ele>149.17636108398</ele>
        <time>2017-05-21T09:27:34.000Z</time>
      </trkpt>
      <trkpt lat="49.44779" lon="2.01598">
        <ele>149.79025268555</ele>
        <time>2017-05-21T09:27:36.000Z</time>
      </trkpt>
      <trkpt lat="49.44772" lon="2.01597">
        <ele>150.28408813477</ele>
        <time>2017-05-21T09:27:39.000Z</time>
      </trkpt>
      <trkpt lat="49.44766" lon="2.01595">
        <ele>150.71911621094</ele>
        <time>2017-05-21T09:27:41.000Z</time>
      </trkpt>
      <trkpt lat="49.44759" lon="2.01592">
        <ele>151.0329284668</ele>
        <time>2017-05-21T09:27:43.000Z</time>
      </trkpt>
      <trkpt lat="49.44753" lon="2.01586">
        <ele>151.18783569336</ele>
        <time>2017-05-21T09:27:46.000Z</time>
      </trkpt>
      <trkpt lat="49.44748" lon="2.01583">
        <ele>151.2232208252</ele>
        <time>2017-05-21T09:27:48.000Z</time>
      </trkpt>
      <trkpt lat="49.44739" lon="2.01579">
        <ele>151.21504211426</ele>
        <time>2017-05-21T09:27:51.000Z</time>
      </trkpt>
      <trkpt lat="49.44732" lon="2.01576">
        <ele>151.18759155273</ele>
        <time>2017-05-21T09:27:53.000Z</time>
      </trkpt>
      <trkpt lat="49.44721" lon="2.01572">
        <ele>151.15408325195</ele>
        <time>2017-05-21T09:27:56.000Z</time>
      </trkpt>
      <trkpt lat="49.4471" lon="2.01572">
        <ele>151.26892089844</ele>
        <time>2017-05-21T09:27:59.000Z</time>
      </trkpt>
      <trkpt lat="49.44703" lon="2.01571">
        <ele>151.46850585938</ele>
        <time>2017-05-21T09:28:01.000Z</time>
      </trkpt>
      <trkpt lat="49.44696" lon="2.01571">
        <ele>151.69625854492</ele>
        <time>2017-05-21T09:28:03.000Z</time>
      </trkpt>
      <trkpt lat="49.4469" lon="2.0157">
        <ele>151.96003723145</ele>
        <time>2017-05-21T09:28:05.000Z</time>
      </trkpt>
      <trkpt lat="49.4468" lon="2.01573">
        <ele>152.36636352539</ele>
        <time>2017-05-21T09:28:08.000Z</time>
      </trkpt>
      <trkpt lat="49.44674" lon="2.01573">
        <ele>152.73315429688</ele>
        <time>2017-05-21T09:28:10.000Z</time>
      </trkpt>
      <trkpt lat="49.44669" lon="2.01573">
        <ele>153.09185791016</ele>
        <time>2017-05-21T09:28:12.000Z</time>
      </trkpt>
      <trkpt lat="49.44663" lon="2.01575">
        <ele>153.52520751953</ele>
        <time>2017-05-21T09:28:14.000Z</time>
      </trkpt>
      <trkpt lat="49.44653" lon="2.01581">
        <ele>154.1884765625</ele>
        <time>2017-05-21T09:28:17.000Z</time>
      </trkpt>
      <trkpt lat="49.44648" lon="2.01582">
        <ele>154.83245849609</ele>
        <time>2017-05-21T09:28:19.000Z</time>
      </trkpt>
      <trkpt lat="49.44638" lon="2.01585">
        <ele>155.62809753418</ele>
        <time>2017-05-21T09:28:22.000Z</time>
      </trkpt>
      <trkpt lat="49.44628" lon="2.01588">
        <ele>156.56828308105</ele>
        <time>2017-05-21T09:28:25.000Z</time>
      </trkpt>
      <trkpt lat="49.4462" lon="2.01585">
        <ele>157.4808807373</ele>
        <time>2017-05-21T09:28:28.000Z</time>
      </trkpt>
      <trkpt lat="49.44614" lon="2.01583">
        <ele>158.1813659668</ele>
        <time>2017-05-21T09:28:30.000Z</time>
      </trkpt>
      <trkpt lat="49.44605" lon="2.0158">
        <ele>158.83937072754</ele>
        <time>2017-05-21T09:28:33.000Z</time>
      </trkpt>
      <trkpt lat="49.44598" lon="2.01579">
        <ele>159.3742980957</ele>
        <time>2017-05-21T09:28:35.000Z</time>
      </trkpt>
      <trkpt lat="49.44592" lon="2.01577">
        <ele>159.76376342773</ele>
        <time>2017-05-21T09:28:37.000Z</time>
      </trkpt>
      <trkpt lat="49.44584" lon="2.01575">
        <ele>160.14170837402</ele>
        <time>2017-05-21T09:28:40.000Z</time>
      </trkpt>
      <trkpt lat="49.44577" lon="2.01575">
        <ele>160.4740447998</ele>
        <time>2017-05-21T09:28:42.000Z</time>
      </trkpt>
      <trkpt lat="49.44568" lon="2.01575">
        <ele>160.75419616699</ele>
        <time>2017-05-21T09:28:45.000Z</time>
      </trkpt>
      <trkpt lat="49.44563" lon="2.01575">
        <ele>160.93673706055</ele>
        <time>2017-05-21T09:28:47.000Z</time>
      </trkpt>
      <trkpt lat="49.44555" lon="2.01571">
        <ele>160.99890136719</ele>
        <time>2017-05-21T09:28:50.000Z</time>
      </trkpt>
      <trkpt lat="49.44544" lon="2.01567">
        <ele>160.89028930664</ele>
        <time>2017-05-21T09:28:53.000Z</time>
      </trkpt>
      <trkpt lat="49.44532" lon="2.01565">
        <ele>160.75788879395</ele>
        <time>2017-05-21T09:28:56.000Z</time>
      </trkpt>
      <trkpt lat="49.44523" lon="2.0156">
        <ele>160.49765014648</ele>
        <time>2017-05-21T09:28:59.000Z</time>
      </trkpt>
      <trkpt lat="49.44519" lon="2.01558">
        <ele>160.20137023926</ele>
        <time>2017-05-21T09:29:01.000Z</time>
      </trkpt>
      <trkpt lat="49.44512" lon="2.01557">
        <ele>159.9672088623</ele>
        <time>2017-05-21T09:29:04.000Z</time>
      </trkpt>
      <trkpt lat="49.44506" lon="2.01557">
        <ele>159.85144042969</ele>
        <time>2017-05-21T09:29:06.000Z</time>
      </trkpt>
      <trkpt lat="49.44497" lon="2.01557">
        <ele>159.75588989258</ele>
        <time>2017-05-21T09:29:09.000Z</time>
      </trkpt>
      <trkpt lat="49.44493" lon="2.01557">
        <ele>159.73750305176</ele>
        <time>2017-05-21T09:29:11.000Z</time>
      </trkpt>
      <trkpt lat="49.44484" lon="2.01556">
        <ele>159.73141479492</ele>
        <time>2017-05-21T09:29:14.000Z</time>
      </trkpt>
      <trkpt lat="49.44476" lon="2.01553">
        <ele>159.66665649414</ele>
        <time>2017-05-21T09:29:17.000Z</time>
      </trkpt>
      <trkpt lat="49.44471" lon="2.0155">
        <ele>159.49423217773</ele>
        <time>2017-05-21T09:29:19.000Z</time>
      </trkpt>
      <trkpt lat="49.44465" lon="2.01546">
        <ele>159.2209777832</ele>
        <time>2017-05-21T09:29:21.000Z</time>
      </trkpt>
      <trkpt lat="49.44459" lon="2.01543">
        <ele>158.90844726562</ele>
        <time>2017-05-21T09:29:24.000Z</time>
      </trkpt>
      <trkpt lat="49.44454" lon="2.01543">
        <ele>158.61991882324</ele>
        <time>2017-05-21T09:29:26.000Z</time>
      </trkpt>
      <trkpt lat="49.44444" lon="2.01547">
        <ele>158.47248840332</ele>
        <time>2017-05-21T09:29:29.000Z</time>
      </trkpt>
      <trkpt lat="49.44438" lon="2.01552">
        <ele>158.4935760498</ele>
        <time>2017-05-21T09:29:31.000Z</time>
      </trkpt>
      <trkpt lat="49.44432" lon="2.01558">
        <ele>158.7123260498</ele>
        <time>2017-05-21T09:29:33.000Z</time>
      </trkpt>
      <trkpt lat="49.44424" lon="2.01565">
        <ele>159.13845825195</ele>
        <time>2017-05-21T09:29:36.000Z</time>
      </trkpt>
      <trkpt lat="49.44419" lon="2.0157">
        <ele>159.65390014648</ele>
        <time>2017-05-21T09:29:38.000Z</time>
      </trkpt>
      <trkpt lat="49.44413" lon="2.01575">
        <ele>160.15452575684</ele>
        <time>2017-05-21T09:29:41.000Z</time>
      </trkpt>
      <trkpt lat="49.44408" lon="2.0158">
        <ele>160.58438110352</ele>
        <time>2017-05-21T09:29:44.000Z</time>
      </trkpt>
      <trkpt lat="49.44404" lon="2.01584">
        <ele>160.92807006836</ele>
        <time>2017-05-21T09:29:46.000Z</time>
      </trkpt>
      <trkpt lat="49.44398" lon="2.0159">
        <ele>161.14445495605</ele>
        <time>2017-05-21T09:29:49.000Z</time>
      </trkpt>
      <trkpt lat="49.44392" lon="2.01594">
        <ele>161.26473999023</ele>
        <time>2017-05-21T09:29:52.000Z</time>
      </trkpt>
      <trkpt lat="49.4439" lon="2.01594">
        <ele>161.28776550293</ele>
        <time>2017-05-21T09:29:54.000Z</time>
      </trkpt>
      <trkpt lat="49.44389" lon="2.01592">
        <ele>161.25521850586</ele>
        <time>2017-05-21T09:29:56.000Z</time>
      </trkpt>
      <trkpt lat="49.44388" lon="2.01583">
        <ele>161.04544067383</ele>
        <time>2017-05-21T09:29:59.000Z</time>
      </trkpt>
      <trkpt lat="49.44389" lon="2.01576">
        <ele>160.7142791748</ele>
        <time>2017-05-21T09:30:01.000Z</time>
      </trkpt>
      <trkpt lat="49.44387" lon="2.01559">
        <ele>160.1545715332</ele>
        <time>2017-05-21T09:30:04.000Z</time>
      </trkpt>
      <trkpt lat="49.44387" lon="2.0154">
        <ele>159.36325073242</ele>
        <time>2017-05-21T09:30:07.000Z</time>
      </trkpt>
      <trkpt lat="49.44387" lon="2.01524">
        <ele>158.36424255371</ele>
        <time>2017-05-21T09:30:10.000Z</time>
      </trkpt>
      <trkpt lat="49.44387" lon="2.01512">
        <ele>157.35327148438</ele>
        <time>2017-05-21T09:30:12.000Z</time>
      </trkpt>
      <trkpt lat="49.44389" lon="2.01501">
        <ele>156.27799987793</ele>
        <time>2017-05-21T09:30:14.000Z</time>
      </trkpt>
      <trkpt lat="49.44393" lon="2.01483">
        <ele>155.41110229492</ele>
        <time>2017-05-21T09:30:17.000Z</time>
      </trkpt>
      <trkpt lat="49.44398" lon="2.01464">
        <ele>154.79397583008</ele>
        <time>2017-05-21T09:30:20.000Z</time>
      </trkpt>
      <trkpt lat="49.44404" lon="2.01445">
        <ele>154.39822387695</ele>
        <time>2017-05-21T09:30:23.000Z</time>
      </trkpt>
      <trkpt lat="49.44407" lon="2.01432">
        <ele>154.16076660156</ele>
        <time>2017-05-21T09:30:25.000Z</time>
      </trkpt>
      <trkpt lat="49.44411" lon="2.01418">
        <ele>154.08578491211</ele>
        <time>2017-05-21T09:30:27.000Z</time>
      </trkpt>
      <trkpt lat="49.44416" lon="2.01398">
        <ele>154.04080200195</ele>
        <time>2017-05-21T09:30:30.000Z</time>
      </trkpt>
      <trkpt lat="49.4442" lon="2.01386">
        <ele>154.00090026855</ele>
        <time>2017-05-21T09:30:32.000Z</time>
      </trkpt>
      <trkpt lat="49.44425" lon="2.01367">
        <ele>153.96620178223</ele>
        <time>2017-05-21T09:30:35.000Z</time>
      </trkpt>
      <trkpt lat="49.44429" lon="2.01354">
        <ele>153.94081115723</ele>
        <time>2017-05-21T09:30:37.000Z</time>
      </trkpt>
      <trkpt lat="49.44432" lon="2.01341">
        <ele>153.93045043945</ele>
        <time>2017-05-21T09:30:39.000Z</time>
      </trkpt>
      <trkpt lat="49.44437" lon="2.01322">
        <ele>153.99903869629</ele>
        <time>2017-05-21T09:30:42.000Z</time>
      </trkpt>
      <trkpt lat="49.4444" lon="2.01309">
        <ele>154.15313720703</ele>
        <time>2017-05-21T09:30:44.000Z</time>
      </trkpt>
      <trkpt lat="49.44442" lon="2.01297">
        <ele>154.38581848145</ele>
        <time>2017-05-21T09:30:46.000Z</time>
      </trkpt>
      <trkpt lat="49.44444" lon="2.01285">
        <ele>154.6830291748</ele>
        <time>2017-05-21T09:30:48.000Z</time>
      </trkpt>
      <trkpt lat="49.44445" lon="2.01266">
        <ele>155.06889343262</ele>
        <time>2017-05-21T09:30:51.000Z</time>
      </trkpt>
      <trkpt lat="49.44446" lon="2.01254">
        <ele>155.43884277344</ele>
        <time>2017-05-21T09:30:53.000Z</time>
      </trkpt>
      <trkpt lat="49.44447" lon="2.01235">
        <ele>155.84507751465</ele>
        <time>2017-05-21T09:30:56.000Z</time>
      </trkpt>
      <trkpt lat="49.44448" lon="2.01223">
        <ele>156.25271606445</ele>
        <time>2017-05-21T09:30:58.000Z</time>
      </trkpt>
      <trkpt lat="49.44449" lon="2.01207">
        <ele>156.69160461426</ele>
        <time>2017-05-21T09:31:01.000Z</time>
      </trkpt>
      <trkpt lat="49.4445" lon="2.01197">
        <ele>157.08857727051</ele>
        <time>2017-05-21T09:31:03.000Z</time>
      </trkpt>
      <trkpt lat="49.44451" lon="2.01182">
        <ele>157.50952148438</ele>
        <time>2017-05-21T09:31:06.000Z</time>
      </trkpt>
      <trkpt lat="49.44452" lon="2.01171">
        <ele>157.87982177734</ele>
        <time>2017-05-21T09:31:08.000Z</time>
      </trkpt>
      <trkpt lat="49.44452" lon="2.01162">
        <ele>158.24165344238</ele>
        <time>2017-05-21T09:31:10.000Z</time>
      </trkpt>
      <trkpt lat="49.44453" lon="2.01147">
        <ele>158.59997558594</ele>
        <time>2017-05-21T09:31:13.000Z</time>
      </trkpt>
      <trkpt lat="49.44453" lon="2.01133">
        <ele>158.99267578125</ele>
        <time>2017-05-21T09:31:16.000Z</time>
      </trkpt>
      <trkpt lat="49.44454" lon="2.01125">
        <ele>159.35389709473</ele>
        <time>2017-05-21T09:31:18.000Z</time>
      </trkpt>
      <trkpt lat="49.44456" lon="2.01112">
        <ele>159.73918151855</ele>
        <time>2017-05-21T09:31:21.000Z</time>
      </trkpt>
      <trkpt lat="49.44456" lon="2.01104">
        <ele>160.11930847168</ele>
        <time>2017-05-21T09:31:23.000Z</time>
      </trkpt>
      <trkpt lat="49.44457" lon="2.01095">
        <ele>160.46411132812</ele>
        <time>2017-05-21T09:31:25.000Z</time>
      </trkpt>
      <trkpt lat="49.44458" lon="2.01082">
        <ele>160.80549621582</ele>
        <time>2017-05-21T09:31:28.000Z</time>
      </trkpt>
      <trkpt lat="49.4446" lon="2.01073">
        <ele>161.13313293457</ele>
        <time>2017-05-21T09:31:30.000Z</time>
      </trkpt>
      <trkpt lat="49.44461" lon="2.01058">
        <ele>161.44470214844</ele>
        <time>2017-05-21T09:31:33.000Z</time>
      </trkpt>
      <trkpt lat="49.44461" lon="2.01049">
        <ele>161.74490356445</ele>
        <time>2017-05-21T09:31:35.000Z</time>
      </trkpt>
      <trkpt lat="49.44462" lon="2.01039">
        <ele>162.03094482422</ele>
        <time>2017-05-21T09:31:37.000Z</time>
      </trkpt>
      <trkpt lat="49.44464" lon="2.01025">
        <ele>162.29211425781</ele>
        <time>2017-05-21T09:31:40.000Z</time>
      </trkpt>
      <trkpt lat="49.44465" lon="2.01015">
        <ele>162.55261230469</ele>
        <time>2017-05-21T09:31:42.000Z</time>
      </trkpt>
      <trkpt lat="49.44467" lon="2.01002">
        <ele>162.81115722656</ele>
        <time>2017-05-21T09:31:45.000Z</time>
      </trkpt>
      <trkpt lat="49.44469" lon="2.00988">
        <ele>163.08258056641</ele>
        <time>2017-05-21T09:31:48.000Z</time>
      </trkpt>
      <trkpt lat="49.44471" lon="2.0098">
        <ele>163.34515380859</ele>
        <time>2017-05-21T09:31:50.000Z</time>
      </trkpt>
      <trkpt lat="49.44472" lon="2.00971">
        <ele>163.58587646484</ele>
        <time>2017-05-21T09:31:52.000Z</time>
      </trkpt>
      <trkpt lat="49.4447" lon="2.00962">
        <ele>163.83306884766</ele>
        <time>2017-05-21T09:31:54.000Z</time>
      </trkpt>
      <trkpt lat="49.44462" lon="2.00955">
        <ele>164.06939697266</ele>
        <time>2017-05-21T09:31:57.000Z</time>
      </trkpt>
      <trkpt lat="49.44455" lon="2.00953">
        <ele>164.27288818359</ele>
        <time>2017-05-21T09:31:59.000Z</time>
      </trkpt>
      <trkpt lat="49.44444" lon="2.00952">
        <ele>164.47265625</ele>
        <time>2017-05-21T09:32:02.000Z</time>
      </trkpt>
      <trkpt lat="49.44434" lon="2.00949">
        <ele>164.66595458984</ele>
        <time>2017-05-21T09:32:05.000Z</time>
      </trkpt>
      <trkpt lat="49.44423" lon="2.00948">
        <ele>164.84478759766</ele>
        <time>2017-05-21T09:32:08.000Z</time>
      </trkpt>
      <trkpt lat="49.44415" lon="2.00947">
        <ele>164.99220275879</ele>
        <time>2017-05-21T09:32:10.000Z</time>
      </trkpt>
      <trkpt lat="49.44402" lon="2.00947">
        <ele>165.13407897949</ele>
        <time>2017-05-21T09:32:13.000Z</time>
      </trkpt>
      <trkpt lat="49.44393" lon="2.00947">
        <ele>165.26028442383</ele>
        <time>2017-05-21T09:32:15.000Z</time>
      </trkpt>
      <trkpt lat="49.44385" lon="2.00945">
        <ele>165.37274169922</ele>
        <time>2017-05-21T09:32:17.000Z</time>
      </trkpt>
      <trkpt lat="49.44374" lon="2.00942">
        <ele>165.48706054688</ele>
        <time>2017-05-21T09:32:20.000Z</time>
      </trkpt>
      <trkpt lat="49.44368" lon="2.0094">
        <ele>165.60182189941</ele>
        <time>2017-05-21T09:32:22.000Z</time>
      </trkpt>
      <trkpt lat="49.44358" lon="2.00936">
        <ele>165.73930358887</ele>
        <time>2017-05-21T09:32:25.000Z</time>
      </trkpt>
      <trkpt lat="49.44352" lon="2.00934">
        <ele>165.88648986816</ele>
        <time>2017-05-21T09:32:27.000Z</time>
      </trkpt>
      <trkpt lat="49.44342" lon="2.00931">
        <ele>166.05514526367</ele>
        <time>2017-05-21T09:32:30.000Z</time>
      </trkpt>
      <trkpt lat="49.44331" lon="2.00926">
        <ele>166.2241973877</ele>
        <time>2017-05-21T09:32:33.000Z</time>
      </trkpt>
      <trkpt lat="49.44324" lon="2.00924">
        <ele>166.33837890625</ele>
        <time>2017-05-21T09:32:35.000Z</time>
      </trkpt>
      <trkpt lat="49.44313" lon="2.00918">
        <ele>166.3708190918</ele>
        <time>2017-05-21T09:32:38.000Z</time>
      </trkpt>
      <trkpt lat="49.44303" lon="2.00914">
        <ele>166.30880737305</ele>
        <time>2017-05-21T09:32:41.000Z</time>
      </trkpt>
      <trkpt lat="49.44296" lon="2.00912">
        <ele>166.15351867676</ele>
        <time>2017-05-21T09:32:43.000Z</time>
      </trkpt>
      <trkpt lat="49.4429" lon="2.00909">
        <ele>165.91317749023</ele>
        <time>2017-05-21T09:32:45.000Z</time>
      </trkpt>
      <trkpt lat="49.44279" lon="2.00904">
        <ele>165.60531616211</ele>
        <time>2017-05-21T09:32:48.000Z</time>
      </trkpt>
      <trkpt lat="49.44267" lon="2.009">
        <ele>165.2237701416</ele>
        <time>2017-05-21T09:32:51.000Z</time>
      </trkpt>
      <trkpt lat="49.44256" lon="2.00907">
        <ele>164.84713745117</ele>
        <time>2017-05-21T09:32:54.000Z</time>
      </trkpt>
      <trkpt lat="49.44251" lon="2.00932">
        <ele>164.48707580566</ele>
        <time>2017-05-21T09:32:57.000Z</time>
      </trkpt>
      <trkpt lat="49.44244" lon="2.00955">
        <ele>164.02586364746</ele>
        <time>2017-05-21T09:33:00.000Z</time>
      </trkpt>
      <trkpt lat="49.44239" lon="2.00975">
        <ele>163.59819030762</ele>
        <time>2017-05-21T09:33:03.000Z</time>
      </trkpt>
      <trkpt lat="49.44235" lon="2.00987">
        <ele>163.24966430664</ele>
        <time>2017-05-21T09:33:05.000Z</time>
      </trkpt>
      <trkpt lat="49.44231" lon="2.01002">
        <ele>162.95889282227</ele>
        <time>2017-05-21T09:33:07.000Z</time>
      </trkpt>
      <trkpt lat="49.44225" lon="2.01024">
        <ele>162.70643615723</ele>
        <time>2017-05-21T09:33:10.000Z</time>
      </trkpt>
      <trkpt lat="49.44221" lon="2.01047">
        <ele>162.62825012207</ele>
        <time>2017-05-21T09:33:13.000Z</time>
      </trkpt>
      <trkpt lat="49.44216" lon="2.01069">
        <ele>162.65093994141</ele>
        <time>2017-05-21T09:33:16.000Z</time>
      </trkpt>
      <trkpt lat="49.44212" lon="2.01082">
        <ele>162.73303222656</ele>
        <time>2017-05-21T09:33:18.000Z</time>
      </trkpt>
      <trkpt lat="49.44201" lon="2.01094">
        <ele>162.80139160156</ele>
        <time>2017-05-21T09:33:21.000Z</time>
      </trkpt>
      <trkpt lat="49.44191" lon="2.01096">
        <ele>162.86839294434</ele>
        <time>2017-05-21T09:33:23.000Z</time>
      </trkpt>
      <trkpt lat="49.44172" lon="2.01097">
        <ele>162.92524719238</ele>
        <time>2017-05-21T09:33:26.000Z</time>
      </trkpt>
      <trkpt lat="49.44158" lon="2.01093">
        <ele>162.83912658691</ele>
        <time>2017-05-21T09:33:31.000Z</time>
      </trkpt>
      <trkpt lat="49.44142" lon="2.01091">
        <ele>162.51728820801</ele>
        <time>2017-05-21T09:33:35.000Z</time>
      </trkpt>
      <trkpt lat="49.4412" lon="2.01089">
        <ele>161.91284179688</ele>
        <time>2017-05-21T09:33:35.000Z</time>
      </trkpt>
      <trkpt lat="49.44106" lon="2.01089">
        <ele>161.11737060547</ele>
        <time>2017-05-21T09:33:35.000Z</time>
      </trkpt>
      <trkpt lat="49.44089" lon="2.01104">
        <ele>160.27713012695</ele>
        <time>2017-05-21T09:33:38.000Z</time>
      </trkpt>
      <trkpt lat="49.44081" lon="2.01118">
        <ele>159.63323974609</ele>
        <time>2017-05-21T09:33:40.000Z</time>
      </trkpt>
      <trkpt lat="49.44074" lon="2.0113">
        <ele>159.21971130371</ele>
        <time>2017-05-21T09:33:42.000Z</time>
      </trkpt>
      <trkpt lat="49.44067" lon="2.01143">
        <ele>159.13873291016</ele>
        <time>2017-05-21T09:33:44.000Z</time>
      </trkpt>
      <trkpt lat="49.44056" lon="2.01161">
        <ele>159.32144165039</ele>
        <time>2017-05-21T09:33:47.000Z</time>
      </trkpt>
      <trkpt lat="49.44046" lon="2.01175">
        <ele>159.49890136719</ele>
        <time>2017-05-21T09:33:50.000Z</time>
      </trkpt>
      <trkpt lat="49.44039" lon="2.01189">
        <ele>159.57978820801</ele>
        <time>2017-05-21T09:33:52.000Z</time>
      </trkpt>
      <trkpt lat="49.44033" lon="2.01195">
        <ele>159.58866882324</ele>
        <time>2017-05-21T09:33:54.000Z</time>
      </trkpt>
      <trkpt lat="49.44026" lon="2.01214">
        <ele>159.62548828125</ele>
        <time>2017-05-21T09:33:57.000Z</time>
      </trkpt>
      <trkpt lat="49.44018" lon="2.0123">
        <ele>159.62710571289</ele>
        <time>2017-05-21T09:34:00.000Z</time>
      </trkpt>
      <trkpt lat="49.44011" lon="2.01246">
        <ele>159.75257873535</ele>
        <time>2017-05-21T09:34:03.000Z</time>
      </trkpt>
      <trkpt lat="49.44007" lon="2.01256">
        <ele>159.96224975586</ele>
        <time>2017-05-21T09:34:05.000Z</time>
      </trkpt>
      <trkpt lat="49.44001" lon="2.01271">
        <ele>160.35334777832</ele>
        <time>2017-05-21T09:34:08.000Z</time>
      </trkpt>
      <trkpt lat="49.43996" lon="2.01282">
        <ele>160.69209289551</ele>
        <time>2017-05-21T09:34:10.000Z</time>
      </trkpt>
      <trkpt lat="49.43993" lon="2.01292">
        <ele>160.99923706055</ele>
        <time>2017-05-21T09:34:12.000Z</time>
      </trkpt>
      <trkpt lat="49.4399" lon="2.01302">
        <ele>161.27033996582</ele>
        <time>2017-05-21T09:34:14.000Z</time>
      </trkpt>
      <trkpt lat="49.43986" lon="2.01316">
        <ele>161.53475952148</ele>
        <time>2017-05-21T09:34:17.000Z</time>
      </trkpt>
      <trkpt lat="49.43983" lon="2.01327">
        <ele>161.73916625977</ele>
        <time>2017-05-21T09:34:19.000Z</time>
      </trkpt>
      <trkpt lat="49.4398" lon="2.01337">
        <ele>161.97763061523</ele>
        <time>2017-05-21T09:34:21.000Z</time>
      </trkpt>
      <trkpt lat="49.43978" lon="2.01347">
        <ele>162.26162719727</ele>
        <time>2017-05-21T09:34:23.000Z</time>
      </trkpt>
      <trkpt lat="49.43974" lon="2.0136">
        <ele>162.55549621582</ele>
        <time>2017-05-21T09:34:26.000Z</time>
      </trkpt>
      <trkpt lat="49.43971" lon="2.01371">
        <ele>162.85327148438</ele>
        <time>2017-05-21T09:34:29.000Z</time>
      </trkpt>
      <trkpt lat="49.43969" lon="2.01378">
        <ele>163.13339233398</ele>
        <time>2017-05-21T09:34:31.000Z</time>
      </trkpt>
      <trkpt lat="49.43967" lon="2.01388">
        <ele>163.4538269043</ele>
        <time>2017-05-21T09:34:34.000Z</time>
      </trkpt>
      <trkpt lat="49.43966" lon="2.01398">
        <ele>163.83670043945</ele>
        <time>2017-05-21T09:34:36.000Z</time>
      </trkpt>
      <trkpt lat="49.43964" lon="2.01407">
        <ele>164.26107788086</ele>
        <time>2017-05-21T09:34:38.000Z</time>
      </trkpt>
      <trkpt lat="49.43962" lon="2.01419">
        <ele>164.72749328613</ele>
        <time>2017-05-21T09:34:41.000Z</time>
      </trkpt>
      <trkpt lat="49.43959" lon="2.0143">
        <ele>165.18905639648</ele>
        <time>2017-05-21T09:34:44.000Z</time>
      </trkpt>
      <trkpt lat="49.43958" lon="2.01437">
        <ele>165.5990447998</ele>
        <time>2017-05-21T09:34:46.000Z</time>
      </trkpt>
      <trkpt lat="49.43953" lon="2.01447">
        <ele>165.93087768555</ele>
        <time>2017-05-21T09:34:49.000Z</time>
      </trkpt>
      <trkpt lat="49.4395" lon="2.01456">
        <ele>166.20251464844</ele>
        <time>2017-05-21T09:34:51.000Z</time>
      </trkpt>
      <trkpt lat="49.43945" lon="2.01468">
        <ele>166.43572998047</ele>
        <time>2017-05-21T09:34:54.000Z</time>
      </trkpt>
      <trkpt lat="49.43942" lon="2.01476">
        <ele>166.67399597168</ele>
        <time>2017-05-21T09:34:56.000Z</time>
      </trkpt>
      <trkpt lat="49.43937" lon="2.01489">
        <ele>166.9758605957</ele>
        <time>2017-05-21T09:34:59.000Z</time>
      </trkpt>
      <trkpt lat="49.43934" lon="2.01499">
        <ele>167.32730102539</ele>
        <time>2017-05-21T09:35:01.000Z</time>
      </trkpt>
      <trkpt lat="49.43929" lon="2.01514">
        <ele>167.6907043457</ele>
        <time>2017-05-21T09:35:04.000Z</time>
      </trkpt>
      <trkpt lat="49.43922" lon="2.01525">
        <ele>168.01806640625</ele>
        <time>2017-05-21T09:35:07.000Z</time>
      </trkpt>
      <trkpt lat="49.43917" lon="2.01532">
        <ele>168.32345581055</ele>
        <time>2017-05-21T09:35:09.000Z</time>
      </trkpt>
      <trkpt lat="49.4391" lon="2.01542">
        <ele>168.49038696289</ele>
        <time>2017-05-21T09:35:12.000Z</time>
      </trkpt>
      <trkpt lat="49.43904" lon="2.01551">
        <ele>168.53442382812</ele>
        <time>2017-05-21T09:35:14.000Z</time>
      </trkpt>
      <trkpt lat="49.43896" lon="2.01564">
        <ele>168.49108886719</ele>
        <time>2017-05-21T09:35:17.000Z</time>
      </trkpt>
      <trkpt lat="49.43891" lon="2.01574">
        <ele>168.40324401855</ele>
        <time>2017-05-21T09:35:19.000Z</time>
      </trkpt>
      <trkpt lat="49.43884" lon="2.01587">
        <ele>168.26425170898</ele>
        <time>2017-05-21T09:35:22.000Z</time>
      </trkpt>
      <trkpt lat="49.43879" lon="2.01596">
        <ele>168.14323425293</ele>
        <time>2017-05-21T09:35:24.000Z</time>
      </trkpt>
      <trkpt lat="49.43874" lon="2.01606">
        <ele>168.03860473633</ele>
        <time>2017-05-21T09:35:26.000Z</time>
      </trkpt>
      <trkpt lat="49.43866" lon="2.0162">
        <ele>167.95324707031</ele>
        <time>2017-05-21T09:35:29.000Z</time>
      </trkpt>
      <trkpt lat="49.43859" lon="2.01634">
        <ele>167.87857055664</ele>
        <time>2017-05-21T09:35:32.000Z</time>
      </trkpt>
      <trkpt lat="49.43852" lon="2.01648">
        <ele>167.84944152832</ele>
        <time>2017-05-21T09:35:35.000Z</time>
      </trkpt>
      <trkpt lat="49.43846" lon="2.01658">
        <ele>167.8738861084</ele>
        <time>2017-05-21T09:35:37.000Z</time>
      </trkpt>
      <trkpt lat="49.43841" lon="2.01668">
        <ele>167.94822692871</ele>
        <time>2017-05-21T09:35:39.000Z</time>
      </trkpt>
      <trkpt lat="49.43832" lon="2.01684">
        <ele>168.05641174316</ele>
        <time>2017-05-21T09:35:42.000Z</time>
      </trkpt>
      <trkpt lat="49.43827" lon="2.01695">
        <ele>168.10620117188</ele>
        <time>2017-05-21T09:35:44.000Z</time>
      </trkpt>
      <trkpt lat="49.43818" lon="2.0171">
        <ele>168.06393432617</ele>
        <time>2017-05-21T09:35:47.000Z</time>
      </trkpt>
      <trkpt lat="49.43811" lon="2.01727">
        <ele>167.9518737793</ele>
        <time>2017-05-21T09:35:50.000Z</time>
      </trkpt>
      <trkpt lat="49.43804" lon="2.01743">
        <ele>167.77236938477</ele>
        <time>2017-05-21T09:35:53.000Z</time>
      </trkpt>
      <trkpt lat="49.43798" lon="2.01757">
        <ele>167.54960632324</ele>
        <time>2017-05-21T09:35:56.000Z</time>
      </trkpt>
      <trkpt lat="49.43793" lon="2.01767">
        <ele>167.35682678223</ele>
        <time>2017-05-21T09:35:58.000Z</time>
      </trkpt>
      <trkpt lat="49.43786" lon="2.01775">
        <ele>167.17868041992</ele>
        <time>2017-05-21T09:36:00.000Z</time>
      </trkpt>
      <trkpt lat="49.43779" lon="2.0179">
        <ele>167.05358886719</ele>
        <time>2017-05-21T09:36:02.000Z</time>
      </trkpt>
      <trkpt lat="49.43769" lon="2.01815">
        <ele>167.02774047852</ele>
        <time>2017-05-21T09:36:05.000Z</time>
      </trkpt>
      <trkpt lat="49.43763" lon="2.01825">
        <ele>167.03945922852</ele>
        <time>2017-05-21T09:36:07.000Z</time>
      </trkpt>
      <trkpt lat="49.43757" lon="2.01838">
        <ele>167.12528991699</ele>
        <time>2017-05-21T09:36:09.000Z</time>
      </trkpt>
      <trkpt lat="49.43753" lon="2.01852">
        <ele>167.32539367676</ele>
        <time>2017-05-21T09:36:11.000Z</time>
      </trkpt>
      <trkpt lat="49.43746" lon="2.0187">
        <ele>167.53364562988</ele>
        <time>2017-05-21T09:36:14.000Z</time>
      </trkpt>
      <trkpt lat="49.43739" lon="2.01886">
        <ele>167.64765930176</ele>
        <time>2017-05-21T09:36:17.000Z</time>
      </trkpt>
      <trkpt lat="49.43731" lon="2.01906">
        <ele>167.75448608398</ele>
        <time>2017-05-21T09:36:20.000Z</time>
      </trkpt>
      <trkpt lat="49.43722" lon="2.01926">
        <ele>167.78616333008</ele>
        <time>2017-05-21T09:36:23.000Z</time>
      </trkpt>
      <trkpt lat="49.43715" lon="2.01937">
        <ele>167.70504760742</ele>
        <time>2017-05-21T09:36:25.000Z</time>
      </trkpt>
      <trkpt lat="49.43703" lon="2.01955">
        <ele>167.5559387207</ele>
        <time>2017-05-21T09:36:28.000Z</time>
      </trkpt>
      <trkpt lat="49.43693" lon="2.01967">
        <ele>167.4037322998</ele>
        <time>2017-05-21T09:36:30.000Z</time>
      </trkpt>
      <trkpt lat="49.43681" lon="2.01987">
        <ele>167.2813873291</ele>
        <time>2017-05-21T09:36:33.000Z</time>
      </trkpt>
      <trkpt lat="49.43669" lon="2.02008">
        <ele>167.23211669922</ele>
        <time>2017-05-21T09:36:36.000Z</time>
      </trkpt>
      <trkpt lat="49.43659" lon="2.02019">
        <ele>167.12097167969</ele>
        <time>2017-05-21T09:36:38.000Z</time>
      </trkpt>
      <trkpt lat="49.43644" lon="2.02035">
        <ele>166.86576843262</ele>
        <time>2017-05-21T09:36:41.000Z</time>
      </trkpt>
      <trkpt lat="49.43634" lon="2.02047">
        <ele>166.55041503906</ele>
        <time>2017-05-21T09:36:43.000Z</time>
      </trkpt>
      <trkpt lat="49.43616" lon="2.0206">
        <ele>166.00387573242</ele>
        <time>2017-05-21T09:36:46.000Z</time>
      </trkpt>
      <trkpt lat="49.43603" lon="2.02082">
        <ele>165.4294128418</ele>
        <time>2017-05-21T09:36:49.000Z</time>
      </trkpt>
      <trkpt lat="49.4359" lon="2.02094">
        <ele>164.86306762695</ele>
        <time>2017-05-21T09:36:52.000Z</time>
      </trkpt>
      <trkpt lat="49.43575" lon="2.02109">
        <ele>164.24194335938</ele>
        <time>2017-05-21T09:36:55.000Z</time>
      </trkpt>
      <trkpt lat="49.43568" lon="2.02112">
        <ele>163.49841308594</ele>
        <time>2017-05-21T09:36:57.000Z</time>
      </trkpt>
      <trkpt lat="49.43559" lon="2.02131">
        <ele>162.85043334961</ele>
        <time>2017-05-21T09:37:00.000Z</time>
      </trkpt>
      <trkpt lat="49.43554" lon="2.02147">
        <ele>162.208984375</ele>
        <time>2017-05-21T09:37:02.000Z</time>
      </trkpt>
      <trkpt lat="49.43553" lon="2.0216">
        <ele>161.76654052734</ele>
        <time>2017-05-21T09:37:05.000Z</time>
      </trkpt>
      <trkpt lat="49.43552" lon="2.02164">
        <ele>161.60261535645</ele>
        <time>2017-05-21T09:37:07.000Z</time>
      </trkpt>
      <trkpt lat="49.4355" lon="2.02169">
        <ele>161.66728210449</ele>
        <time>2017-05-21T09:37:09.000Z</time>
      </trkpt>
      <trkpt lat="49.43549" lon="2.02172">
        <ele>161.8072052002</ele>
        <time>2017-05-21T09:37:11.000Z</time>
      </trkpt>
      <trkpt lat="49.43542" lon="2.0218">
        <ele>161.82669067383</ele>
        <time>2017-05-21T09:37:14.000Z</time>
      </trkpt>
      <trkpt lat="49.43523" lon="2.02195">
        <ele>161.36642456055</ele>
        <time>2017-05-21T09:37:18.000Z</time>
      </trkpt>
      <trkpt lat="49.43516" lon="2.02196">
        <ele>160.71125793457</ele>
        <time>2017-05-21T09:37:20.000Z</time>
      </trkpt>
      <trkpt lat="49.43511" lon="2.02201">
        <ele>159.98564147949</ele>
        <time>2017-05-21T09:37:22.000Z</time>
      </trkpt>
      <trkpt lat="49.43501" lon="2.0221">
        <ele>159.1555480957</ele>
        <time>2017-05-21T09:37:25.000Z</time>
      </trkpt>
      <trkpt lat="49.43492" lon="2.0222">
        <ele>158.27592468262</ele>
        <time>2017-05-21T09:37:28.000Z</time>
      </trkpt>
      <trkpt lat="49.43483" lon="2.02233">
        <ele>157.69284057617</ele>
        <time>2017-05-21T09:37:31.000Z</time>
      </trkpt>
      <trkpt lat="49.43473" lon="2.02258">
        <ele>157.23025512695</ele>
        <time>2017-05-21T09:37:34.000Z</time>
      </trkpt>
      <trkpt lat="49.43469" lon="2.02273">
        <ele>156.79081726074</ele>
        <time>2017-05-21T09:37:36.000Z</time>
      </trkpt>
      <trkpt lat="49.43463" lon="2.0229">
        <ele>156.34414672852</ele>
        <time>2017-05-21T09:37:38.000Z</time>
      </trkpt>
      <trkpt lat="49.43454" lon="2.02314">
        <ele>155.84559631348</ele>
        <time>2017-05-21T09:37:41.000Z</time>
      </trkpt>
      <trkpt lat="49.43449" lon="2.02328">
        <ele>155.31716918945</ele>
        <time>2017-05-21T09:37:43.000Z</time>
      </trkpt>
      <trkpt lat="49.43443" lon="2.02354">
        <ele>154.86491394043</ele>
        <time>2017-05-21T09:37:46.000Z</time>
      </trkpt>
      <trkpt lat="49.43438" lon="2.02378">
        <ele>154.54150390625</ele>
        <time>2017-05-21T09:37:49.000Z</time>
      </trkpt>
      <trkpt lat="49.43432" lon="2.02401">
        <ele>154.37023925781</ele>
        <time>2017-05-21T09:37:52.000Z</time>
      </trkpt>
      <trkpt lat="49.43425" lon="2.02426">
        <ele>154.43533325195</ele>
        <time>2017-05-21T09:37:55.000Z</time>
      </trkpt>
      <trkpt lat="49.43423" lon="2.02443">
        <ele>154.71423339844</ele>
        <time>2017-05-21T09:37:57.000Z</time>
      </trkpt>
      <trkpt lat="49.43418" lon="2.02459">
        <ele>154.92465209961</ele>
        <time>2017-05-21T09:38:00.000Z</time>
      </trkpt>
      <trkpt lat="49.43414" lon="2.02472">
        <ele>155.02990722656</ele>
        <time>2017-05-21T09:38:02.000Z</time>
      </trkpt>
      <trkpt lat="49.43409" lon="2.02495">
        <ele>155.10578918457</ele>
        <time>2017-05-21T09:38:05.000Z</time>
      </trkpt>
      <trkpt lat="49.43404" lon="2.02506">
        <ele>154.97036743164</ele>
        <time>2017-05-21T09:38:07.000Z</time>
      </trkpt>
      <trkpt lat="49.43401" lon="2.0252">
        <ele>154.76406860352</ele>
        <time>2017-05-21T09:38:09.000Z</time>
      </trkpt>
      <trkpt lat="49.43398" lon="2.02533">
        <ele>154.55464172363</ele>
        <time>2017-05-21T09:38:11.000Z</time>
      </trkpt>
      <trkpt lat="49.43391" lon="2.0255">
        <ele>154.22769165039</ele>
        <time>2017-05-21T09:38:14.000Z</time>
      </trkpt>
      <trkpt lat="49.43384" lon="2.02566">
        <ele>153.73344421387</ele>
        <time>2017-05-21T09:38:17.000Z</time>
      </trkpt>
      <trkpt lat="49.43378" lon="2.02578">
        <ele>153.30155944824</ele>
        <time>2017-05-21T09:38:19.000Z</time>
      </trkpt>
      <trkpt lat="49.4337" lon="2.02597">
        <ele>152.62805175781</ele>
        <time>2017-05-21T09:38:22.000Z</time>
      </trkpt>
      <trkpt lat="49.43366" lon="2.02612">
        <ele>151.9949798584</ele>
        <time>2017-05-21T09:38:24.000Z</time>
      </trkpt>
      <trkpt lat="49.43361" lon="2.02631">
        <ele>151.45695495605</ele>
        <time>2017-05-21T09:38:27.000Z</time>
      </trkpt>
      <trkpt lat="49.43358" lon="2.02649">
        <ele>151.15190124512</ele>
        <time>2017-05-21T09:38:30.000Z</time>
      </trkpt>
      <trkpt lat="49.43358" lon="2.02662">
        <ele>151.10314941406</ele>
        <time>2017-05-21T09:38:32.000Z</time>
      </trkpt>
      <trkpt lat="49.43353" lon="2.0268">
        <ele>151.29277038574</ele>
        <time>2017-05-21T09:38:35.000Z</time>
      </trkpt>
      <trkpt lat="49.43349" lon="2.02697">
        <ele>151.56066894531</ele>
        <time>2017-05-21T09:38:38.000Z</time>
      </trkpt>
      <trkpt lat="49.43349" lon="2.02707">
        <ele>151.95700073242</ele>
        <time>2017-05-21T09:38:40.000Z</time>
      </trkpt>
      <trkpt lat="49.43346" lon="2.02719">
        <ele>152.34971618652</ele>
        <time>2017-05-21T09:38:43.000Z</time>
      </trkpt>
      <trkpt lat="49.43344" lon="2.02734">
        <ele>152.7315826416</ele>
        <time>2017-05-21T09:38:45.000Z</time>
      </trkpt>
      <trkpt lat="49.43339" lon="2.02751">
        <ele>153.14529418945</ele>
        <time>2017-05-21T09:38:48.000Z</time>
      </trkpt>
      <trkpt lat="49.43338" lon="2.02761">
        <ele>153.57774353027</ele>
        <time>2017-05-21T09:38:50.000Z</time>
      </trkpt>
      <trkpt lat="49.43337" lon="2.02771">
        <ele>154.00617980957</ele>
        <time>2017-05-21T09:38:52.000Z</time>
      </trkpt>
      <trkpt lat="49.43335" lon="2.0278">
        <ele>154.40661621094</ele>
        <time>2017-05-21T09:38:54.000Z</time>
      </trkpt>
      <trkpt lat="49.43328" lon="2.02796">
        <ele>154.58126831055</ele>
        <time>2017-05-21T09:38:57.000Z</time>
      </trkpt>
      <trkpt lat="49.43326" lon="2.02809">
        <ele>154.77708435059</ele>
        <time>2017-05-21T09:39:00.000Z</time>
      </trkpt>
      <trkpt lat="49.43324" lon="2.02815">
        <ele>154.85171508789</ele>
        <time>2017-05-21T09:39:02.000Z</time>
      </trkpt>
      <trkpt lat="49.43322" lon="2.02824">
        <ele>154.87677001953</ele>
        <time>2017-05-21T09:39:04.000Z</time>
      </trkpt>
      <trkpt lat="49.43319" lon="2.02838">
        <ele>154.95152282715</ele>
        <time>2017-05-21T09:39:07.000Z</time>
      </trkpt>
      <trkpt lat="49.43318" lon="2.02847">
        <ele>155.15083312988</ele>
        <time>2017-05-21T09:39:09.000Z</time>
      </trkpt>
      <trkpt lat="49.43315" lon="2.02862">
        <ele>155.27157592773</ele>
        <time>2017-05-21T09:39:12.000Z</time>
      </trkpt>
      <trkpt lat="49.43313" lon="2.02877">
        <ele>155.46633911133</ele>
        <time>2017-05-21T09:39:15.000Z</time>
      </trkpt>
      <trkpt lat="49.43311" lon="2.02885">
        <ele>155.63096618652</ele>
        <time>2017-05-21T09:39:17.000Z</time>
      </trkpt>
      <trkpt lat="49.4331" lon="2.02895">
        <ele>155.75549316406</ele>
        <time>2017-05-21T09:39:19.000Z</time>
      </trkpt>
      <trkpt lat="49.43309" lon="2.02904">
        <ele>155.86978149414</ele>
        <time>2017-05-21T09:39:21.000Z</time>
      </trkpt>
      <trkpt lat="49.43306" lon="2.02919">
        <ele>156.02241516113</ele>
        <time>2017-05-21T09:39:24.000Z</time>
      </trkpt>
      <trkpt lat="49.43304" lon="2.02931">
        <ele>156.11373901367</ele>
        <time>2017-05-21T09:39:26.000Z</time>
      </trkpt>
      <trkpt lat="49.43302" lon="2.02944">
        <ele>156.19404602051</ele>
        <time>2017-05-21T09:39:28.000Z</time>
      </trkpt>
      <trkpt lat="49.433" lon="2.02961">
        <ele>156.31489562988</ele>
        <time>2017-05-21T09:39:31.000Z</time>
      </trkpt>
      <trkpt lat="49.43297" lon="2.02981">
        <ele>156.44958496094</ele>
        <time>2017-05-21T09:39:34.000Z</time>
      </trkpt>
      <trkpt lat="49.43295" lon="2.02993">
        <ele>156.56706237793</ele>
        <time>2017-05-21T09:39:36.000Z</time>
      </trkpt>
      <trkpt lat="49.43293" lon="2.03009">
        <ele>156.74032592773</ele>
        <time>2017-05-21T09:39:39.000Z</time>
      </trkpt>
      <trkpt lat="49.4329" lon="2.03024">
        <ele>156.88542175293</ele>
        <time>2017-05-21T09:39:42.000Z</time>
      </trkpt>
      <trkpt lat="49.43288" lon="2.03039">
        <ele>156.99301147461</ele>
        <time>2017-05-21T09:39:45.000Z</time>
      </trkpt>
      <trkpt lat="49.43286" lon="2.03048">
        <ele>157.06698608398</ele>
        <time>2017-05-21T09:39:47.000Z</time>
      </trkpt>
      <trkpt lat="49.43283" lon="2.03062">
        <ele>157.1070098877</ele>
        <time>2017-05-21T09:39:50.000Z</time>
      </trkpt>
      <trkpt lat="49.43281" lon="2.03072">
        <ele>157.10487365723</ele>
        <time>2017-05-21T09:39:52.000Z</time>
      </trkpt>
      <trkpt lat="49.43277" lon="2.03089">
        <ele>157.1130065918</ele>
        <time>2017-05-21T09:39:55.000Z</time>
      </trkpt>
      <trkpt lat="49.43274" lon="2.03105">
        <ele>157.06796264648</ele>
        <time>2017-05-21T09:39:58.000Z</time>
      </trkpt>
      <trkpt lat="49.43272" lon="2.03115">
        <ele>156.98731994629</ele>
        <time>2017-05-21T09:40:00.000Z</time>
      </trkpt>
      <trkpt lat="49.43269" lon="2.03132">
        <ele>156.93522644043</ele>
        <time>2017-05-21T09:40:03.000Z</time>
      </trkpt>
      <trkpt lat="49.43267" lon="2.0315">
        <ele>156.90603637695</ele>
        <time>2017-05-21T09:40:06.000Z</time>
      </trkpt>
      <trkpt lat="49.43266" lon="2.03163">
        <ele>156.93635559082</ele>
        <time>2017-05-21T09:40:08.000Z</time>
      </trkpt>
      <trkpt lat="49.43265" lon="2.03186">
        <ele>156.9658203125</ele>
        <time>2017-05-21T09:40:11.000Z</time>
      </trkpt>
      <trkpt lat="49.43264" lon="2.03199">
        <ele>157.00143432617</ele>
        <time>2017-05-21T09:40:13.000Z</time>
      </trkpt>
      <trkpt lat="49.43262" lon="2.0322">
        <ele>156.94607543945</ele>
        <time>2017-05-21T09:40:16.000Z</time>
      </trkpt>
      <trkpt lat="49.43261" lon="2.03242">
        <ele>156.82015991211</ele>
        <time>2017-05-21T09:40:19.000Z</time>
      </trkpt>
      <trkpt lat="49.43256" lon="2.03262">
        <ele>156.47257995605</ele>
        <time>2017-05-21T09:40:22.000Z</time>
      </trkpt>
      <trkpt lat="49.43255" lon="2.03277">
        <ele>156.03829956055</ele>
        <time>2017-05-21T09:40:24.000Z</time>
      </trkpt>
      <trkpt lat="49.43252" lon="2.0329">
        <ele>155.49609375</ele>
        <time>2017-05-21T09:40:26.000Z</time>
      </trkpt>
      <trkpt lat="49.43251" lon="2.03304">
        <ele>154.95797729492</ele>
        <time>2017-05-21T09:40:28.000Z</time>
      </trkpt>
      <trkpt lat="49.43248" lon="2.03325">
        <ele>154.26277160645</ele>
        <time>2017-05-21T09:40:31.000Z</time>
      </trkpt>
      <trkpt lat="49.43246" lon="2.0335">
        <ele>153.53854370117</ele>
        <time>2017-05-21T09:40:34.000Z</time>
      </trkpt>
      <trkpt lat="49.43243" lon="2.03368">
        <ele>152.7297668457</ele>
        <time>2017-05-21T09:40:36.000Z</time>
      </trkpt>
      <trkpt lat="49.43238" lon="2.034">
        <ele>151.73901367188</ele>
        <time>2017-05-21T09:40:39.000Z</time>
      </trkpt>
      <trkpt lat="49.43238" lon="2.03424">
        <ele>150.64785766602</ele>
        <time>2017-05-21T09:40:41.000Z</time>
      </trkpt>
      <trkpt lat="49.4324" lon="2.03464">
        <ele>149.28005981445</ele>
        <time>2017-05-21T09:40:44.000Z</time>
      </trkpt>
      <trkpt lat="49.43248" lon="2.03506">
        <ele>147.76913452148</ele>
        <time>2017-05-21T09:40:47.000Z</time>
      </trkpt>
      <trkpt lat="49.43253" lon="2.0353">
        <ele>146.23233032227</ele>
        <time>2017-05-21T09:40:49.000Z</time>
      </trkpt>
      <trkpt lat="49.43261" lon="2.03553">
        <ele>144.87408447266</ele>
        <time>2017-05-21T09:40:52.000Z</time>
      </trkpt>
      <trkpt lat="49.43266" lon="2.0357">
        <ele>143.59268188477</ele>
        <time>2017-05-21T09:40:55.000Z</time>
      </trkpt>
      <trkpt lat="49.43277" lon="2.03589">
        <ele>142.7590637207</ele>
        <time>2017-05-21T09:40:58.000Z</time>
      </trkpt>
      <trkpt lat="49.43291" lon="2.03608">
        <ele>142.18298339844</ele>
        <time>2017-05-21T09:41:01.000Z</time>
      </trkpt>
      <trkpt lat="49.433" lon="2.03624">
        <ele>141.7375793457</ele>
        <time>2017-05-21T09:41:04.000Z</time>
      </trkpt>
      <trkpt lat="49.43312" lon="2.03639">
        <ele>141.4626159668</ele>
        <time>2017-05-21T09:41:07.000Z</time>
      </trkpt>
      <trkpt lat="49.43318" lon="2.03651">
        <ele>141.24540710449</ele>
        <time>2017-05-21T09:41:09.000Z</time>
      </trkpt>
      <trkpt lat="49.43329" lon="2.03674">
        <ele>140.93115234375</ele>
        <time>2017-05-21T09:41:12.000Z</time>
      </trkpt>
      <trkpt lat="49.43337" lon="2.0369">
        <ele>140.57710266113</ele>
        <time>2017-05-21T09:41:14.000Z</time>
      </trkpt>
      <trkpt lat="49.43344" lon="2.03709">
        <ele>140.07089233398</ele>
        <time>2017-05-21T09:41:16.000Z</time>
      </trkpt>
      <trkpt lat="49.43354" lon="2.03737">
        <ele>139.20355224609</ele>
        <time>2017-05-21T09:41:19.000Z</time>
      </trkpt>
      <trkpt lat="49.43364" lon="2.03765">
        <ele>138.22932434082</ele>
        <time>2017-05-21T09:41:22.000Z</time>
      </trkpt>
      <trkpt lat="49.43373" lon="2.03793">
        <ele>137.29853820801</ele>
        <time>2017-05-21T09:41:25.000Z</time>
      </trkpt>
      <trkpt lat="49.43383" lon="2.03822">
        <ele>136.45120239258</ele>
        <time>2017-05-21T09:41:28.000Z</time>
      </trkpt>
      <trkpt lat="49.4339" lon="2.03844">
        <ele>135.80839538574</ele>
        <time>2017-05-21T09:41:30.000Z</time>
      </trkpt>
      <trkpt lat="49.43397" lon="2.03865">
        <ele>135.4508972168</ele>
        <time>2017-05-21T09:41:32.000Z</time>
      </trkpt>
      <trkpt lat="49.43404" lon="2.03886">
        <ele>135.19094848633</ele>
        <time>2017-05-21T09:41:34.000Z</time>
      </trkpt>
      <trkpt lat="49.43415" lon="2.03918">
        <ele>134.99122619629</ele>
        <time>2017-05-21T09:41:37.000Z</time>
      </trkpt>
      <trkpt lat="49.43425" lon="2.0395">
        <ele>134.56312561035</ele>
        <time>2017-05-21T09:41:40.000Z</time>
      </trkpt>
      <trkpt lat="49.43431" lon="2.03971">
        <ele>133.99131774902</ele>
        <time>2017-05-21T09:41:42.000Z</time>
      </trkpt>
      <trkpt lat="49.43442" lon="2.04004">
        <ele>133.267578125</ele>
        <time>2017-05-21T09:41:45.000Z</time>
      </trkpt>
      <trkpt lat="49.43452" lon="2.04035">
        <ele>132.45819091797</ele>
        <time>2017-05-21T09:41:48.000Z</time>
      </trkpt>
      <trkpt lat="49.43458" lon="2.04057">
        <ele>131.56848144531</ele>
        <time>2017-05-21T09:41:50.000Z</time>
      </trkpt>
      <trkpt lat="49.43465" lon="2.0408">
        <ele>130.88642883301</ele>
        <time>2017-05-21T09:41:52.000Z</time>
      </trkpt>
      <trkpt lat="49.43474" lon="2.04114">
        <ele>130.29238891602</ele>
        <time>2017-05-21T09:41:55.000Z</time>
      </trkpt>
      <trkpt lat="49.4348" lon="2.04134">
        <ele>129.87809753418</ele>
        <time>2017-05-21T09:41:57.000Z</time>
      </trkpt>
      <trkpt lat="49.43486" lon="2.04156">
        <ele>129.55815124512</ele>
        <time>2017-05-21T09:41:59.000Z</time>
      </trkpt>
      <trkpt lat="49.43491" lon="2.04176">
        <ele>129.33076477051</ele>
        <time>2017-05-21T09:42:01.000Z</time>
      </trkpt>
      <trkpt lat="49.43504" lon="2.04205">
        <ele>129.39866638184</ele>
        <time>2017-05-21T09:42:04.000Z</time>
      </trkpt>
      <trkpt lat="49.43507" lon="2.04217">
        <ele>129.5838470459</ele>
        <time>2017-05-21T09:42:06.000Z</time>
      </trkpt>
      <trkpt lat="49.43513" lon="2.04234">
        <ele>129.85227966309</ele>
        <time>2017-05-21T09:42:09.000Z</time>
      </trkpt>
      <trkpt lat="49.4352" lon="2.04246">
        <ele>130.31764221191</ele>
        <time>2017-05-21T09:42:11.000Z</time>
      </trkpt>
      <trkpt lat="49.43524" lon="2.04265">
        <ele>130.75326538086</ele>
        <time>2017-05-21T09:42:14.000Z</time>
      </trkpt>
      <trkpt lat="49.43523" lon="2.04283">
        <ele>130.74472045898</ele>
        <time>2017-05-21T09:42:16.000Z</time>
      </trkpt>
      <trkpt lat="49.43524" lon="2.04314">
        <ele>130.37705993652</ele>
        <time>2017-05-21T09:42:19.000Z</time>
      </trkpt>
      <trkpt lat="49.43527" lon="2.04344">
        <ele>129.68334960938</ele>
        <time>2017-05-21T09:42:22.000Z</time>
      </trkpt>
      <trkpt lat="49.4353" lon="2.04367">
        <ele>128.64254760742</ele>
        <time>2017-05-21T09:42:25.000Z</time>
      </trkpt>
      <trkpt lat="49.43533" lon="2.04392">
        <ele>127.42923736572</ele>
        <time>2017-05-21T09:42:28.000Z</time>
      </trkpt>
      <trkpt lat="49.43538" lon="2.04423">
        <ele>126.23718261719</ele>
        <time>2017-05-21T09:42:31.000Z</time>
      </trkpt>
      <trkpt lat="49.43542" lon="2.04445">
        <ele>125.27420806885</ele>
        <time>2017-05-21T09:42:33.000Z</time>
      </trkpt>
      <trkpt lat="49.43548" lon="2.04478">
        <ele>124.48606109619</ele>
        <time>2017-05-21T09:42:36.000Z</time>
      </trkpt>
      <trkpt lat="49.43553" lon="2.04498">
        <ele>123.8768157959</ele>
        <time>2017-05-21T09:42:38.000Z</time>
      </trkpt>
      <trkpt lat="49.43558" lon="2.04534">
        <ele>123.2240447998</ele>
        <time>2017-05-21T09:42:41.000Z</time>
      </trkpt>
      <trkpt lat="49.43563" lon="2.04573">
        <ele>122.50340270996</ele>
        <time>2017-05-21T09:42:44.000Z</time>
      </trkpt>
      <trkpt lat="49.43567" lon="2.04598">
        <ele>121.73226165771</ele>
        <time>2017-05-21T09:42:46.000Z</time>
      </trkpt>
      <trkpt lat="49.43567" lon="2.04638">
        <ele>120.44026947021</ele>
        <time>2017-05-21T09:42:49.000Z</time>
      </trkpt>
      <trkpt lat="49.43569" lon="2.04678">
        <ele>118.75527191162</ele>
        <time>2017-05-21T09:42:52.000Z</time>
      </trkpt>
      <trkpt lat="49.43573" lon="2.04715">
        <ele>117.27203369141</ele>
        <time>2017-05-21T09:42:55.000Z</time>
      </trkpt>
      <trkpt lat="49.43576" lon="2.04749">
        <ele>115.9536895752</ele>
        <time>2017-05-21T09:42:58.000Z</time>
      </trkpt>
      <trkpt lat="49.43578" lon="2.04787">
        <ele>114.64898681641</ele>
        <time>2017-05-21T09:43:01.000Z</time>
      </trkpt>
      <trkpt lat="49.43581" lon="2.0481">
        <ele>113.91184997559</ele>
        <time>2017-05-21T09:43:03.000Z</time>
      </trkpt>
      <trkpt lat="49.4358" lon="2.04831">
        <ele>113.40139007568</ele>
        <time>2017-05-21T09:43:05.000Z</time>
      </trkpt>
      <trkpt lat="49.43583" lon="2.04867">
        <ele>113.051612854</ele>
        <time>2017-05-21T09:43:08.000Z</time>
      </trkpt>
      <trkpt lat="49.43583" lon="2.04901">
        <ele>112.85007476807</ele>
        <time>2017-05-21T09:43:11.000Z</time>
      </trkpt>
      <trkpt lat="49.43586" lon="2.04936">
        <ele>112.98984527588</ele>
        <time>2017-05-21T09:43:14.000Z</time>
      </trkpt>
      <trkpt lat="49.43588" lon="2.04959">
        <ele>113.32480621338</ele>
        <time>2017-05-21T09:43:16.000Z</time>
      </trkpt>
      <trkpt lat="49.43586" lon="2.04979">
        <ele>113.80031585693</ele>
        <time>2017-05-21T09:43:18.000Z</time>
      </trkpt>
      <trkpt lat="49.43583" lon="2.05008">
        <ele>114.02309417725</ele>
        <time>2017-05-21T09:43:21.000Z</time>
      </trkpt>
      <trkpt lat="49.43581" lon="2.05029">
        <ele>114.10929870605</ele>
        <time>2017-05-21T09:43:23.000Z</time>
      </trkpt>
      <trkpt lat="49.43576" lon="2.05062">
        <ele>113.71165466309</ele>
        <time>2017-05-21T09:43:26.000Z</time>
      </trkpt>
      <trkpt lat="49.43571" lon="2.05097">
        <ele>112.98336029053</ele>
        <time>2017-05-21T09:43:29.000Z</time>
      </trkpt>
      <trkpt lat="49.43568" lon="2.05127">
        <ele>112.23223876953</ele>
        <time>2017-05-21T09:43:32.000Z</time>
      </trkpt>
      <trkpt lat="49.43562" lon="2.05154">
        <ele>111.43676757812</ele>
        <time>2017-05-21T09:43:35.000Z</time>
      </trkpt>
      <trkpt lat="49.43562" lon="2.05166">
        <ele>110.758644104</ele>
        <time>2017-05-21T09:43:37.000Z</time>
      </trkpt>
      <trkpt lat="49.43561" lon="2.0518">
        <ele>110.31032562256</ele>
        <time>2017-05-21T09:43:40.000Z</time>
      </trkpt>
      <trkpt lat="49.43557" lon="2.05204">
        <ele>109.74912261963</ele>
        <time>2017-05-21T09:43:43.000Z</time>
      </trkpt>
      <trkpt lat="49.43552" lon="2.05233">
        <ele>108.96821594238</ele>
        <time>2017-05-21T09:43:46.000Z</time>
      </trkpt>
      <trkpt lat="49.4355" lon="2.05275">
        <ele>107.97165679932</ele>
        <time>2017-05-21T09:43:49.000Z</time>
      </trkpt>
      <trkpt lat="49.43545" lon="2.05302">
        <ele>106.45062255859</ele>
        <time>2017-05-21T09:43:51.000Z</time>
      </trkpt>
      <trkpt lat="49.43537" lon="2.05346">
        <ele>104.21402740479</ele>
        <time>2017-05-21T09:43:54.000Z</time>
      </trkpt>
      <trkpt lat="49.43538" lon="2.05394">
        <ele>101.73124694824</ele>
        <time>2017-05-21T09:43:57.000Z</time>
      </trkpt>
      <trkpt lat="49.4354" lon="2.05442">
        <ele>98.934097290039</ele>
        <time>2017-05-21T09:44:00.000Z</time>
      </trkpt>
      <trkpt lat="49.43544" lon="2.05479">
        <ele>96.000038146973</ele>
        <time>2017-05-21T09:44:03.000Z</time>
      </trkpt>
      <trkpt lat="49.43546" lon="2.055">
        <ele>93.236679077148</ele>
        <time>2017-05-21T09:44:05.000Z</time>
      </trkpt>
      <trkpt lat="49.43547" lon="2.05518">
        <ele>91.021148681641</ele>
        <time>2017-05-21T09:44:07.000Z</time>
      </trkpt>
      <trkpt lat="49.43555" lon="2.05549">
        <ele>88.983779907227</ele>
        <time>2017-05-21T09:44:10.000Z</time>
      </trkpt>
      <trkpt lat="49.4356" lon="2.0558">
        <ele>87.175140380859</ele>
        <time>2017-05-21T09:44:13.000Z</time>
      </trkpt>
      <trkpt lat="49.43567" lon="2.0561">
        <ele>85.724166870117</ele>
        <time>2017-05-21T09:44:16.000Z</time>
      </trkpt>
      <trkpt lat="49.43572" lon="2.05631">
        <ele>84.505165100098</ele>
        <time>2017-05-21T09:44:18.000Z</time>
      </trkpt>
      <trkpt lat="49.43578" lon="2.05653">
        <ele>83.434066772461</ele>
        <time>2017-05-21T09:44:20.000Z</time>
      </trkpt>
      <trkpt lat="49.43595" lon="2.05685">
        <ele>82.671539306641</ele>
        <time>2017-05-21T09:44:23.000Z</time>
      </trkpt>
      <trkpt lat="49.43615" lon="2.05703">
        <ele>82.282363891602</ele>
        <time>2017-05-21T09:44:26.000Z</time>
      </trkpt>
      <trkpt lat="49.43641" lon="2.05705">
        <ele>82.137741088867</ele>
        <time>2017-05-21T09:44:29.000Z</time>
      </trkpt>
      <trkpt lat="49.43654" lon="2.05705">
        <ele>82.121139526367</ele>
        <time>2017-05-21T09:44:31.000Z</time>
      </trkpt>
      <trkpt lat="49.43665" lon="2.05705">
        <ele>82.202117919922</ele>
        <time>2017-05-21T09:44:33.000Z</time>
      </trkpt>
      <trkpt lat="49.43681" lon="2.05712">
        <ele>82.316734313965</ele>
        <time>2017-05-21T09:44:36.000Z</time>
      </trkpt>
      <trkpt lat="49.43686" lon="2.05725">
        <ele>82.366439819336</ele>
        <time>2017-05-21T09:44:38.000Z</time>
      </trkpt>
      <trkpt lat="49.43691" lon="2.05753">
        <ele>82.162132263184</ele>
        <time>2017-05-21T09:44:41.000Z</time>
      </trkpt>
      <trkpt lat="49.43699" lon="2.05785">
        <ele>81.456466674805</ele>
        <time>2017-05-21T09:44:44.000Z</time>
      </trkpt>
      <trkpt lat="49.43703" lon="2.05806">
        <ele>80.43229675293</ele>
        <time>2017-05-21T09:44:46.000Z</time>
      </trkpt>
      <trkpt lat="49.43709" lon="2.05836">
        <ele>79.022598266602</ele>
        <time>2017-05-21T09:44:49.000Z</time>
      </trkpt>
      <trkpt lat="49.43713" lon="2.05846">
        <ele>77.626602172852</ele>
        <time>2017-05-21T09:44:51.000Z</time>
      </trkpt>
      <trkpt lat="49.43723" lon="2.05848">
        <ele>76.389678955078</ele>
        <time>2017-05-21T09:44:53.000Z</time>
      </trkpt>
      <trkpt lat="49.43739" lon="2.05842">
        <ele>75.604415893555</ele>
        <time>2017-05-21T09:44:56.000Z</time>
      </trkpt>
      <trkpt lat="49.43754" lon="2.05835">
        <ele>75.11466217041</ele>
        <time>2017-05-21T09:44:59.000Z</time>
      </trkpt>
      <trkpt lat="49.4377" lon="2.05826">
        <ele>75.101638793945</ele>
        <time>2017-05-21T09:45:02.000Z</time>
      </trkpt>
      <trkpt lat="49.43782" lon="2.0582">
        <ele>75.192764282227</ele>
        <time>2017-05-21T09:45:04.000Z</time>
      </trkpt>
      <trkpt lat="49.43793" lon="2.05816">
        <ele>75.355186462402</ele>
        <time>2017-05-21T09:45:06.000Z</time>
      </trkpt>
      <trkpt lat="49.4381" lon="2.05809">
        <ele>75.575469970703</ele>
        <time>2017-05-21T09:45:09.000Z</time>
      </trkpt>
      <trkpt lat="49.43827" lon="2.05802">
        <ele>75.818237304688</ele>
        <time>2017-05-21T09:45:12.000Z</time>
      </trkpt>
      <trkpt lat="49.43839" lon="2.05797">
        <ele>75.977645874023</ele>
        <time>2017-05-21T09:45:14.000Z</time>
      </trkpt>
      <trkpt lat="49.43856" lon="2.05791">
        <ele>76.038070678711</ele>
        <time>2017-05-21T09:45:17.000Z</time>
      </trkpt>
      <trkpt lat="49.43868" lon="2.05787">
        <ele>76.026916503906</ele>
        <time>2017-05-21T09:45:19.000Z</time>
      </trkpt>
      <trkpt lat="49.43885" lon="2.05777">
        <ele>75.936080932617</ele>
        <time>2017-05-21T09:45:22.000Z</time>
      </trkpt>
      <trkpt lat="49.43895" lon="2.05772">
        <ele>75.776947021484</ele>
        <time>2017-05-21T09:45:24.000Z</time>
      </trkpt>
      <trkpt lat="49.43914" lon="2.05761">
        <ele>75.533584594727</ele>
        <time>2017-05-21T09:45:27.000Z</time>
      </trkpt>
      <trkpt lat="49.43931" lon="2.05748">
        <ele>75.181655883789</ele>
        <time>2017-05-21T09:45:30.000Z</time>
      </trkpt>
      <trkpt lat="49.43948" lon="2.05736">
        <ele>74.74397277832</ele>
        <time>2017-05-21T09:45:33.000Z</time>
      </trkpt>
      <trkpt lat="49.43962" lon="2.05721">
        <ele>74.245552062988</ele>
        <time>2017-05-21T09:45:36.000Z</time>
      </trkpt>
      <trkpt lat="49.43972" lon="2.05713">
        <ele>73.712089538574</ele>
        <time>2017-05-21T09:45:38.000Z</time>
      </trkpt>
      <trkpt lat="49.43983" lon="2.05693">
        <ele>73.218421936035</ele>
        <time>2017-05-21T09:45:41.000Z</time>
      </trkpt>
      <trkpt lat="49.43991" lon="2.05681">
        <ele>72.828536987305</ele>
        <time>2017-05-21T09:45:43.000Z</time>
      </trkpt>
      <trkpt lat="49.44" lon="2.05668">
        <ele>72.503929138184</ele>
        <time>2017-05-21T09:45:45.000Z</time>
      </trkpt>
      <trkpt lat="49.44011" lon="2.05651">
        <ele>72.419509887695</ele>
        <time>2017-05-21T09:45:48.000Z</time>
      </trkpt>
      <trkpt lat="49.44019" lon="2.05638">
        <ele>72.526382446289</ele>
        <time>2017-05-21T09:45:50.000Z</time>
      </trkpt>
      <trkpt lat="49.44032" lon="2.05621">
        <ele>72.777931213379</ele>
        <time>2017-05-21T09:45:53.000Z</time>
      </trkpt>
      <trkpt lat="49.44044" lon="2.05601">
        <ele>73.190238952637</ele>
        <time>2017-05-21T09:45:56.000Z</time>
      </trkpt>
      <trkpt lat="49.44051" lon="2.05589">
        <ele>73.712860107422</ele>
        <time>2017-05-21T09:45:58.000Z</time>
      </trkpt>
      <trkpt lat="49.44064" lon="2.05569">
        <ele>74.109359741211</ele>
        <time>2017-05-21T09:46:01.000Z</time>
      </trkpt>
      <trkpt lat="49.44073" lon="2.05556">
        <ele>74.382614135742</ele>
        <time>2017-05-21T09:46:03.000Z</time>
      </trkpt>
      <trkpt lat="49.44082" lon="2.05543">
        <ele>74.53638458252</ele>
        <time>2017-05-21T09:46:05.000Z</time>
      </trkpt>
      <trkpt lat="49.44092" lon="2.05528">
        <ele>74.581649780273</ele>
        <time>2017-05-21T09:46:07.000Z</time>
      </trkpt>
      <trkpt lat="49.44107" lon="2.05506">
        <ele>74.586814880371</ele>
        <time>2017-05-21T09:46:10.000Z</time>
      </trkpt>
      <trkpt lat="49.44118" lon="2.05494">
        <ele>74.562522888184</ele>
        <time>2017-05-21T09:46:12.000Z</time>
      </trkpt>
      <trkpt lat="49.44128" lon="2.05481">
        <ele>74.553001403809</ele>
        <time>2017-05-21T09:46:14.000Z</time>
      </trkpt>
      <trkpt lat="49.44141" lon="2.05467">
        <ele>74.563461303711</ele>
        <time>2017-05-21T09:46:17.000Z</time>
      </trkpt>
      <trkpt lat="49.4415" lon="2.05454">
        <ele>74.610656738281</ele>
        <time>2017-05-21T09:46:19.000Z</time>
      </trkpt>
      <trkpt lat="49.44166" lon="2.05439">
        <ele>74.680130004883</ele>
        <time>2017-05-21T09:46:22.000Z</time>
      </trkpt>
      <trkpt lat="49.44176" lon="2.0543">
        <ele>74.725570678711</ele>
        <time>2017-05-21T09:46:24.000Z</time>
      </trkpt>
      <trkpt lat="49.44191" lon="2.05412">
        <ele>74.711402893066</ele>
        <time>2017-05-21T09:46:27.000Z</time>
      </trkpt>
      <trkpt lat="49.44202" lon="2.05398">
        <ele>74.664703369141</ele>
        <time>2017-05-21T09:46:29.000Z</time>
      </trkpt>
      <trkpt lat="49.44221" lon="2.05378">
        <ele>74.531944274902</ele>
        <time>2017-05-21T09:46:32.000Z</time>
      </trkpt>
      <trkpt lat="49.44239" lon="2.05359">
        <ele>74.354080200195</ele>
        <time>2017-05-21T09:46:35.000Z</time>
      </trkpt>
      <trkpt lat="49.44257" lon="2.05343">
        <ele>74.235740661621</ele>
        <time>2017-05-21T09:46:38.000Z</time>
      </trkpt>
      <trkpt lat="49.44274" lon="2.05324">
        <ele>74.211135864258</ele>
        <time>2017-05-21T09:46:41.000Z</time>
      </trkpt>
      <trkpt lat="49.44286" lon="2.05314">
        <ele>74.18123626709</ele>
        <time>2017-05-21T09:46:43.000Z</time>
      </trkpt>
      <trkpt lat="49.44296" lon="2.05302">
        <ele>74.177909851074</ele>
        <time>2017-05-21T09:46:45.000Z</time>
      </trkpt>
      <trkpt lat="49.44311" lon="2.05282">
        <ele>74.172019958496</ele>
        <time>2017-05-21T09:46:48.000Z</time>
      </trkpt>
      <trkpt lat="49.44327" lon="2.05263">
        <ele>74.122009277344</ele>
        <time>2017-05-21T09:46:51.000Z</time>
      </trkpt>
      <trkpt lat="49.44337" lon="2.05252">
        <ele>74.021812438965</ele>
        <time>2017-05-21T09:46:53.000Z</time>
      </trkpt>
      <trkpt lat="49.44351" lon="2.05243">
        <ele>73.943786621094</ele>
        <time>2017-05-21T09:46:56.000Z</time>
      </trkpt>
      <trkpt lat="49.44365" lon="2.0523">
        <ele>73.896522521973</ele>
        <time>2017-05-21T09:46:59.000Z</time>
      </trkpt>
      <trkpt lat="49.44381" lon="2.05213">
        <ele>73.876640319824</ele>
        <time>2017-05-21T09:47:02.000Z</time>
      </trkpt>
      <trkpt lat="49.44391" lon="2.05201">
        <ele>73.888320922852</ele>
        <time>2017-05-21T09:47:04.000Z</time>
      </trkpt>
      <trkpt lat="49.44404" lon="2.05186">
        <ele>73.906143188477</ele>
        <time>2017-05-21T09:47:07.000Z</time>
      </trkpt>
      <trkpt lat="49.44413" lon="2.05179">
        <ele>73.913757324219</ele>
        <time>2017-05-21T09:47:09.000Z</time>
      </trkpt>
      <trkpt lat="49.44423" lon="2.05169">
        <ele>73.930221557617</ele>
        <time>2017-05-21T09:47:11.000Z</time>
      </trkpt>
      <trkpt lat="49.44435" lon="2.05162">
        <ele>73.972724914551</ele>
        <time>2017-05-21T09:47:14.000Z</time>
      </trkpt>
      <trkpt lat="49.44442" lon="2.05186">
        <ele>73.869293212891</ele>
        <time>2017-05-21T09:47:17.000Z</time>
      </trkpt>
      <trkpt lat="49.44448" lon="2.05203">
        <ele>73.669616699219</ele>
        <time>2017-05-21T09:47:19.000Z</time>
      </trkpt>
      <trkpt lat="49.44455" lon="2.05219">
        <ele>73.396743774414</ele>
        <time>2017-05-21T09:47:21.000Z</time>
      </trkpt>
      <trkpt lat="49.44469" lon="2.05233">
        <ele>72.991760253906</ele>
        <time>2017-05-21T09:47:24.000Z</time>
      </trkpt>
      <trkpt lat="49.44485" lon="2.05224">
        <ele>72.570930480957</ele>
        <time>2017-05-21T09:47:27.000Z</time>
      </trkpt>
      <trkpt lat="49.44495" lon="2.05215">
        <ele>72.33837890625</ele>
        <time>2017-05-21T09:47:29.000Z</time>
      </trkpt>
      <trkpt lat="49.44505" lon="2.05207">
        <ele>72.249984741211</ele>
        <time>2017-05-21T09:47:31.000Z</time>
      </trkpt>
      <trkpt lat="49.44521" lon="2.0519">
        <ele>72.371002197266</ele>
        <time>2017-05-21T09:47:34.000Z</time>
      </trkpt>
      <trkpt lat="49.44538" lon="2.05178">
        <ele>72.69384765625</ele>
        <time>2017-05-21T09:47:37.000Z</time>
      </trkpt>
      <trkpt lat="49.44553" lon="2.05167">
        <ele>73.084129333496</ele>
        <time>2017-05-21T09:47:40.000Z</time>
      </trkpt>
      <trkpt lat="49.44562" lon="2.0516">
        <ele>73.458633422852</ele>
        <time>2017-05-21T09:47:42.000Z</time>
      </trkpt>
      <trkpt lat="49.44571" lon="2.05154">
        <ele>73.816123962402</ele>
        <time>2017-05-21T09:47:45.000Z</time>
      </trkpt>
      <trkpt lat="49.44571" lon="2.05175">
        <ele>73.922470092773</ele>
        <time>2017-05-21T09:47:48.000Z</time>
      </trkpt>
      <trkpt lat="49.44572" lon="2.05191">
        <ele>73.791038513184</ele>
        <time>2017-05-21T09:47:50.000Z</time>
      </trkpt>
      <trkpt lat="49.44574" lon="2.05214">
        <ele>73.347930908203</ele>
        <time>2017-05-21T09:47:53.000Z</time>
      </trkpt>
      <trkpt lat="49.44572" lon="2.05226">
        <ele>72.759651184082</ele>
        <time>2017-05-21T09:47:55.000Z</time>
      </trkpt>
      <trkpt lat="49.44575" lon="2.05245">
        <ele>71.97038269043</ele>
        <time>2017-05-21T09:47:57.000Z</time>
      </trkpt>
      <trkpt lat="49.4458" lon="2.05271">
        <ele>71.154228210449</ele>
        <time>2017-05-21T09:48:00.000Z</time>
      </trkpt>
      <trkpt lat="49.44588" lon="2.05299">
        <ele>70.329177856445</ele>
        <time>2017-05-21T09:48:03.000Z</time>
      </trkpt>
      <trkpt lat="49.44592" lon="2.05319">
        <ele>69.611953735352</ele>
        <time>2017-05-21T09:48:05.000Z</time>
      </trkpt>
      <trkpt lat="49.44592" lon="2.05352">
        <ele>68.845458984375</ele>
        <time>2017-05-21T09:48:08.000Z</time>
      </trkpt>
      <trkpt lat="49.44592" lon="2.05385">
        <ele>68.110488891602</ele>
        <time>2017-05-21T09:48:11.000Z</time>
      </trkpt>
      <trkpt lat="49.44595" lon="2.054">
        <ele>67.474548339844</ele>
        <time>2017-05-21T09:48:13.000Z</time>
      </trkpt>
      <trkpt lat="49.44606" lon="2.05403">
        <ele>66.969581604004</ele>
        <time>2017-05-21T09:48:16.000Z</time>
      </trkpt>
      <trkpt lat="49.44615" lon="2.05409">
        <ele>66.553482055664</ele>
        <time>2017-05-21T09:48:18.000Z</time>
      </trkpt>
      <trkpt lat="49.44624" lon="2.05419">
        <ele>66.283157348633</ele>
        <time>2017-05-21T09:48:20.000Z</time>
      </trkpt>
      <trkpt lat="49.44634" lon="2.05433">
        <ele>66.227409362793</ele>
        <time>2017-05-21T09:48:23.000Z</time>
      </trkpt>
      <trkpt lat="49.44644" lon="2.05442">
        <ele>66.280899047852</ele>
        <time>2017-05-21T09:48:25.000Z</time>
      </trkpt>
      <trkpt lat="49.44653" lon="2.0545">
        <ele>66.396125793457</ele>
        <time>2017-05-21T09:48:28.000Z</time>
      </trkpt>
      <trkpt lat="49.44664" lon="2.05456">
        <ele>66.562194824219</ele>
        <time>2017-05-21T09:48:30.000Z</time>
      </trkpt>
      <trkpt lat="49.44677" lon="2.05464">
        <ele>66.765174865723</ele>
        <time>2017-05-21T09:48:33.000Z</time>
      </trkpt>
      <trkpt lat="49.44686" lon="2.05474">
        <ele>66.929679870605</ele>
        <time>2017-05-21T09:48:35.000Z</time>
      </trkpt>
      <trkpt lat="49.44704" lon="2.05491">
        <ele>67.084045410156</ele>
        <time>2017-05-21T09:48:38.000Z</time>
      </trkpt>
      <trkpt lat="49.44714" lon="2.0549">
        <ele>67.174087524414</ele>
        <time>2017-05-21T09:48:40.000Z</time>
      </trkpt>
      <trkpt lat="49.44723" lon="2.05475">
        <ele>67.171737670898</ele>
        <time>2017-05-21T09:48:43.000Z</time>
      </trkpt>
      <trkpt lat="49.44733" lon="2.05462">
        <ele>67.091415405273</ele>
        <time>2017-05-21T09:48:46.000Z</time>
      </trkpt>
      <trkpt lat="49.44742" lon="2.05454">
        <ele>66.945983886719</ele>
        <time>2017-05-21T09:48:48.000Z</time>
      </trkpt>
      <trkpt lat="49.44755" lon="2.05444">
        <ele>66.739120483398</ele>
        <time>2017-05-21T09:48:51.000Z</time>
      </trkpt>
      <trkpt lat="49.4477" lon="2.05436">
        <ele>66.559356689453</ele>
        <time>2017-05-21T09:48:54.000Z</time>
      </trkpt>
      <trkpt lat="49.44785" lon="2.0543">
        <ele>66.462242126465</ele>
        <time>2017-05-21T09:48:57.000Z</time>
      </trkpt>
      <trkpt lat="49.44802" lon="2.05425">
        <ele>66.45002746582</ele>
        <time>2017-05-21T09:49:00.000Z</time>
      </trkpt>
      <trkpt lat="49.44812" lon="2.05422">
        <ele>66.494422912598</ele>
        <time>2017-05-21T09:49:02.000Z</time>
      </trkpt>
      <trkpt lat="49.44829" lon="2.05419">
        <ele>66.608711242676</ele>
        <time>2017-05-21T09:49:05.000Z</time>
      </trkpt>
      <trkpt lat="49.4484" lon="2.05417">
        <ele>66.752105712891</ele>
        <time>2017-05-21T09:49:07.000Z</time>
      </trkpt>
      <trkpt lat="49.44851" lon="2.05414">
        <ele>66.910751342773</ele>
        <time>2017-05-21T09:49:09.000Z</time>
      </trkpt>
      <trkpt lat="49.44869" lon="2.05411">
        <ele>67.084884643555</ele>
        <time>2017-05-21T09:49:12.000Z</time>
      </trkpt>
      <trkpt lat="49.44886" lon="2.05406">
        <ele>67.277336120605</ele>
        <time>2017-05-21T09:49:15.000Z</time>
      </trkpt>
      <trkpt lat="49.44903" lon="2.05402">
        <ele>67.466247558594</ele>
        <time>2017-05-21T09:49:18.000Z</time>
      </trkpt>
      <trkpt lat="49.44915" lon="2.054">
        <ele>67.647560119629</ele>
        <time>2017-05-21T09:49:20.000Z</time>
      </trkpt>
      <trkpt lat="49.44932" lon="2.05398">
        <ele>67.779037475586</ele>
        <time>2017-05-21T09:49:23.000Z</time>
      </trkpt>
      <trkpt lat="49.44948" lon="2.05393">
        <ele>67.852554321289</ele>
        <time>2017-05-21T09:49:26.000Z</time>
      </trkpt>
      <trkpt lat="49.44958" lon="2.05384">
        <ele>67.894180297852</ele>
        <time>2017-05-21T09:49:28.000Z</time>
      </trkpt>
      <trkpt lat="49.44966" lon="2.05379">
        <ele>67.910308837891</ele>
        <time>2017-05-21T09:49:30.000Z</time>
      </trkpt>
      <trkpt lat="49.44969" lon="2.05372">
        <ele>67.922203063965</ele>
        <time>2017-05-21T09:49:32.000Z</time>
      </trkpt>
      <trkpt lat="49.4497" lon="2.0536">
        <ele>67.989974975586</ele>
        <time>2017-05-21T09:49:35.000Z</time>
      </trkpt>
      <trkpt lat="49.44971" lon="2.05352">
        <ele>68.095115661621</ele>
        <time>2017-05-21T09:49:37.000Z</time>
      </trkpt>
      <trkpt lat="49.44981" lon="2.05343">
        <ele>68.237998962402</ele>
        <time>2017-05-21T09:49:40.000Z</time>
      </trkpt>
      <trkpt lat="49.44991" lon="2.05339">
        <ele>68.401931762695</ele>
        <time>2017-05-21T09:49:42.000Z</time>
      </trkpt>
      <trkpt lat="49.45006" lon="2.05339">
        <ele>68.568824768066</ele>
        <time>2017-05-21T09:49:45.000Z</time>
      </trkpt>
      <trkpt lat="49.45021" lon="2.05342">
        <ele>68.684753417969</ele>
        <time>2017-05-21T09:49:48.000Z</time>
      </trkpt>
      <trkpt lat="49.45036" lon="2.05352">
        <ele>68.742767333984</ele>
        <time>2017-05-21T09:49:51.000Z</time>
      </trkpt>
      <trkpt lat="49.45047" lon="2.05361">
        <ele>68.727378845215</ele>
        <time>2017-05-21T09:49:53.000Z</time>
      </trkpt>
      <trkpt lat="49.4506" lon="2.0538">
        <ele>68.632064819336</ele>
        <time>2017-05-21T09:49:56.000Z</time>
      </trkpt>
      <trkpt lat="49.45069" lon="2.05391">
        <ele>68.492958068848</ele>
        <time>2017-05-21T09:49:58.000Z</time>
      </trkpt>
      <trkpt lat="49.45078" lon="2.05402">
        <ele>68.352920532227</ele>
        <time>2017-05-21T09:50:00.000Z</time>
      </trkpt>
      <trkpt lat="49.4509" lon="2.05414">
        <ele>68.214645385742</ele>
        <time>2017-05-21T09:50:03.000Z</time>
      </trkpt>
      <trkpt lat="49.451" lon="2.05418">
        <ele>68.065246582031</ele>
        <time>2017-05-21T09:50:05.000Z</time>
      </trkpt>
      <trkpt lat="49.45114" lon="2.05422">
        <ele>67.912292480469</ele>
        <time>2017-05-21T09:50:09.000Z</time>
      </trkpt>
      <trkpt lat="49.45124" lon="2.05424">
        <ele>67.75373840332</ele>
        <time>2017-05-21T09:50:10.000Z</time>
      </trkpt>
      <trkpt lat="49.45137" lon="2.05424">
        <ele>67.578353881836</ele>
        <time>2017-05-21T09:50:13.000Z</time>
      </trkpt>
      <trkpt lat="49.45147" lon="2.05423">
        <ele>67.415603637695</ele>
        <time>2017-05-21T09:50:15.000Z</time>
      </trkpt>
      <trkpt lat="49.45156" lon="2.05423">
        <ele>67.269950866699</ele>
        <time>2017-05-21T09:50:17.000Z</time>
      </trkpt>
      <trkpt lat="49.45166" lon="2.05422">
        <ele>67.153480529785</ele>
        <time>2017-05-21T09:50:19.000Z</time>
      </trkpt>
      <trkpt lat="49.45173" lon="2.0542">
        <ele>67.082679748535</ele>
        <time>2017-05-21T09:50:21.000Z</time>
      </trkpt>
      <trkpt lat="49.45186" lon="2.05421">
        <ele>67.066955566406</ele>
        <time>2017-05-21T09:50:24.000Z</time>
      </trkpt>
      <trkpt lat="49.45199" lon="2.05428">
        <ele>67.07869720459</ele>
        <time>2017-05-21T09:50:27.000Z</time>
      </trkpt>
      <trkpt lat="49.45205" lon="2.05434">
        <ele>67.09992980957</ele>
        <time>2017-05-21T09:50:29.000Z</time>
      </trkpt>
      <trkpt lat="49.45215" lon="2.05444">
        <ele>67.124359130859</ele>
        <time>2017-05-21T09:50:32.000Z</time>
      </trkpt>
      <trkpt lat="49.45224" lon="2.05452">
        <ele>67.111961364746</ele>
        <time>2017-05-21T09:50:35.000Z</time>
      </trkpt>
      <trkpt lat="49.45232" lon="2.05459">
        <ele>67.05451965332</ele>
        <time>2017-05-21T09:50:38.000Z</time>
      </trkpt>
      <trkpt lat="49.45236" lon="2.05463">
        <ele>66.976387023926</ele>
        <time>2017-05-21T09:50:40.000Z</time>
      </trkpt>
      <trkpt lat="49.45242" lon="2.05469">
        <ele>66.887840270996</ele>
        <time>2017-05-21T09:50:43.000Z</time>
      </trkpt>
      <trkpt lat="49.45248" lon="2.05474">
        <ele>66.799156188965</ele>
        <time>2017-05-21T09:50:46.000Z</time>
      </trkpt>
      <trkpt lat="49.45253" lon="2.05478">
        <ele>66.712303161621</ele>
        <time>2017-05-21T09:50:49.000Z</time>
      </trkpt>
      <trkpt lat="49.45259" lon="2.05482">
        <ele>66.622299194336</ele>
        <time>2017-05-21T09:50:52.000Z</time>
      </trkpt>
      <trkpt lat="49.45263" lon="2.05484">
        <ele>66.535614013672</ele>
        <time>2017-05-21T09:50:54.000Z</time>
      </trkpt>
      <trkpt lat="49.45269" lon="2.05485">
        <ele>66.463729858398</ele>
        <time>2017-05-21T09:50:56.000Z</time>
      </trkpt>
      <trkpt lat="49.45279" lon="2.05483">
        <ele>66.419372558594</ele>
        <time>2017-05-21T09:50:59.000Z</time>
      </trkpt>
      <trkpt lat="49.45286" lon="2.05482">
        <ele>66.399353027344</ele>
        <time>2017-05-21T09:51:01.000Z</time>
      </trkpt>
      <trkpt lat="49.45292" lon="2.05481">
        <ele>66.404846191406</ele>
        <time>2017-05-21T09:51:03.000Z</time>
      </trkpt>
      <trkpt lat="49.45303" lon="2.05478">
        <ele>66.433349609375</ele>
        <time>2017-05-21T09:51:06.000Z</time>
      </trkpt>
      <trkpt lat="49.45308" lon="2.05473">
        <ele>66.492919921875</ele>
        <time>2017-05-21T09:51:08.000Z</time>
      </trkpt>
      <trkpt lat="49.45309" lon="2.05469">
        <ele>66.562866210938</ele>
        <time>2017-05-21T09:51:11.000Z</time>
      </trkpt>
      <trkpt lat="49.45308" lon="2.0547">
        <ele>66.620910644531</ele>
        <time>2017-05-21T09:51:13.000Z</time>
      </trkpt>
      <trkpt lat="49.45308" lon="2.05471">
        <ele>66.669311523438</ele>
        <time>2017-05-21T09:51:22.000Z</time>
      </trkpt>
      <trkpt lat="49.4531" lon="2.05472">
        <ele>66.699401855469</ele>
        <time>2017-05-21T09:51:26.000Z</time>
      </trkpt>
      <trkpt lat="49.45311" lon="2.05473">
        <ele>66.700744628906</ele>
        <time>2017-05-21T09:51:28.000Z</time>
      </trkpt>
      <trkpt lat="49.45311" lon="2.05475">
        <ele>66.669982910156</ele>
        <time>2017-05-21T09:51:33.000Z</time>
      </trkpt>
      <trkpt lat="49.4531" lon="2.05478">
        <ele>66.627502441406</ele>
        <time>2017-05-21T09:51:43.000Z</time>
      </trkpt>
      <trkpt lat="49.45311" lon="2.05478">
        <ele>66.596801757812</ele>
        <time>2017-05-21T09:51:46.000Z</time>
      </trkpt>
      <trkpt lat="49.45316" lon="2.05477">
        <ele>66.572509765625</ele>
        <time>2017-05-21T09:51:49.000Z</time>
      </trkpt>
      <trkpt lat="49.45325" lon="2.05482">
        <ele>66.529113769531</ele>
        <time>2017-05-21T09:51:52.000Z</time>
      </trkpt>
      <trkpt lat="49.45333" lon="2.05483">
        <ele>66.492835998535</ele>
        <time>2017-05-21T09:51:54.000Z</time>
      </trkpt>
      <trkpt lat="49.45348" lon="2.05483">
        <ele>66.476516723633</ele>
        <time>2017-05-21T09:51:57.000Z</time>
      </trkpt>
      <trkpt lat="49.45358" lon="2.05483">
        <ele>66.463768005371</ele>
        <time>2017-05-21T09:51:59.000Z</time>
      </trkpt>
      <trkpt lat="49.45368" lon="2.05483">
        <ele>66.45393371582</ele>
        <time>2017-05-21T09:52:01.000Z</time>
      </trkpt>
      <trkpt lat="49.45384" lon="2.05481">
        <ele>66.486747741699</ele>
        <time>2017-05-21T09:52:04.000Z</time>
      </trkpt>
      <trkpt lat="49.45395" lon="2.0548">
        <ele>66.536094665527</ele>
        <time>2017-05-21T09:52:06.000Z</time>
      </trkpt>
      <trkpt lat="49.45413" lon="2.05478">
        <ele>66.602684020996</ele>
        <time>2017-05-21T09:52:09.000Z</time>
      </trkpt>
      <trkpt lat="49.45431" lon="2.05472">
        <ele>66.695518493652</ele>
        <time>2017-05-21T09:52:12.000Z</time>
      </trkpt>
      <trkpt lat="49.45445" lon="2.05458">
        <ele>66.865440368652</ele>
        <time>2017-05-21T09:52:15.000Z</time>
      </trkpt>
      <trkpt lat="49.45451" lon="2.05443">
        <ele>67.098785400391</ele>
        <time>2017-05-21T09:52:17.000Z</time>
      </trkpt>
      <trkpt lat="49.4546" lon="2.0542">
        <ele>67.440994262695</ele>
        <time>2017-05-21T09:52:20.000Z</time>
      </trkpt>
      <trkpt lat="49.45466" lon="2.05406">
        <ele>67.852554321289</ele>
        <time>2017-05-21T09:52:22.000Z</time>
      </trkpt>
      <trkpt lat="49.45472" lon="2.05391">
        <ele>68.339332580566</ele>
        <time>2017-05-21T09:52:24.000Z</time>
      </trkpt>
      <trkpt lat="49.45485" lon="2.05371">
        <ele>68.905288696289</ele>
        <time>2017-05-21T09:52:27.000Z</time>
      </trkpt>
      <trkpt lat="49.45498" lon="2.0536">
        <ele>69.490921020508</ele>
        <time>2017-05-21T09:52:30.000Z</time>
      </trkpt>
      <trkpt lat="49.45509" lon="2.05351">
        <ele>69.94499206543</ele>
        <time>2017-05-21T09:52:32.000Z</time>
      </trkpt>
      <trkpt lat="49.45523" lon="2.05341">
        <ele>70.245399475098</ele>
        <time>2017-05-21T09:52:35.000Z</time>
      </trkpt>
      <trkpt lat="49.45533" lon="2.05335">
        <ele>70.370674133301</ele>
        <time>2017-05-21T09:52:37.000Z</time>
      </trkpt>
      <trkpt lat="49.45543" lon="2.05327">
        <ele>70.241416931152</ele>
        <time>2017-05-21T09:52:39.000Z</time>
      </trkpt>
      <trkpt lat="49.45559" lon="2.05316">
        <ele>69.855270385742</ele>
        <time>2017-05-21T09:52:42.000Z</time>
      </trkpt>
      <trkpt lat="49.45576" lon="2.05307">
        <ele>69.330947875977</ele>
        <time>2017-05-21T09:52:45.000Z</time>
      </trkpt>
      <trkpt lat="49.45588" lon="2.05305">
        <ele>68.806625366211</ele>
        <time>2017-05-21T09:52:47.000Z</time>
      </trkpt>
      <trkpt lat="49.45605" lon="2.05303">
        <ele>68.386871337891</ele>
        <time>2017-05-21T09:52:50.000Z</time>
      </trkpt>
      <trkpt lat="49.45621" lon="2.05302">
        <ele>68.088302612305</ele>
        <time>2017-05-21T09:52:53.000Z</time>
      </trkpt>
      <trkpt lat="49.45631" lon="2.05304">
        <ele>67.951805114746</ele>
        <time>2017-05-21T09:52:55.000Z</time>
      </trkpt>
      <trkpt lat="49.45646" lon="2.05312">
        <ele>67.960205078125</ele>
        <time>2017-05-21T09:52:58.000Z</time>
      </trkpt>
      <trkpt lat="49.45655" lon="2.05321">
        <ele>68.025108337402</ele>
        <time>2017-05-21T09:53:00.000Z</time>
      </trkpt>
      <trkpt lat="49.45666" lon="2.05338">
        <ele>68.020393371582</ele>
        <time>2017-05-21T09:53:03.000Z</time>
      </trkpt>
      <trkpt lat="49.45672" lon="2.05353">
        <ele>67.93204498291</ele>
        <time>2017-05-21T09:53:05.000Z</time>
      </trkpt>
      <trkpt lat="49.45678" lon="2.05368">
        <ele>67.783828735352</ele>
        <time>2017-05-21T09:53:07.000Z</time>
      </trkpt>
      <trkpt lat="49.45685" lon="2.0539">
        <ele>67.572563171387</ele>
        <time>2017-05-21T09:53:10.000Z</time>
      </trkpt>
      <trkpt lat="49.45689" lon="2.05406">
        <ele>67.318923950195</ele>
        <time>2017-05-21T09:53:12.000Z</time>
      </trkpt>
      <trkpt lat="49.45694" lon="2.05431">
        <ele>67.098976135254</ele>
        <time>2017-05-21T09:53:15.000Z</time>
      </trkpt>
      <trkpt lat="49.45697" lon="2.05449">
        <ele>66.972785949707</ele>
        <time>2017-05-21T09:53:17.000Z</time>
      </trkpt>
      <trkpt lat="49.45701" lon="2.05475">
        <ele>66.949180603027</ele>
        <time>2017-05-21T09:53:20.000Z</time>
      </trkpt>
      <trkpt lat="49.45702" lon="2.05491">
        <ele>67.02001953125</ele>
        <time>2017-05-21T09:53:22.000Z</time>
      </trkpt>
      <trkpt lat="49.45703" lon="2.05509">
        <ele>67.161743164062</ele>
        <time>2017-05-21T09:53:24.000Z</time>
      </trkpt>
      <trkpt lat="49.45703" lon="2.05526">
        <ele>67.311294555664</ele>
        <time>2017-05-21T09:53:26.000Z</time>
      </trkpt>
      <trkpt lat="49.457" lon="2.05551">
        <ele>67.420761108398</ele>
        <time>2017-05-21T09:53:29.000Z</time>
      </trkpt>
      <trkpt lat="49.45697" lon="2.05576">
        <ele>67.461303710938</ele>
        <time>2017-05-21T09:53:32.000Z</time>
      </trkpt>
      <trkpt lat="49.45691" lon="2.05601">
        <ele>67.438056945801</ele>
        <time>2017-05-21T09:53:35.000Z</time>
      </trkpt>
      <trkpt lat="49.45688" lon="2.05616">
        <ele>67.369552612305</ele>
        <time>2017-05-21T09:53:37.000Z</time>
      </trkpt>
      <trkpt lat="49.45686" lon="2.05632">
        <ele>67.273345947266</ele>
        <time>2017-05-21T09:53:39.000Z</time>
      </trkpt>
      <trkpt lat="49.4568" lon="2.05656">
        <ele>67.129364013672</ele>
        <time>2017-05-21T09:53:42.000Z</time>
      </trkpt>
      <trkpt lat="49.45676" lon="2.05671">
        <ele>66.961791992188</ele>
        <time>2017-05-21T09:53:44.000Z</time>
      </trkpt>
      <trkpt lat="49.45674" lon="2.05696">
        <ele>66.816818237305</ele>
        <time>2017-05-21T09:53:47.000Z</time>
      </trkpt>
      <trkpt lat="49.45675" lon="2.05714">
        <ele>66.719161987305</ele>
        <time>2017-05-21T09:53:49.000Z</time>
      </trkpt>
      <trkpt lat="49.4568" lon="2.05738">
        <ele>66.751541137695</ele>
        <time>2017-05-21T09:53:52.000Z</time>
      </trkpt>
      <trkpt lat="49.45685" lon="2.05753">
        <ele>66.936698913574</ele>
        <time>2017-05-21T09:53:54.000Z</time>
      </trkpt>
      <trkpt lat="49.45693" lon="2.05775">
        <ele>67.292175292969</ele>
        <time>2017-05-21T09:53:57.000Z</time>
      </trkpt>
      <trkpt lat="49.457" lon="2.05798">
        <ele>67.74095916748</ele>
        <time>2017-05-21T09:54:00.000Z</time>
      </trkpt>
      <trkpt lat="49.45704" lon="2.05815">
        <ele>68.194847106934</ele>
        <time>2017-05-21T09:54:02.000Z</time>
      </trkpt>
      <trkpt lat="49.45712" lon="2.05841">
        <ele>68.587631225586</ele>
        <time>2017-05-21T09:54:05.000Z</time>
      </trkpt>
      <trkpt lat="49.45716" lon="2.05857">
        <ele>68.881988525391</ele>
        <time>2017-05-21T09:54:07.000Z</time>
      </trkpt>
      <trkpt lat="49.45717" lon="2.05882">
        <ele>68.991790771484</ele>
        <time>2017-05-21T09:54:10.000Z</time>
      </trkpt>
      <trkpt lat="49.45713" lon="2.05906">
        <ele>68.911582946777</ele>
        <time>2017-05-21T09:54:13.000Z</time>
      </trkpt>
      <trkpt lat="49.45706" lon="2.05925">
        <ele>68.755020141602</ele>
        <time>2017-05-21T09:54:16.000Z</time>
      </trkpt>
      <trkpt lat="49.45698" lon="2.05936">
        <ele>68.546257019043</ele>
        <time>2017-05-21T09:54:19.000Z</time>
      </trkpt>
      <trkpt lat="49.45689" lon="2.05948">
        <ele>68.328437805176</ele>
        <time>2017-05-21T09:54:22.000Z</time>
      </trkpt>
      <trkpt lat="49.45682" lon="2.05954">
        <ele>68.141242980957</ele>
        <time>2017-05-21T09:54:24.000Z</time>
      </trkpt>
      <trkpt lat="49.45668" lon="2.05959">
        <ele>67.98698425293</ele>
        <time>2017-05-21T09:54:27.000Z</time>
      </trkpt>
      <trkpt lat="49.45654" lon="2.05959">
        <ele>67.853523254395</ele>
        <time>2017-05-21T09:54:30.000Z</time>
      </trkpt>
      <trkpt lat="49.4564" lon="2.05963">
        <ele>67.717781066895</ele>
        <time>2017-05-21T09:54:33.000Z</time>
      </trkpt>
      <trkpt lat="49.45627" lon="2.05967">
        <ele>67.579330444336</ele>
        <time>2017-05-21T09:54:36.000Z</time>
      </trkpt>
      <trkpt lat="49.45617" lon="2.05969">
        <ele>67.455497741699</ele>
        <time>2017-05-21T09:54:38.000Z</time>
      </trkpt>
      <trkpt lat="49.45608" lon="2.05973">
        <ele>67.397994995117</ele>
        <time>2017-05-21T09:54:40.000Z</time>
      </trkpt>
      <trkpt lat="49.45596" lon="2.05985">
        <ele>67.352767944336</ele>
        <time>2017-05-21T09:54:43.000Z</time>
      </trkpt>
      <trkpt lat="49.45588" lon="2.06005">
        <ele>67.29434967041</ele>
        <time>2017-05-21T09:54:46.000Z</time>
      </trkpt>
      <trkpt lat="49.45582" lon="2.06018">
        <ele>67.253372192383</ele>
        <time>2017-05-21T09:54:48.000Z</time>
      </trkpt>
      <trkpt lat="49.45576" lon="2.06027">
        <ele>67.239601135254</ele>
        <time>2017-05-21T09:54:50.000Z</time>
      </trkpt>
      <trkpt lat="49.45577" lon="2.06041">
        <ele>67.270751953125</ele>
        <time>2017-05-21T09:54:53.000Z</time>
      </trkpt>
      <trkpt lat="49.45581" lon="2.06059">
        <ele>67.361892700195</ele>
        <time>2017-05-21T09:54:56.000Z</time>
      </trkpt>
      <trkpt lat="49.45586" lon="2.06072">
        <ele>67.509292602539</ele>
        <time>2017-05-21T09:54:58.000Z</time>
      </trkpt>
      <trkpt lat="49.45589" lon="2.06084">
        <ele>67.688720703125</ele>
        <time>2017-05-21T09:55:00.000Z</time>
      </trkpt>
      <trkpt lat="49.45592" lon="2.06102">
        <ele>68.023971557617</ele>
        <time>2017-05-21T09:55:03.000Z</time>
      </trkpt>
      <trkpt lat="49.45593" lon="2.06114">
        <ele>68.444931030273</ele>
        <time>2017-05-21T09:55:05.000Z</time>
      </trkpt>
      <trkpt lat="49.45594" lon="2.06133">
        <ele>68.997894287109</ele>
        <time>2017-05-21T09:55:08.000Z</time>
      </trkpt>
      <trkpt lat="49.45595" lon="2.06151">
        <ele>69.676048278809</ele>
        <time>2017-05-21T09:55:11.000Z</time>
      </trkpt>
      <trkpt lat="49.45597" lon="2.06169">
        <ele>70.469444274902</ele>
        <time>2017-05-21T09:55:14.000Z</time>
      </trkpt>
      <trkpt lat="49.45598" lon="2.0618">
        <ele>71.169204711914</ele>
        <time>2017-05-21T09:55:16.000Z</time>
      </trkpt>
      <trkpt lat="49.45599" lon="2.06189">
        <ele>71.814437866211</ele>
        <time>2017-05-21T09:55:18.000Z</time>
      </trkpt>
      <trkpt lat="49.45602" lon="2.06198">
        <ele>72.347183227539</ele>
        <time>2017-05-21T09:55:21.000Z</time>
      </trkpt>
      <trkpt lat="49.45604" lon="2.06205">
        <ele>72.769592285156</ele>
        <time>2017-05-21T09:55:24.000Z</time>
      </trkpt>
      <trkpt lat="49.45605" lon="2.06212">
        <ele>73.077941894531</ele>
        <time>2017-05-21T09:55:26.000Z</time>
      </trkpt>
      <trkpt lat="49.45604" lon="2.06221">
        <ele>73.374572753906</ele>
        <time>2017-05-21T09:55:29.000Z</time>
      </trkpt>
      <trkpt lat="49.45602" lon="2.06229">
        <ele>73.664978027344</ele>
        <time>2017-05-21T09:55:32.000Z</time>
      </trkpt>
      <trkpt lat="49.456" lon="2.06231">
        <ele>73.902923583984</ele>
        <time>2017-05-21T09:55:35.000Z</time>
      </trkpt>
      <trkpt lat="49.45598" lon="2.06235">
        <ele>74.113220214844</ele>
        <time>2017-05-21T09:55:38.000Z</time>
      </trkpt>
      <trkpt lat="49.45596" lon="2.06237">
        <ele>74.294769287109</ele>
        <time>2017-05-21T09:55:40.000Z</time>
      </trkpt>
      <trkpt lat="49.45594" lon="2.0624">
        <ele>74.430084228516</ele>
        <time>2017-05-21T09:55:43.000Z</time>
      </trkpt>
      <trkpt lat="49.45592" lon="2.06244">
        <ele>74.539306640625</ele>
        <time>2017-05-21T09:55:46.000Z</time>
      </trkpt>
      <trkpt lat="49.45591" lon="2.06248">
        <ele>74.663543701172</ele>
        <time>2017-05-21T09:55:48.000Z</time>
      </trkpt>
      <trkpt lat="49.45591" lon="2.06251">
        <ele>74.804473876953</ele>
        <time>2017-05-21T09:55:50.000Z</time>
      </trkpt>
      <trkpt lat="49.45591" lon="2.06255">
        <ele>75.01106262207</ele>
        <time>2017-05-21T09:55:52.000Z</time>
      </trkpt>
      <trkpt lat="49.45591" lon="2.06259">
        <ele>75.283218383789</ele>
        <time>2017-05-21T09:55:54.000Z</time>
      </trkpt>
      <trkpt lat="49.4559" lon="2.06263">
        <ele>75.625556945801</ele>
        <time>2017-05-21T09:55:57.000Z</time>
      </trkpt>
      <trkpt lat="49.45586" lon="2.06265">
        <ele>75.984596252441</ele>
        <time>2017-05-21T09:56:00.000Z</time>
      </trkpt>
      <trkpt lat="49.45583" lon="2.06265">
        <ele>76.311737060547</ele>
        <time>2017-05-21T09:56:02.000Z</time>
      </trkpt>
      <trkpt lat="49.4558" lon="2.06266">
        <ele>76.594497680664</ele>
        <time>2017-05-21T09:56:05.000Z</time>
      </trkpt>
      <trkpt lat="49.45576" lon="2.06266">
        <ele>76.81575012207</ele>
        <time>2017-05-21T09:56:08.000Z</time>
      </trkpt>
      <trkpt lat="49.45575" lon="2.06266">
        <ele>76.935287475586</ele>
        <time>2017-05-21T09:56:11.000Z</time>
      </trkpt>
      <trkpt lat="49.45575" lon="2.06266">
        <ele>76.935287475586</ele>
        <time>2017-05-21T09:56:31.000Z</time>
      </trkpt>
      <trkpt lat="49.45576" lon="2.06265">
        <ele>76.98038482666</ele>
        <time>2017-05-21T09:56:56.000Z</time>
      </trkpt>
      <trkpt lat="49.45576" lon="2.06263">
        <ele>76.9716796875</ele>
        <time>2017-05-21T09:56:59.000Z</time>
      </trkpt>
      <trkpt lat="49.45575" lon="2.06262">
        <ele>76.898452758789</ele>
        <time>2017-05-21T09:57:02.000Z</time>
      </trkpt>
      <trkpt lat="49.45573" lon="2.06262">
        <ele>76.812423706055</ele>
        <time>2017-05-21T09:57:05.000Z</time>
      </trkpt>
      <trkpt lat="49.45572" lon="2.06262">
        <ele>76.750076293945</ele>
        <time>2017-05-21T09:57:08.000Z</time>
      </trkpt>
      <trkpt lat="49.45572" lon="2.0626">
        <ele>76.662185668945</ele>
        <time>2017-05-21T09:57:12.000Z</time>
      </trkpt>
      <trkpt lat="49.45573" lon="2.06259">
        <ele>76.578750610352</ele>
        <time>2017-05-21T09:57:15.000Z</time>
      </trkpt>
      <trkpt lat="49.45573" lon="2.0626">
        <ele>76.560081481934</ele>
        <time>2017-05-21T09:57:18.000Z</time>
      </trkpt>
      <trkpt lat="49.45573" lon="2.0626">
        <ele>76.560081481934</ele>
        <time>2017-05-21T09:57:25.000Z</time>
      </trkpt>
    </trkseg>
  </trk>
</gpx>